<?xml version='1.0' encoding='UTF-8'?><gpx version="1.1" creator="JPX - https://github.com/jenetics/jpx" xmlns="http://www.topografix.com/GPX/1/1"><trk><trkseg><trkpt lat="43.3755483" lon="11.7878365"><ele>272.0</ele><time>2026-04-04T08:40:33.356Z</time></trkpt><trkpt lat="43.3755775" lon="11.7879224"><ele>272.0</ele><time>2026-04-04T08:40:45.317Z</time></trkpt><trkpt lat="43.37587" lon="11.7878"><ele>272.0</ele><time>2026-04-04T08:40:50.262Z</time></trkpt><trkpt lat="43.37586" lon="11.78771"><ele>272.0</ele><time>2026-04-04T08:40:56.259Z</time></trkpt><trkpt lat="43.37579" lon="11.78774"><ele>272.0</ele><time>2026-04-04T08:41:06.262Z</time></trkpt><trkpt lat="43.3757283" lon="11.7877217"><ele>272.0</ele><time>2026-04-04T08:41:10.261Z</time></trkpt><trkpt lat="43.3756617" lon="11.7877033"><ele>272.0</ele><time>2026-04-04T08:41:55.26Z</time></trkpt><trkpt lat="43.3755883" lon="11.78765"><ele>272.0</ele><time>2026-04-04T08:41:59.26Z</time></trkpt><trkpt lat="43.3755183" lon="11.787585"><ele>272.0</ele><time>2026-04-04T08:42:23.259Z</time></trkpt><trkpt lat="43.3754432" lon="11.7875305"><ele>272.0</ele><time>2026-04-04T08:44:06.367Z</time></trkpt><trkpt lat="43.3754417" lon="11.78736"><ele>272.4285714285714</ele><time>2026-04-04T08:44:08.261Z</time></trkpt><trkpt lat="43.375445" lon="11.7872617"><ele>272.85714285714283</ele><time>2026-04-04T08:44:11.261Z</time></trkpt><trkpt lat="43.3754433" lon="11.787165"><ele>273.2857142857143</ele><time>2026-04-04T08:44:14.261Z</time></trkpt><trkpt lat="43.3754417" lon="11.7870517"><ele>273.71428571428567</ele><time>2026-04-04T08:44:18.267Z</time></trkpt><trkpt lat="43.3754417" lon="11.786965"><ele>274.1428571428571</ele><time>2026-04-04T08:44:21.26Z</time></trkpt><trkpt lat="43.37545" lon="11.7868583"><ele>274.57142857142856</ele><time>2026-04-04T08:44:25.263Z</time></trkpt><trkpt lat="43.3754517" lon="11.78675"><ele>275.0</ele><time>2026-04-04T08:44:29.262Z</time></trkpt><trkpt lat="43.37543" lon="11.7866667"><ele>275.1666666666667</ele><time>2026-04-04T08:44:34.259Z</time></trkpt><trkpt lat="43.375475" lon="11.7865833"><ele>275.33333333333337</ele><time>2026-04-04T08:44:39.263Z</time></trkpt><trkpt lat="43.3755317" lon="11.7865183"><ele>275.5</ele><time>2026-04-04T08:44:43.26Z</time></trkpt><trkpt lat="43.3755917" lon="11.7864567"><ele>275.6666666666667</ele><time>2026-04-04T08:44:47.26Z</time></trkpt><trkpt lat="43.375645" lon="11.7864033"><ele>275.8333333333333</ele><time>2026-04-04T08:44:50.263Z</time></trkpt><trkpt lat="43.37571" lon="11.7863367"><ele>276.0</ele><time>2026-04-04T08:44:54.265Z</time></trkpt><trkpt lat="43.37577" lon="11.7862633"><ele>275.8571428571429</ele><time>2026-04-04T08:44:58.261Z</time></trkpt><trkpt lat="43.37583" lon="11.7862"><ele>275.7142857142857</ele><time>2026-04-04T08:45:02.263Z</time></trkpt><trkpt lat="43.3758933" lon="11.7861283"><ele>275.57142857142856</ele><time>2026-04-04T08:45:06.262Z</time></trkpt><trkpt lat="43.37595" lon="11.7860633"><ele>275.42857142857144</ele><time>2026-04-04T08:45:10.261Z</time></trkpt><trkpt lat="43.3760067" lon="11.7860117"><ele>275.2857142857143</ele><time>2026-04-04T08:45:14.261Z</time></trkpt><trkpt lat="43.3760767" lon="11.7859967"><ele>275.14285714285717</ele><time>2026-04-04T08:45:19.261Z</time></trkpt><trkpt lat="43.3761433" lon="11.7860183"><ele>275.0</ele><time>2026-04-04T08:45:23.262Z</time></trkpt><trkpt lat="43.3761817" lon="11.7861083"><ele>275.0</ele><time>2026-04-04T08:45:35.261Z</time></trkpt><trkpt lat="43.3762233" lon="11.7861867"><ele>275.0</ele><time>2026-04-04T08:45:38.263Z</time></trkpt><trkpt lat="43.3762817" lon="11.78626"><ele>275.0</ele><time>2026-04-04T08:45:41.26Z</time></trkpt><trkpt lat="43.3763467" lon="11.786345"><ele>275.0</ele><time>2026-04-04T08:45:44.264Z</time></trkpt><trkpt lat="43.3764083" lon="11.786415"><ele>275.0</ele><time>2026-04-04T08:45:47.26Z</time></trkpt><trkpt lat="43.37646" lon="11.7864967"><ele>275.0</ele><time>2026-04-04T08:45:50.261Z</time></trkpt><trkpt lat="43.376515" lon="11.7865783"><ele>275.0</ele><time>2026-04-04T08:45:53.262Z</time></trkpt><trkpt lat="43.3765767" lon="11.786675"><ele>275.0</ele><time>2026-04-04T08:45:56.261Z</time></trkpt><trkpt lat="43.37662" lon="11.7867417"><ele>275.0</ele><time>2026-04-04T08:45:58.269Z</time></trkpt><trkpt lat="43.3766617" lon="11.7868083"><ele>275.0</ele><time>2026-04-04T08:46:00.261Z</time></trkpt><trkpt lat="43.376705" lon="11.7868783"><ele>275.0</ele><time>2026-04-04T08:46:02.262Z</time></trkpt><trkpt lat="43.3767533" lon="11.7869517"><ele>275.0</ele><time>2026-04-04T08:46:04.261Z</time></trkpt><trkpt lat="43.3768" lon="11.7870267"><ele>275.0</ele><time>2026-04-04T08:46:06.262Z</time></trkpt><trkpt lat="43.3768433" lon="11.7870967"><ele>274.1666666666667</ele><time>2026-04-04T08:46:08.264Z</time></trkpt><trkpt lat="43.376885" lon="11.7871783"><ele>273.33333333333337</ele><time>2026-04-04T08:46:10.26Z</time></trkpt><trkpt lat="43.3769317" lon="11.787255"><ele>272.5</ele><time>2026-04-04T08:46:12.263Z</time></trkpt><trkpt lat="43.3769783" lon="11.7873333"><ele>271.6666666666667</ele><time>2026-04-04T08:46:14.26Z</time></trkpt><trkpt lat="43.3770283" lon="11.7874067"><ele>270.8333333333333</ele><time>2026-04-04T08:46:16.259Z</time></trkpt><trkpt lat="43.3770833" lon="11.7874767"><ele>270.0</ele><time>2026-04-04T08:46:18.262Z</time></trkpt><trkpt lat="43.37715" lon="11.7875517"><ele>269.8333333333333</ele><time>2026-04-04T08:46:20.261Z</time></trkpt><trkpt lat="43.3772133" lon="11.7876283"><ele>269.6666666666667</ele><time>2026-04-04T08:46:22.262Z</time></trkpt><trkpt lat="43.3772717" lon="11.7877"><ele>269.5</ele><time>2026-04-04T08:46:24.26Z</time></trkpt><trkpt lat="43.3773283" lon="11.7877783"><ele>269.33333333333337</ele><time>2026-04-04T08:46:26.26Z</time></trkpt><trkpt lat="43.3773783" lon="11.7878467"><ele>269.1666666666667</ele><time>2026-04-04T08:46:28.258Z</time></trkpt><trkpt lat="43.3774283" lon="11.7879167"><ele>269.0</ele><time>2026-04-04T08:46:30.261Z</time></trkpt><trkpt lat="43.3774767" lon="11.7879917"><ele>269.0</ele><time>2026-04-04T08:46:32.261Z</time></trkpt><trkpt lat="43.3775217" lon="11.7880617"><ele>269.0</ele><time>2026-04-04T08:46:34.263Z</time></trkpt><trkpt lat="43.3775667" lon="11.7881383"><ele>269.0</ele><time>2026-04-04T08:46:36.261Z</time></trkpt><trkpt lat="43.3776183" lon="11.7882117"><ele>269.0</ele><time>2026-04-04T08:46:38.266Z</time></trkpt><trkpt lat="43.37767" lon="11.788285"><ele>269.0</ele><time>2026-04-04T08:46:40.26Z</time></trkpt><trkpt lat="43.377725" lon="11.7883533"><ele>269.0</ele><time>2026-04-04T08:46:42.264Z</time></trkpt><trkpt lat="43.3777733" lon="11.7884233"><ele>269.0</ele><time>2026-04-04T08:46:44.263Z</time></trkpt><trkpt lat="43.377825" lon="11.788495"><ele>268.83333333333337</ele><time>2026-04-04T08:46:46.26Z</time></trkpt><trkpt lat="43.3778833" lon="11.7885717"><ele>268.6666666666667</ele><time>2026-04-04T08:46:48.261Z</time></trkpt><trkpt lat="43.3779333" lon="11.7886517"><ele>268.5</ele><time>2026-04-04T08:46:50.268Z</time></trkpt><trkpt lat="43.3779867" lon="11.78873"><ele>268.3333333333333</ele><time>2026-04-04T08:46:52.26Z</time></trkpt><trkpt lat="43.3780417" lon="11.7888117"><ele>268.16666666666663</ele><time>2026-04-04T08:46:54.263Z</time></trkpt><trkpt lat="43.3781083" lon="11.7888967"><ele>268.0</ele><time>2026-04-04T08:46:56.263Z</time></trkpt><trkpt lat="43.37817" lon="11.78899"><ele>267.75</ele><time>2026-04-04T08:46:58.261Z</time></trkpt><trkpt lat="43.37824" lon="11.7890933"><ele>267.5</ele><time>2026-04-04T08:47:00.262Z</time></trkpt><trkpt lat="43.3783167" lon="11.7891983"><ele>267.25</ele><time>2026-04-04T08:47:02.263Z</time></trkpt><trkpt lat="43.3783917" lon="11.789325"><ele>267.0</ele><time>2026-04-04T08:47:04.264Z</time></trkpt><trkpt lat="43.3784533" lon="11.7894733"><ele>267.0</ele><time>2026-04-04T08:47:06.263Z</time></trkpt><trkpt lat="43.3785" lon="11.7896267"><ele>267.0</ele><time>2026-04-04T08:47:08.26Z</time></trkpt><trkpt lat="43.3785617" lon="11.7897683"><ele>267.0</ele><time>2026-04-04T08:47:10.262Z</time></trkpt><trkpt lat="43.37861" lon="11.7899183"><ele>267.0</ele><time>2026-04-04T08:47:12.262Z</time></trkpt><trkpt lat="43.37864" lon="11.7899967"><ele>267.0</ele><time>2026-04-04T08:47:13.259Z</time></trkpt><trkpt lat="43.378695" lon="11.7901417"><ele>267.0</ele><time>2026-04-04T08:47:15.259Z</time></trkpt><trkpt lat="43.3787417" lon="11.7902783"><ele>267.0</ele><time>2026-04-04T08:47:17.259Z</time></trkpt><trkpt lat="43.3787867" lon="11.7904117"><ele>267.0</ele><time>2026-04-04T08:47:19.261Z</time></trkpt><trkpt lat="43.378825" lon="11.790535"><ele>267.0</ele><time>2026-04-04T08:47:21.263Z</time></trkpt><trkpt lat="43.378865" lon="11.790655"><ele>267.0</ele><time>2026-04-04T08:47:23.259Z</time></trkpt><trkpt lat="43.3789017" lon="11.790765"><ele>267.0</ele><time>2026-04-04T08:47:25.26Z</time></trkpt><trkpt lat="43.3789333" lon="11.790875"><ele>267.0</ele><time>2026-04-04T08:47:27.26Z</time></trkpt><trkpt lat="43.378965" lon="11.790985"><ele>267.0</ele><time>2026-04-04T08:47:29.261Z</time></trkpt><trkpt lat="43.3789933" lon="11.7910883"><ele>267.0</ele><time>2026-04-04T08:47:31.261Z</time></trkpt><trkpt lat="43.379025" lon="11.7912033"><ele>267.0</ele><time>2026-04-04T08:47:33.261Z</time></trkpt><trkpt lat="43.3790517" lon="11.7913167"><ele>267.0</ele><time>2026-04-04T08:47:35.262Z</time></trkpt><trkpt lat="43.3790767" lon="11.7914217"><ele>267.0</ele><time>2026-04-04T08:47:37.263Z</time></trkpt><trkpt lat="43.3791067" lon="11.7915317"><ele>267.0</ele><time>2026-04-04T08:47:39.261Z</time></trkpt><trkpt lat="43.379135" lon="11.7916467"><ele>267.0</ele><time>2026-04-04T08:47:41.26Z</time></trkpt><trkpt lat="43.3791717" lon="11.791765"><ele>267.0</ele><time>2026-04-04T08:47:43.266Z</time></trkpt><trkpt lat="43.3792133" lon="11.791885"><ele>267.0</ele><time>2026-04-04T08:47:45.259Z</time></trkpt><trkpt lat="43.3792433" lon="11.7919967"><ele>266.4</ele><time>2026-04-04T08:47:47.262Z</time></trkpt><trkpt lat="43.37927" lon="11.7921167"><ele>265.79999999999995</ele><time>2026-04-04T08:47:49.261Z</time></trkpt><trkpt lat="43.3792883" lon="11.7922467"><ele>265.2</ele><time>2026-04-04T08:47:51.261Z</time></trkpt><trkpt lat="43.3792933" lon="11.7923767"><ele>264.59999999999997</ele><time>2026-04-04T08:47:53.262Z</time></trkpt><trkpt lat="43.3792967" lon="11.7925133"><ele>264.0</ele><time>2026-04-04T08:47:55.263Z</time></trkpt><trkpt lat="43.3792883" lon="11.7926367"><ele>264.3333333333333</ele><time>2026-04-04T08:47:57.265Z</time></trkpt><trkpt lat="43.3792783" lon="11.7927567"><ele>264.6666666666667</ele><time>2026-04-04T08:47:59.263Z</time></trkpt><trkpt lat="43.379265" lon="11.7928717"><ele>265.0</ele><time>2026-04-04T08:48:01.263Z</time></trkpt><trkpt lat="43.3792483" lon="11.792985"><ele>265.33333333333337</ele><time>2026-04-04T08:48:03.26Z</time></trkpt><trkpt lat="43.37923" lon="11.793085"><ele>265.6666666666667</ele><time>2026-04-04T08:48:05.262Z</time></trkpt><trkpt lat="43.3792183" lon="11.7931917"><ele>266.0</ele><time>2026-04-04T08:48:07.262Z</time></trkpt><trkpt lat="43.3792067" lon="11.7932917"><ele>266.0</ele><time>2026-04-04T08:48:09.262Z</time></trkpt><trkpt lat="43.3791917" lon="11.7933933"><ele>266.0</ele><time>2026-04-04T08:48:11.26Z</time></trkpt><trkpt lat="43.379175" lon="11.7934917"><ele>266.0</ele><time>2026-04-04T08:48:13.26Z</time></trkpt><trkpt lat="43.3791633" lon="11.7935883"><ele>266.0</ele><time>2026-04-04T08:48:15.262Z</time></trkpt><trkpt lat="43.3791583" lon="11.7936917"><ele>266.0</ele><time>2026-04-04T08:48:17.261Z</time></trkpt><trkpt lat="43.3791617" lon="11.7938"><ele>266.0</ele><time>2026-04-04T08:48:19.264Z</time></trkpt><trkpt lat="43.3791533" lon="11.7938967"><ele>266.0</ele><time>2026-04-04T08:48:21.263Z</time></trkpt><trkpt lat="43.3791433" lon="11.7939933"><ele>266.1666666666667</ele><time>2026-04-04T08:48:23.262Z</time></trkpt><trkpt lat="43.3791333" lon="11.7940867"><ele>266.33333333333337</ele><time>2026-04-04T08:48:25.263Z</time></trkpt><trkpt lat="43.3791233" lon="11.7941817"><ele>266.5</ele><time>2026-04-04T08:48:27.26Z</time></trkpt><trkpt lat="43.379115" lon="11.7942833"><ele>266.6666666666667</ele><time>2026-04-04T08:48:29.261Z</time></trkpt><trkpt lat="43.379105" lon="11.79439"><ele>266.8333333333333</ele><time>2026-04-04T08:48:31.262Z</time></trkpt><trkpt lat="43.379095" lon="11.7945033"><ele>267.0</ele><time>2026-04-04T08:48:33.26Z</time></trkpt><trkpt lat="43.3790883" lon="11.79463"><ele>267.0</ele><time>2026-04-04T08:48:35.258Z</time></trkpt><trkpt lat="43.3790833" lon="11.7947583"><ele>267.0</ele><time>2026-04-04T08:48:37.262Z</time></trkpt><trkpt lat="43.3790817" lon="11.7948833"><ele>267.0</ele><time>2026-04-04T08:48:39.261Z</time></trkpt><trkpt lat="43.3790767" lon="11.7950067"><ele>267.0</ele><time>2026-04-04T08:48:41.261Z</time></trkpt><trkpt lat="43.3790783" lon="11.7951333"><ele>267.0</ele><time>2026-04-04T08:48:43.264Z</time></trkpt><trkpt lat="43.3790817" lon="11.79527"><ele>266.6</ele><time>2026-04-04T08:48:45.26Z</time></trkpt><trkpt lat="43.3790833" lon="11.7954083"><ele>266.2</ele><time>2026-04-04T08:48:47.262Z</time></trkpt><trkpt lat="43.3790883" lon="11.7955467"><ele>265.8</ele><time>2026-04-04T08:48:49.262Z</time></trkpt><trkpt lat="43.3790933" lon="11.795695"><ele>265.4</ele><time>2026-04-04T08:48:51.26Z</time></trkpt><trkpt lat="43.3791017" lon="11.795855"><ele>265.0</ele><time>2026-04-04T08:48:53.264Z</time></trkpt><trkpt lat="43.379105" lon="11.7959417"><ele>264.0</ele><time>2026-04-04T08:48:54.263Z</time></trkpt><trkpt lat="43.37911" lon="11.7960333"><ele>263.0</ele><time>2026-04-04T08:48:55.259Z</time></trkpt><trkpt lat="43.379115" lon="11.7961317"><ele>262.0</ele><time>2026-04-04T08:48:56.263Z</time></trkpt><trkpt lat="43.3791217" lon="11.7962283"><ele>261.0</ele><time>2026-04-04T08:48:57.262Z</time></trkpt><trkpt lat="43.3791283" lon="11.7963367"><ele>260.0</ele><time>2026-04-04T08:48:58.262Z</time></trkpt><trkpt lat="43.379135" lon="11.79645"><ele>259.0</ele><time>2026-04-04T08:48:59.259Z</time></trkpt><trkpt lat="43.3791417" lon="11.7965683"><ele>259.0</ele><time>2026-04-04T08:49:00.258Z</time></trkpt><trkpt lat="43.3791517" lon="11.7966933"><ele>259.0</ele><time>2026-04-04T08:49:01.262Z</time></trkpt><trkpt lat="43.37916" lon="11.7968267"><ele>259.0</ele><time>2026-04-04T08:49:02.263Z</time></trkpt><trkpt lat="43.379175" lon="11.7969567"><ele>259.0</ele><time>2026-04-04T08:49:03.261Z</time></trkpt><trkpt lat="43.3791983" lon="11.79709"><ele>259.0</ele><time>2026-04-04T08:49:04.26Z</time></trkpt><trkpt lat="43.3792267" lon="11.7972183"><ele>259.16666666666663</ele><time>2026-04-04T08:49:05.263Z</time></trkpt><trkpt lat="43.3792633" lon="11.7973383"><ele>259.3333333333333</ele><time>2026-04-04T08:49:06.265Z</time></trkpt><trkpt lat="43.3793033" lon="11.7974517"><ele>259.5</ele><time>2026-04-04T08:49:07.26Z</time></trkpt><trkpt lat="43.3793417" lon="11.7975633"><ele>259.6666666666667</ele><time>2026-04-04T08:49:08.259Z</time></trkpt><trkpt lat="43.3793817" lon="11.7976717"><ele>259.83333333333337</ele><time>2026-04-04T08:49:09.258Z</time></trkpt><trkpt lat="43.3794217" lon="11.7977683"><ele>260.0</ele><time>2026-04-04T08:49:10.261Z</time></trkpt><trkpt lat="43.3794567" lon="11.7978567"><ele>260.0</ele><time>2026-04-04T08:49:11.258Z</time></trkpt><trkpt lat="43.37949" lon="11.7979383"><ele>260.0</ele><time>2026-04-04T08:49:12.261Z</time></trkpt><trkpt lat="43.3795467" lon="11.7980817"><ele>260.0</ele><time>2026-04-04T08:49:14.265Z</time></trkpt><trkpt lat="43.3795883" lon="11.7981967"><ele>260.0</ele><time>2026-04-04T08:49:16.258Z</time></trkpt><trkpt lat="43.37962" lon="11.7982817"><ele>260.0</ele><time>2026-04-04T08:49:18.263Z</time></trkpt><trkpt lat="43.3796483" lon="11.7983833"><ele>260.0</ele><time>2026-04-04T08:49:21.259Z</time></trkpt><trkpt lat="43.3796867" lon="11.7984783"><ele>261.1666666666667</ele><time>2026-04-04T08:49:26.262Z</time></trkpt><trkpt lat="43.37972" lon="11.79856"><ele>262.33333333333337</ele><time>2026-04-04T08:49:30.264Z</time></trkpt><trkpt lat="43.37976" lon="11.798645"><ele>263.5</ele><time>2026-04-04T08:49:34.264Z</time></trkpt><trkpt lat="43.3798083" lon="11.7987283"><ele>264.6666666666667</ele><time>2026-04-04T08:49:38.264Z</time></trkpt><trkpt lat="43.3798433" lon="11.7988233"><ele>265.8333333333333</ele><time>2026-04-04T08:49:42.262Z</time></trkpt><trkpt lat="43.3798783" lon="11.79892"><ele>267.0</ele><time>2026-04-04T08:49:46.26Z</time></trkpt><trkpt lat="43.3799017" lon="11.799025"><ele>267.0</ele><time>2026-04-04T08:49:50.26Z</time></trkpt><trkpt lat="43.3799117" lon="11.7991217"><ele>267.0</ele><time>2026-04-04T08:49:53.263Z</time></trkpt><trkpt lat="43.379905" lon="11.7992267"><ele>267.0</ele><time>2026-04-04T08:49:56.263Z</time></trkpt><trkpt lat="43.379895" lon="11.7993317"><ele>267.0</ele><time>2026-04-04T08:49:59.261Z</time></trkpt><trkpt lat="43.379905" lon="11.79944"><ele>267.0</ele><time>2026-04-04T08:50:02.262Z</time></trkpt><trkpt lat="43.37995" lon="11.79952"><ele>267.0</ele><time>2026-04-04T08:50:05.26Z</time></trkpt><trkpt lat="43.38003" lon="11.7995633"><ele>266.6666666666667</ele><time>2026-04-04T08:50:08.264Z</time></trkpt><trkpt lat="43.38012" lon="11.7995733"><ele>266.3333333333333</ele><time>2026-04-04T08:50:11.258Z</time></trkpt><trkpt lat="43.38021" lon="11.79957"><ele>266.0</ele><time>2026-04-04T08:50:14.259Z</time></trkpt><trkpt lat="43.3802817" lon="11.7995683"><ele>265.66666666666663</ele><time>2026-04-04T08:50:17.262Z</time></trkpt><trkpt lat="43.3803633" lon="11.7995733"><ele>265.3333333333333</ele><time>2026-04-04T08:50:20.26Z</time></trkpt><trkpt lat="43.3804517" lon="11.7995567"><ele>265.0</ele><time>2026-04-04T08:50:23.26Z</time></trkpt><trkpt lat="43.380515" lon="11.7995517"><ele>265.16666666666663</ele><time>2026-04-04T08:50:25.262Z</time></trkpt><trkpt lat="43.3805783" lon="11.7995467"><ele>265.3333333333333</ele><time>2026-04-04T08:50:27.26Z</time></trkpt><trkpt lat="43.3806567" lon="11.7995433"><ele>265.5</ele><time>2026-04-04T08:50:30.263Z</time></trkpt><trkpt lat="43.3807317" lon="11.799545"><ele>265.6666666666667</ele><time>2026-04-04T08:50:33.259Z</time></trkpt><trkpt lat="43.380815" lon="11.79955"><ele>265.83333333333337</ele><time>2026-04-04T08:50:36.26Z</time></trkpt><trkpt lat="43.38091" lon="11.799535"><ele>266.0</ele><time>2026-04-04T08:50:39.262Z</time></trkpt><trkpt lat="43.381" lon="11.7995333"><ele>266.0</ele><time>2026-04-04T08:50:42.258Z</time></trkpt><trkpt lat="43.3810633" lon="11.799525"><ele>266.0</ele><time>2026-04-04T08:50:44.259Z</time></trkpt><trkpt lat="43.3811267" lon="11.7995117"><ele>266.0</ele><time>2026-04-04T08:50:46.26Z</time></trkpt><trkpt lat="43.381195" lon="11.7995083"><ele>266.0</ele><time>2026-04-04T08:50:48.259Z</time></trkpt><trkpt lat="43.3812733" lon="11.7995067"><ele>266.0</ele><time>2026-04-04T08:50:50.26Z</time></trkpt><trkpt lat="43.381365" lon="11.799495"><ele>266.0</ele><time>2026-04-04T08:50:52.262Z</time></trkpt><trkpt lat="43.3814617" lon="11.79948"><ele>265.40000000000003</ele><time>2026-04-04T08:50:54.262Z</time></trkpt><trkpt lat="43.3815633" lon="11.79946"><ele>264.8</ele><time>2026-04-04T08:50:56.26Z</time></trkpt><trkpt lat="43.381665" lon="11.7994433"><ele>264.20000000000005</ele><time>2026-04-04T08:50:58.26Z</time></trkpt><trkpt lat="43.3817683" lon="11.79943"><ele>263.6</ele><time>2026-04-04T08:51:00.26Z</time></trkpt><trkpt lat="43.3818717" lon="11.79942"><ele>263.0</ele><time>2026-04-04T08:51:02.265Z</time></trkpt><trkpt lat="43.38198" lon="11.7994083"><ele>263.0</ele><time>2026-04-04T08:51:04.259Z</time></trkpt><trkpt lat="43.3820867" lon="11.7994033"><ele>263.0</ele><time>2026-04-04T08:51:06.261Z</time></trkpt><trkpt lat="43.3821983" lon="11.7993917"><ele>263.0</ele><time>2026-04-04T08:51:08.265Z</time></trkpt><trkpt lat="43.3822883" lon="11.799385"><ele>263.0</ele><time>2026-04-04T08:51:10.259Z</time></trkpt><trkpt lat="43.3823717" lon="11.799375"><ele>263.0</ele><time>2026-04-04T08:51:12.263Z</time></trkpt><trkpt lat="43.3824417" lon="11.7993683"><ele>263.0</ele><time>2026-04-04T08:51:14.263Z</time></trkpt><trkpt lat="43.382505" lon="11.7994433"><ele>263.0</ele><time>2026-04-04T08:51:17.261Z</time></trkpt><trkpt lat="43.3825017" lon="11.7995533"><ele>263.0</ele><time>2026-04-04T08:51:20.263Z</time></trkpt><trkpt lat="43.3824933" lon="11.7996717"><ele>263.0</ele><time>2026-04-04T08:51:23.261Z</time></trkpt><trkpt lat="43.3824967" lon="11.7997933"><ele>263.0</ele><time>2026-04-04T08:51:26.263Z</time></trkpt><trkpt lat="43.3825033" lon="11.7999133"><ele>263.0</ele><time>2026-04-04T08:51:29.261Z</time></trkpt><trkpt lat="43.3825033" lon="11.8000333"><ele>263.0</ele><time>2026-04-04T08:51:32.259Z</time></trkpt><trkpt lat="43.3825017" lon="11.800155"><ele>263.0</ele><time>2026-04-04T08:51:35.26Z</time></trkpt><trkpt lat="43.3825033" lon="11.8002717"><ele>263.0</ele><time>2026-04-04T08:51:38.262Z</time></trkpt><trkpt lat="43.3825117" lon="11.80039"><ele>263.0</ele><time>2026-04-04T08:51:41.261Z</time></trkpt><trkpt lat="43.3825133" lon="11.8005133"><ele>263.0</ele><time>2026-04-04T08:51:44.262Z</time></trkpt><trkpt lat="43.382525" lon="11.8006317"><ele>263.0</ele><time>2026-04-04T08:51:47.259Z</time></trkpt><trkpt lat="43.38254" lon="11.800755"><ele>263.0</ele><time>2026-04-04T08:51:50.261Z</time></trkpt><trkpt lat="43.3825533" lon="11.8008783"><ele>263.0</ele><time>2026-04-04T08:51:53.261Z</time></trkpt><trkpt lat="43.382575" lon="11.8009933"><ele>263.0</ele><time>2026-04-04T08:51:56.261Z</time></trkpt><trkpt lat="43.382615" lon="11.801095"><ele>263.0</ele><time>2026-04-04T08:51:59.26Z</time></trkpt><trkpt lat="43.3827" lon="11.801125"><ele>263.0</ele><time>2026-04-04T08:52:02.262Z</time></trkpt><trkpt lat="43.38277" lon="11.8011133"><ele>263.0</ele><time>2026-04-04T08:52:04.263Z</time></trkpt><trkpt lat="43.3828367" lon="11.8011"><ele>263.1666666666667</ele><time>2026-04-04T08:52:06.264Z</time></trkpt><trkpt lat="43.382905" lon="11.8010833"><ele>263.33333333333337</ele><time>2026-04-04T08:52:08.263Z</time></trkpt><trkpt lat="43.3829717" lon="11.8010667"><ele>263.5</ele><time>2026-04-04T08:52:10.259Z</time></trkpt><trkpt lat="43.3830383" lon="11.8010483"><ele>263.6666666666667</ele><time>2026-04-04T08:52:12.264Z</time></trkpt><trkpt lat="43.3831267" lon="11.801035"><ele>263.8333333333333</ele><time>2026-04-04T08:52:15.262Z</time></trkpt><trkpt lat="43.3832133" lon="11.8010033"><ele>264.0</ele><time>2026-04-04T08:52:18.259Z</time></trkpt><trkpt lat="43.383305" lon="11.8009933"><ele>264.0</ele><time>2026-04-04T08:52:21.261Z</time></trkpt><trkpt lat="43.3833683" lon="11.8009917"><ele>264.0</ele><time>2026-04-04T08:52:23.259Z</time></trkpt><trkpt lat="43.38345" lon="11.8009983"><ele>264.0</ele><time>2026-04-04T08:52:26.259Z</time></trkpt><trkpt lat="43.3835117" lon="11.80106"><ele>264.0</ele><time>2026-04-04T08:52:29.261Z</time></trkpt><trkpt lat="43.38353" lon="11.80118"><ele>264.0</ele><time>2026-04-04T08:52:32.259Z</time></trkpt><trkpt lat="43.3835433" lon="11.8012817"><ele>264.0</ele><time>2026-04-04T08:52:34.259Z</time></trkpt><trkpt lat="43.3835617" lon="11.8014"><ele>263.4</ele><time>2026-04-04T08:52:36.263Z</time></trkpt><trkpt lat="43.3835833" lon="11.8015283"><ele>262.79999999999995</ele><time>2026-04-04T08:52:38.264Z</time></trkpt><trkpt lat="43.38361" lon="11.8016667"><ele>262.20000000000005</ele><time>2026-04-04T08:52:40.26Z</time></trkpt><trkpt lat="43.3836483" lon="11.8018017"><ele>261.6</ele><time>2026-04-04T08:52:42.261Z</time></trkpt><trkpt lat="43.3836767" lon="11.8019383"><ele>261.0</ele><time>2026-04-04T08:52:44.259Z</time></trkpt><trkpt lat="43.383695" lon="11.8020517"><ele>259.6</ele><time>2026-04-04T08:52:46.259Z</time></trkpt><trkpt lat="43.3837233" lon="11.802195"><ele>258.20000000000005</ele><time>2026-04-04T08:52:48.26Z</time></trkpt><trkpt lat="43.3837533" lon="11.8023567"><ele>256.79999999999995</ele><time>2026-04-04T08:52:50.26Z</time></trkpt><trkpt lat="43.383825" lon="11.8024817"><ele>255.39999999999998</ele><time>2026-04-04T08:52:52.259Z</time></trkpt><trkpt lat="43.3838917" lon="11.8024783"><ele>254.0</ele><time>2026-04-04T08:52:53.261Z</time></trkpt><trkpt lat="43.383955" lon="11.8024583"><ele>253.85714285714286</ele><time>2026-04-04T08:52:54.267Z</time></trkpt><trkpt lat="43.38402" lon="11.802435"><ele>253.71428571428572</ele><time>2026-04-04T08:52:55.26Z</time></trkpt><trkpt lat="43.384085" lon="11.8024083"><ele>253.57142857142858</ele><time>2026-04-04T08:52:56.262Z</time></trkpt><trkpt lat="43.3841483" lon="11.8023833"><ele>253.42857142857144</ele><time>2026-04-04T08:52:57.261Z</time></trkpt><trkpt lat="43.3842117" lon="11.80236"><ele>253.28571428571428</ele><time>2026-04-04T08:52:58.262Z</time></trkpt><trkpt lat="43.3842767" lon="11.8023483"><ele>253.14285714285717</ele><time>2026-04-04T08:52:59.262Z</time></trkpt><trkpt lat="43.38434" lon="11.8023667"><ele>253.00000000000003</ele><time>2026-04-04T08:53:00.261Z</time></trkpt><trkpt lat="43.3843917" lon="11.80242"><ele>252.99999999999997</ele><time>2026-04-04T08:53:01.258Z</time></trkpt><trkpt lat="43.3844217" lon="11.8025967"><ele>253.0</ele><time>2026-04-04T08:53:03.265Z</time></trkpt><trkpt lat="43.3844283" lon="11.8026967"><ele>253.0</ele><time>2026-04-04T08:53:04.258Z</time></trkpt><trkpt lat="43.384435" lon="11.8028"><ele>253.0</ele><time>2026-04-04T08:53:05.261Z</time></trkpt><trkpt lat="43.3844433" lon="11.8029033"><ele>252.99999999999997</ele><time>2026-04-04T08:53:06.259Z</time></trkpt><trkpt lat="43.3844517" lon="11.80301"><ele>253.0</ele><time>2026-04-04T08:53:07.258Z</time></trkpt><trkpt lat="43.38446" lon="11.8031167"><ele>252.33333333333331</ele><time>2026-04-04T08:53:08.26Z</time></trkpt><trkpt lat="43.38447" lon="11.803225"><ele>251.66666666666666</ele><time>2026-04-04T08:53:09.26Z</time></trkpt><trkpt lat="43.38448" lon="11.80333"><ele>251.0</ele><time>2026-04-04T08:53:10.258Z</time></trkpt><trkpt lat="43.3844917" lon="11.803435"><ele>250.33333333333331</ele><time>2026-04-04T08:53:11.259Z</time></trkpt><trkpt lat="43.3845033" lon="11.8035383"><ele>249.66666666666666</ele><time>2026-04-04T08:53:12.26Z</time></trkpt><trkpt lat="43.384515" lon="11.8036417"><ele>249.0</ele><time>2026-04-04T08:53:13.258Z</time></trkpt><trkpt lat="43.384525" lon="11.8037433"><ele>248.85714285714283</ele><time>2026-04-04T08:53:14.259Z</time></trkpt><trkpt lat="43.384535" lon="11.8038417"><ele>248.7142857142857</ele><time>2026-04-04T08:53:15.269Z</time></trkpt><trkpt lat="43.3845483" lon="11.80394"><ele>248.57142857142856</ele><time>2026-04-04T08:53:16.26Z</time></trkpt><trkpt lat="43.3845617" lon="11.8040383"><ele>248.42857142857144</ele><time>2026-04-04T08:53:17.258Z</time></trkpt><trkpt lat="43.3845683" lon="11.8041367"><ele>248.2857142857143</ele><time>2026-04-04T08:53:18.258Z</time></trkpt><trkpt lat="43.3845783" lon="11.8042333"><ele>248.14285714285717</ele><time>2026-04-04T08:53:19.265Z</time></trkpt><trkpt lat="43.3845883" lon="11.8043283"><ele>248.0</ele><time>2026-04-04T08:53:20.263Z</time></trkpt><trkpt lat="43.384595" lon="11.8044217"><ele>247.83333333333334</ele><time>2026-04-04T08:53:21.265Z</time></trkpt><trkpt lat="43.3846017" lon="11.804515"><ele>247.66666666666669</ele><time>2026-04-04T08:53:22.26Z</time></trkpt><trkpt lat="43.38461" lon="11.804605"><ele>247.5</ele><time>2026-04-04T08:53:23.261Z</time></trkpt><trkpt lat="43.38462" lon="11.804695"><ele>247.33333333333331</ele><time>2026-04-04T08:53:24.261Z</time></trkpt><trkpt lat="43.3846283" lon="11.8047817"><ele>247.16666666666666</ele><time>2026-04-04T08:53:25.259Z</time></trkpt><trkpt lat="43.3846467" lon="11.8049467"><ele>247.0</ele><time>2026-04-04T08:53:27.261Z</time></trkpt><trkpt lat="43.384665" lon="11.8051017"><ele>247.0</ele><time>2026-04-04T08:53:29.259Z</time></trkpt><trkpt lat="43.3846817" lon="11.8052583"><ele>247.0</ele><time>2026-04-04T08:53:31.258Z</time></trkpt><trkpt lat="43.38469" lon="11.8054067"><ele>247.0</ele><time>2026-04-04T08:53:33.262Z</time></trkpt><trkpt lat="43.3846917" lon="11.8055483"><ele>247.0</ele><time>2026-04-04T08:53:35.259Z</time></trkpt><trkpt lat="43.3847117" lon="11.8056767"><ele>247.0</ele><time>2026-04-04T08:53:37.26Z</time></trkpt><trkpt lat="43.384725" lon="11.8057617"><ele>247.0</ele><time>2026-04-04T08:53:39.259Z</time></trkpt><trkpt lat="43.3847117" lon="11.8058683"><ele>247.0</ele><time>2026-04-04T08:53:48.261Z</time></trkpt><trkpt lat="43.3846867" lon="11.805955"><ele>247.0</ele><time>2026-04-04T08:53:51.263Z</time></trkpt><trkpt lat="43.38468" lon="11.80605"><ele>247.0</ele><time>2026-04-04T08:53:54.259Z</time></trkpt><trkpt lat="43.384705" lon="11.80615"><ele>247.0</ele><time>2026-04-04T08:53:57.26Z</time></trkpt><trkpt lat="43.38474" lon="11.80626"><ele>247.0</ele><time>2026-04-04T08:54:00.261Z</time></trkpt><trkpt lat="43.3847617" lon="11.8063467"><ele>247.0</ele><time>2026-04-04T08:54:02.264Z</time></trkpt><trkpt lat="43.3847783" lon="11.8064317"><ele>246.99999999999997</ele><time>2026-04-04T08:54:04.26Z</time></trkpt><trkpt lat="43.3848033" lon="11.8065317"><ele>247.0</ele><time>2026-04-04T08:54:06.262Z</time></trkpt><trkpt lat="43.3848267" lon="11.80663"><ele>247.0</ele><time>2026-04-04T08:54:08.255Z</time></trkpt><trkpt lat="43.3848567" lon="11.806745"><ele>247.0</ele><time>2026-04-04T08:54:10.257Z</time></trkpt><trkpt lat="43.384885" lon="11.8068533"><ele>246.99999999999997</ele><time>2026-04-04T08:54:12.259Z</time></trkpt><trkpt lat="43.384915" lon="11.8069717"><ele>247.0</ele><time>2026-04-04T08:54:14.258Z</time></trkpt><trkpt lat="43.3849517" lon="11.8070817"><ele>246.8</ele><time>2026-04-04T08:54:16.259Z</time></trkpt><trkpt lat="43.3849867" lon="11.8071967"><ele>246.6</ele><time>2026-04-04T08:54:18.261Z</time></trkpt><trkpt lat="43.3850183" lon="11.80731"><ele>246.40000000000003</ele><time>2026-04-04T08:54:20.263Z</time></trkpt><trkpt lat="43.3850533" lon="11.80743"><ele>246.20000000000002</ele><time>2026-04-04T08:54:22.256Z</time></trkpt><trkpt lat="43.3850883" lon="11.8075483"><ele>246.0</ele><time>2026-04-04T08:54:24.259Z</time></trkpt><trkpt lat="43.3851267" lon="11.8076617"><ele>245.83333333333334</ele><time>2026-04-04T08:54:26.264Z</time></trkpt><trkpt lat="43.385165" lon="11.8077633"><ele>245.66666666666669</ele><time>2026-04-04T08:54:28.261Z</time></trkpt><trkpt lat="43.38518" lon="11.80786"><ele>245.5</ele><time>2026-04-04T08:54:30.264Z</time></trkpt><trkpt lat="43.385205" lon="11.80797"><ele>245.33333333333334</ele><time>2026-04-04T08:54:32.256Z</time></trkpt><trkpt lat="43.385235" lon="11.808085"><ele>245.16666666666669</ele><time>2026-04-04T08:54:34.256Z</time></trkpt><trkpt lat="43.3852717" lon="11.8081933"><ele>245.0</ele><time>2026-04-04T08:54:36.261Z</time></trkpt><trkpt lat="43.3853017" lon="11.8083"><ele>245.00000000000003</ele><time>2026-04-04T08:54:38.262Z</time></trkpt><trkpt lat="43.38533" lon="11.8084"><ele>245.0</ele><time>2026-04-04T08:54:40.258Z</time></trkpt><trkpt lat="43.3853583" lon="11.8085"><ele>245.0</ele><time>2026-04-04T08:54:42.259Z</time></trkpt><trkpt lat="43.385385" lon="11.8085883"><ele>245.0</ele><time>2026-04-04T08:54:44.256Z</time></trkpt><trkpt lat="43.38541" lon="11.8086767"><ele>245.00000000000003</ele><time>2026-04-04T08:54:46.255Z</time></trkpt><trkpt lat="43.38543" lon="11.8087667"><ele>245.0</ele><time>2026-04-04T08:54:48.257Z</time></trkpt><trkpt lat="43.3854567" lon="11.8088983"><ele>245.00000000000003</ele><time>2026-04-04T08:54:51.256Z</time></trkpt><trkpt lat="43.3854917" lon="11.8089833"><ele>245.0</ele><time>2026-04-04T08:54:53.256Z</time></trkpt><trkpt lat="43.38554" lon="11.8090967"><ele>245.0</ele><time>2026-04-04T08:54:56.26Z</time></trkpt><trkpt lat="43.3855717" lon="11.8092033"><ele>245.0</ele><time>2026-04-04T08:54:59.261Z</time></trkpt><trkpt lat="43.3855917" lon="11.8092883"><ele>245.00000000000003</ele><time>2026-04-04T08:55:01.26Z</time></trkpt><trkpt lat="43.385615" lon="11.8093867"><ele>245.0</ele><time>2026-04-04T08:55:03.262Z</time></trkpt><trkpt lat="43.3856483" lon="11.80949"><ele>245.00000000000003</ele><time>2026-04-04T08:55:05.259Z</time></trkpt><trkpt lat="43.3856783" lon="11.8096"><ele>245.0</ele><time>2026-04-04T08:55:07.262Z</time></trkpt><trkpt lat="43.3857083" lon="11.8097067"><ele>245.0</ele><time>2026-04-04T08:55:09.259Z</time></trkpt><trkpt lat="43.38574" lon="11.80982"><ele>245.0</ele><time>2026-04-04T08:55:11.259Z</time></trkpt><trkpt lat="43.3857683" lon="11.8099317"><ele>245.00000000000003</ele><time>2026-04-04T08:55:13.257Z</time></trkpt><trkpt lat="43.3858033" lon="11.8100467"><ele>245.0</ele><time>2026-04-04T08:55:15.267Z</time></trkpt><trkpt lat="43.38584" lon="11.810165"><ele>245.0</ele><time>2026-04-04T08:55:17.259Z</time></trkpt><trkpt lat="43.3858733" lon="11.8102883"><ele>245.0</ele><time>2026-04-04T08:55:19.262Z</time></trkpt><trkpt lat="43.3859083" lon="11.8104117"><ele>245.0</ele><time>2026-04-04T08:55:21.261Z</time></trkpt><trkpt lat="43.3859433" lon="11.8105317"><ele>245.0</ele><time>2026-04-04T08:55:23.261Z</time></trkpt><trkpt lat="43.38598" lon="11.81065"><ele>245.0</ele><time>2026-04-04T08:55:25.262Z</time></trkpt><trkpt lat="43.386015" lon="11.8107667"><ele>245.0</ele><time>2026-04-04T08:55:27.264Z</time></trkpt><trkpt lat="43.3860467" lon="11.810885"><ele>245.0</ele><time>2026-04-04T08:55:29.259Z</time></trkpt><trkpt lat="43.386075" lon="11.8110083"><ele>245.0</ele><time>2026-04-04T08:55:31.264Z</time></trkpt><trkpt lat="43.3861" lon="11.8111333"><ele>245.0</ele><time>2026-04-04T08:55:33.257Z</time></trkpt><trkpt lat="43.3861333" lon="11.8112517"><ele>245.0</ele><time>2026-04-04T08:55:35.266Z</time></trkpt><trkpt lat="43.386165" lon="11.8113717"><ele>245.0</ele><time>2026-04-04T08:55:37.263Z</time></trkpt><trkpt lat="43.386195" lon="11.8114833"><ele>245.0</ele><time>2026-04-04T08:55:39.262Z</time></trkpt><trkpt lat="43.3862267" lon="11.8116033"><ele>245.0</ele><time>2026-04-04T08:55:41.261Z</time></trkpt><trkpt lat="43.38626" lon="11.8117217"><ele>245.0</ele><time>2026-04-04T08:55:43.261Z</time></trkpt><trkpt lat="43.3862933" lon="11.8118367"><ele>245.0</ele><time>2026-04-04T08:55:45.262Z</time></trkpt><trkpt lat="43.3863267" lon="11.8119517"><ele>245.00000000000003</ele><time>2026-04-04T08:55:47.26Z</time></trkpt><trkpt lat="43.386365" lon="11.812065"><ele>245.0</ele><time>2026-04-04T08:55:49.262Z</time></trkpt><trkpt lat="43.3864" lon="11.8121833"><ele>245.0</ele><time>2026-04-04T08:55:51.26Z</time></trkpt><trkpt lat="43.3864367" lon="11.8122967"><ele>245.0</ele><time>2026-04-04T08:55:53.26Z</time></trkpt><trkpt lat="43.3864683" lon="11.8124117"><ele>245.00000000000003</ele><time>2026-04-04T08:55:55.26Z</time></trkpt><trkpt lat="43.3864933" lon="11.8125217"><ele>245.0</ele><time>2026-04-04T08:55:57.261Z</time></trkpt><trkpt lat="43.3865183" lon="11.8126333"><ele>245.0</ele><time>2026-04-04T08:55:59.262Z</time></trkpt><trkpt lat="43.386545" lon="11.8127367"><ele>245.0</ele><time>2026-04-04T08:56:01.26Z</time></trkpt><trkpt lat="43.3865783" lon="11.8128233"><ele>245.0</ele><time>2026-04-04T08:56:03.259Z</time></trkpt><trkpt lat="43.3866033" lon="11.8129033"><ele>245.0</ele><time>2026-04-04T08:56:05.26Z</time></trkpt><trkpt lat="43.386565" lon="11.81301"><ele>245.0</ele><time>2026-04-04T08:56:08.261Z</time></trkpt><trkpt lat="43.3864983" lon="11.8130283"><ele>245.0</ele><time>2026-04-04T08:56:10.259Z</time></trkpt><trkpt lat="43.3864217" lon="11.81304"><ele>245.0</ele><time>2026-04-04T08:56:12.261Z</time></trkpt><trkpt lat="43.3863367" lon="11.8130667"><ele>245.00000000000003</ele><time>2026-04-04T08:56:14.262Z</time></trkpt><trkpt lat="43.3862517" lon="11.8130917"><ele>245.0</ele><time>2026-04-04T08:56:16.26Z</time></trkpt><trkpt lat="43.3861717" lon="11.81311"><ele>245.0</ele><time>2026-04-04T08:56:18.262Z</time></trkpt><trkpt lat="43.3860867" lon="11.813145"><ele>245.0</ele><time>2026-04-04T08:56:20.26Z</time></trkpt><trkpt lat="43.3860083" lon="11.8131733"><ele>245.00000000000003</ele><time>2026-04-04T08:56:22.262Z</time></trkpt><trkpt lat="43.3859267" lon="11.813185"><ele>245.0</ele><time>2026-04-04T08:56:24.262Z</time></trkpt><trkpt lat="43.385845" lon="11.8132067"><ele>245.00000000000003</ele><time>2026-04-04T08:56:26.259Z</time></trkpt><trkpt lat="43.3857617" lon="11.8132333"><ele>245.0</ele><time>2026-04-04T08:56:28.261Z</time></trkpt><trkpt lat="43.3856767" lon="11.8132483"><ele>245.0</ele><time>2026-04-04T08:56:30.26Z</time></trkpt><trkpt lat="43.38559" lon="11.8132667"><ele>245.0</ele><time>2026-04-04T08:56:32.261Z</time></trkpt><trkpt lat="43.385515" lon="11.8132833"><ele>245.00000000000003</ele><time>2026-04-04T08:56:34.259Z</time></trkpt><trkpt lat="43.3854317" lon="11.8133067"><ele>245.0</ele><time>2026-04-04T08:56:36.26Z</time></trkpt><trkpt lat="43.385345" lon="11.813325"><ele>245.0</ele><time>2026-04-04T08:56:38.262Z</time></trkpt><trkpt lat="43.3852517" lon="11.8133533"><ele>245.0</ele><time>2026-04-04T08:56:40.261Z</time></trkpt><trkpt lat="43.3851617" lon="11.8133867"><ele>245.0</ele><time>2026-04-04T08:56:42.262Z</time></trkpt><trkpt lat="43.3850717" lon="11.8134183"><ele>245.0</ele><time>2026-04-04T08:56:44.26Z</time></trkpt><trkpt lat="43.3849783" lon="11.8134517"><ele>245.0</ele><time>2026-04-04T08:56:46.258Z</time></trkpt><trkpt lat="43.384885" lon="11.8134967"><ele>244.8</ele><time>2026-04-04T08:56:48.262Z</time></trkpt><trkpt lat="43.3847917" lon="11.8135367"><ele>244.6</ele><time>2026-04-04T08:56:50.26Z</time></trkpt><trkpt lat="43.3847" lon="11.8135733"><ele>244.39999999999998</ele><time>2026-04-04T08:56:52.261Z</time></trkpt><trkpt lat="43.3846133" lon="11.8136083"><ele>244.2</ele><time>2026-04-04T08:56:54.262Z</time></trkpt><trkpt lat="43.3845217" lon="11.8136333"><ele>244.0</ele><time>2026-04-04T08:56:56.259Z</time></trkpt><trkpt lat="43.3844283" lon="11.8136583"><ele>244.0</ele><time>2026-04-04T08:56:58.261Z</time></trkpt><trkpt lat="43.38434" lon="11.81369"><ele>243.99999999999997</ele><time>2026-04-04T08:57:00.263Z</time></trkpt><trkpt lat="43.3842467" lon="11.81372"><ele>243.99999999999997</ele><time>2026-04-04T08:57:02.26Z</time></trkpt><trkpt lat="43.3841467" lon="11.8137617"><ele>244.0</ele><time>2026-04-04T08:57:04.261Z</time></trkpt><trkpt lat="43.3840483" lon="11.813795"><ele>244.0</ele><time>2026-04-04T08:57:06.26Z</time></trkpt><trkpt lat="43.383955" lon="11.8138283"><ele>244.0</ele><time>2026-04-04T08:57:08.26Z</time></trkpt><trkpt lat="43.3838683" lon="11.8138717"><ele>243.99999999999997</ele><time>2026-04-04T08:57:10.262Z</time></trkpt><trkpt lat="43.3837683" lon="11.8139183"><ele>243.99999999999997</ele><time>2026-04-04T08:57:12.26Z</time></trkpt><trkpt lat="43.3836717" lon="11.8139533"><ele>244.0</ele><time>2026-04-04T08:57:14.262Z</time></trkpt><trkpt lat="43.3835783" lon="11.8139767"><ele>244.0</ele><time>2026-04-04T08:57:16.259Z</time></trkpt><trkpt lat="43.3834817" lon="11.8140067"><ele>243.79999999999998</ele><time>2026-04-04T08:57:18.259Z</time></trkpt><trkpt lat="43.3833883" lon="11.8140333"><ele>243.59999999999997</ele><time>2026-04-04T08:57:20.263Z</time></trkpt><trkpt lat="43.3832917" lon="11.8140683"><ele>243.4</ele><time>2026-04-04T08:57:22.26Z</time></trkpt><trkpt lat="43.3831983" lon="11.8140933"><ele>243.2</ele><time>2026-04-04T08:57:24.261Z</time></trkpt><trkpt lat="43.3831067" lon="11.8141217"><ele>243.0</ele><time>2026-04-04T08:57:26.263Z</time></trkpt><trkpt lat="43.3830217" lon="11.814155"><ele>243.33333333333334</ele><time>2026-04-04T08:57:28.261Z</time></trkpt><trkpt lat="43.38294" lon="11.8141733"><ele>243.66666666666669</ele><time>2026-04-04T08:57:30.261Z</time></trkpt><trkpt lat="43.382865" lon="11.8142017"><ele>244.0</ele><time>2026-04-04T08:57:32.259Z</time></trkpt><trkpt lat="43.3827933" lon="11.8142267"><ele>244.33333333333334</ele><time>2026-04-04T08:57:34.258Z</time></trkpt><trkpt lat="43.3827217" lon="11.8142433"><ele>244.66666666666669</ele><time>2026-04-04T08:57:36.262Z</time></trkpt><trkpt lat="43.3826533" lon="11.8142567"><ele>245.0</ele><time>2026-04-04T08:57:38.261Z</time></trkpt><trkpt lat="43.3825717" lon="11.814275"><ele>245.0</ele><time>2026-04-04T08:57:40.263Z</time></trkpt><trkpt lat="43.3824883" lon="11.8143"><ele>245.0</ele><time>2026-04-04T08:57:42.26Z</time></trkpt><trkpt lat="43.3824017" lon="11.8143267"><ele>245.0</ele><time>2026-04-04T08:57:44.259Z</time></trkpt><trkpt lat="43.382315" lon="11.814375"><ele>245.0</ele><time>2026-04-04T08:57:46.258Z</time></trkpt><trkpt lat="43.3822217" lon="11.8144167"><ele>245.0</ele><time>2026-04-04T08:57:48.26Z</time></trkpt><trkpt lat="43.3821317" lon="11.8144567"><ele>245.00000000000003</ele><time>2026-04-04T08:57:50.259Z</time></trkpt><trkpt lat="43.3820417" lon="11.8144867"><ele>245.0</ele><time>2026-04-04T08:57:52.263Z</time></trkpt><trkpt lat="43.381955" lon="11.81451"><ele>245.0</ele><time>2026-04-04T08:57:54.265Z</time></trkpt><trkpt lat="43.38188" lon="11.8145283"><ele>245.0</ele><time>2026-04-04T08:57:56.264Z</time></trkpt><trkpt lat="43.3817933" lon="11.8145467"><ele>245.00000000000003</ele><time>2026-04-04T08:57:58.26Z</time></trkpt><trkpt lat="43.381705" lon="11.81456"><ele>245.0</ele><time>2026-04-04T08:58:00.261Z</time></trkpt><trkpt lat="43.3816167" lon="11.8145817"><ele>245.00000000000003</ele><time>2026-04-04T08:58:02.261Z</time></trkpt><trkpt lat="43.381535" lon="11.8145983"><ele>245.0</ele><time>2026-04-04T08:58:04.263Z</time></trkpt><trkpt lat="43.3814483" lon="11.8146033"><ele>245.0</ele><time>2026-04-04T08:58:06.263Z</time></trkpt><trkpt lat="43.3813667" lon="11.8146283"><ele>245.0</ele><time>2026-04-04T08:58:08.268Z</time></trkpt><trkpt lat="43.3812917" lon="11.8146533"><ele>245.00000000000003</ele><time>2026-04-04T08:58:10.259Z</time></trkpt><trkpt lat="43.38122" lon="11.8146717"><ele>245.0</ele><time>2026-04-04T08:58:12.261Z</time></trkpt><trkpt lat="43.3811467" lon="11.8146883"><ele>245.00000000000003</ele><time>2026-04-04T08:58:14.26Z</time></trkpt><trkpt lat="43.381065" lon="11.8147217"><ele>245.0</ele><time>2026-04-04T08:58:16.26Z</time></trkpt><trkpt lat="43.380985" lon="11.8147467"><ele>245.0</ele><time>2026-04-04T08:58:18.262Z</time></trkpt><trkpt lat="43.380905" lon="11.81477"><ele>245.0</ele><time>2026-04-04T08:58:20.261Z</time></trkpt><trkpt lat="43.3808283" lon="11.8148"><ele>245.00000000000003</ele><time>2026-04-04T08:58:22.262Z</time></trkpt><trkpt lat="43.3807583" lon="11.8148367"><ele>245.0</ele><time>2026-04-04T08:58:24.264Z</time></trkpt><trkpt lat="43.3806833" lon="11.81486"><ele>245.00000000000003</ele><time>2026-04-04T08:58:26.259Z</time></trkpt><trkpt lat="43.3806033" lon="11.8148917"><ele>245.0</ele><time>2026-04-04T08:58:28.259Z</time></trkpt><trkpt lat="43.3805183" lon="11.814925"><ele>245.0</ele><time>2026-04-04T08:58:30.261Z</time></trkpt><trkpt lat="43.380445" lon="11.8149583"><ele>245.0</ele><time>2026-04-04T08:58:32.26Z</time></trkpt><trkpt lat="43.3803667" lon="11.81499"><ele>245.00000000000003</ele><time>2026-04-04T08:58:34.259Z</time></trkpt><trkpt lat="43.3802917" lon="11.8150067"><ele>245.0</ele><time>2026-04-04T08:58:36.262Z</time></trkpt><trkpt lat="43.3802183" lon="11.8150217"><ele>245.00000000000003</ele><time>2026-04-04T08:58:38.262Z</time></trkpt><trkpt lat="43.3801383" lon="11.815045"><ele>245.0</ele><time>2026-04-04T08:58:40.259Z</time></trkpt><trkpt lat="43.3800583" lon="11.815075"><ele>245.0</ele><time>2026-04-04T08:58:42.262Z</time></trkpt><trkpt lat="43.3799967" lon="11.8151017"><ele>245.0</ele><time>2026-04-04T08:58:44.262Z</time></trkpt><trkpt lat="43.3799267" lon="11.8151183"><ele>245.00000000000003</ele><time>2026-04-04T08:58:46.258Z</time></trkpt><trkpt lat="43.3798533" lon="11.8151283"><ele>245.0</ele><time>2026-04-04T08:58:48.262Z</time></trkpt><trkpt lat="43.3797767" lon="11.815165"><ele>245.00000000000003</ele><time>2026-04-04T08:58:50.261Z</time></trkpt><trkpt lat="43.3796933" lon="11.8152067"><ele>245.0</ele><time>2026-04-04T08:58:52.26Z</time></trkpt><trkpt lat="43.3796217" lon="11.8152533"><ele>245.0</ele><time>2026-04-04T08:58:54.261Z</time></trkpt><trkpt lat="43.379565" lon="11.8153367"><ele>245.0</ele><time>2026-04-04T08:58:56.262Z</time></trkpt><trkpt lat="43.3795417" lon="11.8154367"><ele>245.00000000000003</ele><time>2026-04-04T08:58:58.261Z</time></trkpt><trkpt lat="43.3795367" lon="11.8155433"><ele>245.0</ele><time>2026-04-04T08:59:00.259Z</time></trkpt><trkpt lat="43.37954" lon="11.8156633"><ele>245.00000000000003</ele><time>2026-04-04T08:59:02.26Z</time></trkpt><trkpt lat="43.3795467" lon="11.8157717"><ele>245.0</ele><time>2026-04-04T08:59:04.265Z</time></trkpt><trkpt lat="43.3795517" lon="11.8158817"><ele>245.0</ele><time>2026-04-04T08:59:06.261Z</time></trkpt><trkpt lat="43.3795617" lon="11.8159883"><ele>245.0</ele><time>2026-04-04T08:59:08.261Z</time></trkpt><trkpt lat="43.3795717" lon="11.8161017"><ele>245.00000000000003</ele><time>2026-04-04T08:59:10.262Z</time></trkpt><trkpt lat="43.37958" lon="11.8162167"><ele>245.0</ele><time>2026-04-04T08:59:12.26Z</time></trkpt><trkpt lat="43.3795917" lon="11.816345"><ele>244.8</ele><time>2026-04-04T08:59:14.262Z</time></trkpt><trkpt lat="43.3796017" lon="11.81648"><ele>244.6</ele><time>2026-04-04T08:59:16.261Z</time></trkpt><trkpt lat="43.3796067" lon="11.8166083"><ele>244.39999999999998</ele><time>2026-04-04T08:59:18.264Z</time></trkpt><trkpt lat="43.3795983" lon="11.8167283"><ele>244.2</ele><time>2026-04-04T08:59:20.263Z</time></trkpt><trkpt lat="43.3795933" lon="11.8168467"><ele>244.0</ele><time>2026-04-04T08:59:22.259Z</time></trkpt><trkpt lat="43.3795833" lon="11.8169617"><ele>243.83333333333331</ele><time>2026-04-04T08:59:24.262Z</time></trkpt><trkpt lat="43.3795567" lon="11.81707"><ele>243.66666666666666</ele><time>2026-04-04T08:59:26.263Z</time></trkpt><trkpt lat="43.3795183" lon="11.81718"><ele>243.5</ele><time>2026-04-04T08:59:28.262Z</time></trkpt><trkpt lat="43.3794733" lon="11.8172833"><ele>243.33333333333331</ele><time>2026-04-04T08:59:30.261Z</time></trkpt><trkpt lat="43.3794233" lon="11.8173833"><ele>243.16666666666666</ele><time>2026-04-04T08:59:32.259Z</time></trkpt><trkpt lat="43.379375" lon="11.817475"><ele>243.0</ele><time>2026-04-04T08:59:34.257Z</time></trkpt><trkpt lat="43.3793283" lon="11.81758"><ele>243.16666666666666</ele><time>2026-04-04T08:59:36.263Z</time></trkpt><trkpt lat="43.3792817" lon="11.8176633"><ele>243.33333333333331</ele><time>2026-04-04T08:59:38.263Z</time></trkpt><trkpt lat="43.3792417" lon="11.8177567"><ele>243.5</ele><time>2026-04-04T08:59:40.259Z</time></trkpt><trkpt lat="43.3792" lon="11.8178517"><ele>243.66666666666666</ele><time>2026-04-04T08:59:42.262Z</time></trkpt><trkpt lat="43.3791483" lon="11.817935"><ele>243.83333333333331</ele><time>2026-04-04T08:59:44.264Z</time></trkpt><trkpt lat="43.379095" lon="11.8180267"><ele>244.0</ele><time>2026-04-04T08:59:46.26Z</time></trkpt><trkpt lat="43.379045" lon="11.818115"><ele>243.99999999999997</ele><time>2026-04-04T08:59:48.263Z</time></trkpt><trkpt lat="43.3789967" lon="11.8182067"><ele>244.0</ele><time>2026-04-04T08:59:50.262Z</time></trkpt><trkpt lat="43.3789517" lon="11.8182983"><ele>244.0</ele><time>2026-04-04T08:59:52.261Z</time></trkpt><trkpt lat="43.3789067" lon="11.8183917"><ele>244.0</ele><time>2026-04-04T08:59:54.259Z</time></trkpt><trkpt lat="43.37886" lon="11.818485"><ele>243.99999999999997</ele><time>2026-04-04T08:59:56.266Z</time></trkpt><trkpt lat="43.37881" lon="11.8185733"><ele>244.0</ele><time>2026-04-04T08:59:58.261Z</time></trkpt><trkpt lat="43.378765" lon="11.818665"><ele>243.99999999999997</ele><time>2026-04-04T09:00:00.259Z</time></trkpt><trkpt lat="43.37871" lon="11.818745"><ele>244.0</ele><time>2026-04-04T09:00:02.261Z</time></trkpt><trkpt lat="43.3786517" lon="11.81883"><ele>244.0</ele><time>2026-04-04T09:00:04.26Z</time></trkpt><trkpt lat="43.3785933" lon="11.81891"><ele>244.0</ele><time>2026-04-04T09:00:06.259Z</time></trkpt><trkpt lat="43.3785367" lon="11.8189967"><ele>243.99999999999997</ele><time>2026-04-04T09:00:08.26Z</time></trkpt><trkpt lat="43.3784767" lon="11.8190867"><ele>244.0</ele><time>2026-04-04T09:00:10.26Z</time></trkpt><trkpt lat="43.378415" lon="11.81918"><ele>243.99999999999997</ele><time>2026-04-04T09:00:12.26Z</time></trkpt><trkpt lat="43.3783517" lon="11.81927"><ele>244.0</ele><time>2026-04-04T09:00:14.261Z</time></trkpt><trkpt lat="43.3782933" lon="11.819355"><ele>244.0</ele><time>2026-04-04T09:00:16.26Z</time></trkpt><trkpt lat="43.3782333" lon="11.819445"><ele>244.0</ele><time>2026-04-04T09:00:18.26Z</time></trkpt><trkpt lat="43.378175" lon="11.8195283"><ele>243.99999999999997</ele><time>2026-04-04T09:00:20.264Z</time></trkpt><trkpt lat="43.3781133" lon="11.81961"><ele>244.0</ele><time>2026-04-04T09:00:22.26Z</time></trkpt><trkpt lat="43.3780517" lon="11.8196917"><ele>243.83333333333331</ele><time>2026-04-04T09:00:24.261Z</time></trkpt><trkpt lat="43.377995" lon="11.8197717"><ele>243.66666666666666</ele><time>2026-04-04T09:00:26.265Z</time></trkpt><trkpt lat="43.37794" lon="11.8198483"><ele>243.5</ele><time>2026-04-04T09:00:28.26Z</time></trkpt><trkpt lat="43.3778833" lon="11.819925"><ele>243.33333333333331</ele><time>2026-04-04T09:00:30.263Z</time></trkpt><trkpt lat="43.3778267" lon="11.8200067"><ele>243.16666666666666</ele><time>2026-04-04T09:00:32.262Z</time></trkpt><trkpt lat="43.37776" lon="11.820085"><ele>243.0</ele><time>2026-04-04T09:00:34.26Z</time></trkpt><trkpt lat="43.3776833" lon="11.8201417"><ele>243.0</ele><time>2026-04-04T09:00:36.262Z</time></trkpt><trkpt lat="43.3775983" lon="11.8201767"><ele>243.0</ele><time>2026-04-04T09:00:38.259Z</time></trkpt><trkpt lat="43.3775117" lon="11.82019"><ele>243.0</ele><time>2026-04-04T09:00:40.259Z</time></trkpt><trkpt lat="43.3774183" lon="11.8201883"><ele>243.0</ele><time>2026-04-04T09:00:42.259Z</time></trkpt><trkpt lat="43.377325" lon="11.8201867"><ele>243.0</ele><time>2026-04-04T09:00:44.26Z</time></trkpt><trkpt lat="43.377245" lon="11.8202033"><ele>243.0</ele><time>2026-04-04T09:00:46.262Z</time></trkpt><trkpt lat="43.3772033" lon="11.8202967"><ele>243.0</ele><time>2026-04-04T09:00:48.259Z</time></trkpt><trkpt lat="43.3772067" lon="11.8204167"><ele>243.0</ele><time>2026-04-04T09:00:50.261Z</time></trkpt><trkpt lat="43.377235" lon="11.8205183"><ele>243.0</ele><time>2026-04-04T09:00:52.259Z</time></trkpt><trkpt lat="43.3772633" lon="11.8206217"><ele>243.0</ele><time>2026-04-04T09:00:54.263Z</time></trkpt><trkpt lat="43.3772833" lon="11.82073"><ele>243.0</ele><time>2026-04-04T09:00:56.261Z</time></trkpt><trkpt lat="43.37731" lon="11.8208267"><ele>243.0</ele><time>2026-04-04T09:00:58.26Z</time></trkpt><trkpt lat="43.3773267" lon="11.82093"><ele>242.71428571428572</ele><time>2026-04-04T09:01:00.262Z</time></trkpt><trkpt lat="43.3773467" lon="11.821025"><ele>242.42857142857144</ele><time>2026-04-04T09:01:02.26Z</time></trkpt><trkpt lat="43.3773783" lon="11.821135"><ele>242.14285714285717</ele><time>2026-04-04T09:01:05.261Z</time></trkpt><trkpt lat="43.3773983" lon="11.82122"><ele>241.85714285714286</ele><time>2026-04-04T09:01:08.261Z</time></trkpt><trkpt lat="43.3774267" lon="11.8213333"><ele>241.5714285714286</ele><time>2026-04-04T09:01:11.261Z</time></trkpt><trkpt lat="43.3774417" lon="11.8214217"><ele>241.2857142857143</ele><time>2026-04-04T09:01:13.259Z</time></trkpt><trkpt lat="43.3774633" lon="11.8215167"><ele>241.0</ele><time>2026-04-04T09:01:15.259Z</time></trkpt><trkpt lat="43.3774917" lon="11.8216167"><ele>241.0</ele><time>2026-04-04T09:01:17.26Z</time></trkpt><trkpt lat="43.3775217" lon="11.82172"><ele>241.00000000000003</ele><time>2026-04-04T09:01:19.262Z</time></trkpt><trkpt lat="43.37755" lon="11.8218217"><ele>241.0</ele><time>2026-04-04T09:01:21.263Z</time></trkpt><trkpt lat="43.37758" lon="11.82192"><ele>241.0</ele><time>2026-04-04T09:01:23.261Z</time></trkpt><trkpt lat="43.37761" lon="11.8220033"><ele>241.00000000000003</ele><time>2026-04-04T09:01:25.26Z</time></trkpt><trkpt lat="43.3776367" lon="11.8220867"><ele>241.0</ele><time>2026-04-04T09:01:27.259Z</time></trkpt><trkpt lat="43.3776617" lon="11.8221817"><ele>241.0</ele><time>2026-04-04T09:01:29.262Z</time></trkpt><trkpt lat="43.3776883" lon="11.822275"><ele>240.83333333333331</ele><time>2026-04-04T09:01:31.26Z</time></trkpt><trkpt lat="43.3777183" lon="11.8223617"><ele>240.66666666666666</ele><time>2026-04-04T09:01:33.26Z</time></trkpt><trkpt lat="43.3777467" lon="11.8224467"><ele>240.5</ele><time>2026-04-04T09:01:35.262Z</time></trkpt><trkpt lat="43.377775" lon="11.8225333"><ele>240.33333333333331</ele><time>2026-04-04T09:01:37.261Z</time></trkpt><trkpt lat="43.37781" lon="11.8226433"><ele>240.16666666666666</ele><time>2026-04-04T09:01:40.261Z</time></trkpt><trkpt lat="43.3778383" lon="11.82274"><ele>240.0</ele><time>2026-04-04T09:01:43.261Z</time></trkpt><trkpt lat="43.3778733" lon="11.8228567"><ele>240.0</ele><time>2026-04-04T09:01:46.26Z</time></trkpt><trkpt lat="43.377905" lon="11.82298"><ele>240.0</ele><time>2026-04-04T09:01:49.262Z</time></trkpt><trkpt lat="43.3779433" lon="11.823095"><ele>240.0</ele><time>2026-04-04T09:01:52.262Z</time></trkpt><trkpt lat="43.3779767" lon="11.823195"><ele>240.0</ele><time>2026-04-04T09:01:55.261Z</time></trkpt><trkpt lat="43.3780033" lon="11.8232883"><ele>240.0</ele><time>2026-04-04T09:01:58.257Z</time></trkpt><trkpt lat="43.3780283" lon="11.8234033"><ele>240.0</ele><time>2026-04-04T09:02:01.262Z</time></trkpt><trkpt lat="43.3780617" lon="11.8235167"><ele>239.83333333333334</ele><time>2026-04-04T09:02:04.259Z</time></trkpt><trkpt lat="43.3780917" lon="11.82362"><ele>239.66666666666669</ele><time>2026-04-04T09:02:07.262Z</time></trkpt><trkpt lat="43.3781033" lon="11.8237083"><ele>239.5</ele><time>2026-04-04T09:02:10.26Z</time></trkpt><trkpt lat="43.378115" lon="11.8238467"><ele>239.33333333333334</ele><time>2026-04-04T09:02:22.259Z</time></trkpt><trkpt lat="43.3781217" lon="11.8239383"><ele>239.16666666666669</ele><time>2026-04-04T09:02:30.262Z</time></trkpt><trkpt lat="43.37809" lon="11.824015"><ele>239.0</ele><time>2026-04-04T09:02:40.263Z</time></trkpt><trkpt lat="43.3780117" lon="11.8240383"><ele>239.00000000000003</ele><time>2026-04-04T09:03:07.26Z</time></trkpt><trkpt lat="43.3779317" lon="11.824055"><ele>239.0</ele><time>2026-04-04T09:03:11.262Z</time></trkpt><trkpt lat="43.3778483" lon="11.8240633"><ele>239.0</ele><time>2026-04-04T09:03:14.26Z</time></trkpt><trkpt lat="43.3777833" lon="11.824075"><ele>239.0</ele><time>2026-04-04T09:03:16.258Z</time></trkpt><trkpt lat="43.37771" lon="11.8240833"><ele>239.00000000000003</ele><time>2026-04-04T09:03:18.259Z</time></trkpt><trkpt lat="43.37763" lon="11.82409"><ele>239.0</ele><time>2026-04-04T09:03:20.261Z</time></trkpt><trkpt lat="43.3775483" lon="11.8241"><ele>239.0</ele><time>2026-04-04T09:03:22.258Z</time></trkpt><trkpt lat="43.3774583" lon="11.824125"><ele>238.99999999999997</ele><time>2026-04-04T09:03:24.261Z</time></trkpt><trkpt lat="43.3773617" lon="11.8241433"><ele>238.99999999999997</ele><time>2026-04-04T09:03:26.261Z</time></trkpt><trkpt lat="43.3772567" lon="11.824165"><ele>239.0</ele><time>2026-04-04T09:03:28.259Z</time></trkpt><trkpt lat="43.3771483" lon="11.8241833"><ele>239.0</ele><time>2026-04-04T09:03:30.26Z</time></trkpt><trkpt lat="43.3770367" lon="11.8242"><ele>239.0</ele><time>2026-04-04T09:03:32.26Z</time></trkpt><trkpt lat="43.3769267" lon="11.8242133"><ele>238.99999999999997</ele><time>2026-04-04T09:03:34.262Z</time></trkpt><trkpt lat="43.376815" lon="11.8242267"><ele>238.99999999999997</ele><time>2026-04-04T09:03:36.262Z</time></trkpt><trkpt lat="43.376705" lon="11.8242417"><ele>239.0</ele><time>2026-04-04T09:03:38.262Z</time></trkpt><trkpt lat="43.376595" lon="11.8242617"><ele>239.0</ele><time>2026-04-04T09:03:40.261Z</time></trkpt><trkpt lat="43.3764833" lon="11.8242767"><ele>239.0</ele><time>2026-04-04T09:03:42.261Z</time></trkpt><trkpt lat="43.37637" lon="11.8242933"><ele>239.0</ele><time>2026-04-04T09:03:44.264Z</time></trkpt><trkpt lat="43.376255" lon="11.8243117"><ele>239.0</ele><time>2026-04-04T09:03:46.262Z</time></trkpt><trkpt lat="43.3761383" lon="11.82433"><ele>239.0</ele><time>2026-04-04T09:03:48.261Z</time></trkpt><trkpt lat="43.376025" lon="11.8243517"><ele>238.79999999999998</ele><time>2026-04-04T09:03:50.258Z</time></trkpt><trkpt lat="43.375915" lon="11.8243717"><ele>238.59999999999997</ele><time>2026-04-04T09:03:52.259Z</time></trkpt><trkpt lat="43.375805" lon="11.824395"><ele>238.4</ele><time>2026-04-04T09:03:54.259Z</time></trkpt><trkpt lat="43.3756933" lon="11.8244133"><ele>238.2</ele><time>2026-04-04T09:03:56.259Z</time></trkpt><trkpt lat="43.375585" lon="11.82443"><ele>238.0</ele><time>2026-04-04T09:03:58.26Z</time></trkpt><trkpt lat="43.375475" lon="11.8244517"><ele>238.0</ele><time>2026-04-04T09:04:00.26Z</time></trkpt><trkpt lat="43.375365" lon="11.82447"><ele>238.0</ele><time>2026-04-04T09:04:02.259Z</time></trkpt><trkpt lat="43.3752517" lon="11.8244883"><ele>238.0</ele><time>2026-04-04T09:04:04.26Z</time></trkpt><trkpt lat="43.3751383" lon="11.8245117"><ele>238.0</ele><time>2026-04-04T09:04:06.26Z</time></trkpt><trkpt lat="43.3750183" lon="11.824535"><ele>238.0</ele><time>2026-04-04T09:04:08.259Z</time></trkpt><trkpt lat="43.3748967" lon="11.82456"><ele>238.0</ele><time>2026-04-04T09:04:10.259Z</time></trkpt><trkpt lat="43.3747767" lon="11.8245833"><ele>238.0</ele><time>2026-04-04T09:04:12.259Z</time></trkpt><trkpt lat="43.3746583" lon="11.8246017"><ele>238.0</ele><time>2026-04-04T09:04:14.258Z</time></trkpt><trkpt lat="43.3745383" lon="11.8246233"><ele>238.5</ele><time>2026-04-04T09:04:16.261Z</time></trkpt><trkpt lat="43.37442" lon="11.82465"><ele>239.0</ele><time>2026-04-04T09:04:18.258Z</time></trkpt><trkpt lat="43.3742983" lon="11.8246783"><ele>239.5</ele><time>2026-04-04T09:04:20.26Z</time></trkpt><trkpt lat="43.3741733" lon="11.8246983"><ele>240.0</ele><time>2026-04-04T09:04:22.26Z</time></trkpt><trkpt lat="43.3740517" lon="11.8247233"><ele>240.0</ele><time>2026-04-04T09:04:24.264Z</time></trkpt><trkpt lat="43.3739317" lon="11.8247433"><ele>240.0</ele><time>2026-04-04T09:04:26.261Z</time></trkpt><trkpt lat="43.3738117" lon="11.82476"><ele>240.0</ele><time>2026-04-04T09:04:28.258Z</time></trkpt><trkpt lat="43.37369" lon="11.8247833"><ele>240.0</ele><time>2026-04-04T09:04:30.263Z</time></trkpt><trkpt lat="43.3735717" lon="11.82481"><ele>239.75</ele><time>2026-04-04T09:04:32.262Z</time></trkpt><trkpt lat="43.3734567" lon="11.824835"><ele>239.5</ele><time>2026-04-04T09:04:34.263Z</time></trkpt><trkpt lat="43.37334" lon="11.8248583"><ele>239.25</ele><time>2026-04-04T09:04:36.263Z</time></trkpt><trkpt lat="43.3732233" lon="11.8248833"><ele>239.0</ele><time>2026-04-04T09:04:38.263Z</time></trkpt><trkpt lat="43.3731067" lon="11.824905"><ele>239.25</ele><time>2026-04-04T09:04:40.26Z</time></trkpt><trkpt lat="43.3729867" lon="11.8249267"><ele>239.5</ele><time>2026-04-04T09:04:42.261Z</time></trkpt><trkpt lat="43.3728683" lon="11.8249433"><ele>239.75</ele><time>2026-04-04T09:04:44.261Z</time></trkpt><trkpt lat="43.3727483" lon="11.824965"><ele>240.0</ele><time>2026-04-04T09:04:46.258Z</time></trkpt><trkpt lat="43.3726317" lon="11.8249867"><ele>240.0</ele><time>2026-04-04T09:04:48.258Z</time></trkpt><trkpt lat="43.3725117" lon="11.8250033"><ele>240.0</ele><time>2026-04-04T09:04:50.262Z</time></trkpt><trkpt lat="43.3723883" lon="11.8250183"><ele>240.0</ele><time>2026-04-04T09:04:52.258Z</time></trkpt><trkpt lat="43.37227" lon="11.82504"><ele>240.0</ele><time>2026-04-04T09:04:54.262Z</time></trkpt><trkpt lat="43.3721533" lon="11.8250667"><ele>240.0</ele><time>2026-04-04T09:04:56.264Z</time></trkpt><trkpt lat="43.3720333" lon="11.8250883"><ele>240.0</ele><time>2026-04-04T09:04:58.258Z</time></trkpt><trkpt lat="43.3719133" lon="11.82511"><ele>240.0</ele><time>2026-04-04T09:05:00.262Z</time></trkpt><trkpt lat="43.371795" lon="11.82513"><ele>240.0</ele><time>2026-04-04T09:05:02.26Z</time></trkpt><trkpt lat="43.3716717" lon="11.8251533"><ele>239.25</ele><time>2026-04-04T09:05:04.269Z</time></trkpt><trkpt lat="43.3715467" lon="11.8251783"><ele>238.5</ele><time>2026-04-04T09:05:06.261Z</time></trkpt><trkpt lat="43.371425" lon="11.8251983"><ele>237.75</ele><time>2026-04-04T09:05:08.264Z</time></trkpt><trkpt lat="43.3713033" lon="11.8252217"><ele>237.0</ele><time>2026-04-04T09:05:10.264Z</time></trkpt><trkpt lat="43.3711833" lon="11.8252433"><ele>237.0</ele><time>2026-04-04T09:05:12.261Z</time></trkpt><trkpt lat="43.3710617" lon="11.8252667"><ele>237.0</ele><time>2026-04-04T09:05:14.261Z</time></trkpt><trkpt lat="43.3709417" lon="11.8252933"><ele>237.0</ele><time>2026-04-04T09:05:16.262Z</time></trkpt><trkpt lat="43.3708233" lon="11.825325"><ele>237.0</ele><time>2026-04-04T09:05:18.26Z</time></trkpt><trkpt lat="43.3707017" lon="11.8253517"><ele>237.0</ele><time>2026-04-04T09:05:20.259Z</time></trkpt><trkpt lat="43.37058" lon="11.8253733"><ele>237.0</ele><time>2026-04-04T09:05:22.261Z</time></trkpt><trkpt lat="43.3704583" lon="11.8253967"><ele>237.0</ele><time>2026-04-04T09:05:24.261Z</time></trkpt><trkpt lat="43.3703367" lon="11.82542"><ele>237.0</ele><time>2026-04-04T09:05:26.259Z</time></trkpt><trkpt lat="43.370215" lon="11.82544"><ele>236.75</ele><time>2026-04-04T09:05:28.259Z</time></trkpt><trkpt lat="43.3700933" lon="11.825465"><ele>236.5</ele><time>2026-04-04T09:05:30.263Z</time></trkpt><trkpt lat="43.3699733" lon="11.8254867"><ele>236.25</ele><time>2026-04-04T09:05:32.26Z</time></trkpt><trkpt lat="43.36985" lon="11.8255083"><ele>236.0</ele><time>2026-04-04T09:05:34.258Z</time></trkpt><trkpt lat="43.3697267" lon="11.8255317"><ele>236.5</ele><time>2026-04-04T09:05:36.26Z</time></trkpt><trkpt lat="43.3696033" lon="11.8255533"><ele>237.0</ele><time>2026-04-04T09:05:38.261Z</time></trkpt><trkpt lat="43.3694817" lon="11.82558"><ele>237.5</ele><time>2026-04-04T09:05:40.26Z</time></trkpt><trkpt lat="43.3693633" lon="11.825605"><ele>238.0</ele><time>2026-04-04T09:05:42.26Z</time></trkpt><trkpt lat="43.3692417" lon="11.8256383"><ele>238.0</ele><time>2026-04-04T09:05:44.261Z</time></trkpt><trkpt lat="43.3691767" lon="11.8256517"><ele>238.0</ele><time>2026-04-04T09:05:45.259Z</time></trkpt><trkpt lat="43.3690583" lon="11.825675"><ele>238.0</ele><time>2026-04-04T09:05:47.258Z</time></trkpt><trkpt lat="43.368935" lon="11.8256983"><ele>238.0</ele><time>2026-04-04T09:05:49.26Z</time></trkpt><trkpt lat="43.3688717" lon="11.8257117"><ele>238.0</ele><time>2026-04-04T09:05:50.267Z</time></trkpt><trkpt lat="43.3687467" lon="11.8257367"><ele>238.2</ele><time>2026-04-04T09:05:52.26Z</time></trkpt><trkpt lat="43.3686217" lon="11.82576"><ele>238.4</ele><time>2026-04-04T09:05:54.259Z</time></trkpt><trkpt lat="43.3684983" lon="11.8257933"><ele>238.59999999999997</ele><time>2026-04-04T09:05:56.26Z</time></trkpt><trkpt lat="43.3683767" lon="11.8258167"><ele>238.79999999999998</ele><time>2026-04-04T09:05:58.26Z</time></trkpt><trkpt lat="43.3683133" lon="11.82583"><ele>239.0</ele><time>2026-04-04T09:05:59.263Z</time></trkpt><trkpt lat="43.36825" lon="11.8258367"><ele>239.00000000000003</ele><time>2026-04-04T09:06:00.266Z</time></trkpt><trkpt lat="43.3681867" lon="11.825845"><ele>239.0</ele><time>2026-04-04T09:06:01.261Z</time></trkpt><trkpt lat="43.3680633" lon="11.8258617"><ele>239.00000000000003</ele><time>2026-04-04T09:06:03.26Z</time></trkpt><trkpt lat="43.368" lon="11.8258717"><ele>239.00000000000003</ele><time>2026-04-04T09:06:04.26Z</time></trkpt><trkpt lat="43.3679367" lon="11.8258767"><ele>239.0</ele><time>2026-04-04T09:06:05.257Z</time></trkpt><trkpt lat="43.3678733" lon="11.8258817"><ele>239.00000000000003</ele><time>2026-04-04T09:06:06.26Z</time></trkpt><trkpt lat="43.3678083" lon="11.8258867"><ele>239.00000000000003</ele><time>2026-04-04T09:06:07.259Z</time></trkpt><trkpt lat="43.367745" lon="11.825895"><ele>239.0</ele><time>2026-04-04T09:06:08.263Z</time></trkpt><trkpt lat="43.36768" lon="11.8258967"><ele>238.99999999999997</ele><time>2026-04-04T09:06:09.263Z</time></trkpt><trkpt lat="43.3675583" lon="11.8259067"><ele>238.99999999999997</ele><time>2026-04-04T09:06:11.259Z</time></trkpt><trkpt lat="43.3674367" lon="11.8259133"><ele>239.0</ele><time>2026-04-04T09:06:13.261Z</time></trkpt><trkpt lat="43.367315" lon="11.82592"><ele>239.0</ele><time>2026-04-04T09:06:15.259Z</time></trkpt><trkpt lat="43.3671933" lon="11.8259333"><ele>239.0</ele><time>2026-04-04T09:06:17.261Z</time></trkpt><trkpt lat="43.3670733" lon="11.8259417"><ele>239.0</ele><time>2026-04-04T09:06:19.26Z</time></trkpt><trkpt lat="43.3669583" lon="11.8259433"><ele>239.0</ele><time>2026-04-04T09:06:21.257Z</time></trkpt><trkpt lat="43.3668367" lon="11.82595"><ele>239.0</ele><time>2026-04-04T09:06:23.261Z</time></trkpt><trkpt lat="43.366715" lon="11.8259617"><ele>239.0</ele><time>2026-04-04T09:06:25.26Z</time></trkpt><trkpt lat="43.3665917" lon="11.8259733"><ele>239.0</ele><time>2026-04-04T09:06:27.257Z</time></trkpt><trkpt lat="43.3664683" lon="11.8259833"><ele>239.0</ele><time>2026-04-04T09:06:29.259Z</time></trkpt><trkpt lat="43.3663483" lon="11.8259883"><ele>239.0</ele><time>2026-04-04T09:06:31.258Z</time></trkpt><trkpt lat="43.366225" lon="11.8260017"><ele>238.8571428571429</ele><time>2026-04-04T09:06:33.258Z</time></trkpt><trkpt lat="43.36616" lon="11.8260083"><ele>238.71428571428572</ele><time>2026-04-04T09:06:34.257Z</time></trkpt><trkpt lat="43.3660967" lon="11.826015"><ele>238.57142857142858</ele><time>2026-04-04T09:06:35.257Z</time></trkpt><trkpt lat="43.3660333" lon="11.8260233"><ele>238.42857142857144</ele><time>2026-04-04T09:06:36.26Z</time></trkpt><trkpt lat="43.36597" lon="11.8260267"><ele>238.28571428571428</ele><time>2026-04-04T09:06:37.258Z</time></trkpt><trkpt lat="43.3659067" lon="11.8260333"><ele>238.14285714285714</ele><time>2026-04-04T09:06:38.259Z</time></trkpt><trkpt lat="43.36584" lon="11.82604"><ele>238.0</ele><time>2026-04-04T09:06:39.262Z</time></trkpt><trkpt lat="43.365775" lon="11.8260483"><ele>238.0</ele><time>2026-04-04T09:06:40.261Z</time></trkpt><trkpt lat="43.3657083" lon="11.8260533"><ele>238.0</ele><time>2026-04-04T09:06:41.258Z</time></trkpt><trkpt lat="43.3656433" lon="11.8260567"><ele>238.0</ele><time>2026-04-04T09:06:42.258Z</time></trkpt><trkpt lat="43.36558" lon="11.8260617"><ele>238.0</ele><time>2026-04-04T09:06:43.261Z</time></trkpt><trkpt lat="43.3655167" lon="11.8260667"><ele>238.0</ele><time>2026-04-04T09:06:44.262Z</time></trkpt><trkpt lat="43.3654533" lon="11.82607"><ele>238.0</ele><time>2026-04-04T09:06:45.257Z</time></trkpt><trkpt lat="43.36539" lon="11.826075"><ele>238.0</ele><time>2026-04-04T09:06:46.257Z</time></trkpt><trkpt lat="43.3653267" lon="11.8260817"><ele>238.0</ele><time>2026-04-04T09:06:47.261Z</time></trkpt><trkpt lat="43.3652017" lon="11.8260933"><ele>237.8</ele><time>2026-04-04T09:06:49.261Z</time></trkpt><trkpt lat="43.3650783" lon="11.8261067"><ele>237.60000000000002</ele><time>2026-04-04T09:06:51.257Z</time></trkpt><trkpt lat="43.3649533" lon="11.8261233"><ele>237.39999999999998</ele><time>2026-04-04T09:06:53.259Z</time></trkpt><trkpt lat="43.36483" lon="11.8261333"><ele>237.2</ele><time>2026-04-04T09:06:55.259Z</time></trkpt><trkpt lat="43.3647667" lon="11.8261383"><ele>237.0</ele><time>2026-04-04T09:06:56.258Z</time></trkpt><trkpt lat="43.3646417" lon="11.8261467"><ele>237.0</ele><time>2026-04-04T09:06:58.259Z</time></trkpt><trkpt lat="43.3645783" lon="11.8261517"><ele>237.0</ele><time>2026-04-04T09:06:59.262Z</time></trkpt><trkpt lat="43.364515" lon="11.8261583"><ele>237.0</ele><time>2026-04-04T09:07:00.26Z</time></trkpt><trkpt lat="43.3644517" lon="11.82616"><ele>237.0</ele><time>2026-04-04T09:07:01.262Z</time></trkpt><trkpt lat="43.36433" lon="11.8261667"><ele>237.0</ele><time>2026-04-04T09:07:03.26Z</time></trkpt><trkpt lat="43.3642067" lon="11.8261817"><ele>237.0</ele><time>2026-04-04T09:07:05.263Z</time></trkpt><trkpt lat="43.364085" lon="11.8261917"><ele>237.0</ele><time>2026-04-04T09:07:07.261Z</time></trkpt><trkpt lat="43.3639683" lon="11.8262033"><ele>237.0</ele><time>2026-04-04T09:07:09.262Z</time></trkpt><trkpt lat="43.3638567" lon="11.82621"><ele>237.0</ele><time>2026-04-04T09:07:11.26Z</time></trkpt><trkpt lat="43.3637483" lon="11.8262217"><ele>237.0</ele><time>2026-04-04T09:07:13.261Z</time></trkpt><trkpt lat="43.3636417" lon="11.8262333"><ele>237.0</ele><time>2026-04-04T09:07:15.257Z</time></trkpt><trkpt lat="43.3635467" lon="11.8262417"><ele>237.0</ele><time>2026-04-04T09:07:17.26Z</time></trkpt><trkpt lat="43.3634617" lon="11.8262483"><ele>237.0</ele><time>2026-04-04T09:07:19.26Z</time></trkpt><trkpt lat="43.3633733" lon="11.8262533"><ele>237.0</ele><time>2026-04-04T09:07:21.26Z</time></trkpt><trkpt lat="43.3632817" lon="11.8262633"><ele>237.0</ele><time>2026-04-04T09:07:23.262Z</time></trkpt><trkpt lat="43.363185" lon="11.8262667"><ele>237.0</ele><time>2026-04-04T09:07:25.258Z</time></trkpt><trkpt lat="43.3630883" lon="11.8262717"><ele>237.39999999999998</ele><time>2026-04-04T09:07:27.263Z</time></trkpt><trkpt lat="43.36299" lon="11.82628"><ele>237.79999999999998</ele><time>2026-04-04T09:07:29.26Z</time></trkpt><trkpt lat="43.3628967" lon="11.826285"><ele>238.2</ele><time>2026-04-04T09:07:31.26Z</time></trkpt><trkpt lat="43.3628083" lon="11.8262933"><ele>238.6</ele><time>2026-04-04T09:07:33.261Z</time></trkpt><trkpt lat="43.3627267" lon="11.8263033"><ele>239.0</ele><time>2026-04-04T09:07:35.257Z</time></trkpt><trkpt lat="43.3626367" lon="11.8263067"><ele>239.0</ele><time>2026-04-04T09:07:37.258Z</time></trkpt><trkpt lat="43.3625417" lon="11.8263117"><ele>238.99999999999997</ele><time>2026-04-04T09:07:39.262Z</time></trkpt><trkpt lat="43.36244" lon="11.8263183"><ele>238.99999999999997</ele><time>2026-04-04T09:07:41.257Z</time></trkpt><trkpt lat="43.3623383" lon="11.82633"><ele>239.0</ele><time>2026-04-04T09:07:43.258Z</time></trkpt><trkpt lat="43.3622383" lon="11.8263433"><ele>239.0</ele><time>2026-04-04T09:07:45.264Z</time></trkpt><trkpt lat="43.3621333" lon="11.8263517"><ele>238.79999999999998</ele><time>2026-04-04T09:07:47.26Z</time></trkpt><trkpt lat="43.3620333" lon="11.8263617"><ele>238.59999999999997</ele><time>2026-04-04T09:07:49.26Z</time></trkpt><trkpt lat="43.3619367" lon="11.826365"><ele>238.4</ele><time>2026-04-04T09:07:51.258Z</time></trkpt><trkpt lat="43.3618383" lon="11.8263733"><ele>238.2</ele><time>2026-04-04T09:07:53.257Z</time></trkpt><trkpt lat="43.3617417" lon="11.8263883"><ele>238.0</ele><time>2026-04-04T09:07:55.258Z</time></trkpt><trkpt lat="43.3616433" lon="11.8263967"><ele>238.0</ele><time>2026-04-04T09:07:57.257Z</time></trkpt><trkpt lat="43.3615433" lon="11.8264017"><ele>238.0</ele><time>2026-04-04T09:07:59.259Z</time></trkpt><trkpt lat="43.3614433" lon="11.82641"><ele>238.0</ele><time>2026-04-04T09:08:01.259Z</time></trkpt><trkpt lat="43.3613433" lon="11.8264167"><ele>238.0</ele><time>2026-04-04T09:08:03.257Z</time></trkpt><trkpt lat="43.3612383" lon="11.8264233"><ele>238.0</ele><time>2026-04-04T09:08:05.258Z</time></trkpt><trkpt lat="43.361135" lon="11.8264317"><ele>238.2</ele><time>2026-04-04T09:08:07.258Z</time></trkpt><trkpt lat="43.3610317" lon="11.82644"><ele>238.4</ele><time>2026-04-04T09:08:09.258Z</time></trkpt><trkpt lat="43.3609283" lon="11.8264483"><ele>238.59999999999997</ele><time>2026-04-04T09:08:11.26Z</time></trkpt><trkpt lat="43.3608233" lon="11.8264567"><ele>238.79999999999998</ele><time>2026-04-04T09:08:13.26Z</time></trkpt><trkpt lat="43.3607183" lon="11.826465"><ele>239.0</ele><time>2026-04-04T09:08:15.261Z</time></trkpt><trkpt lat="43.3606133" lon="11.826475"><ele>239.0</ele><time>2026-04-04T09:08:17.26Z</time></trkpt><trkpt lat="43.36051" lon="11.826485"><ele>238.99999999999997</ele><time>2026-04-04T09:08:19.257Z</time></trkpt><trkpt lat="43.3604083" lon="11.8264917"><ele>238.99999999999997</ele><time>2026-04-04T09:08:21.259Z</time></trkpt><trkpt lat="43.3603067" lon="11.826505"><ele>239.0</ele><time>2026-04-04T09:08:23.257Z</time></trkpt><trkpt lat="43.360205" lon="11.8265117"><ele>239.0</ele><time>2026-04-04T09:08:25.259Z</time></trkpt><trkpt lat="43.3601033" lon="11.8265217"><ele>239.0</ele><time>2026-04-04T09:08:27.258Z</time></trkpt><trkpt lat="43.3600017" lon="11.8265267"><ele>238.99999999999997</ele><time>2026-04-04T09:08:29.26Z</time></trkpt><trkpt lat="43.3598983" lon="11.8265317"><ele>238.99999999999997</ele><time>2026-04-04T09:08:31.258Z</time></trkpt><trkpt lat="43.3597933" lon="11.8265367"><ele>239.0</ele><time>2026-04-04T09:08:33.258Z</time></trkpt><trkpt lat="43.3596867" lon="11.82654"><ele>239.0</ele><time>2026-04-04T09:08:35.259Z</time></trkpt><trkpt lat="43.3595817" lon="11.82655"><ele>239.2</ele><time>2026-04-04T09:08:37.26Z</time></trkpt><trkpt lat="43.3594783" lon="11.82656"><ele>239.39999999999998</ele><time>2026-04-04T09:08:39.26Z</time></trkpt><trkpt lat="43.3593783" lon="11.8265767"><ele>239.6</ele><time>2026-04-04T09:08:41.26Z</time></trkpt><trkpt lat="43.3592767" lon="11.8265867"><ele>239.8</ele><time>2026-04-04T09:08:43.257Z</time></trkpt><trkpt lat="43.3591733" lon="11.8265967"><ele>240.0</ele><time>2026-04-04T09:08:45.26Z</time></trkpt><trkpt lat="43.3590683" lon="11.8266033"><ele>240.0</ele><time>2026-04-04T09:08:47.259Z</time></trkpt><trkpt lat="43.3589633" lon="11.8266133"><ele>240.0</ele><time>2026-04-04T09:08:49.261Z</time></trkpt><trkpt lat="43.3588533" lon="11.82662"><ele>240.0</ele><time>2026-04-04T09:08:51.261Z</time></trkpt><trkpt lat="43.3587417" lon="11.826625"><ele>240.0</ele><time>2026-04-04T09:08:53.26Z</time></trkpt><trkpt lat="43.35863" lon="11.8266317"><ele>240.0</ele><time>2026-04-04T09:08:55.259Z</time></trkpt><trkpt lat="43.358515" lon="11.82664"><ele>240.2</ele><time>2026-04-04T09:08:57.259Z</time></trkpt><trkpt lat="43.3584017" lon="11.82665"><ele>240.4</ele><time>2026-04-04T09:08:59.258Z</time></trkpt><trkpt lat="43.3582883" lon="11.8266583"><ele>240.60000000000002</ele><time>2026-04-04T09:09:01.258Z</time></trkpt><trkpt lat="43.3581783" lon="11.826665"><ele>240.8</ele><time>2026-04-04T09:09:03.259Z</time></trkpt><trkpt lat="43.35807" lon="11.826675"><ele>241.0</ele><time>2026-04-04T09:09:05.262Z</time></trkpt><trkpt lat="43.35796" lon="11.82668"><ele>241.20000000000002</ele><time>2026-04-04T09:09:07.262Z</time></trkpt><trkpt lat="43.35785" lon="11.826685"><ele>241.40000000000003</ele><time>2026-04-04T09:09:09.259Z</time></trkpt><trkpt lat="43.35774" lon="11.826675"><ele>241.6</ele><time>2026-04-04T09:09:11.263Z</time></trkpt><trkpt lat="43.3576283" lon="11.82667"><ele>241.8</ele><time>2026-04-04T09:09:13.262Z</time></trkpt><trkpt lat="43.3575233" lon="11.82666"><ele>242.0</ele><time>2026-04-04T09:09:15.263Z</time></trkpt><trkpt lat="43.3574167" lon="11.8266533"><ele>242.0</ele><time>2026-04-04T09:09:17.261Z</time></trkpt><trkpt lat="43.3573083" lon="11.8266433"><ele>242.0</ele><time>2026-04-04T09:09:19.262Z</time></trkpt><trkpt lat="43.3571983" lon="11.82664"><ele>242.0</ele><time>2026-04-04T09:09:21.26Z</time></trkpt><trkpt lat="43.3570883" lon="11.826635"><ele>242.0</ele><time>2026-04-04T09:09:23.26Z</time></trkpt><trkpt lat="43.3569783" lon="11.8266233"><ele>242.0</ele><time>2026-04-04T09:09:25.257Z</time></trkpt><trkpt lat="43.3568733" lon="11.8266167"><ele>241.6</ele><time>2026-04-04T09:09:27.259Z</time></trkpt><trkpt lat="43.3567667" lon="11.826615"><ele>241.2</ele><time>2026-04-04T09:09:29.26Z</time></trkpt><trkpt lat="43.3566583" lon="11.8266117"><ele>240.8</ele><time>2026-04-04T09:09:31.263Z</time></trkpt><trkpt lat="43.3565483" lon="11.8266083"><ele>240.4</ele><time>2026-04-04T09:09:33.259Z</time></trkpt><trkpt lat="43.35644" lon="11.826605"><ele>240.0</ele><time>2026-04-04T09:09:35.259Z</time></trkpt><trkpt lat="43.3563333" lon="11.8265917"><ele>240.0</ele><time>2026-04-04T09:09:37.261Z</time></trkpt><trkpt lat="43.3562267" lon="11.8265833"><ele>240.0</ele><time>2026-04-04T09:09:39.263Z</time></trkpt><trkpt lat="43.3561267" lon="11.82658"><ele>240.0</ele><time>2026-04-04T09:09:41.259Z</time></trkpt><trkpt lat="43.35602" lon="11.8265833"><ele>240.0</ele><time>2026-04-04T09:09:43.261Z</time></trkpt><trkpt lat="43.355915" lon="11.8265817"><ele>240.0</ele><time>2026-04-04T09:09:45.261Z</time></trkpt><trkpt lat="43.35581" lon="11.826585"><ele>240.0</ele><time>2026-04-04T09:09:47.26Z</time></trkpt><trkpt lat="43.355705" lon="11.826585"><ele>240.0</ele><time>2026-04-04T09:09:49.262Z</time></trkpt><trkpt lat="43.3556" lon="11.8265817"><ele>240.0</ele><time>2026-04-04T09:09:51.264Z</time></trkpt><trkpt lat="43.3554967" lon="11.8265783"><ele>240.0</ele><time>2026-04-04T09:09:53.26Z</time></trkpt><trkpt lat="43.3553933" lon="11.8265667"><ele>240.0</ele><time>2026-04-04T09:09:55.26Z</time></trkpt><trkpt lat="43.35529" lon="11.8265583"><ele>240.0</ele><time>2026-04-04T09:09:57.258Z</time></trkpt><trkpt lat="43.3551867" lon="11.8265583"><ele>240.0</ele><time>2026-04-04T09:09:59.26Z</time></trkpt><trkpt lat="43.3550967" lon="11.8265583"><ele>240.0</ele><time>2026-04-04T09:10:01.257Z</time></trkpt><trkpt lat="43.3550317" lon="11.8265567"><ele>240.0</ele><time>2026-04-04T09:10:03.26Z</time></trkpt><trkpt lat="43.3549567" lon="11.8265467"><ele>240.0</ele><time>2026-04-04T09:10:07.26Z</time></trkpt><trkpt lat="43.3548783" lon="11.8265583"><ele>240.0</ele><time>2026-04-04T09:10:12.259Z</time></trkpt><trkpt lat="43.35478" lon="11.8265583"><ele>240.0</ele><time>2026-04-04T09:10:21.26Z</time></trkpt><trkpt lat="43.3547083" lon="11.8265567"><ele>240.0</ele><time>2026-04-04T09:10:24.258Z</time></trkpt><trkpt lat="43.3546267" lon="11.8265467"><ele>240.0</ele><time>2026-04-04T09:10:27.262Z</time></trkpt><trkpt lat="43.35456" lon="11.8265433"><ele>240.0</ele><time>2026-04-04T09:10:30.261Z</time></trkpt><trkpt lat="43.3544667" lon="11.8265317"><ele>240.0</ele><time>2026-04-04T09:10:33.26Z</time></trkpt><trkpt lat="43.3543983" lon="11.8265233"><ele>240.0</ele><time>2026-04-04T09:10:35.259Z</time></trkpt><trkpt lat="43.3543217" lon="11.8265283"><ele>240.0</ele><time>2026-04-04T09:10:37.257Z</time></trkpt><trkpt lat="43.3542333" lon="11.82653"><ele>240.0</ele><time>2026-04-04T09:10:39.261Z</time></trkpt><trkpt lat="43.3541417" lon="11.82653"><ele>240.0</ele><time>2026-04-04T09:10:41.256Z</time></trkpt><trkpt lat="43.3540433" lon="11.8265333"><ele>240.0</ele><time>2026-04-04T09:10:43.263Z</time></trkpt><trkpt lat="43.3539433" lon="11.8265333"><ele>240.0</ele><time>2026-04-04T09:10:45.259Z</time></trkpt><trkpt lat="43.3538433" lon="11.8265317"><ele>240.0</ele><time>2026-04-04T09:10:47.259Z</time></trkpt><trkpt lat="43.353745" lon="11.8265283"><ele>240.0</ele><time>2026-04-04T09:10:49.262Z</time></trkpt><trkpt lat="43.3536517" lon="11.8265217"><ele>240.0</ele><time>2026-04-04T09:10:51.259Z</time></trkpt><trkpt lat="43.3535667" lon="11.8265167"><ele>240.0</ele><time>2026-04-04T09:10:53.26Z</time></trkpt><trkpt lat="43.3534767" lon="11.8265083"><ele>240.0</ele><time>2026-04-04T09:10:55.259Z</time></trkpt><trkpt lat="43.3533733" lon="11.826495"><ele>240.0</ele><time>2026-04-04T09:10:57.258Z</time></trkpt><trkpt lat="43.3532717" lon="11.8264817"><ele>240.0</ele><time>2026-04-04T09:10:59.259Z</time></trkpt><trkpt lat="43.3531733" lon="11.8264767"><ele>240.0</ele><time>2026-04-04T09:11:01.258Z</time></trkpt><trkpt lat="43.353075" lon="11.8264783"><ele>240.0</ele><time>2026-04-04T09:11:03.26Z</time></trkpt><trkpt lat="43.352975" lon="11.8264817"><ele>240.0</ele><time>2026-04-04T09:11:05.261Z</time></trkpt><trkpt lat="43.3528817" lon="11.8264683"><ele>240.0</ele><time>2026-04-04T09:11:07.26Z</time></trkpt><trkpt lat="43.3528" lon="11.8264633"><ele>240.0</ele><time>2026-04-04T09:11:09.259Z</time></trkpt><trkpt lat="43.3527183" lon="11.8264667"><ele>240.0</ele><time>2026-04-04T09:11:11.257Z</time></trkpt><trkpt lat="43.35264" lon="11.8264667"><ele>240.0</ele><time>2026-04-04T09:11:13.263Z</time></trkpt><trkpt lat="43.35257" lon="11.826465"><ele>240.0</ele><time>2026-04-04T09:11:15.261Z</time></trkpt><trkpt lat="43.3525033" lon="11.8264617"><ele>240.0</ele><time>2026-04-04T09:11:17.263Z</time></trkpt><trkpt lat="43.3524383" lon="11.8264633"><ele>240.0</ele><time>2026-04-04T09:11:19.262Z</time></trkpt><trkpt lat="43.3523583" lon="11.8264433"><ele>240.0</ele><time>2026-04-04T09:11:22.263Z</time></trkpt><trkpt lat="43.352295" lon="11.8264283"><ele>240.0</ele><time>2026-04-04T09:11:25.261Z</time></trkpt><trkpt lat="43.352225" lon="11.82644"><ele>240.0</ele><time>2026-04-04T09:11:40.259Z</time></trkpt><trkpt lat="43.3522083" lon="11.8265483"><ele>240.0</ele><time>2026-04-04T09:11:45.259Z</time></trkpt><trkpt lat="43.3522183" lon="11.8266467"><ele>240.0</ele><time>2026-04-04T09:11:48.26Z</time></trkpt><trkpt lat="43.35223" lon="11.8267633"><ele>240.0</ele><time>2026-04-04T09:11:51.261Z</time></trkpt><trkpt lat="43.3522483" lon="11.826885"><ele>240.4</ele><time>2026-04-04T09:11:54.261Z</time></trkpt><trkpt lat="43.35226" lon="11.8269917"><ele>240.8</ele><time>2026-04-04T09:11:57.258Z</time></trkpt><trkpt lat="43.3522733" lon="11.8271033"><ele>241.2</ele><time>2026-04-04T09:12:00.259Z</time></trkpt><trkpt lat="43.352285" lon="11.8272133"><ele>241.6</ele><time>2026-04-04T09:12:03.261Z</time></trkpt><trkpt lat="43.3523017" lon="11.8273167"><ele>242.0</ele><time>2026-04-04T09:12:06.259Z</time></trkpt><trkpt lat="43.35219" lon="11.8271417"><ele>242.0</ele><time>2026-04-04T09:12:20.26Z</time></trkpt><trkpt lat="43.351905" lon="11.826895"><ele>242.0</ele><time>2026-04-04T09:12:25.256Z</time></trkpt><trkpt lat="43.3514567" lon="11.8267767"><ele>241.5</ele><time>2026-04-04T09:12:27.257Z</time></trkpt><trkpt lat="43.351825" lon="11.8267717"><ele>241.0</ele><time>2026-04-04T09:12:28.254Z</time></trkpt><trkpt lat="43.35173" lon="11.8267833"><ele>241.16666666666666</ele><time>2026-04-04T09:12:31.258Z</time></trkpt><trkpt lat="43.3517467" lon="11.8268683"><ele>241.33333333333331</ele><time>2026-04-04T09:12:34.257Z</time></trkpt><trkpt lat="43.3518033" lon="11.8269583"><ele>241.5</ele><time>2026-04-04T09:12:36.259Z</time></trkpt><trkpt lat="43.3518717" lon="11.8270117"><ele>241.66666666666669</ele><time>2026-04-04T09:12:37.262Z</time></trkpt><trkpt lat="43.3519367" lon="11.8270817"><ele>241.83333333333334</ele><time>2026-04-04T09:12:38.259Z</time></trkpt><trkpt lat="43.3520167" lon="11.827205"><ele>242.0</ele><time>2026-04-04T09:12:40.257Z</time></trkpt><trkpt lat="43.3520517" lon="11.8273133"><ele>242.00000000000003</ele><time>2026-04-04T09:12:42.257Z</time></trkpt><trkpt lat="43.3520983" lon="11.827415"><ele>242.0</ele><time>2026-04-04T09:12:44.259Z</time></trkpt><trkpt lat="43.35215" lon="11.8275217"><ele>242.0</ele><time>2026-04-04T09:12:45.261Z</time></trkpt><trkpt lat="43.35219" lon="11.8276117"><ele>242.0</ele><time>2026-04-04T09:12:46.259Z</time></trkpt><trkpt lat="43.3522183" lon="11.82769"><ele>242.00000000000003</ele><time>2026-04-04T09:12:47.258Z</time></trkpt><trkpt lat="43.3522583" lon="11.827815"><ele>242.0</ele><time>2026-04-04T09:12:49.257Z</time></trkpt><trkpt lat="43.352295" lon="11.827955"><ele>242.00000000000003</ele><time>2026-04-04T09:12:51.259Z</time></trkpt><trkpt lat="43.3523217" lon="11.8280767"><ele>242.0</ele><time>2026-04-04T09:12:53.259Z</time></trkpt><trkpt lat="43.3523433" lon="11.8281883"><ele>242.0</ele><time>2026-04-04T09:12:55.26Z</time></trkpt><trkpt lat="43.3523533" lon="11.8282883"><ele>242.0</ele><time>2026-04-04T09:12:57.264Z</time></trkpt><trkpt lat="43.352365" lon="11.8283933"><ele>242.00000000000003</ele><time>2026-04-04T09:12:59.259Z</time></trkpt><trkpt lat="43.3523783" lon="11.828495"><ele>242.0</ele><time>2026-04-04T09:13:01.261Z</time></trkpt><trkpt lat="43.35239" lon="11.8285867"><ele>242.0</ele><time>2026-04-04T09:13:03.257Z</time></trkpt><trkpt lat="43.3523983" lon="11.8286833"><ele>241.99999999999997</ele><time>2026-04-04T09:13:05.259Z</time></trkpt><trkpt lat="43.35241" lon="11.8287733"><ele>242.0</ele><time>2026-04-04T09:13:07.264Z</time></trkpt><trkpt lat="43.3524183" lon="11.8288933"><ele>242.0</ele><time>2026-04-04T09:13:10.256Z</time></trkpt><trkpt lat="43.352435" lon="11.8290017"><ele>241.99999999999997</ele><time>2026-04-04T09:13:13.262Z</time></trkpt><trkpt lat="43.3524433" lon="11.82909"><ele>242.0</ele><time>2026-04-04T09:13:15.26Z</time></trkpt><trkpt lat="43.3523767" lon="11.829035"><ele>242.0</ele><time>2026-04-04T09:13:33.258Z</time></trkpt><trkpt lat="43.3524" lon="11.8291633"><ele>242.00000000000003</ele><time>2026-04-04T09:13:36.255Z</time></trkpt><trkpt lat="43.3524317" lon="11.8292733"><ele>242.0</ele><time>2026-04-04T09:13:38.26Z</time></trkpt><trkpt lat="43.3524683" lon="11.829415"><ele>242.0</ele><time>2026-04-04T09:13:40.258Z</time></trkpt><trkpt lat="43.3524883" lon="11.8295417"><ele>242.0</ele><time>2026-04-04T09:13:42.26Z</time></trkpt><trkpt lat="43.3524967" lon="11.8296467"><ele>242.00000000000003</ele><time>2026-04-04T09:13:44.261Z</time></trkpt><trkpt lat="43.3525083" lon="11.8297483"><ele>242.0</ele><time>2026-04-04T09:13:46.259Z</time></trkpt><trkpt lat="43.3525183" lon="11.8298533"><ele>242.00000000000003</ele><time>2026-04-04T09:13:48.258Z</time></trkpt><trkpt lat="43.3525283" lon="11.8299633"><ele>242.0</ele><time>2026-04-04T09:13:50.258Z</time></trkpt><trkpt lat="43.35254" lon="11.83008"><ele>242.0</ele><time>2026-04-04T09:13:52.258Z</time></trkpt><trkpt lat="43.35256" lon="11.8301917"><ele>242.0</ele><time>2026-04-04T09:13:54.263Z</time></trkpt><trkpt lat="43.3525733" lon="11.8303117"><ele>242.00000000000003</ele><time>2026-04-04T09:13:56.258Z</time></trkpt><trkpt lat="43.35259" lon="11.8304433"><ele>242.0</ele><time>2026-04-04T09:13:58.259Z</time></trkpt><trkpt lat="43.3526033" lon="11.8305783"><ele>242.0</ele><time>2026-04-04T09:14:00.257Z</time></trkpt><trkpt lat="43.352615" lon="11.8307283"><ele>242.0</ele><time>2026-04-04T09:14:02.258Z</time></trkpt><trkpt lat="43.35263" lon="11.8308783"><ele>242.0</ele><time>2026-04-04T09:14:04.258Z</time></trkpt><trkpt lat="43.35264" lon="11.8310217"><ele>242.0</ele><time>2026-04-04T09:14:06.257Z</time></trkpt><trkpt lat="43.3526567" lon="11.8311617"><ele>242.0</ele><time>2026-04-04T09:14:08.257Z</time></trkpt><trkpt lat="43.3526733" lon="11.8313083"><ele>242.0</ele><time>2026-04-04T09:14:10.259Z</time></trkpt><trkpt lat="43.3526917" lon="11.8314433"><ele>242.0</ele><time>2026-04-04T09:14:12.257Z</time></trkpt><trkpt lat="43.3527133" lon="11.831585"><ele>242.0</ele><time>2026-04-04T09:14:14.261Z</time></trkpt><trkpt lat="43.35273" lon="11.831735"><ele>242.0</ele><time>2026-04-04T09:14:16.26Z</time></trkpt><trkpt lat="43.3527433" lon="11.8318783"><ele>242.0</ele><time>2026-04-04T09:14:18.257Z</time></trkpt><trkpt lat="43.3527517" lon="11.8320067"><ele>242.0</ele><time>2026-04-04T09:14:20.258Z</time></trkpt><trkpt lat="43.35276" lon="11.8321383"><ele>242.0</ele><time>2026-04-04T09:14:22.261Z</time></trkpt><trkpt lat="43.3527717" lon="11.832275"><ele>242.0</ele><time>2026-04-04T09:14:24.259Z</time></trkpt><trkpt lat="43.3527833" lon="11.8324067"><ele>242.0</ele><time>2026-04-04T09:14:26.258Z</time></trkpt><trkpt lat="43.3527933" lon="11.8325217"><ele>242.0</ele><time>2026-04-04T09:14:28.257Z</time></trkpt><trkpt lat="43.3527983" lon="11.8326317"><ele>242.33333333333334</ele><time>2026-04-04T09:14:30.259Z</time></trkpt><trkpt lat="43.35281" lon="11.8327433"><ele>242.66666666666669</ele><time>2026-04-04T09:14:32.26Z</time></trkpt><trkpt lat="43.35282" lon="11.8328417"><ele>243.0</ele><time>2026-04-04T09:14:34.261Z</time></trkpt><trkpt lat="43.3528283" lon="11.8329383"><ele>243.33333333333331</ele><time>2026-04-04T09:14:36.257Z</time></trkpt><trkpt lat="43.352835" lon="11.8330283"><ele>243.66666666666666</ele><time>2026-04-04T09:14:38.258Z</time></trkpt><trkpt lat="43.3528267" lon="11.8331217"><ele>244.0</ele><time>2026-04-04T09:14:41.259Z</time></trkpt><trkpt lat="43.352685" lon="11.8331533"><ele>243.99999999999997</ele><time>2026-04-04T09:15:53.261Z</time></trkpt><trkpt lat="43.3526217" lon="11.8331433"><ele>244.0</ele><time>2026-04-04T09:15:56.261Z</time></trkpt><trkpt lat="43.352535" lon="11.8331417"><ele>244.0</ele><time>2026-04-04T09:15:59.258Z</time></trkpt><trkpt lat="43.352465" lon="11.83314"><ele>244.0</ele><time>2026-04-04T09:16:01.259Z</time></trkpt><trkpt lat="43.3523867" lon="11.8331383"><ele>243.99999999999997</ele><time>2026-04-04T09:16:03.257Z</time></trkpt><trkpt lat="43.3523083" lon="11.8331383"><ele>244.0</ele><time>2026-04-04T09:16:05.258Z</time></trkpt><trkpt lat="43.352235" lon="11.833145"><ele>243.85714285714283</ele><time>2026-04-04T09:16:07.257Z</time></trkpt><trkpt lat="43.352155" lon="11.8331467"><ele>243.71428571428572</ele><time>2026-04-04T09:16:09.261Z</time></trkpt><trkpt lat="43.3520817" lon="11.8331433"><ele>243.57142857142856</ele><time>2026-04-04T09:16:11.257Z</time></trkpt><trkpt lat="43.3520067" lon="11.8331367"><ele>243.42857142857142</ele><time>2026-04-04T09:16:13.256Z</time></trkpt><trkpt lat="43.35194" lon="11.8331283"><ele>243.28571428571428</ele><time>2026-04-04T09:16:15.258Z</time></trkpt><trkpt lat="43.3518717" lon="11.8331467"><ele>243.14285714285714</ele><time>2026-04-04T09:16:19.257Z</time></trkpt><trkpt lat="43.3517983" lon="11.8331583"><ele>243.0</ele><time>2026-04-04T09:16:22.255Z</time></trkpt><trkpt lat="43.351735" lon="11.8331617"><ele>243.0</ele><time>2026-04-04T09:16:24.256Z</time></trkpt><trkpt lat="43.3516633" lon="11.8331583"><ele>243.0</ele><time>2026-04-04T09:16:26.256Z</time></trkpt><trkpt lat="43.3515933" lon="11.8331533"><ele>243.0</ele><time>2026-04-04T09:16:28.255Z</time></trkpt><trkpt lat="43.35152" lon="11.83315"><ele>243.0</ele><time>2026-04-04T09:16:30.256Z</time></trkpt><trkpt lat="43.3514483" lon="11.833135"><ele>243.0</ele><time>2026-04-04T09:16:32.256Z</time></trkpt><trkpt lat="43.3513767" lon="11.8331283"><ele>243.0</ele><time>2026-04-04T09:16:34.255Z</time></trkpt><trkpt lat="43.3513133" lon="11.8331183"><ele>243.0</ele><time>2026-04-04T09:16:36.26Z</time></trkpt><trkpt lat="43.3512317" lon="11.83312"><ele>242.83333333333334</ele><time>2026-04-04T09:16:39.258Z</time></trkpt><trkpt lat="43.351155" lon="11.83312"><ele>242.66666666666669</ele><time>2026-04-04T09:16:42.257Z</time></trkpt><trkpt lat="43.351065" lon="11.8331183"><ele>242.5</ele><time>2026-04-04T09:16:45.259Z</time></trkpt><trkpt lat="43.3509917" lon="11.8331183"><ele>242.33333333333334</ele><time>2026-04-04T09:16:47.258Z</time></trkpt><trkpt lat="43.3509167" lon="11.83312"><ele>242.16666666666669</ele><time>2026-04-04T09:16:49.256Z</time></trkpt><trkpt lat="43.3508367" lon="11.8331217"><ele>242.0</ele><time>2026-04-04T09:16:51.256Z</time></trkpt><trkpt lat="43.3507533" lon="11.833125"><ele>242.00000000000003</ele><time>2026-04-04T09:16:53.255Z</time></trkpt><trkpt lat="43.350665" lon="11.8331267"><ele>242.0</ele><time>2026-04-04T09:16:55.259Z</time></trkpt><trkpt lat="43.350575" lon="11.8331283"><ele>242.0</ele><time>2026-04-04T09:16:57.26Z</time></trkpt><trkpt lat="43.3504833" lon="11.833135"><ele>242.0</ele><time>2026-04-04T09:16:59.262Z</time></trkpt><trkpt lat="43.350395" lon="11.8331483"><ele>242.00000000000003</ele><time>2026-04-04T09:17:01.255Z</time></trkpt><trkpt lat="43.3503183" lon="11.8331667"><ele>242.0</ele><time>2026-04-04T09:17:03.255Z</time></trkpt><trkpt lat="43.350245" lon="11.8331883"><ele>241.85714285714283</ele><time>2026-04-04T09:17:05.257Z</time></trkpt><trkpt lat="43.3501767" lon="11.8332083"><ele>241.7142857142857</ele><time>2026-04-04T09:17:07.259Z</time></trkpt><trkpt lat="43.3501067" lon="11.83323"><ele>241.57142857142856</ele><time>2026-04-04T09:17:09.255Z</time></trkpt><trkpt lat="43.35004" lon="11.83325"><ele>241.42857142857144</ele><time>2026-04-04T09:17:11.254Z</time></trkpt><trkpt lat="43.3499533" lon="11.83328"><ele>241.2857142857143</ele><time>2026-04-04T09:17:14.257Z</time></trkpt><trkpt lat="43.34989" lon="11.8332867"><ele>241.14285714285717</ele><time>2026-04-04T09:17:16.259Z</time></trkpt><trkpt lat="43.3498217" lon="11.8333017"><ele>241.0</ele><time>2026-04-04T09:17:18.262Z</time></trkpt><trkpt lat="43.349745" lon="11.8333283"><ele>241.4</ele><time>2026-04-04T09:17:20.26Z</time></trkpt><trkpt lat="43.34966" lon="11.833355"><ele>241.8</ele><time>2026-04-04T09:17:22.258Z</time></trkpt><trkpt lat="43.3495633" lon="11.833385"><ele>242.20000000000002</ele><time>2026-04-04T09:17:24.262Z</time></trkpt><trkpt lat="43.3494783" lon="11.8333983"><ele>242.60000000000002</ele><time>2026-04-04T09:17:26.26Z</time></trkpt><trkpt lat="43.3493883" lon="11.8334167"><ele>243.0</ele><time>2026-04-04T09:17:28.261Z</time></trkpt><trkpt lat="43.3493017" lon="11.8334483"><ele>243.0</ele><time>2026-04-04T09:17:30.262Z</time></trkpt><trkpt lat="43.3492133" lon="11.83348"><ele>243.0</ele><time>2026-04-04T09:17:32.261Z</time></trkpt><trkpt lat="43.3491167" lon="11.8335067"><ele>243.0</ele><time>2026-04-04T09:17:34.259Z</time></trkpt><trkpt lat="43.349025" lon="11.8335333"><ele>243.0</ele><time>2026-04-04T09:17:36.259Z</time></trkpt><trkpt lat="43.3489267" lon="11.8335617"><ele>243.0</ele><time>2026-04-04T09:17:38.26Z</time></trkpt><trkpt lat="43.3488317" lon="11.83359"><ele>242.8</ele><time>2026-04-04T09:17:40.257Z</time></trkpt><trkpt lat="43.3487367" lon="11.83362"><ele>242.60000000000002</ele><time>2026-04-04T09:17:42.261Z</time></trkpt><trkpt lat="43.348645" lon="11.8336483"><ele>242.39999999999998</ele><time>2026-04-04T09:17:44.263Z</time></trkpt><trkpt lat="43.34855" lon="11.8336783"><ele>242.2</ele><time>2026-04-04T09:17:46.259Z</time></trkpt><trkpt lat="43.3484583" lon="11.8337017"><ele>242.0</ele><time>2026-04-04T09:17:48.259Z</time></trkpt><trkpt lat="43.348375" lon="11.8337167"><ele>242.00000000000003</ele><time>2026-04-04T09:17:50.261Z</time></trkpt><trkpt lat="43.348295" lon="11.833735"><ele>242.0</ele><time>2026-04-04T09:17:52.263Z</time></trkpt><trkpt lat="43.3482183" lon="11.8337567"><ele>242.0</ele><time>2026-04-04T09:17:54.261Z</time></trkpt><trkpt lat="43.3481383" lon="11.8337883"><ele>242.0</ele><time>2026-04-04T09:17:56.26Z</time></trkpt><trkpt lat="43.3480583" lon="11.83381"><ele>242.00000000000003</ele><time>2026-04-04T09:17:58.26Z</time></trkpt><trkpt lat="43.3479767" lon="11.8338267"><ele>242.0</ele><time>2026-04-04T09:18:00.258Z</time></trkpt><trkpt lat="43.3478967" lon="11.8338483"><ele>241.83333333333334</ele><time>2026-04-04T09:18:02.261Z</time></trkpt><trkpt lat="43.3478167" lon="11.8338717"><ele>241.66666666666669</ele><time>2026-04-04T09:18:04.258Z</time></trkpt><trkpt lat="43.3477417" lon="11.8338933"><ele>241.5</ele><time>2026-04-04T09:18:06.261Z</time></trkpt><trkpt lat="43.34767" lon="11.8339117"><ele>241.33333333333331</ele><time>2026-04-04T09:18:08.26Z</time></trkpt><trkpt lat="43.347595" lon="11.833935"><ele>241.16666666666666</ele><time>2026-04-04T09:18:10.259Z</time></trkpt><trkpt lat="43.347515" lon="11.8339533"><ele>241.0</ele><time>2026-04-04T09:18:12.259Z</time></trkpt><trkpt lat="43.3474333" lon="11.83398"><ele>241.0</ele><time>2026-04-04T09:18:14.263Z</time></trkpt><trkpt lat="43.34735" lon="11.8340167"><ele>241.00000000000003</ele><time>2026-04-04T09:18:16.258Z</time></trkpt><trkpt lat="43.3472633" lon="11.8340433"><ele>241.00000000000003</ele><time>2026-04-04T09:18:18.262Z</time></trkpt><trkpt lat="43.3471767" lon="11.8340733"><ele>241.0</ele><time>2026-04-04T09:18:20.26Z</time></trkpt><trkpt lat="43.34709" lon="11.8341167"><ele>241.0</ele><time>2026-04-04T09:18:22.261Z</time></trkpt><trkpt lat="43.3469983" lon="11.8341483"><ele>241.20000000000002</ele><time>2026-04-04T09:18:24.257Z</time></trkpt><trkpt lat="43.3469067" lon="11.834175"><ele>241.40000000000003</ele><time>2026-04-04T09:18:26.263Z</time></trkpt><trkpt lat="43.3468133" lon="11.8342017"><ele>241.6</ele><time>2026-04-04T09:18:28.26Z</time></trkpt><trkpt lat="43.3467183" lon="11.8342283"><ele>241.8</ele><time>2026-04-04T09:18:30.26Z</time></trkpt><trkpt lat="43.3466217" lon="11.8342633"><ele>242.0</ele><time>2026-04-04T09:18:32.26Z</time></trkpt><trkpt lat="43.3465217" lon="11.83429"><ele>242.00000000000003</ele><time>2026-04-04T09:18:34.26Z</time></trkpt><trkpt lat="43.3464267" lon="11.83431"><ele>242.0</ele><time>2026-04-04T09:18:36.26Z</time></trkpt><trkpt lat="43.3463317" lon="11.8343367"><ele>242.0</ele><time>2026-04-04T09:18:38.262Z</time></trkpt><trkpt lat="43.3462433" lon="11.8343567"><ele>242.0</ele><time>2026-04-04T09:18:40.258Z</time></trkpt><trkpt lat="43.34616" lon="11.834375"><ele>242.00000000000003</ele><time>2026-04-04T09:18:42.26Z</time></trkpt><trkpt lat="43.3460833" lon="11.83439"><ele>242.0</ele><time>2026-04-04T09:18:44.263Z</time></trkpt><trkpt lat="43.346005" lon="11.8344033"><ele>242.16666666666669</ele><time>2026-04-04T09:18:46.258Z</time></trkpt><trkpt lat="43.3459317" lon="11.83442"><ele>242.33333333333334</ele><time>2026-04-04T09:18:48.26Z</time></trkpt><trkpt lat="43.3458733" lon="11.8344967"><ele>242.5</ele><time>2026-04-04T09:18:51.264Z</time></trkpt><trkpt lat="43.345805" lon="11.83448"><ele>242.66666666666669</ele><time>2026-04-04T09:19:26.263Z</time></trkpt><trkpt lat="43.34572" lon="11.834495"><ele>242.83333333333334</ele><time>2026-04-04T09:19:29.262Z</time></trkpt><trkpt lat="43.34564" lon="11.834515"><ele>243.0</ele><time>2026-04-04T09:19:32.262Z</time></trkpt><trkpt lat="43.34557" lon="11.8345"><ele>242.71428571428572</ele><time>2026-04-04T09:19:47.261Z</time></trkpt><trkpt lat="43.3455" lon="11.8345317"><ele>242.42857142857144</ele><time>2026-04-04T09:19:49.255Z</time></trkpt><trkpt lat="43.3454233" lon="11.8345633"><ele>242.14285714285717</ele><time>2026-04-04T09:19:51.26Z</time></trkpt><trkpt lat="43.3453567" lon="11.8345817"><ele>241.85714285714286</ele><time>2026-04-04T09:19:53.257Z</time></trkpt><trkpt lat="43.3452867" lon="11.8346033"><ele>241.5714285714286</ele><time>2026-04-04T09:19:55.256Z</time></trkpt><trkpt lat="43.3452217" lon="11.8346183"><ele>241.2857142857143</ele><time>2026-04-04T09:19:57.26Z</time></trkpt><trkpt lat="43.3451333" lon="11.8346417"><ele>241.0</ele><time>2026-04-04T09:20:00.26Z</time></trkpt><trkpt lat="43.3450617" lon="11.8346567"><ele>241.0</ele><time>2026-04-04T09:20:04.262Z</time></trkpt><trkpt lat="43.3449817" lon="11.8346883"><ele>241.00000000000003</ele><time>2026-04-04T09:20:19.257Z</time></trkpt><trkpt lat="43.3449133" lon="11.8347067"><ele>241.00000000000003</ele><time>2026-04-04T09:20:21.26Z</time></trkpt><trkpt lat="43.3448183" lon="11.8347283"><ele>241.0</ele><time>2026-04-04T09:20:23.257Z</time></trkpt><trkpt lat="43.3447117" lon="11.8347583"><ele>241.0</ele><time>2026-04-04T09:20:25.262Z</time></trkpt><trkpt lat="43.3446017" lon="11.8347967"><ele>241.0</ele><time>2026-04-04T09:20:27.263Z</time></trkpt><trkpt lat="43.3444883" lon="11.834835"><ele>241.0</ele><time>2026-04-04T09:20:29.259Z</time></trkpt><trkpt lat="43.3443783" lon="11.834875"><ele>241.0</ele><time>2026-04-04T09:20:31.259Z</time></trkpt><trkpt lat="43.344265" lon="11.834915"><ele>241.0</ele><time>2026-04-04T09:20:33.259Z</time></trkpt><trkpt lat="43.3441517" lon="11.8349383"><ele>241.0</ele><time>2026-04-04T09:20:35.259Z</time></trkpt><trkpt lat="43.3440367" lon="11.83496"><ele>241.0</ele><time>2026-04-04T09:20:37.258Z</time></trkpt><trkpt lat="43.3439267" lon="11.8349917"><ele>241.0</ele><time>2026-04-04T09:20:39.258Z</time></trkpt><trkpt lat="43.3438167" lon="11.8350217"><ele>241.0</ele><time>2026-04-04T09:20:41.262Z</time></trkpt><trkpt lat="43.3437067" lon="11.8350517"><ele>241.0</ele><time>2026-04-04T09:20:43.259Z</time></trkpt><trkpt lat="43.343605" lon="11.835085"><ele>241.00000000000003</ele><time>2026-04-04T09:20:45.261Z</time></trkpt><trkpt lat="43.3435033" lon="11.83512"><ele>241.00000000000003</ele><time>2026-04-04T09:20:47.261Z</time></trkpt><trkpt lat="43.3433933" lon="11.8351417"><ele>241.0</ele><time>2026-04-04T09:20:49.259Z</time></trkpt><trkpt lat="43.3432817" lon="11.8351617"><ele>241.0</ele><time>2026-04-04T09:20:51.26Z</time></trkpt><trkpt lat="43.343175" lon="11.8351967"><ele>240.8</ele><time>2026-04-04T09:20:53.258Z</time></trkpt><trkpt lat="43.3430733" lon="11.8352367"><ele>240.60000000000002</ele><time>2026-04-04T09:20:55.259Z</time></trkpt><trkpt lat="43.3429733" lon="11.8352683"><ele>240.4</ele><time>2026-04-04T09:20:57.259Z</time></trkpt><trkpt lat="43.3428733" lon="11.8352983"><ele>240.2</ele><time>2026-04-04T09:20:59.262Z</time></trkpt><trkpt lat="43.3427683" lon="11.83533"><ele>240.0</ele><time>2026-04-04T09:21:01.261Z</time></trkpt><trkpt lat="43.34266" lon="11.8353583"><ele>240.0</ele><time>2026-04-04T09:21:03.261Z</time></trkpt><trkpt lat="43.3425517" lon="11.8353867"><ele>240.0</ele><time>2026-04-04T09:21:05.261Z</time></trkpt><trkpt lat="43.3424483" lon="11.83542"><ele>240.0</ele><time>2026-04-04T09:21:07.259Z</time></trkpt><trkpt lat="43.3423433" lon="11.8354517"><ele>240.0</ele><time>2026-04-04T09:21:09.26Z</time></trkpt><trkpt lat="43.3422383" lon="11.83548"><ele>240.0</ele><time>2026-04-04T09:21:11.26Z</time></trkpt><trkpt lat="43.3421333" lon="11.8355117"><ele>240.2</ele><time>2026-04-04T09:21:13.26Z</time></trkpt><trkpt lat="43.3420283" lon="11.835545"><ele>240.4</ele><time>2026-04-04T09:21:15.26Z</time></trkpt><trkpt lat="43.34192" lon="11.8355783"><ele>240.60000000000002</ele><time>2026-04-04T09:21:17.261Z</time></trkpt><trkpt lat="43.3418133" lon="11.835605"><ele>240.8</ele><time>2026-04-04T09:21:19.259Z</time></trkpt><trkpt lat="43.3417067" lon="11.8356317"><ele>241.0</ele><time>2026-04-04T09:21:21.261Z</time></trkpt><trkpt lat="43.3416033" lon="11.8356617"><ele>241.0</ele><time>2026-04-04T09:21:23.262Z</time></trkpt><trkpt lat="43.3414983" lon="11.83569"><ele>241.00000000000003</ele><time>2026-04-04T09:21:25.263Z</time></trkpt><trkpt lat="43.3413933" lon="11.8357167"><ele>241.00000000000003</ele><time>2026-04-04T09:21:27.262Z</time></trkpt><trkpt lat="43.3412867" lon="11.8357467"><ele>241.0</ele><time>2026-04-04T09:21:29.259Z</time></trkpt><trkpt lat="43.3411833" lon="11.83578"><ele>241.0</ele><time>2026-04-04T09:21:31.261Z</time></trkpt><trkpt lat="43.341075" lon="11.8358083"><ele>241.0</ele><time>2026-04-04T09:21:33.258Z</time></trkpt><trkpt lat="43.3409733" lon="11.835835"><ele>241.00000000000003</ele><time>2026-04-04T09:21:35.259Z</time></trkpt><trkpt lat="43.3408717" lon="11.8358633"><ele>241.00000000000003</ele><time>2026-04-04T09:21:37.26Z</time></trkpt><trkpt lat="43.340775" lon="11.83589"><ele>241.0</ele><time>2026-04-04T09:21:39.258Z</time></trkpt><trkpt lat="43.3406817" lon="11.8359183"><ele>241.0</ele><time>2026-04-04T09:21:41.259Z</time></trkpt><trkpt lat="43.3405883" lon="11.835945"><ele>241.16666666666666</ele><time>2026-04-04T09:21:43.255Z</time></trkpt><trkpt lat="43.3405017" lon="11.8359717"><ele>241.33333333333331</ele><time>2026-04-04T09:21:45.255Z</time></trkpt><trkpt lat="43.3404233" lon="11.8359967"><ele>241.5</ele><time>2026-04-04T09:21:47.26Z</time></trkpt><trkpt lat="43.3403467" lon="11.8360167"><ele>241.66666666666669</ele><time>2026-04-04T09:21:49.259Z</time></trkpt><trkpt lat="43.3402717" lon="11.8360467"><ele>241.83333333333334</ele><time>2026-04-04T09:21:51.261Z</time></trkpt><trkpt lat="43.3402" lon="11.8360933"><ele>242.0</ele><time>2026-04-04T09:21:54.256Z</time></trkpt><trkpt lat="43.34011" lon="11.8360717"><ele>242.0</ele><time>2026-04-04T09:21:57.259Z</time></trkpt><trkpt lat="43.34002" lon="11.8360817"><ele>242.0</ele><time>2026-04-04T09:21:59.258Z</time></trkpt><trkpt lat="43.3399233" lon="11.8361083"><ele>242.0</ele><time>2026-04-04T09:22:01.259Z</time></trkpt><trkpt lat="43.3398217" lon="11.8361417"><ele>242.0</ele><time>2026-04-04T09:22:03.258Z</time></trkpt><trkpt lat="43.339715" lon="11.8361733"><ele>242.0</ele><time>2026-04-04T09:22:05.262Z</time></trkpt><trkpt lat="43.3396" lon="11.8362083"><ele>242.0</ele><time>2026-04-04T09:22:07.258Z</time></trkpt><trkpt lat="43.33949" lon="11.8362333"><ele>242.0</ele><time>2026-04-04T09:22:09.26Z</time></trkpt><trkpt lat="43.3393783" lon="11.836265"><ele>242.0</ele><time>2026-04-04T09:22:11.259Z</time></trkpt><trkpt lat="43.339265" lon="11.836295"><ele>242.0</ele><time>2026-04-04T09:22:13.259Z</time></trkpt><trkpt lat="43.339155" lon="11.83633"><ele>242.0</ele><time>2026-04-04T09:22:15.261Z</time></trkpt><trkpt lat="43.339045" lon="11.8363583"><ele>242.0</ele><time>2026-04-04T09:22:17.259Z</time></trkpt><trkpt lat="43.33894" lon="11.8363933"><ele>242.0</ele><time>2026-04-04T09:22:19.258Z</time></trkpt><trkpt lat="43.3388367" lon="11.8364367"><ele>242.0</ele><time>2026-04-04T09:22:21.258Z</time></trkpt><trkpt lat="43.3387333" lon="11.8364717"><ele>242.0</ele><time>2026-04-04T09:22:23.259Z</time></trkpt><trkpt lat="43.33863" lon="11.8365"><ele>241.8</ele><time>2026-04-04T09:22:25.265Z</time></trkpt><trkpt lat="43.3385283" lon="11.8365317"><ele>241.6</ele><time>2026-04-04T09:22:27.259Z</time></trkpt><trkpt lat="43.33843" lon="11.8365583"><ele>241.40000000000003</ele><time>2026-04-04T09:22:29.263Z</time></trkpt><trkpt lat="43.3383367" lon="11.8365833"><ele>241.20000000000002</ele><time>2026-04-04T09:22:31.261Z</time></trkpt><trkpt lat="43.3382517" lon="11.836605"><ele>241.0</ele><time>2026-04-04T09:22:33.26Z</time></trkpt><trkpt lat="43.3381733" lon="11.8366267"><ele>241.0</ele><time>2026-04-04T09:22:35.262Z</time></trkpt><trkpt lat="43.3381033" lon="11.8366383"><ele>241.00000000000003</ele><time>2026-04-04T09:22:37.26Z</time></trkpt><trkpt lat="43.33804" lon="11.836655"><ele>241.0</ele><time>2026-04-04T09:22:39.26Z</time></trkpt><trkpt lat="43.3379783" lon="11.836675"><ele>241.0</ele><time>2026-04-04T09:22:42.266Z</time></trkpt><trkpt lat="43.3379133" lon="11.8366733"><ele>241.00000000000003</ele><time>2026-04-04T09:23:49.26Z</time></trkpt><trkpt lat="43.3378483" lon="11.8367083"><ele>241.0</ele><time>2026-04-04T09:23:53.259Z</time></trkpt><trkpt lat="43.33775" lon="11.8367317"><ele>241.0</ele><time>2026-04-04T09:23:56.26Z</time></trkpt><trkpt lat="43.3376683" lon="11.8367483"><ele>241.0</ele><time>2026-04-04T09:23:58.258Z</time></trkpt><trkpt lat="43.3375833" lon="11.8367767"><ele>241.00000000000003</ele><time>2026-04-04T09:24:00.26Z</time></trkpt><trkpt lat="43.33749" lon="11.8368033"><ele>241.00000000000003</ele><time>2026-04-04T09:24:02.259Z</time></trkpt><trkpt lat="43.3373933" lon="11.83683"><ele>241.0</ele><time>2026-04-04T09:24:04.259Z</time></trkpt><trkpt lat="43.3372983" lon="11.836855"><ele>241.0</ele><time>2026-04-04T09:24:06.258Z</time></trkpt><trkpt lat="43.3372033" lon="11.8368867"><ele>241.0</ele><time>2026-04-04T09:24:08.258Z</time></trkpt><trkpt lat="43.3371033" lon="11.83692"><ele>241.00000000000003</ele><time>2026-04-04T09:24:10.257Z</time></trkpt><trkpt lat="43.3370033" lon="11.8369533"><ele>241.00000000000003</ele><time>2026-04-04T09:24:12.258Z</time></trkpt><trkpt lat="43.3369017" lon="11.8369833"><ele>241.0</ele><time>2026-04-04T09:24:14.26Z</time></trkpt><trkpt lat="43.3367967" lon="11.8370167"><ele>241.0</ele><time>2026-04-04T09:24:16.26Z</time></trkpt><trkpt lat="43.3366917" lon="11.8370467"><ele>241.0</ele><time>2026-04-04T09:24:18.264Z</time></trkpt><trkpt lat="43.3365867" lon="11.8370783"><ele>241.00000000000003</ele><time>2026-04-04T09:24:20.264Z</time></trkpt><trkpt lat="43.3364833" lon="11.837105"><ele>241.00000000000003</ele><time>2026-04-04T09:24:22.258Z</time></trkpt><trkpt lat="43.3363833" lon="11.8371333"><ele>241.0</ele><time>2026-04-04T09:24:24.267Z</time></trkpt><trkpt lat="43.33628" lon="11.837165"><ele>241.0</ele><time>2026-04-04T09:24:26.26Z</time></trkpt><trkpt lat="43.336175" lon="11.837195"><ele>241.20000000000002</ele><time>2026-04-04T09:24:28.259Z</time></trkpt><trkpt lat="43.3360717" lon="11.8372333"><ele>241.40000000000003</ele><time>2026-04-04T09:24:30.26Z</time></trkpt><trkpt lat="43.3359667" lon="11.8372683"><ele>241.6</ele><time>2026-04-04T09:24:32.263Z</time></trkpt><trkpt lat="43.33586" lon="11.8373067"><ele>241.8</ele><time>2026-04-04T09:24:34.26Z</time></trkpt><trkpt lat="43.3357517" lon="11.8373367"><ele>242.0</ele><time>2026-04-04T09:24:36.262Z</time></trkpt><trkpt lat="43.33564" lon="11.837365"><ele>241.75</ele><time>2026-04-04T09:24:38.259Z</time></trkpt><trkpt lat="43.33553" lon="11.8373933"><ele>241.5</ele><time>2026-04-04T09:24:40.261Z</time></trkpt><trkpt lat="43.3354217" lon="11.8374233"><ele>241.25</ele><time>2026-04-04T09:24:42.261Z</time></trkpt><trkpt lat="43.33531" lon="11.83746"><ele>241.0</ele><time>2026-04-04T09:24:44.263Z</time></trkpt><trkpt lat="43.3352" lon="11.8374917"><ele>241.0</ele><time>2026-04-04T09:24:46.259Z</time></trkpt><trkpt lat="43.3350883" lon="11.83752"><ele>241.0</ele><time>2026-04-04T09:24:48.261Z</time></trkpt><trkpt lat="43.334975" lon="11.8375483"><ele>241.0</ele><time>2026-04-04T09:24:50.263Z</time></trkpt><trkpt lat="43.33486" lon="11.837585"><ele>241.0</ele><time>2026-04-04T09:24:52.262Z</time></trkpt><trkpt lat="43.334745" lon="11.837625"><ele>241.0</ele><time>2026-04-04T09:24:54.26Z</time></trkpt><trkpt lat="43.334635" lon="11.8376583"><ele>241.00000000000003</ele><time>2026-04-04T09:24:56.262Z</time></trkpt><trkpt lat="43.3345283" lon="11.8376933"><ele>241.00000000000003</ele><time>2026-04-04T09:24:58.262Z</time></trkpt><trkpt lat="43.3344233" lon="11.8377367"><ele>241.0</ele><time>2026-04-04T09:25:00.258Z</time></trkpt><trkpt lat="43.3343183" lon="11.837785"><ele>241.0</ele><time>2026-04-04T09:25:02.259Z</time></trkpt><trkpt lat="43.3342117" lon="11.837815"><ele>241.0</ele><time>2026-04-04T09:25:04.26Z</time></trkpt><trkpt lat="43.3341083" lon="11.83784"><ele>241.00000000000003</ele><time>2026-04-04T09:25:06.261Z</time></trkpt><trkpt lat="43.334005" lon="11.8378883"><ele>241.00000000000003</ele><time>2026-04-04T09:25:08.258Z</time></trkpt><trkpt lat="43.3339" lon="11.83791"><ele>241.0</ele><time>2026-04-04T09:25:10.257Z</time></trkpt><trkpt lat="43.333795" lon="11.8379433"><ele>241.0</ele><time>2026-04-04T09:25:12.258Z</time></trkpt><trkpt lat="43.33369" lon="11.8379717"><ele>241.25</ele><time>2026-04-04T09:25:14.259Z</time></trkpt><trkpt lat="43.3335867" lon="11.838015"><ele>241.5</ele><time>2026-04-04T09:25:16.26Z</time></trkpt><trkpt lat="43.3334867" lon="11.8380417"><ele>241.75</ele><time>2026-04-04T09:25:18.262Z</time></trkpt><trkpt lat="43.3333833" lon="11.83807"><ele>242.0</ele><time>2026-04-04T09:25:20.259Z</time></trkpt><trkpt lat="43.3332283" lon="11.8381117"><ele>242.0</ele><time>2026-04-04T09:25:23.263Z</time></trkpt><trkpt lat="43.3331233" lon="11.8381317"><ele>242.0</ele><time>2026-04-04T09:25:25.259Z</time></trkpt><trkpt lat="43.33302" lon="11.83815"><ele>242.0</ele><time>2026-04-04T09:25:27.264Z</time></trkpt><trkpt lat="43.332915" lon="11.8381683"><ele>242.0</ele><time>2026-04-04T09:25:29.259Z</time></trkpt><trkpt lat="43.3328117" lon="11.8381883"><ele>242.0</ele><time>2026-04-04T09:25:31.261Z</time></trkpt><trkpt lat="43.33271" lon="11.838235"><ele>241.6</ele><time>2026-04-04T09:25:33.259Z</time></trkpt><trkpt lat="43.3326033" lon="11.8382567"><ele>241.2</ele><time>2026-04-04T09:25:35.261Z</time></trkpt><trkpt lat="43.3324967" lon="11.8383033"><ele>240.8</ele><time>2026-04-04T09:25:37.258Z</time></trkpt><trkpt lat="43.3323867" lon="11.8383317"><ele>240.4</ele><time>2026-04-04T09:25:39.263Z</time></trkpt><trkpt lat="43.33228" lon="11.8383617"><ele>240.0</ele><time>2026-04-04T09:25:41.263Z</time></trkpt><trkpt lat="43.332175" lon="11.8383867"><ele>240.0</ele><time>2026-04-04T09:25:43.262Z</time></trkpt><trkpt lat="43.3320667" lon="11.8384133"><ele>240.0</ele><time>2026-04-04T09:25:45.259Z</time></trkpt><trkpt lat="43.3319617" lon="11.8384417"><ele>240.0</ele><time>2026-04-04T09:25:47.26Z</time></trkpt><trkpt lat="43.331855" lon="11.8384683"><ele>240.0</ele><time>2026-04-04T09:25:49.263Z</time></trkpt><trkpt lat="43.3317467" lon="11.8384967"><ele>240.0</ele><time>2026-04-04T09:25:51.257Z</time></trkpt><trkpt lat="43.33164" lon="11.8385233"><ele>240.2</ele><time>2026-04-04T09:25:53.259Z</time></trkpt><trkpt lat="43.3315367" lon="11.8385617"><ele>240.4</ele><time>2026-04-04T09:25:55.26Z</time></trkpt><trkpt lat="43.33143" lon="11.8385967"><ele>240.60000000000002</ele><time>2026-04-04T09:25:57.263Z</time></trkpt><trkpt lat="43.331325" lon="11.8386333"><ele>240.8</ele><time>2026-04-04T09:25:59.266Z</time></trkpt><trkpt lat="43.3312233" lon="11.83866"><ele>241.0</ele><time>2026-04-04T09:26:01.264Z</time></trkpt><trkpt lat="43.33112" lon="11.83868"><ele>241.0</ele><time>2026-04-04T09:26:03.258Z</time></trkpt><trkpt lat="43.3310167" lon="11.8387017"><ele>241.00000000000003</ele><time>2026-04-04T09:26:05.26Z</time></trkpt><trkpt lat="43.330915" lon="11.8387283"><ele>241.00000000000003</ele><time>2026-04-04T09:26:07.266Z</time></trkpt><trkpt lat="43.3308133" lon="11.8387533"><ele>241.0</ele><time>2026-04-04T09:26:09.26Z</time></trkpt><trkpt lat="43.3307067" lon="11.8387817"><ele>241.0</ele><time>2026-04-04T09:26:11.261Z</time></trkpt><trkpt lat="43.3306" lon="11.8388133"><ele>240.8</ele><time>2026-04-04T09:26:13.259Z</time></trkpt><trkpt lat="43.33049" lon="11.8388417"><ele>240.60000000000002</ele><time>2026-04-04T09:26:15.262Z</time></trkpt><trkpt lat="43.330385" lon="11.83888"><ele>240.4</ele><time>2026-04-04T09:26:17.26Z</time></trkpt><trkpt lat="43.3302817" lon="11.8389133"><ele>240.2</ele><time>2026-04-04T09:26:19.262Z</time></trkpt><trkpt lat="43.3301833" lon="11.8389367"><ele>240.0</ele><time>2026-04-04T09:26:21.262Z</time></trkpt><trkpt lat="43.3300767" lon="11.8389667"><ele>240.0</ele><time>2026-04-04T09:26:23.263Z</time></trkpt><trkpt lat="43.32997" lon="11.8390017"><ele>240.0</ele><time>2026-04-04T09:26:25.259Z</time></trkpt><trkpt lat="43.329865" lon="11.8390333"><ele>240.0</ele><time>2026-04-04T09:26:27.26Z</time></trkpt><trkpt lat="43.3297633" lon="11.8390633"><ele>240.0</ele><time>2026-04-04T09:26:29.262Z</time></trkpt><trkpt lat="43.3296583" lon="11.839095"><ele>240.0</ele><time>2026-04-04T09:26:31.261Z</time></trkpt><trkpt lat="43.329555" lon="11.8391267"><ele>240.2</ele><time>2026-04-04T09:26:33.26Z</time></trkpt><trkpt lat="43.3294517" lon="11.8391583"><ele>240.4</ele><time>2026-04-04T09:26:35.26Z</time></trkpt><trkpt lat="43.3293483" lon="11.8391867"><ele>240.60000000000002</ele><time>2026-04-04T09:26:37.26Z</time></trkpt><trkpt lat="43.3292517" lon="11.8392167"><ele>240.8</ele><time>2026-04-04T09:26:39.258Z</time></trkpt><trkpt lat="43.3291483" lon="11.8392483"><ele>241.0</ele><time>2026-04-04T09:26:41.26Z</time></trkpt><trkpt lat="43.3290433" lon="11.8392783"><ele>241.0</ele><time>2026-04-04T09:26:43.261Z</time></trkpt><trkpt lat="43.328935" lon="11.8393083"><ele>241.00000000000003</ele><time>2026-04-04T09:26:45.262Z</time></trkpt><trkpt lat="43.328825" lon="11.8393367"><ele>241.00000000000003</ele><time>2026-04-04T09:26:47.26Z</time></trkpt><trkpt lat="43.3287167" lon="11.8393667"><ele>241.0</ele><time>2026-04-04T09:26:49.258Z</time></trkpt><trkpt lat="43.32861" lon="11.839395"><ele>241.0</ele><time>2026-04-04T09:26:51.261Z</time></trkpt><trkpt lat="43.328505" lon="11.839425"><ele>240.8</ele><time>2026-04-04T09:26:53.262Z</time></trkpt><trkpt lat="43.3283983" lon="11.83946"><ele>240.60000000000002</ele><time>2026-04-04T09:26:55.259Z</time></trkpt><trkpt lat="43.3282917" lon="11.839495"><ele>240.4</ele><time>2026-04-04T09:26:57.259Z</time></trkpt><trkpt lat="43.3281867" lon="11.83953"><ele>240.2</ele><time>2026-04-04T09:26:59.264Z</time></trkpt><trkpt lat="43.3280767" lon="11.8395633"><ele>240.0</ele><time>2026-04-04T09:27:01.26Z</time></trkpt><trkpt lat="43.3279683" lon="11.8395983"><ele>240.0</ele><time>2026-04-04T09:27:03.264Z</time></trkpt><trkpt lat="43.32786" lon="11.83963"><ele>240.0</ele><time>2026-04-04T09:27:05.258Z</time></trkpt><trkpt lat="43.32775" lon="11.839655"><ele>240.0</ele><time>2026-04-04T09:27:07.261Z</time></trkpt><trkpt lat="43.3276517" lon="11.839695"><ele>240.0</ele><time>2026-04-04T09:27:09.259Z</time></trkpt><trkpt lat="43.3275467" lon="11.839725"><ele>240.0</ele><time>2026-04-04T09:27:11.259Z</time></trkpt><trkpt lat="43.3274483" lon="11.8397583"><ele>240.0</ele><time>2026-04-04T09:27:13.259Z</time></trkpt><trkpt lat="43.3273383" lon="11.8397817"><ele>240.0</ele><time>2026-04-04T09:27:15.26Z</time></trkpt><trkpt lat="43.3272333" lon="11.83981"><ele>240.0</ele><time>2026-04-04T09:27:17.26Z</time></trkpt><trkpt lat="43.3271233" lon="11.83984"><ele>240.0</ele><time>2026-04-04T09:27:19.258Z</time></trkpt><trkpt lat="43.3270117" lon="11.839865"><ele>240.0</ele><time>2026-04-04T09:27:21.261Z</time></trkpt><trkpt lat="43.3269017" lon="11.8398917"><ele>240.2</ele><time>2026-04-04T09:27:23.261Z</time></trkpt><trkpt lat="43.3267917" lon="11.83992"><ele>240.4</ele><time>2026-04-04T09:27:25.261Z</time></trkpt><trkpt lat="43.3266867" lon="11.8399467"><ele>240.60000000000002</ele><time>2026-04-04T09:27:27.262Z</time></trkpt><trkpt lat="43.3265833" lon="11.8399733"><ele>240.8</ele><time>2026-04-04T09:27:29.259Z</time></trkpt><trkpt lat="43.3264783" lon="11.8400067"><ele>241.0</ele><time>2026-04-04T09:27:31.268Z</time></trkpt><trkpt lat="43.3263767" lon="11.84004"><ele>241.0</ele><time>2026-04-04T09:27:33.262Z</time></trkpt><trkpt lat="43.3262767" lon="11.8400683"><ele>241.00000000000003</ele><time>2026-04-04T09:27:35.262Z</time></trkpt><trkpt lat="43.3261717" lon="11.840095"><ele>241.00000000000003</ele><time>2026-04-04T09:27:37.258Z</time></trkpt><trkpt lat="43.3260683" lon="11.84012"><ele>241.0</ele><time>2026-04-04T09:27:39.267Z</time></trkpt><trkpt lat="43.3259667" lon="11.840145"><ele>241.0</ele><time>2026-04-04T09:27:41.263Z</time></trkpt><trkpt lat="43.3258633" lon="11.84017"><ele>241.0</ele><time>2026-04-04T09:27:43.262Z</time></trkpt><trkpt lat="43.3257583" lon="11.8402"><ele>241.00000000000003</ele><time>2026-04-04T09:27:45.26Z</time></trkpt><trkpt lat="43.3256583" lon="11.8402433"><ele>241.00000000000003</ele><time>2026-04-04T09:27:47.268Z</time></trkpt><trkpt lat="43.3255633" lon="11.84029"><ele>241.0</ele><time>2026-04-04T09:27:49.263Z</time></trkpt><trkpt lat="43.325465" lon="11.8403233"><ele>241.0</ele><time>2026-04-04T09:27:51.263Z</time></trkpt><trkpt lat="43.32537" lon="11.8403317"><ele>240.83333333333331</ele><time>2026-04-04T09:27:53.261Z</time></trkpt><trkpt lat="43.3253017" lon="11.8403617"><ele>240.66666666666666</ele><time>2026-04-04T09:27:56.264Z</time></trkpt><trkpt lat="43.325385" lon="11.840435"><ele>240.5</ele><time>2026-04-04T09:28:20.256Z</time></trkpt><trkpt lat="43.3253367" lon="11.8403783"><ele>240.33333333333331</ele><time>2026-04-04T09:28:38.261Z</time></trkpt><trkpt lat="43.3252683" lon="11.8403617"><ele>240.16666666666666</ele><time>2026-04-04T09:28:58.262Z</time></trkpt><trkpt lat="43.32519" lon="11.840385"><ele>240.0</ele><time>2026-04-04T09:29:01.26Z</time></trkpt><trkpt lat="43.3251233" lon="11.840395"><ele>240.0</ele><time>2026-04-04T09:29:03.261Z</time></trkpt><trkpt lat="43.3250533" lon="11.8404083"><ele>240.0</ele><time>2026-04-04T09:29:05.26Z</time></trkpt><trkpt lat="43.32498" lon="11.8404267"><ele>240.0</ele><time>2026-04-04T09:29:07.262Z</time></trkpt><trkpt lat="43.3249033" lon="11.8404467"><ele>240.0</ele><time>2026-04-04T09:29:09.261Z</time></trkpt><trkpt lat="43.324825" lon="11.840465"><ele>240.0</ele><time>2026-04-04T09:29:11.259Z</time></trkpt><trkpt lat="43.3247417" lon="11.840485"><ele>240.0</ele><time>2026-04-04T09:29:13.259Z</time></trkpt><trkpt lat="43.3246567" lon="11.8405117"><ele>240.2</ele><time>2026-04-04T09:29:15.261Z</time></trkpt><trkpt lat="43.3245683" lon="11.8405367"><ele>240.4</ele><time>2026-04-04T09:29:17.259Z</time></trkpt><trkpt lat="43.3244783" lon="11.840565"><ele>240.60000000000002</ele><time>2026-04-04T09:29:19.26Z</time></trkpt><trkpt lat="43.324385" lon="11.84059"><ele>240.8</ele><time>2026-04-04T09:29:21.261Z</time></trkpt><trkpt lat="43.3242917" lon="11.84062"><ele>241.0</ele><time>2026-04-04T09:29:23.263Z</time></trkpt><trkpt lat="43.3242" lon="11.84065"><ele>241.0</ele><time>2026-04-04T09:29:25.256Z</time></trkpt><trkpt lat="43.3241067" lon="11.8406733"><ele>241.00000000000003</ele><time>2026-04-04T09:29:27.261Z</time></trkpt><trkpt lat="43.32401" lon="11.8407133"><ele>241.00000000000003</ele><time>2026-04-04T09:29:29.259Z</time></trkpt><trkpt lat="43.3239183" lon="11.8407467"><ele>241.0</ele><time>2026-04-04T09:29:31.258Z</time></trkpt><trkpt lat="43.3238267" lon="11.8407733"><ele>241.0</ele><time>2026-04-04T09:29:33.258Z</time></trkpt><trkpt lat="43.3237367" lon="11.8407967"><ele>241.4</ele><time>2026-04-04T09:29:35.26Z</time></trkpt><trkpt lat="43.3236483" lon="11.84082"><ele>241.8</ele><time>2026-04-04T09:29:37.259Z</time></trkpt><trkpt lat="43.3235583" lon="11.8408433"><ele>242.20000000000002</ele><time>2026-04-04T09:29:39.262Z</time></trkpt><trkpt lat="43.3234683" lon="11.840865"><ele>242.60000000000002</ele><time>2026-04-04T09:29:41.259Z</time></trkpt><trkpt lat="43.32338" lon="11.840895"><ele>243.0</ele><time>2026-04-04T09:29:43.259Z</time></trkpt><trkpt lat="43.3232867" lon="11.840915"><ele>243.0</ele><time>2026-04-04T09:29:45.259Z</time></trkpt><trkpt lat="43.323195" lon="11.84094"><ele>243.0</ele><time>2026-04-04T09:29:47.259Z</time></trkpt><trkpt lat="43.3230967" lon="11.8409783"><ele>243.0</ele><time>2026-04-04T09:29:49.26Z</time></trkpt><trkpt lat="43.3230083" lon="11.8410067"><ele>243.0</ele><time>2026-04-04T09:29:51.258Z</time></trkpt><trkpt lat="43.3229233" lon="11.841025"><ele>243.0</ele><time>2026-04-04T09:29:53.26Z</time></trkpt><trkpt lat="43.3228383" lon="11.8410467"><ele>242.83333333333334</ele><time>2026-04-04T09:29:55.259Z</time></trkpt><trkpt lat="43.3227617" lon="11.8410733"><ele>242.66666666666669</ele><time>2026-04-04T09:29:57.262Z</time></trkpt><trkpt lat="43.3226883" lon="11.841095"><ele>242.5</ele><time>2026-04-04T09:29:59.259Z</time></trkpt><trkpt lat="43.3226217" lon="11.8411133"><ele>242.33333333333334</ele><time>2026-04-04T09:30:01.26Z</time></trkpt><trkpt lat="43.3225367" lon="11.8411367"><ele>242.16666666666669</ele><time>2026-04-04T09:30:04.258Z</time></trkpt><trkpt lat="43.3224717" lon="11.8411583"><ele>242.0</ele><time>2026-04-04T09:30:08.264Z</time></trkpt><trkpt lat="43.3224" lon="11.84121"><ele>242.00000000000003</ele><time>2026-04-04T09:30:36.259Z</time></trkpt><trkpt lat="43.322345" lon="11.8412933"><ele>242.0</ele><time>2026-04-04T09:30:40.259Z</time></trkpt><trkpt lat="43.3223567" lon="11.8413883"><ele>242.0</ele><time>2026-04-04T09:30:42.26Z</time></trkpt><trkpt lat="43.3223817" lon="11.8414883"><ele>242.0</ele><time>2026-04-04T09:30:44.262Z</time></trkpt><trkpt lat="43.3224067" lon="11.841595"><ele>242.00000000000003</ele><time>2026-04-04T09:30:46.262Z</time></trkpt><trkpt lat="43.322435" lon="11.8417067"><ele>242.0</ele><time>2026-04-04T09:30:48.26Z</time></trkpt><trkpt lat="43.3224633" lon="11.8418183"><ele>241.8</ele><time>2026-04-04T09:30:50.258Z</time></trkpt><trkpt lat="43.322495" lon="11.8419367"><ele>241.6</ele><time>2026-04-04T09:30:52.258Z</time></trkpt><trkpt lat="43.322525" lon="11.8420533"><ele>241.40000000000003</ele><time>2026-04-04T09:30:54.262Z</time></trkpt><trkpt lat="43.322555" lon="11.8421733"><ele>241.20000000000002</ele><time>2026-04-04T09:30:56.26Z</time></trkpt><trkpt lat="43.3225833" lon="11.8422917"><ele>241.0</ele><time>2026-04-04T09:30:58.259Z</time></trkpt><trkpt lat="43.322615" lon="11.8424117"><ele>241.0</ele><time>2026-04-04T09:31:00.268Z</time></trkpt><trkpt lat="43.3226517" lon="11.84253"><ele>241.00000000000003</ele><time>2026-04-04T09:31:02.26Z</time></trkpt><trkpt lat="43.3226883" lon="11.8426567"><ele>241.00000000000003</ele><time>2026-04-04T09:31:04.258Z</time></trkpt><trkpt lat="43.32272" lon="11.842785"><ele>241.0</ele><time>2026-04-04T09:31:06.258Z</time></trkpt><trkpt lat="43.3227517" lon="11.84291"><ele>241.0</ele><time>2026-04-04T09:31:08.257Z</time></trkpt><trkpt lat="43.3227867" lon="11.8430317"><ele>240.8</ele><time>2026-04-04T09:31:10.259Z</time></trkpt><trkpt lat="43.3228183" lon="11.8431483"><ele>240.60000000000002</ele><time>2026-04-04T09:31:12.259Z</time></trkpt><trkpt lat="43.3228517" lon="11.8432667"><ele>240.4</ele><time>2026-04-04T09:31:14.263Z</time></trkpt><trkpt lat="43.3228817" lon="11.8433833"><ele>240.2</ele><time>2026-04-04T09:31:16.261Z</time></trkpt><trkpt lat="43.3229117" lon="11.843505"><ele>240.0</ele><time>2026-04-04T09:31:18.259Z</time></trkpt><trkpt lat="43.322945" lon="11.8436267"><ele>240.0</ele><time>2026-04-04T09:31:20.259Z</time></trkpt><trkpt lat="43.3229783" lon="11.84375"><ele>240.0</ele><time>2026-04-04T09:31:22.261Z</time></trkpt><trkpt lat="43.323015" lon="11.8438683"><ele>240.0</ele><time>2026-04-04T09:31:24.258Z</time></trkpt><trkpt lat="43.3230483" lon="11.8439817"><ele>240.0</ele><time>2026-04-04T09:31:26.26Z</time></trkpt><trkpt lat="43.3230783" lon="11.8440967"><ele>240.0</ele><time>2026-04-04T09:31:28.258Z</time></trkpt><trkpt lat="43.323105" lon="11.8442133"><ele>240.2</ele><time>2026-04-04T09:31:30.259Z</time></trkpt><trkpt lat="43.3231383" lon="11.8443333"><ele>240.4</ele><time>2026-04-04T09:31:32.26Z</time></trkpt><trkpt lat="43.3231717" lon="11.8444533"><ele>240.60000000000002</ele><time>2026-04-04T09:31:34.259Z</time></trkpt><trkpt lat="43.3232067" lon="11.8445733"><ele>240.8</ele><time>2026-04-04T09:31:36.262Z</time></trkpt><trkpt lat="43.3232417" lon="11.8446917"><ele>241.0</ele><time>2026-04-04T09:31:38.26Z</time></trkpt><trkpt lat="43.3232717" lon="11.8448083"><ele>241.0</ele><time>2026-04-04T09:31:40.258Z</time></trkpt><trkpt lat="43.3233067" lon="11.84492"><ele>241.00000000000003</ele><time>2026-04-04T09:31:42.258Z</time></trkpt><trkpt lat="43.3233417" lon="11.845035"><ele>241.00000000000003</ele><time>2026-04-04T09:31:44.259Z</time></trkpt><trkpt lat="43.323375" lon="11.845155"><ele>241.0</ele><time>2026-04-04T09:31:46.259Z</time></trkpt><trkpt lat="43.3234117" lon="11.84527"><ele>241.0</ele><time>2026-04-04T09:31:48.259Z</time></trkpt><trkpt lat="43.323445" lon="11.8453867"><ele>241.20000000000002</ele><time>2026-04-04T09:31:50.259Z</time></trkpt><trkpt lat="43.323495" lon="11.8455667"><ele>241.40000000000003</ele><time>2026-04-04T09:31:53.259Z</time></trkpt><trkpt lat="43.323525" lon="11.8456867"><ele>241.6</ele><time>2026-04-04T09:31:55.258Z</time></trkpt><trkpt lat="43.3235533" lon="11.84581"><ele>241.8</ele><time>2026-04-04T09:31:57.26Z</time></trkpt><trkpt lat="43.3235833" lon="11.8459283"><ele>242.0</ele><time>2026-04-04T09:31:59.258Z</time></trkpt><trkpt lat="43.3236067" lon="11.84601"><ele>242.42857142857142</ele><time>2026-04-04T09:32:01.259Z</time></trkpt><trkpt lat="43.3236817" lon="11.8459883"><ele>242.85714285714283</ele><time>2026-04-04T09:32:18.256Z</time></trkpt><trkpt lat="43.3237067" lon="11.8460783"><ele>243.28571428571428</ele><time>2026-04-04T09:32:23.258Z</time></trkpt><trkpt lat="43.323695" lon="11.8461733"><ele>243.71428571428572</ele><time>2026-04-04T09:32:27.261Z</time></trkpt><trkpt lat="43.32371" lon="11.8462617"><ele>244.14285714285714</ele><time>2026-04-04T09:32:30.259Z</time></trkpt><trkpt lat="43.32374" lon="11.846345"><ele>244.57142857142856</ele><time>2026-04-04T09:32:33.259Z</time></trkpt><trkpt lat="43.3237733" lon="11.8464417"><ele>245.0</ele><time>2026-04-04T09:32:36.258Z</time></trkpt><trkpt lat="43.3238133" lon="11.8465483"><ele>245.0</ele><time>2026-04-04T09:32:39.259Z</time></trkpt><trkpt lat="43.32386" lon="11.84666"><ele>245.0</ele><time>2026-04-04T09:32:42.262Z</time></trkpt><trkpt lat="43.323915" lon="11.846765"><ele>245.0</ele><time>2026-04-04T09:32:45.259Z</time></trkpt><trkpt lat="43.3239767" lon="11.8468583"><ele>245.0</ele><time>2026-04-04T09:32:48.261Z</time></trkpt><trkpt lat="43.3240333" lon="11.8469467"><ele>245.0</ele><time>2026-04-04T09:32:51.259Z</time></trkpt><trkpt lat="43.3241017" lon="11.847035"><ele>245.50000000000003</ele><time>2026-04-04T09:32:54.265Z</time></trkpt><trkpt lat="43.3241533" lon="11.8470883"><ele>246.0</ele><time>2026-04-04T09:32:56.26Z</time></trkpt><trkpt lat="43.324205" lon="11.84714"><ele>246.5</ele><time>2026-04-04T09:32:58.259Z</time></trkpt><trkpt lat="43.3242767" lon="11.84721"><ele>247.0</ele><time>2026-04-04T09:33:01.259Z</time></trkpt><trkpt lat="43.3243583" lon="11.847265"><ele>247.50000000000003</ele><time>2026-04-04T09:33:04.262Z</time></trkpt><trkpt lat="43.3244333" lon="11.8473267"><ele>248.0</ele><time>2026-04-04T09:33:07.261Z</time></trkpt><trkpt lat="43.3245133" lon="11.847385"><ele>248.00000000000003</ele><time>2026-04-04T09:33:10.259Z</time></trkpt><trkpt lat="43.324595" lon="11.8474433"><ele>248.0</ele><time>2026-04-04T09:33:13.259Z</time></trkpt><trkpt lat="43.3246683" lon="11.8475017"><ele>248.0</ele><time>2026-04-04T09:33:16.26Z</time></trkpt><trkpt lat="43.324745" lon="11.8475667"><ele>248.0</ele><time>2026-04-04T09:33:19.26Z</time></trkpt><trkpt lat="43.3248183" lon="11.84763"><ele>248.00000000000003</ele><time>2026-04-04T09:33:22.261Z</time></trkpt><trkpt lat="43.3248933" lon="11.8476933"><ele>248.0</ele><time>2026-04-04T09:33:25.261Z</time></trkpt><trkpt lat="43.32496" lon="11.8477683"><ele>249.83333333333334</ele><time>2026-04-04T09:33:28.257Z</time></trkpt><trkpt lat="43.325015" lon="11.8478133"><ele>251.66666666666669</ele><time>2026-04-04T09:33:30.26Z</time></trkpt><trkpt lat="43.3250767" lon="11.8478583"><ele>253.5</ele><time>2026-04-04T09:33:32.26Z</time></trkpt><trkpt lat="43.3251467" lon="11.8479117"><ele>255.33333333333331</ele><time>2026-04-04T09:33:35.265Z</time></trkpt><trkpt lat="43.3252183" lon="11.8479767"><ele>257.16666666666663</ele><time>2026-04-04T09:33:38.259Z</time></trkpt><trkpt lat="43.325285" lon="11.8480433"><ele>259.0</ele><time>2026-04-04T09:33:41.262Z</time></trkpt><trkpt lat="43.32536" lon="11.848105"><ele>259.0</ele><time>2026-04-04T09:33:44.259Z</time></trkpt><trkpt lat="43.3254283" lon="11.848175"><ele>259.0</ele><time>2026-04-04T09:33:47.259Z</time></trkpt><trkpt lat="43.32549" lon="11.8482367"><ele>259.0</ele><time>2026-04-04T09:33:50.259Z</time></trkpt><trkpt lat="43.3255567" lon="11.8482967"><ele>259.0</ele><time>2026-04-04T09:33:53.26Z</time></trkpt><trkpt lat="43.3256183" lon="11.8483533"><ele>259.0</ele><time>2026-04-04T09:33:56.26Z</time></trkpt><trkpt lat="43.3256817" lon="11.848405"><ele>259.0</ele><time>2026-04-04T09:33:59.26Z</time></trkpt><trkpt lat="43.325745" lon="11.848455"><ele>260.0</ele><time>2026-04-04T09:34:02.259Z</time></trkpt><trkpt lat="43.32581" lon="11.8485117"><ele>261.0</ele><time>2026-04-04T09:34:05.261Z</time></trkpt><trkpt lat="43.3258717" lon="11.8485717"><ele>262.0</ele><time>2026-04-04T09:34:08.259Z</time></trkpt><trkpt lat="43.3259417" lon="11.848625"><ele>263.0</ele><time>2026-04-04T09:34:11.26Z</time></trkpt><trkpt lat="43.3260083" lon="11.848675"><ele>264.0</ele><time>2026-04-04T09:34:14.261Z</time></trkpt><trkpt lat="43.32607" lon="11.848715"><ele>265.0</ele><time>2026-04-04T09:34:17.26Z</time></trkpt><trkpt lat="43.3261217" lon="11.8487667"><ele>266.0</ele><time>2026-04-04T09:34:20.261Z</time></trkpt><trkpt lat="43.3261883" lon="11.8488133"><ele>266.0</ele><time>2026-04-04T09:34:23.258Z</time></trkpt><trkpt lat="43.326255" lon="11.8488617"><ele>266.0</ele><time>2026-04-04T09:34:26.259Z</time></trkpt><trkpt lat="43.3263167" lon="11.84892"><ele>266.0</ele><time>2026-04-04T09:34:29.258Z</time></trkpt><trkpt lat="43.3263767" lon="11.848975"><ele>266.0</ele><time>2026-04-04T09:34:32.263Z</time></trkpt><trkpt lat="43.326435" lon="11.8490283"><ele>266.0</ele><time>2026-04-04T09:34:35.26Z</time></trkpt><trkpt lat="43.3264983" lon="11.849085"><ele>266.0</ele><time>2026-04-04T09:34:38.263Z</time></trkpt><trkpt lat="43.3265617" lon="11.8491433"><ele>266.0</ele><time>2026-04-04T09:34:41.26Z</time></trkpt><trkpt lat="43.3266167" lon="11.849205"><ele>266.0</ele><time>2026-04-04T09:34:44.261Z</time></trkpt><trkpt lat="43.32668" lon="11.8492533"><ele>266.0</ele><time>2026-04-04T09:34:47.261Z</time></trkpt><trkpt lat="43.3267417" lon="11.84931"><ele>266.0</ele><time>2026-04-04T09:34:50.26Z</time></trkpt><trkpt lat="43.3267983" lon="11.849385"><ele>266.0</ele><time>2026-04-04T09:34:53.26Z</time></trkpt><trkpt lat="43.3268583" lon="11.8494467"><ele>266.0</ele><time>2026-04-04T09:34:56.262Z</time></trkpt><trkpt lat="43.3269117" lon="11.84951"><ele>266.0</ele><time>2026-04-04T09:34:59.259Z</time></trkpt><trkpt lat="43.326955" lon="11.849595"><ele>266.0</ele><time>2026-04-04T09:35:02.26Z</time></trkpt><trkpt lat="43.326995" lon="11.84968"><ele>266.1666666666667</ele><time>2026-04-04T09:35:05.26Z</time></trkpt><trkpt lat="43.3270383" lon="11.8497633"><ele>266.33333333333337</ele><time>2026-04-04T09:35:08.259Z</time></trkpt><trkpt lat="43.3270783" lon="11.8498533"><ele>266.5</ele><time>2026-04-04T09:35:11.26Z</time></trkpt><trkpt lat="43.3271133" lon="11.8499517"><ele>266.6666666666667</ele><time>2026-04-04T09:35:14.259Z</time></trkpt><trkpt lat="43.3271433" lon="11.8500517"><ele>266.8333333333333</ele><time>2026-04-04T09:35:17.259Z</time></trkpt><trkpt lat="43.32718" lon="11.8501567"><ele>267.0</ele><time>2026-04-04T09:35:20.26Z</time></trkpt><trkpt lat="43.3272083" lon="11.850235"><ele>267.00000000000006</ele><time>2026-04-04T09:35:22.262Z</time></trkpt><trkpt lat="43.32724" lon="11.8503267"><ele>267.0</ele><time>2026-04-04T09:35:24.259Z</time></trkpt><trkpt lat="43.3272783" lon="11.8504067"><ele>267.0</ele><time>2026-04-04T09:35:26.262Z</time></trkpt><trkpt lat="43.327305" lon="11.8504867"><ele>267.0</ele><time>2026-04-04T09:35:28.259Z</time></trkpt><trkpt lat="43.327335" lon="11.8505667"><ele>267.0</ele><time>2026-04-04T09:35:30.261Z</time></trkpt><trkpt lat="43.3273617" lon="11.8506683"><ele>267.00000000000006</ele><time>2026-04-04T09:35:32.26Z</time></trkpt><trkpt lat="43.327395" lon="11.8507833"><ele>267.0</ele><time>2026-04-04T09:35:34.258Z</time></trkpt><trkpt lat="43.3274367" lon="11.8509083"><ele>266.8</ele><time>2026-04-04T09:35:36.26Z</time></trkpt><trkpt lat="43.327475" lon="11.8510367"><ele>266.6</ele><time>2026-04-04T09:35:38.26Z</time></trkpt><trkpt lat="43.3275133" lon="11.8511633"><ele>266.40000000000003</ele><time>2026-04-04T09:35:40.259Z</time></trkpt><trkpt lat="43.3275517" lon="11.851295"><ele>266.2</ele><time>2026-04-04T09:35:42.259Z</time></trkpt><trkpt lat="43.3275917" lon="11.851425"><ele>266.0</ele><time>2026-04-04T09:35:44.259Z</time></trkpt><trkpt lat="43.3276367" lon="11.851555"><ele>266.0</ele><time>2026-04-04T09:35:46.26Z</time></trkpt><trkpt lat="43.3276833" lon="11.851685"><ele>266.0</ele><time>2026-04-04T09:35:48.261Z</time></trkpt><trkpt lat="43.32773" lon="11.8518133"><ele>266.0</ele><time>2026-04-04T09:35:50.263Z</time></trkpt><trkpt lat="43.3277767" lon="11.8519517"><ele>266.0</ele><time>2026-04-04T09:35:52.262Z</time></trkpt><trkpt lat="43.3278217" lon="11.8520933"><ele>266.0</ele><time>2026-04-04T09:35:54.264Z</time></trkpt><trkpt lat="43.3278667" lon="11.8522333"><ele>266.0</ele><time>2026-04-04T09:35:56.26Z</time></trkpt><trkpt lat="43.32792" lon="11.8523733"><ele>266.0</ele><time>2026-04-04T09:35:58.258Z</time></trkpt><trkpt lat="43.327975" lon="11.8525133"><ele>266.0</ele><time>2026-04-04T09:36:00.258Z</time></trkpt><trkpt lat="43.3280317" lon="11.8526533"><ele>266.0</ele><time>2026-04-04T09:36:02.258Z</time></trkpt><trkpt lat="43.3280867" lon="11.85279"><ele>265.8</ele><time>2026-04-04T09:36:04.258Z</time></trkpt><trkpt lat="43.32814" lon="11.8529233"><ele>265.6</ele><time>2026-04-04T09:36:06.258Z</time></trkpt><trkpt lat="43.3281967" lon="11.8530533"><ele>265.4</ele><time>2026-04-04T09:36:08.259Z</time></trkpt><trkpt lat="43.328245" lon="11.8531883"><ele>265.2</ele><time>2026-04-04T09:36:10.258Z</time></trkpt><trkpt lat="43.328295" lon="11.8533233"><ele>265.0</ele><time>2026-04-04T09:36:12.259Z</time></trkpt><trkpt lat="43.3283467" lon="11.8534567"><ele>265.0</ele><time>2026-04-04T09:36:14.261Z</time></trkpt><trkpt lat="43.3283983" lon="11.853585"><ele>265.0</ele><time>2026-04-04T09:36:16.259Z</time></trkpt><trkpt lat="43.3284483" lon="11.8537083"><ele>265.0</ele><time>2026-04-04T09:36:18.271Z</time></trkpt><trkpt lat="43.328495" lon="11.8538383"><ele>265.0</ele><time>2026-04-04T09:36:20.26Z</time></trkpt><trkpt lat="43.3285433" lon="11.853965"><ele>265.0</ele><time>2026-04-04T09:36:22.258Z</time></trkpt><trkpt lat="43.3285917" lon="11.8540933"><ele>265.0</ele><time>2026-04-04T09:36:24.262Z</time></trkpt><trkpt lat="43.3286383" lon="11.8542267"><ele>265.0</ele><time>2026-04-04T09:36:26.261Z</time></trkpt><trkpt lat="43.3286817" lon="11.8543633"><ele>265.0</ele><time>2026-04-04T09:36:28.259Z</time></trkpt><trkpt lat="43.3287317" lon="11.8544917"><ele>265.0</ele><time>2026-04-04T09:36:30.259Z</time></trkpt><trkpt lat="43.3287817" lon="11.8546233"><ele>265.0</ele><time>2026-04-04T09:36:32.263Z</time></trkpt><trkpt lat="43.32883" lon="11.8547633"><ele>265.0</ele><time>2026-04-04T09:36:34.259Z</time></trkpt><trkpt lat="43.32888" lon="11.8549"><ele>265.0</ele><time>2026-04-04T09:36:36.263Z</time></trkpt><trkpt lat="43.3289267" lon="11.85504"><ele>265.0</ele><time>2026-04-04T09:36:38.262Z</time></trkpt><trkpt lat="43.3289783" lon="11.8551767"><ele>265.0</ele><time>2026-04-04T09:36:40.259Z</time></trkpt><trkpt lat="43.32903" lon="11.8553167"><ele>265.25</ele><time>2026-04-04T09:36:42.258Z</time></trkpt><trkpt lat="43.3290833" lon="11.855455"><ele>265.5</ele><time>2026-04-04T09:36:44.26Z</time></trkpt><trkpt lat="43.32914" lon="11.85559"><ele>265.75</ele><time>2026-04-04T09:36:46.258Z</time></trkpt><trkpt lat="43.3291983" lon="11.8557317"><ele>266.0</ele><time>2026-04-04T09:36:48.258Z</time></trkpt><trkpt lat="43.3292583" lon="11.8558733"><ele>265.75</ele><time>2026-04-04T09:36:50.26Z</time></trkpt><trkpt lat="43.3293133" lon="11.85602"><ele>265.5</ele><time>2026-04-04T09:36:52.258Z</time></trkpt><trkpt lat="43.329365" lon="11.8561617"><ele>265.25</ele><time>2026-04-04T09:36:54.259Z</time></trkpt><trkpt lat="43.3294167" lon="11.856305"><ele>265.0</ele><time>2026-04-04T09:36:56.259Z</time></trkpt><trkpt lat="43.32947" lon="11.8564483"><ele>265.0</ele><time>2026-04-04T09:36:58.258Z</time></trkpt><trkpt lat="43.329525" lon="11.8565933"><ele>265.0</ele><time>2026-04-04T09:37:00.261Z</time></trkpt><trkpt lat="43.32958" lon="11.8567383"><ele>265.0</ele><time>2026-04-04T09:37:02.259Z</time></trkpt><trkpt lat="43.3296317" lon="11.856885"><ele>265.0</ele><time>2026-04-04T09:37:04.258Z</time></trkpt><trkpt lat="43.3296883" lon="11.8570283"><ele>265.0</ele><time>2026-04-04T09:37:06.259Z</time></trkpt><trkpt lat="43.3297467" lon="11.8571717"><ele>265.0</ele><time>2026-04-04T09:37:08.259Z</time></trkpt><trkpt lat="43.3298017" lon="11.8573133"><ele>265.0</ele><time>2026-04-04T09:37:10.258Z</time></trkpt><trkpt lat="43.3298567" lon="11.85746"><ele>265.0</ele><time>2026-04-04T09:37:12.261Z</time></trkpt><trkpt lat="43.3299133" lon="11.8576233"><ele>264.57142857142856</ele><time>2026-04-04T09:37:14.259Z</time></trkpt><trkpt lat="43.3299467" lon="11.8577017"><ele>264.1428571428571</ele><time>2026-04-04T09:37:15.259Z</time></trkpt><trkpt lat="43.32998" lon="11.8577783"><ele>263.7142857142857</ele><time>2026-04-04T09:37:16.258Z</time></trkpt><trkpt lat="43.3300417" lon="11.8579283"><ele>263.2857142857143</ele><time>2026-04-04T09:37:18.259Z</time></trkpt><trkpt lat="43.3300717" lon="11.858005"><ele>262.8571428571429</ele><time>2026-04-04T09:37:19.258Z</time></trkpt><trkpt lat="43.3301" lon="11.8580833"><ele>262.42857142857144</ele><time>2026-04-04T09:37:20.265Z</time></trkpt><trkpt lat="43.33013" lon="11.8581617"><ele>262.0</ele><time>2026-04-04T09:37:21.26Z</time></trkpt><trkpt lat="43.3301633" lon="11.8582417"><ele>262.0</ele><time>2026-04-04T09:37:22.26Z</time></trkpt><trkpt lat="43.330195" lon="11.858325"><ele>262.0</ele><time>2026-04-04T09:37:23.258Z</time></trkpt><trkpt lat="43.3302267" lon="11.85841"><ele>262.0</ele><time>2026-04-04T09:37:24.259Z</time></trkpt><trkpt lat="43.3302583" lon="11.8584933"><ele>262.0</ele><time>2026-04-04T09:37:25.259Z</time></trkpt><trkpt lat="43.3302883" lon="11.8585767"><ele>262.0</ele><time>2026-04-04T09:37:26.26Z</time></trkpt><trkpt lat="43.3303183" lon="11.85866"><ele>262.0</ele><time>2026-04-04T09:37:27.262Z</time></trkpt><trkpt lat="43.3303483" lon="11.8587417"><ele>262.0</ele><time>2026-04-04T09:37:28.258Z</time></trkpt><trkpt lat="43.3303783" lon="11.8588233"><ele>262.0</ele><time>2026-04-04T09:37:29.262Z</time></trkpt><trkpt lat="43.33041" lon="11.8589033"><ele>262.0</ele><time>2026-04-04T09:37:30.259Z</time></trkpt><trkpt lat="43.3304433" lon="11.8589833"><ele>262.0</ele><time>2026-04-04T09:37:31.258Z</time></trkpt><trkpt lat="43.330475" lon="11.8590617"><ele>262.0</ele><time>2026-04-04T09:37:32.257Z</time></trkpt><trkpt lat="43.3305083" lon="11.8591417"><ele>262.0</ele><time>2026-04-04T09:37:33.258Z</time></trkpt><trkpt lat="43.3305417" lon="11.8592183"><ele>262.0</ele><time>2026-04-04T09:37:34.259Z</time></trkpt><trkpt lat="43.3305783" lon="11.859295"><ele>262.0</ele><time>2026-04-04T09:37:35.259Z</time></trkpt><trkpt lat="43.33061" lon="11.8593733"><ele>261.8</ele><time>2026-04-04T09:37:36.257Z</time></trkpt><trkpt lat="43.3306383" lon="11.8594533"><ele>261.6</ele><time>2026-04-04T09:37:37.259Z</time></trkpt><trkpt lat="43.3306967" lon="11.859605"><ele>261.40000000000003</ele><time>2026-04-04T09:37:39.258Z</time></trkpt><trkpt lat="43.3307267" lon="11.8596817"><ele>261.2</ele><time>2026-04-04T09:37:40.257Z</time></trkpt><trkpt lat="43.3307767" lon="11.8598383"><ele>261.0</ele><time>2026-04-04T09:37:42.258Z</time></trkpt><trkpt lat="43.3308317" lon="11.85999"><ele>261.0</ele><time>2026-04-04T09:37:44.258Z</time></trkpt><trkpt lat="43.3308617" lon="11.8600667"><ele>261.0</ele><time>2026-04-04T09:37:45.258Z</time></trkpt><trkpt lat="43.3309183" lon="11.8602117"><ele>261.0</ele><time>2026-04-04T09:37:47.258Z</time></trkpt><trkpt lat="43.3309783" lon="11.8603567"><ele>261.0</ele><time>2026-04-04T09:37:49.259Z</time></trkpt><trkpt lat="43.3310317" lon="11.86051"><ele>261.0</ele><time>2026-04-04T09:37:51.26Z</time></trkpt><trkpt lat="43.3310967" lon="11.8606567"><ele>261.0</ele><time>2026-04-04T09:37:53.259Z</time></trkpt><trkpt lat="43.3311283" lon="11.860735"><ele>261.0</ele><time>2026-04-04T09:37:54.257Z</time></trkpt><trkpt lat="43.3311817" lon="11.8608883"><ele>261.0</ele><time>2026-04-04T09:37:56.259Z</time></trkpt><trkpt lat="43.3312083" lon="11.8609683"><ele>261.0</ele><time>2026-04-04T09:37:57.26Z</time></trkpt><trkpt lat="43.3312267" lon="11.8610583"><ele>261.0</ele><time>2026-04-04T09:37:58.258Z</time></trkpt><trkpt lat="43.3312833" lon="11.8612083"><ele>261.0</ele><time>2026-04-04T09:38:00.26Z</time></trkpt><trkpt lat="43.3313167" lon="11.8612833"><ele>261.0</ele><time>2026-04-04T09:38:01.257Z</time></trkpt><trkpt lat="43.33135" lon="11.86136"><ele>261.0</ele><time>2026-04-04T09:38:02.258Z</time></trkpt><trkpt lat="43.3314067" lon="11.861515"><ele>261.0</ele><time>2026-04-04T09:38:04.257Z</time></trkpt><trkpt lat="43.3314717" lon="11.8616667"><ele>261.0</ele><time>2026-04-04T09:38:06.258Z</time></trkpt><trkpt lat="43.331505" lon="11.8617433"><ele>261.0</ele><time>2026-04-04T09:38:07.259Z</time></trkpt><trkpt lat="43.3315367" lon="11.8618217"><ele>261.0</ele><time>2026-04-04T09:38:08.259Z</time></trkpt><trkpt lat="43.3315683" lon="11.8619017"><ele>261.0</ele><time>2026-04-04T09:38:09.258Z</time></trkpt><trkpt lat="43.3316017" lon="11.8619817"><ele>261.0</ele><time>2026-04-04T09:38:10.258Z</time></trkpt><trkpt lat="43.33166" lon="11.8621333"><ele>261.0</ele><time>2026-04-04T09:38:12.257Z</time></trkpt><trkpt lat="43.3317233" lon="11.8622833"><ele>261.0</ele><time>2026-04-04T09:38:14.261Z</time></trkpt><trkpt lat="43.3317517" lon="11.8623633"><ele>261.0</ele><time>2026-04-04T09:38:15.259Z</time></trkpt><trkpt lat="43.33181" lon="11.86252"><ele>261.0</ele><time>2026-04-04T09:38:17.257Z</time></trkpt><trkpt lat="43.33184" lon="11.8626"><ele>261.0</ele><time>2026-04-04T09:38:18.258Z</time></trkpt><trkpt lat="43.33187" lon="11.8626767"><ele>261.0</ele><time>2026-04-04T09:38:19.258Z</time></trkpt><trkpt lat="43.3319" lon="11.862755"><ele>261.0</ele><time>2026-04-04T09:38:20.261Z</time></trkpt><trkpt lat="43.3319317" lon="11.8628317"><ele>261.0</ele><time>2026-04-04T09:38:21.261Z</time></trkpt><trkpt lat="43.33196" lon="11.86291"><ele>261.0</ele><time>2026-04-04T09:38:22.26Z</time></trkpt><trkpt lat="43.3320217" lon="11.86306"><ele>261.0</ele><time>2026-04-04T09:38:24.261Z</time></trkpt><trkpt lat="43.332055" lon="11.8631367"><ele>260.8</ele><time>2026-04-04T09:38:25.257Z</time></trkpt><trkpt lat="43.3321167" lon="11.8632833"><ele>260.6</ele><time>2026-04-04T09:38:27.26Z</time></trkpt><trkpt lat="43.3321717" lon="11.8634317"><ele>260.4</ele><time>2026-04-04T09:38:29.257Z</time></trkpt><trkpt lat="43.332225" lon="11.8635867"><ele>260.2</ele><time>2026-04-04T09:38:31.26Z</time></trkpt><trkpt lat="43.3322567" lon="11.8636667"><ele>260.0</ele><time>2026-04-04T09:38:32.258Z</time></trkpt><trkpt lat="43.3322867" lon="11.863745"><ele>260.00000000000006</ele><time>2026-04-04T09:38:33.257Z</time></trkpt><trkpt lat="43.3323167" lon="11.8638233"><ele>260.0</ele><time>2026-04-04T09:38:34.257Z</time></trkpt><trkpt lat="43.332345" lon="11.8639017"><ele>260.0</ele><time>2026-04-04T09:38:35.259Z</time></trkpt><trkpt lat="43.332375" lon="11.8639817"><ele>260.0</ele><time>2026-04-04T09:38:36.257Z</time></trkpt><trkpt lat="43.3324017" lon="11.864065"><ele>260.0</ele><time>2026-04-04T09:38:37.259Z</time></trkpt><trkpt lat="43.332435" lon="11.8641433"><ele>260.00000000000006</ele><time>2026-04-04T09:38:38.258Z</time></trkpt><trkpt lat="43.332465" lon="11.864225"><ele>260.0</ele><time>2026-04-04T09:38:39.261Z</time></trkpt><trkpt lat="43.332495" lon="11.864305"><ele>259.8571428571429</ele><time>2026-04-04T09:38:40.264Z</time></trkpt><trkpt lat="43.3325533" lon="11.8644617"><ele>259.7142857142857</ele><time>2026-04-04T09:38:42.257Z</time></trkpt><trkpt lat="43.3325833" lon="11.86454"><ele>259.57142857142856</ele><time>2026-04-04T09:38:43.258Z</time></trkpt><trkpt lat="43.33261" lon="11.8646217"><ele>259.42857142857144</ele><time>2026-04-04T09:38:44.261Z</time></trkpt><trkpt lat="43.3326383" lon="11.8647"><ele>259.2857142857143</ele><time>2026-04-04T09:38:45.257Z</time></trkpt><trkpt lat="43.3326667" lon="11.86478"><ele>259.14285714285717</ele><time>2026-04-04T09:38:46.257Z</time></trkpt><trkpt lat="43.332695" lon="11.8648583"><ele>259.0</ele><time>2026-04-04T09:38:47.258Z</time></trkpt><trkpt lat="43.3327267" lon="11.8649383"><ele>259.0</ele><time>2026-04-04T09:38:48.259Z</time></trkpt><trkpt lat="43.3327583" lon="11.865015"><ele>259.0</ele><time>2026-04-04T09:38:49.258Z</time></trkpt><trkpt lat="43.3327883" lon="11.8650933"><ele>259.0</ele><time>2026-04-04T09:38:50.257Z</time></trkpt><trkpt lat="43.33282" lon="11.865175"><ele>259.0</ele><time>2026-04-04T09:38:51.259Z</time></trkpt><trkpt lat="43.3328517" lon="11.8652567"><ele>259.0</ele><time>2026-04-04T09:38:52.259Z</time></trkpt><trkpt lat="43.3328817" lon="11.8653367"><ele>259.0</ele><time>2026-04-04T09:38:53.259Z</time></trkpt><trkpt lat="43.3329133" lon="11.8654183"><ele>259.0</ele><time>2026-04-04T09:38:54.261Z</time></trkpt><trkpt lat="43.3329417" lon="11.8655"><ele>259.0</ele><time>2026-04-04T09:38:55.258Z</time></trkpt><trkpt lat="43.3329733" lon="11.86558"><ele>259.0</ele><time>2026-04-04T09:38:56.259Z</time></trkpt><trkpt lat="43.3330033" lon="11.86566"><ele>259.0</ele><time>2026-04-04T09:38:57.258Z</time></trkpt><trkpt lat="43.3330317" lon="11.86574"><ele>259.0</ele><time>2026-04-04T09:38:58.26Z</time></trkpt><trkpt lat="43.3330617" lon="11.8658167"><ele>259.0</ele><time>2026-04-04T09:38:59.259Z</time></trkpt><trkpt lat="43.333095" lon="11.8658967"><ele>259.0</ele><time>2026-04-04T09:39:00.259Z</time></trkpt><trkpt lat="43.333125" lon="11.8659767"><ele>259.0</ele><time>2026-04-04T09:39:01.257Z</time></trkpt><trkpt lat="43.3331717" lon="11.8661383"><ele>259.16666666666663</ele><time>2026-04-04T09:39:03.259Z</time></trkpt><trkpt lat="43.333225" lon="11.8662933"><ele>259.3333333333333</ele><time>2026-04-04T09:39:05.26Z</time></trkpt><trkpt lat="43.3332567" lon="11.8663717"><ele>259.5</ele><time>2026-04-04T09:39:06.258Z</time></trkpt><trkpt lat="43.3332867" lon="11.8664517"><ele>259.6666666666667</ele><time>2026-04-04T09:39:07.257Z</time></trkpt><trkpt lat="43.333315" lon="11.866535"><ele>259.83333333333337</ele><time>2026-04-04T09:39:08.259Z</time></trkpt><trkpt lat="43.3333417" lon="11.8666183"><ele>260.0</ele><time>2026-04-04T09:39:09.259Z</time></trkpt><trkpt lat="43.3333717" lon="11.8667"><ele>259.8571428571429</ele><time>2026-04-04T09:39:10.26Z</time></trkpt><trkpt lat="43.3334017" lon="11.8667833"><ele>259.7142857142857</ele><time>2026-04-04T09:39:11.258Z</time></trkpt><trkpt lat="43.3334333" lon="11.8668683"><ele>259.57142857142856</ele><time>2026-04-04T09:39:12.258Z</time></trkpt><trkpt lat="43.333465" lon="11.8669517"><ele>259.42857142857144</ele><time>2026-04-04T09:39:13.262Z</time></trkpt><trkpt lat="43.3334983" lon="11.8670383"><ele>259.2857142857143</ele><time>2026-04-04T09:39:14.26Z</time></trkpt><trkpt lat="43.33353" lon="11.8671267"><ele>259.14285714285717</ele><time>2026-04-04T09:39:15.26Z</time></trkpt><trkpt lat="43.3335617" lon="11.8672133"><ele>259.0</ele><time>2026-04-04T09:39:16.261Z</time></trkpt><trkpt lat="43.3335933" lon="11.8673"><ele>259.0</ele><time>2026-04-04T09:39:17.263Z</time></trkpt><trkpt lat="43.3336233" lon="11.8673883"><ele>259.0</ele><time>2026-04-04T09:39:18.257Z</time></trkpt><trkpt lat="43.3336567" lon="11.8674783"><ele>259.0</ele><time>2026-04-04T09:39:19.258Z</time></trkpt><trkpt lat="43.3336883" lon="11.8675667"><ele>259.0</ele><time>2026-04-04T09:39:20.258Z</time></trkpt><trkpt lat="43.3337217" lon="11.8676567"><ele>259.0</ele><time>2026-04-04T09:39:21.258Z</time></trkpt><trkpt lat="43.3337517" lon="11.867745"><ele>259.0</ele><time>2026-04-04T09:39:22.259Z</time></trkpt><trkpt lat="43.333785" lon="11.8678333"><ele>259.0</ele><time>2026-04-04T09:39:23.259Z</time></trkpt><trkpt lat="43.3338167" lon="11.867925"><ele>258.85714285714283</ele><time>2026-04-04T09:39:24.264Z</time></trkpt><trkpt lat="43.3338483" lon="11.868015"><ele>258.7142857142857</ele><time>2026-04-04T09:39:25.258Z</time></trkpt><trkpt lat="43.3338817" lon="11.868105"><ele>258.57142857142856</ele><time>2026-04-04T09:39:26.262Z</time></trkpt><trkpt lat="43.3339167" lon="11.868195"><ele>258.42857142857144</ele><time>2026-04-04T09:39:27.259Z</time></trkpt><trkpt lat="43.3339483" lon="11.8682883"><ele>258.2857142857143</ele><time>2026-04-04T09:39:28.26Z</time></trkpt><trkpt lat="43.3339783" lon="11.8683833"><ele>258.1428571428571</ele><time>2026-04-04T09:39:29.259Z</time></trkpt><trkpt lat="43.33401" lon="11.8684767"><ele>258.0</ele><time>2026-04-04T09:39:30.257Z</time></trkpt><trkpt lat="43.3340417" lon="11.86857"><ele>257.71428571428567</ele><time>2026-04-04T09:39:31.26Z</time></trkpt><trkpt lat="43.3340733" lon="11.8686633"><ele>257.42857142857144</ele><time>2026-04-04T09:39:32.259Z</time></trkpt><trkpt lat="43.33411" lon="11.8687517"><ele>257.1428571428571</ele><time>2026-04-04T09:39:33.258Z</time></trkpt><trkpt lat="43.334145" lon="11.8688417"><ele>256.85714285714283</ele><time>2026-04-04T09:39:34.26Z</time></trkpt><trkpt lat="43.3341817" lon="11.8689317"><ele>256.57142857142856</ele><time>2026-04-04T09:39:35.258Z</time></trkpt><trkpt lat="43.334215" lon="11.8690217"><ele>256.2857142857143</ele><time>2026-04-04T09:39:36.263Z</time></trkpt><trkpt lat="43.33425" lon="11.8691133"><ele>256.0</ele><time>2026-04-04T09:39:37.258Z</time></trkpt><trkpt lat="43.3342833" lon="11.8692033"><ele>256.1428571428571</ele><time>2026-04-04T09:39:38.257Z</time></trkpt><trkpt lat="43.3343183" lon="11.8692933"><ele>256.2857142857143</ele><time>2026-04-04T09:39:39.258Z</time></trkpt><trkpt lat="43.33435" lon="11.8693833"><ele>256.42857142857144</ele><time>2026-04-04T09:39:40.258Z</time></trkpt><trkpt lat="43.3343833" lon="11.8694683"><ele>256.57142857142856</ele><time>2026-04-04T09:39:41.258Z</time></trkpt><trkpt lat="43.3344117" lon="11.8695517"><ele>256.7142857142857</ele><time>2026-04-04T09:39:42.258Z</time></trkpt><trkpt lat="43.33444" lon="11.8696367"><ele>256.85714285714283</ele><time>2026-04-04T09:39:43.258Z</time></trkpt><trkpt lat="43.33447" lon="11.8697233"><ele>257.0</ele><time>2026-04-04T09:39:44.259Z</time></trkpt><trkpt lat="43.3345" lon="11.86981"><ele>257.0</ele><time>2026-04-04T09:39:45.258Z</time></trkpt><trkpt lat="43.3345283" lon="11.8698933"><ele>257.0</ele><time>2026-04-04T09:39:46.258Z</time></trkpt><trkpt lat="43.3345583" lon="11.869975"><ele>257.0</ele><time>2026-04-04T09:39:47.261Z</time></trkpt><trkpt lat="43.334585" lon="11.8700583"><ele>257.0</ele><time>2026-04-04T09:39:48.259Z</time></trkpt><trkpt lat="43.3346167" lon="11.8701383"><ele>257.0</ele><time>2026-04-04T09:39:49.26Z</time></trkpt><trkpt lat="43.3346467" lon="11.8702217"><ele>257.0</ele><time>2026-04-04T09:39:50.259Z</time></trkpt><trkpt lat="43.3346767" lon="11.870305"><ele>257.0</ele><time>2026-04-04T09:39:51.262Z</time></trkpt><trkpt lat="43.3347083" lon="11.8703883"><ele>256.85714285714283</ele><time>2026-04-04T09:39:52.259Z</time></trkpt><trkpt lat="43.3347367" lon="11.870475"><ele>256.7142857142857</ele><time>2026-04-04T09:39:53.258Z</time></trkpt><trkpt lat="43.3347617" lon="11.8705617"><ele>256.57142857142856</ele><time>2026-04-04T09:39:54.258Z</time></trkpt><trkpt lat="43.3347883" lon="11.8706483"><ele>256.42857142857144</ele><time>2026-04-04T09:39:55.258Z</time></trkpt><trkpt lat="43.3348167" lon="11.8707317"><ele>256.2857142857143</ele><time>2026-04-04T09:39:56.259Z</time></trkpt><trkpt lat="43.334845" lon="11.8708117"><ele>256.1428571428571</ele><time>2026-04-04T09:39:57.26Z</time></trkpt><trkpt lat="43.33487" lon="11.8708933"><ele>256.0</ele><time>2026-04-04T09:39:58.26Z</time></trkpt><trkpt lat="43.33489" lon="11.8709767"><ele>256.0</ele><time>2026-04-04T09:39:59.26Z</time></trkpt><trkpt lat="43.3349233" lon="11.871135"><ele>256.0</ele><time>2026-04-04T09:40:01.258Z</time></trkpt><trkpt lat="43.334955" lon="11.8712867"><ele>256.0</ele><time>2026-04-04T09:40:03.259Z</time></trkpt><trkpt lat="43.3349867" lon="11.87143"><ele>256.0</ele><time>2026-04-04T09:40:05.258Z</time></trkpt><trkpt lat="43.3350183" lon="11.871575"><ele>256.0</ele><time>2026-04-04T09:40:07.257Z</time></trkpt><trkpt lat="43.3350517" lon="11.8717133"><ele>256.0</ele><time>2026-04-04T09:40:09.259Z</time></trkpt><trkpt lat="43.3350783" lon="11.8718467"><ele>256.0</ele><time>2026-04-04T09:40:11.257Z</time></trkpt><trkpt lat="43.3351067" lon="11.8719783"><ele>256.0</ele><time>2026-04-04T09:40:13.26Z</time></trkpt><trkpt lat="43.3351333" lon="11.87211"><ele>256.0</ele><time>2026-04-04T09:40:15.258Z</time></trkpt><trkpt lat="43.3351567" lon="11.8722433"><ele>256.0</ele><time>2026-04-04T09:40:17.258Z</time></trkpt><trkpt lat="43.3351783" lon="11.8723817"><ele>256.0</ele><time>2026-04-04T09:40:19.26Z</time></trkpt><trkpt lat="43.3351933" lon="11.8725233"><ele>256.0</ele><time>2026-04-04T09:40:21.258Z</time></trkpt><trkpt lat="43.3352" lon="11.8726717"><ele>256.0</ele><time>2026-04-04T09:40:23.259Z</time></trkpt><trkpt lat="43.3352" lon="11.8728217"><ele>256.0</ele><time>2026-04-04T09:40:25.257Z</time></trkpt><trkpt lat="43.3351967" lon="11.8729717"><ele>255.5</ele><time>2026-04-04T09:40:27.262Z</time></trkpt><trkpt lat="43.33519" lon="11.873125"><ele>255.0</ele><time>2026-04-04T09:40:29.259Z</time></trkpt><trkpt lat="43.3351767" lon="11.8732783"><ele>254.5</ele><time>2026-04-04T09:40:31.26Z</time></trkpt><trkpt lat="43.3351583" lon="11.8734367"><ele>254.0</ele><time>2026-04-04T09:40:33.258Z</time></trkpt><trkpt lat="43.335145" lon="11.8735983"><ele>253.75</ele><time>2026-04-04T09:40:35.257Z</time></trkpt><trkpt lat="43.3351283" lon="11.8737533"><ele>253.5</ele><time>2026-04-04T09:40:37.258Z</time></trkpt><trkpt lat="43.33511" lon="11.8739233"><ele>253.25</ele><time>2026-04-04T09:40:39.258Z</time></trkpt><trkpt lat="43.3350933" lon="11.8740867"><ele>253.0</ele><time>2026-04-04T09:40:41.26Z</time></trkpt><trkpt lat="43.33508" lon="11.8742483"><ele>252.99999999999997</ele><time>2026-04-04T09:40:43.258Z</time></trkpt><trkpt lat="43.3350633" lon="11.874415"><ele>253.0</ele><time>2026-04-04T09:40:45.257Z</time></trkpt><trkpt lat="43.335045" lon="11.8745883"><ele>253.0</ele><time>2026-04-04T09:40:47.257Z</time></trkpt><trkpt lat="43.335035" lon="11.874675"><ele>253.0</ele><time>2026-04-04T09:40:48.258Z</time></trkpt><trkpt lat="43.3350283" lon="11.874765"><ele>252.99999999999997</ele><time>2026-04-04T09:40:49.263Z</time></trkpt><trkpt lat="43.33502" lon="11.8748533"><ele>253.0</ele><time>2026-04-04T09:40:50.258Z</time></trkpt><trkpt lat="43.3350117" lon="11.8749417"><ele>253.28571428571433</ele><time>2026-04-04T09:40:51.257Z</time></trkpt><trkpt lat="43.3349983" lon="11.8751167"><ele>253.57142857142858</ele><time>2026-04-04T09:40:53.259Z</time></trkpt><trkpt lat="43.334995" lon="11.8752033"><ele>253.8571428571429</ele><time>2026-04-04T09:40:54.263Z</time></trkpt><trkpt lat="43.3349933" lon="11.8752917"><ele>254.14285714285717</ele><time>2026-04-04T09:40:55.261Z</time></trkpt><trkpt lat="43.3349933" lon="11.87538"><ele>254.42857142857144</ele><time>2026-04-04T09:40:56.259Z</time></trkpt><trkpt lat="43.334995" lon="11.8754683"><ele>254.71428571428572</ele><time>2026-04-04T09:40:57.258Z</time></trkpt><trkpt lat="43.334995" lon="11.8755567"><ele>255.0</ele><time>2026-04-04T09:40:58.258Z</time></trkpt><trkpt lat="43.335005" lon="11.8757283"><ele>255.0</ele><time>2026-04-04T09:41:00.26Z</time></trkpt><trkpt lat="43.3350083" lon="11.8758167"><ele>255.00000000000003</ele><time>2026-04-04T09:41:01.259Z</time></trkpt><trkpt lat="43.33501" lon="11.8759033"><ele>255.0</ele><time>2026-04-04T09:41:02.258Z</time></trkpt><trkpt lat="43.3350133" lon="11.8759917"><ele>255.0</ele><time>2026-04-04T09:41:03.257Z</time></trkpt><trkpt lat="43.3350117" lon="11.8760833"><ele>255.00000000000003</ele><time>2026-04-04T09:41:04.259Z</time></trkpt><trkpt lat="43.3350133" lon="11.876175"><ele>255.0</ele><time>2026-04-04T09:41:05.259Z</time></trkpt><trkpt lat="43.335015" lon="11.8762617"><ele>255.0</ele><time>2026-04-04T09:41:06.259Z</time></trkpt><trkpt lat="43.3350133" lon="11.8763483"><ele>255.0</ele><time>2026-04-04T09:41:07.259Z</time></trkpt><trkpt lat="43.33501" lon="11.876435"><ele>255.0</ele><time>2026-04-04T09:41:08.257Z</time></trkpt><trkpt lat="43.33501" lon="11.8765217"><ele>255.0</ele><time>2026-04-04T09:41:09.258Z</time></trkpt><trkpt lat="43.33501" lon="11.8766117"><ele>255.0</ele><time>2026-04-04T09:41:10.259Z</time></trkpt><trkpt lat="43.335015" lon="11.8766983"><ele>255.0</ele><time>2026-04-04T09:41:11.259Z</time></trkpt><trkpt lat="43.3350167" lon="11.8767867"><ele>255.0</ele><time>2026-04-04T09:41:12.26Z</time></trkpt><trkpt lat="43.3350167" lon="11.8768733"><ele>255.0</ele><time>2026-04-04T09:41:13.258Z</time></trkpt><trkpt lat="43.3350167" lon="11.87696"><ele>255.0</ele><time>2026-04-04T09:41:14.259Z</time></trkpt><trkpt lat="43.3350167" lon="11.8770467"><ele>254.8</ele><time>2026-04-04T09:41:15.258Z</time></trkpt><trkpt lat="43.3350183" lon="11.877135"><ele>254.6</ele><time>2026-04-04T09:41:16.257Z</time></trkpt><trkpt lat="43.3350233" lon="11.8772233"><ele>254.39999999999998</ele><time>2026-04-04T09:41:17.258Z</time></trkpt><trkpt lat="43.33502" lon="11.8773817"><ele>254.2</ele><time>2026-04-04T09:41:19.256Z</time></trkpt><trkpt lat="43.33502" lon="11.8775433"><ele>254.0</ele><time>2026-04-04T09:41:21.259Z</time></trkpt><trkpt lat="43.3350217" lon="11.8777117"><ele>254.0</ele><time>2026-04-04T09:41:23.258Z</time></trkpt><trkpt lat="43.335025" lon="11.87788"><ele>254.0</ele><time>2026-04-04T09:41:25.258Z</time></trkpt><trkpt lat="43.33503" lon="11.8780483"><ele>254.0</ele><time>2026-04-04T09:41:27.258Z</time></trkpt><trkpt lat="43.33503" lon="11.878215"><ele>254.0</ele><time>2026-04-04T09:41:29.261Z</time></trkpt><trkpt lat="43.3350283" lon="11.8784767"><ele>254.16666666666669</ele><time>2026-04-04T09:41:32.257Z</time></trkpt><trkpt lat="43.3350283" lon="11.878565"><ele>254.33333333333334</ele><time>2026-04-04T09:41:33.257Z</time></trkpt><trkpt lat="43.3350317" lon="11.8786533"><ele>254.5</ele><time>2026-04-04T09:41:34.26Z</time></trkpt><trkpt lat="43.3350333" lon="11.87874"><ele>254.66666666666669</ele><time>2026-04-04T09:41:35.26Z</time></trkpt><trkpt lat="43.3350367" lon="11.8789067"><ele>254.83333333333334</ele><time>2026-04-04T09:41:37.261Z</time></trkpt><trkpt lat="43.335045" lon="11.8790683"><ele>255.0</ele><time>2026-04-04T09:41:39.258Z</time></trkpt><trkpt lat="43.3350483" lon="11.87916"><ele>255.0</ele><time>2026-04-04T09:41:40.259Z</time></trkpt><trkpt lat="43.3350517" lon="11.8792467"><ele>255.0</ele><time>2026-04-04T09:41:41.258Z</time></trkpt><trkpt lat="43.3350617" lon="11.8794133"><ele>255.0</ele><time>2026-04-04T09:41:43.258Z</time></trkpt><trkpt lat="43.3350617" lon="11.879575"><ele>255.0</ele><time>2026-04-04T09:41:45.258Z</time></trkpt><trkpt lat="43.33506" lon="11.8797267"><ele>255.0</ele><time>2026-04-04T09:41:47.258Z</time></trkpt><trkpt lat="43.3350533" lon="11.87988"><ele>255.0</ele><time>2026-04-04T09:41:49.258Z</time></trkpt><trkpt lat="43.3350517" lon="11.8800267"><ele>255.0</ele><time>2026-04-04T09:41:51.262Z</time></trkpt><trkpt lat="43.3350517" lon="11.8801767"><ele>255.0</ele><time>2026-04-04T09:41:53.259Z</time></trkpt><trkpt lat="43.335045" lon="11.880325"><ele>255.0</ele><time>2026-04-04T09:41:55.261Z</time></trkpt><trkpt lat="43.3350433" lon="11.8804783"><ele>255.0</ele><time>2026-04-04T09:41:57.258Z</time></trkpt><trkpt lat="43.3350517" lon="11.8806283"><ele>255.0</ele><time>2026-04-04T09:41:59.258Z</time></trkpt><trkpt lat="43.3350717" lon="11.88077"><ele>255.0</ele><time>2026-04-04T09:42:01.258Z</time></trkpt><trkpt lat="43.3351133" lon="11.8809067"><ele>255.0</ele><time>2026-04-04T09:42:03.26Z</time></trkpt><trkpt lat="43.3351567" lon="11.88102"><ele>255.0</ele><time>2026-04-04T09:42:05.258Z</time></trkpt><trkpt lat="43.33519" lon="11.8811067"><ele>255.0</ele><time>2026-04-04T09:42:07.26Z</time></trkpt><trkpt lat="43.3352083" lon="11.88119"><ele>255.0</ele><time>2026-04-04T09:42:09.259Z</time></trkpt><trkpt lat="43.3352217" lon="11.8813083"><ele>255.0</ele><time>2026-04-04T09:42:12.259Z</time></trkpt><trkpt lat="43.3352383" lon="11.88143"><ele>255.00000000000003</ele><time>2026-04-04T09:42:15.262Z</time></trkpt><trkpt lat="43.3352567" lon="11.881535"><ele>255.0</ele><time>2026-04-04T09:42:18.262Z</time></trkpt><trkpt lat="43.3352683" lon="11.8816233"><ele>255.0</ele><time>2026-04-04T09:42:21.259Z</time></trkpt><trkpt lat="43.3352717" lon="11.881715"><ele>255.00000000000003</ele><time>2026-04-04T09:42:24.264Z</time></trkpt><trkpt lat="43.335295" lon="11.8818167"><ele>255.0</ele><time>2026-04-04T09:42:27.259Z</time></trkpt><trkpt lat="43.3353233" lon="11.8819017"><ele>255.0</ele><time>2026-04-04T09:42:30.259Z</time></trkpt><trkpt lat="43.335385" lon="11.8819617"><ele>255.0</ele><time>2026-04-04T09:42:33.263Z</time></trkpt><trkpt lat="43.3354717" lon="11.8820117"><ele>255.0</ele><time>2026-04-04T09:42:36.259Z</time></trkpt><trkpt lat="43.3355583" lon="11.8820617"><ele>255.0</ele><time>2026-04-04T09:42:39.258Z</time></trkpt><trkpt lat="43.335625" lon="11.8820617"><ele>255.0</ele><time>2026-04-04T09:42:41.262Z</time></trkpt><trkpt lat="43.335715" lon="11.8820583"><ele>255.0</ele><time>2026-04-04T09:42:44.259Z</time></trkpt><trkpt lat="43.3357883" lon="11.8820667"><ele>255.0</ele><time>2026-04-04T09:42:46.261Z</time></trkpt><trkpt lat="43.3358617" lon="11.882065"><ele>254.83333333333334</ele><time>2026-04-04T09:42:48.26Z</time></trkpt><trkpt lat="43.335935" lon="11.8820683"><ele>254.66666666666669</ele><time>2026-04-04T09:42:50.259Z</time></trkpt><trkpt lat="43.3360033" lon="11.882075"><ele>254.5</ele><time>2026-04-04T09:42:52.262Z</time></trkpt><trkpt lat="43.3360867" lon="11.882075"><ele>254.33333333333334</ele><time>2026-04-04T09:42:54.259Z</time></trkpt><trkpt lat="43.3361733" lon="11.88207"><ele>254.16666666666669</ele><time>2026-04-04T09:42:56.259Z</time></trkpt><trkpt lat="43.336275" lon="11.8820683"><ele>254.0</ele><time>2026-04-04T09:42:58.26Z</time></trkpt><trkpt lat="43.3363817" lon="11.8820683"><ele>253.6</ele><time>2026-04-04T09:43:00.26Z</time></trkpt><trkpt lat="43.3364817" lon="11.8820617"><ele>253.2</ele><time>2026-04-04T09:43:02.259Z</time></trkpt><trkpt lat="43.3365817" lon="11.8820583"><ele>252.79999999999998</ele><time>2026-04-04T09:43:04.26Z</time></trkpt><trkpt lat="43.3366883" lon="11.8820517"><ele>252.39999999999998</ele><time>2026-04-04T09:43:06.257Z</time></trkpt><trkpt lat="43.336795" lon="11.8820483"><ele>252.0</ele><time>2026-04-04T09:43:08.258Z</time></trkpt><trkpt lat="43.3369083" lon="11.88205"><ele>252.0</ele><time>2026-04-04T09:43:10.258Z</time></trkpt><trkpt lat="43.3370167" lon="11.8820517"><ele>252.0</ele><time>2026-04-04T09:43:12.258Z</time></trkpt><trkpt lat="43.3371317" lon="11.882035"><ele>252.0</ele><time>2026-04-04T09:43:14.262Z</time></trkpt><trkpt lat="43.3372417" lon="11.8820233"><ele>252.0</ele><time>2026-04-04T09:43:16.258Z</time></trkpt><trkpt lat="43.3373433" lon="11.8820167"><ele>252.0</ele><time>2026-04-04T09:43:18.262Z</time></trkpt><trkpt lat="43.3374467" lon="11.8820167"><ele>251.8</ele><time>2026-04-04T09:43:20.258Z</time></trkpt><trkpt lat="43.337555" lon="11.882005"><ele>251.6</ele><time>2026-04-04T09:43:22.258Z</time></trkpt><trkpt lat="43.3376617" lon="11.8819917"><ele>251.40000000000003</ele><time>2026-04-04T09:43:24.259Z</time></trkpt><trkpt lat="43.3377683" lon="11.881985"><ele>251.20000000000002</ele><time>2026-04-04T09:43:26.259Z</time></trkpt><trkpt lat="43.337875" lon="11.8819783"><ele>251.0</ele><time>2026-04-04T09:43:28.258Z</time></trkpt><trkpt lat="43.3379817" lon="11.8819783"><ele>251.60000000000002</ele><time>2026-04-04T09:43:30.259Z</time></trkpt><trkpt lat="43.3380833" lon="11.88197"><ele>252.20000000000002</ele><time>2026-04-04T09:43:32.258Z</time></trkpt><trkpt lat="43.3381817" lon="11.88196"><ele>252.79999999999998</ele><time>2026-04-04T09:43:34.263Z</time></trkpt><trkpt lat="43.3382817" lon="11.88195"><ele>253.39999999999998</ele><time>2026-04-04T09:43:36.259Z</time></trkpt><trkpt lat="43.3383867" lon="11.8819433"><ele>254.0</ele><time>2026-04-04T09:43:38.264Z</time></trkpt><trkpt lat="43.3384833" lon="11.8819433"><ele>254.0</ele><time>2026-04-04T09:43:40.258Z</time></trkpt><trkpt lat="43.338575" lon="11.8819417"><ele>253.99999999999997</ele><time>2026-04-04T09:43:42.26Z</time></trkpt><trkpt lat="43.3386683" lon="11.8819367"><ele>253.99999999999997</ele><time>2026-04-04T09:43:44.262Z</time></trkpt><trkpt lat="43.3387583" lon="11.88194"><ele>254.0</ele><time>2026-04-04T09:43:46.261Z</time></trkpt><trkpt lat="43.3388483" lon="11.8819333"><ele>254.0</ele><time>2026-04-04T09:43:48.26Z</time></trkpt><trkpt lat="43.3389383" lon="11.8819167"><ele>253.6</ele><time>2026-04-04T09:43:50.266Z</time></trkpt><trkpt lat="43.33903" lon="11.881915"><ele>253.2</ele><time>2026-04-04T09:43:52.262Z</time></trkpt><trkpt lat="43.3391267" lon="11.8819183"><ele>252.79999999999998</ele><time>2026-04-04T09:43:54.261Z</time></trkpt><trkpt lat="43.33923" lon="11.8819317"><ele>252.39999999999998</ele><time>2026-04-04T09:43:56.258Z</time></trkpt><trkpt lat="43.3393267" lon="11.881935"><ele>252.0</ele><time>2026-04-04T09:43:58.26Z</time></trkpt><trkpt lat="43.3394217" lon="11.881925"><ele>252.0</ele><time>2026-04-04T09:44:00.259Z</time></trkpt><trkpt lat="43.3395167" lon="11.8819167"><ele>252.0</ele><time>2026-04-04T09:44:02.259Z</time></trkpt><trkpt lat="43.3396133" lon="11.8819083"><ele>252.0</ele><time>2026-04-04T09:44:04.259Z</time></trkpt><trkpt lat="43.339705" lon="11.881905"><ele>252.0</ele><time>2026-04-04T09:44:06.259Z</time></trkpt><trkpt lat="43.33979" lon="11.8819083"><ele>252.0</ele><time>2026-04-04T09:44:08.259Z</time></trkpt><trkpt lat="43.3398867" lon="11.8818983"><ele>252.2</ele><time>2026-04-04T09:44:10.259Z</time></trkpt><trkpt lat="43.3399833" lon="11.8818883"><ele>252.39999999999998</ele><time>2026-04-04T09:44:12.26Z</time></trkpt><trkpt lat="43.340085" lon="11.881875"><ele>252.60000000000002</ele><time>2026-04-04T09:44:14.259Z</time></trkpt><trkpt lat="43.34018" lon="11.8818717"><ele>252.8</ele><time>2026-04-04T09:44:16.259Z</time></trkpt><trkpt lat="43.3402783" lon="11.8818617"><ele>253.0</ele><time>2026-04-04T09:44:18.258Z</time></trkpt><trkpt lat="43.3403817" lon="11.8818533"><ele>253.0</ele><time>2026-04-04T09:44:20.262Z</time></trkpt><trkpt lat="43.3404817" lon="11.88185"><ele>253.0</ele><time>2026-04-04T09:44:22.261Z</time></trkpt><trkpt lat="43.34058" lon="11.8818383"><ele>253.0</ele><time>2026-04-04T09:44:24.262Z</time></trkpt><trkpt lat="43.3406767" lon="11.88183"><ele>253.0</ele><time>2026-04-04T09:44:26.259Z</time></trkpt><trkpt lat="43.340775" lon="11.88183"><ele>253.0</ele><time>2026-04-04T09:44:28.26Z</time></trkpt><trkpt lat="43.3408833" lon="11.881825"><ele>253.4</ele><time>2026-04-04T09:44:30.262Z</time></trkpt><trkpt lat="43.3409867" lon="11.8818117"><ele>253.8</ele><time>2026-04-04T09:44:32.262Z</time></trkpt><trkpt lat="43.34109" lon="11.8818067"><ele>254.2</ele><time>2026-04-04T09:44:34.26Z</time></trkpt><trkpt lat="43.3411883" lon="11.8818067"><ele>254.6</ele><time>2026-04-04T09:44:36.263Z</time></trkpt><trkpt lat="43.3412967" lon="11.8818017"><ele>255.0</ele><time>2026-04-04T09:44:38.259Z</time></trkpt><trkpt lat="43.3414" lon="11.8817983"><ele>255.0</ele><time>2026-04-04T09:44:40.26Z</time></trkpt><trkpt lat="43.3415" lon="11.88179"><ele>255.0</ele><time>2026-04-04T09:44:42.262Z</time></trkpt><trkpt lat="43.3415983" lon="11.8817833"><ele>255.0</ele><time>2026-04-04T09:44:44.26Z</time></trkpt><trkpt lat="43.3416983" lon="11.881775"><ele>255.0</ele><time>2026-04-04T09:44:46.259Z</time></trkpt><trkpt lat="43.3417983" lon="11.8817667"><ele>255.0</ele><time>2026-04-04T09:44:48.261Z</time></trkpt><trkpt lat="43.3418917" lon="11.8817617"><ele>255.0</ele><time>2026-04-04T09:44:50.262Z</time></trkpt><trkpt lat="43.3419867" lon="11.8817633"><ele>255.0</ele><time>2026-04-04T09:44:52.258Z</time></trkpt><trkpt lat="43.3420833" lon="11.8817517"><ele>255.0</ele><time>2026-04-04T09:44:54.258Z</time></trkpt><trkpt lat="43.3421783" lon="11.881755"><ele>255.0</ele><time>2026-04-04T09:44:56.258Z</time></trkpt><trkpt lat="43.3422733" lon="11.88175"><ele>255.0</ele><time>2026-04-04T09:44:58.257Z</time></trkpt><trkpt lat="43.3423817" lon="11.88173"><ele>255.4</ele><time>2026-04-04T09:45:00.26Z</time></trkpt><trkpt lat="43.342485" lon="11.8817133"><ele>255.8</ele><time>2026-04-04T09:45:02.259Z</time></trkpt><trkpt lat="43.3425867" lon="11.8817"><ele>256.2</ele><time>2026-04-04T09:45:04.26Z</time></trkpt><trkpt lat="43.3426867" lon="11.881685"><ele>256.6</ele><time>2026-04-04T09:45:06.259Z</time></trkpt><trkpt lat="43.3427817" lon="11.8816667"><ele>257.0</ele><time>2026-04-04T09:45:08.26Z</time></trkpt><trkpt lat="43.34288" lon="11.88165"><ele>257.0</ele><time>2026-04-04T09:45:10.26Z</time></trkpt><trkpt lat="43.3429817" lon="11.88163"><ele>257.0</ele><time>2026-04-04T09:45:12.259Z</time></trkpt><trkpt lat="43.3430783" lon="11.8816133"><ele>257.0</ele><time>2026-04-04T09:45:14.258Z</time></trkpt><trkpt lat="43.34318" lon="11.8815983"><ele>257.0</ele><time>2026-04-04T09:45:16.258Z</time></trkpt><trkpt lat="43.34328" lon="11.8815833"><ele>257.0</ele><time>2026-04-04T09:45:18.259Z</time></trkpt><trkpt lat="43.3433767" lon="11.88158"><ele>257.2</ele><time>2026-04-04T09:45:20.262Z</time></trkpt><trkpt lat="43.3434717" lon="11.8815767"><ele>257.4</ele><time>2026-04-04T09:45:22.259Z</time></trkpt><trkpt lat="43.3435717" lon="11.88157"><ele>257.6</ele><time>2026-04-04T09:45:24.261Z</time></trkpt><trkpt lat="43.3436683" lon="11.88156"><ele>257.8</ele><time>2026-04-04T09:45:26.26Z</time></trkpt><trkpt lat="43.343765" lon="11.8815483"><ele>258.0</ele><time>2026-04-04T09:45:28.257Z</time></trkpt><trkpt lat="43.3438567" lon="11.8815383"><ele>258.0</ele><time>2026-04-04T09:45:30.26Z</time></trkpt><trkpt lat="43.343955" lon="11.8815267"><ele>258.0</ele><time>2026-04-04T09:45:32.259Z</time></trkpt><trkpt lat="43.344045" lon="11.881515"><ele>258.0</ele><time>2026-04-04T09:45:34.26Z</time></trkpt><trkpt lat="43.3441383" lon="11.8815133"><ele>258.0</ele><time>2026-04-04T09:45:36.261Z</time></trkpt><trkpt lat="43.34423" lon="11.8815033"><ele>258.0</ele><time>2026-04-04T09:45:38.262Z</time></trkpt><trkpt lat="43.344315" lon="11.8814933"><ele>258.0</ele><time>2026-04-04T09:45:40.262Z</time></trkpt><trkpt lat="43.3444017" lon="11.8814817"><ele>258.0</ele><time>2026-04-04T09:45:42.26Z</time></trkpt><trkpt lat="43.3444917" lon="11.8814683"><ele>258.0</ele><time>2026-04-04T09:45:44.259Z</time></trkpt><trkpt lat="43.3445833" lon="11.8814567"><ele>258.0</ele><time>2026-04-04T09:45:46.261Z</time></trkpt><trkpt lat="43.34467" lon="11.8814517"><ele>258.0</ele><time>2026-04-04T09:45:48.259Z</time></trkpt><trkpt lat="43.3447583" lon="11.881445"><ele>258.0</ele><time>2026-04-04T09:45:50.263Z</time></trkpt><trkpt lat="43.3448483" lon="11.8814283"><ele>258.2</ele><time>2026-04-04T09:45:52.258Z</time></trkpt><trkpt lat="43.3449367" lon="11.8814117"><ele>258.4</ele><time>2026-04-04T09:45:54.261Z</time></trkpt><trkpt lat="43.3450267" lon="11.8813967"><ele>258.59999999999997</ele><time>2026-04-04T09:45:56.259Z</time></trkpt><trkpt lat="43.3451133" lon="11.8813733"><ele>258.8</ele><time>2026-04-04T09:45:58.26Z</time></trkpt><trkpt lat="43.3452033" lon="11.8813533"><ele>259.0</ele><time>2026-04-04T09:46:00.264Z</time></trkpt><trkpt lat="43.3452933" lon="11.88134"><ele>259.0</ele><time>2026-04-04T09:46:02.257Z</time></trkpt><trkpt lat="43.3453783" lon="11.8813367"><ele>259.0</ele><time>2026-04-04T09:46:04.259Z</time></trkpt><trkpt lat="43.3454567" lon="11.88133"><ele>259.0</ele><time>2026-04-04T09:46:06.259Z</time></trkpt><trkpt lat="43.3455367" lon="11.88133"><ele>259.0</ele><time>2026-04-04T09:46:08.261Z</time></trkpt><trkpt lat="43.34561" lon="11.8813367"><ele>259.0</ele><time>2026-04-04T09:46:10.258Z</time></trkpt><trkpt lat="43.345685" lon="11.8813333"><ele>259.0</ele><time>2026-04-04T09:46:12.262Z</time></trkpt><trkpt lat="43.3457567" lon="11.881325"><ele>259.16666666666663</ele><time>2026-04-04T09:46:14.259Z</time></trkpt><trkpt lat="43.345825" lon="11.8813217"><ele>259.3333333333333</ele><time>2026-04-04T09:46:16.26Z</time></trkpt><trkpt lat="43.3458983" lon="11.8813183"><ele>259.5</ele><time>2026-04-04T09:46:18.259Z</time></trkpt><trkpt lat="43.345985" lon="11.88131"><ele>259.6666666666667</ele><time>2026-04-04T09:46:20.261Z</time></trkpt><trkpt lat="43.346065" lon="11.8813067"><ele>259.83333333333337</ele><time>2026-04-04T09:46:22.261Z</time></trkpt><trkpt lat="43.3461533" lon="11.8812983"><ele>260.0</ele><time>2026-04-04T09:46:24.262Z</time></trkpt><trkpt lat="43.346235" lon="11.88129"><ele>260.00000000000006</ele><time>2026-04-04T09:46:26.261Z</time></trkpt><trkpt lat="43.346315" lon="11.881285"><ele>260.0</ele><time>2026-04-04T09:46:28.259Z</time></trkpt><trkpt lat="43.346385" lon="11.8812767"><ele>260.0</ele><time>2026-04-04T09:46:30.258Z</time></trkpt><trkpt lat="43.3464533" lon="11.88127"><ele>260.0</ele><time>2026-04-04T09:46:32.259Z</time></trkpt><trkpt lat="43.3465233" lon="11.88126"><ele>260.0</ele><time>2026-04-04T09:46:34.26Z</time></trkpt><trkpt lat="43.3465917" lon="11.8812517"><ele>260.00000000000006</ele><time>2026-04-04T09:46:36.259Z</time></trkpt><trkpt lat="43.3466567" lon="11.8812417"><ele>260.0</ele><time>2026-04-04T09:46:38.262Z</time></trkpt><trkpt lat="43.3467383" lon="11.8812233"><ele>260.33333333333337</ele><time>2026-04-04T09:46:41.259Z</time></trkpt><trkpt lat="43.3468033" lon="11.881215"><ele>260.6666666666667</ele><time>2026-04-04T09:46:44.262Z</time></trkpt><trkpt lat="43.3468833" lon="11.8812083"><ele>261.0</ele><time>2026-04-04T09:46:47.262Z</time></trkpt><trkpt lat="43.3469583" lon="11.881205"><ele>261.3333333333333</ele><time>2026-04-04T09:46:49.258Z</time></trkpt><trkpt lat="43.3470517" lon="11.8812017"><ele>261.66666666666663</ele><time>2026-04-04T09:46:51.261Z</time></trkpt><trkpt lat="43.3471583" lon="11.8811917"><ele>262.0</ele><time>2026-04-04T09:46:53.258Z</time></trkpt><trkpt lat="43.3472733" lon="11.8811833"><ele>262.0</ele><time>2026-04-04T09:46:55.262Z</time></trkpt><trkpt lat="43.3473883" lon="11.881155"><ele>262.0</ele><time>2026-04-04T09:46:57.262Z</time></trkpt><trkpt lat="43.3475033" lon="11.8811383"><ele>262.0</ele><time>2026-04-04T09:46:59.259Z</time></trkpt><trkpt lat="43.3476133" lon="11.8811367"><ele>262.0</ele><time>2026-04-04T09:47:01.26Z</time></trkpt><trkpt lat="43.34772" lon="11.8811233"><ele>262.0</ele><time>2026-04-04T09:47:03.259Z</time></trkpt><trkpt lat="43.3478267" lon="11.8811067"><ele>262.0</ele><time>2026-04-04T09:47:05.26Z</time></trkpt><trkpt lat="43.347945" lon="11.881095"><ele>262.0</ele><time>2026-04-04T09:47:07.26Z</time></trkpt><trkpt lat="43.34807" lon="11.8810767"><ele>262.0</ele><time>2026-04-04T09:47:09.258Z</time></trkpt><trkpt lat="43.3481333" lon="11.881065"><ele>262.0</ele><time>2026-04-04T09:47:10.26Z</time></trkpt><trkpt lat="43.348255" lon="11.881035"><ele>261.5</ele><time>2026-04-04T09:47:12.26Z</time></trkpt><trkpt lat="43.3483783" lon="11.8810083"><ele>261.0</ele><time>2026-04-04T09:47:14.261Z</time></trkpt><trkpt lat="43.3484983" lon="11.88098"><ele>260.5</ele><time>2026-04-04T09:47:16.257Z</time></trkpt><trkpt lat="43.3486117" lon="11.8809567"><ele>260.0</ele><time>2026-04-04T09:47:18.26Z</time></trkpt><trkpt lat="43.3487333" lon="11.8809383"><ele>260.0</ele><time>2026-04-04T09:47:20.257Z</time></trkpt><trkpt lat="43.3488583" lon="11.8809183"><ele>260.0</ele><time>2026-04-04T09:47:22.259Z</time></trkpt><trkpt lat="43.3489767" lon="11.8809"><ele>260.0</ele><time>2026-04-04T09:47:24.26Z</time></trkpt><trkpt lat="43.3490917" lon="11.8808817"><ele>260.0</ele><time>2026-04-04T09:47:26.262Z</time></trkpt><trkpt lat="43.349205" lon="11.8808617"><ele>260.25</ele><time>2026-04-04T09:47:28.26Z</time></trkpt><trkpt lat="43.34932" lon="11.8808467"><ele>260.5</ele><time>2026-04-04T09:47:30.258Z</time></trkpt><trkpt lat="43.3494283" lon="11.8808217"><ele>260.75</ele><time>2026-04-04T09:47:32.259Z</time></trkpt><trkpt lat="43.3495417" lon="11.8808"><ele>261.0</ele><time>2026-04-04T09:47:34.261Z</time></trkpt><trkpt lat="43.349655" lon="11.8807833"><ele>261.0</ele><time>2026-04-04T09:47:36.258Z</time></trkpt><trkpt lat="43.34977" lon="11.8807533"><ele>261.0</ele><time>2026-04-04T09:47:38.26Z</time></trkpt><trkpt lat="43.349885" lon="11.88074"><ele>261.0</ele><time>2026-04-04T09:47:40.258Z</time></trkpt><trkpt lat="43.3499983" lon="11.88072"><ele>261.0</ele><time>2026-04-04T09:47:42.258Z</time></trkpt><trkpt lat="43.3501133" lon="11.8806933"><ele>261.0</ele><time>2026-04-04T09:47:44.26Z</time></trkpt><trkpt lat="43.3502283" lon="11.8806667"><ele>261.0</ele><time>2026-04-04T09:47:46.261Z</time></trkpt><trkpt lat="43.3503367" lon="11.8806417"><ele>261.0</ele><time>2026-04-04T09:47:48.262Z</time></trkpt><trkpt lat="43.350445" lon="11.8806167"><ele>261.0</ele><time>2026-04-04T09:47:50.264Z</time></trkpt><trkpt lat="43.35055" lon="11.88059"><ele>261.0</ele><time>2026-04-04T09:47:52.258Z</time></trkpt><trkpt lat="43.3506617" lon="11.8805617"><ele>261.0</ele><time>2026-04-04T09:47:54.258Z</time></trkpt><trkpt lat="43.3507717" lon="11.8805333"><ele>261.0</ele><time>2026-04-04T09:47:56.263Z</time></trkpt><trkpt lat="43.3508717" lon="11.8805117"><ele>261.0</ele><time>2026-04-04T09:47:58.263Z</time></trkpt><trkpt lat="43.3509667" lon="11.8804933"><ele>261.0</ele><time>2026-04-04T09:48:00.261Z</time></trkpt><trkpt lat="43.3510633" lon="11.880475"><ele>261.0</ele><time>2026-04-04T09:48:02.262Z</time></trkpt><trkpt lat="43.3511583" lon="11.8804567"><ele>261.0</ele><time>2026-04-04T09:48:04.262Z</time></trkpt><trkpt lat="43.35127" lon="11.8804133"><ele>261.0</ele><time>2026-04-04T09:48:06.256Z</time></trkpt><trkpt lat="43.3513483" lon="11.8803733"><ele>261.0</ele><time>2026-04-04T09:48:08.256Z</time></trkpt><trkpt lat="43.3514117" lon="11.8803333"><ele>261.0</ele><time>2026-04-04T09:48:10.255Z</time></trkpt><trkpt lat="43.3514917" lon="11.8803083"><ele>261.0</ele><time>2026-04-04T09:50:17.261Z</time></trkpt><trkpt lat="43.351505" lon="11.8802117"><ele>261.0</ele><time>2026-04-04T09:50:21.259Z</time></trkpt><trkpt lat="43.3514733" lon="11.8801133"><ele>261.1666666666667</ele><time>2026-04-04T09:50:24.26Z</time></trkpt><trkpt lat="43.3514633" lon="11.8800267"><ele>261.3333333333333</ele><time>2026-04-04T09:50:26.26Z</time></trkpt><trkpt lat="43.351445" lon="11.8799283"><ele>261.5</ele><time>2026-04-04T09:50:28.262Z</time></trkpt><trkpt lat="43.3514183" lon="11.8798217"><ele>261.66666666666663</ele><time>2026-04-04T09:50:30.261Z</time></trkpt><trkpt lat="43.3513933" lon="11.8797033"><ele>261.8333333333333</ele><time>2026-04-04T09:50:32.26Z</time></trkpt><trkpt lat="43.3513783" lon="11.8795783"><ele>262.0</ele><time>2026-04-04T09:50:34.258Z</time></trkpt><trkpt lat="43.3513583" lon="11.87945"><ele>262.0</ele><time>2026-04-04T09:50:36.261Z</time></trkpt><trkpt lat="43.3513367" lon="11.87932"><ele>262.0</ele><time>2026-04-04T09:50:38.261Z</time></trkpt><trkpt lat="43.351315" lon="11.8791867"><ele>262.0</ele><time>2026-04-04T09:50:40.258Z</time></trkpt><trkpt lat="43.3512917" lon="11.879055"><ele>262.0</ele><time>2026-04-04T09:50:42.26Z</time></trkpt><trkpt lat="43.35127" lon="11.878915"><ele>262.0</ele><time>2026-04-04T09:50:44.258Z</time></trkpt><trkpt lat="43.3512533" lon="11.8787783"><ele>261.8</ele><time>2026-04-04T09:50:46.26Z</time></trkpt><trkpt lat="43.35123" lon="11.8786467"><ele>261.6</ele><time>2026-04-04T09:50:48.258Z</time></trkpt><trkpt lat="43.351205" lon="11.8785067"><ele>261.40000000000003</ele><time>2026-04-04T09:50:50.261Z</time></trkpt><trkpt lat="43.3511767" lon="11.8783633"><ele>261.2</ele><time>2026-04-04T09:50:52.259Z</time></trkpt><trkpt lat="43.35115" lon="11.878225"><ele>261.0</ele><time>2026-04-04T09:50:54.258Z</time></trkpt><trkpt lat="43.3511133" lon="11.87809"><ele>260.8</ele><time>2026-04-04T09:50:56.26Z</time></trkpt><trkpt lat="43.3510683" lon="11.8779583"><ele>260.6</ele><time>2026-04-04T09:50:58.258Z</time></trkpt><trkpt lat="43.3510267" lon="11.8778233"><ele>260.4</ele><time>2026-04-04T09:51:00.264Z</time></trkpt><trkpt lat="43.350985" lon="11.8776883"><ele>260.2</ele><time>2026-04-04T09:51:02.258Z</time></trkpt><trkpt lat="43.35094" lon="11.8775567"><ele>260.0</ele><time>2026-04-04T09:51:04.263Z</time></trkpt><trkpt lat="43.3509067" lon="11.8774183"><ele>260.0</ele><time>2026-04-04T09:51:06.259Z</time></trkpt><trkpt lat="43.3508683" lon="11.877275"><ele>260.0</ele><time>2026-04-04T09:51:08.265Z</time></trkpt><trkpt lat="43.3508017" lon="11.877065"><ele>260.0</ele><time>2026-04-04T09:51:11.264Z</time></trkpt><trkpt lat="43.350735" lon="11.8769283"><ele>260.0</ele><time>2026-04-04T09:51:13.257Z</time></trkpt><trkpt lat="43.3506617" lon="11.8767933"><ele>259.75</ele><time>2026-04-04T09:51:15.257Z</time></trkpt><trkpt lat="43.3506017" lon="11.8766583"><ele>259.5</ele><time>2026-04-04T09:51:17.258Z</time></trkpt><trkpt lat="43.3505367" lon="11.8765233"><ele>259.25</ele><time>2026-04-04T09:51:19.261Z</time></trkpt><trkpt lat="43.3504717" lon="11.8763867"><ele>259.0</ele><time>2026-04-04T09:51:21.261Z</time></trkpt><trkpt lat="43.3504117" lon="11.8762483"><ele>258.8</ele><time>2026-04-04T09:51:23.259Z</time></trkpt><trkpt lat="43.3503533" lon="11.8761033"><ele>258.59999999999997</ele><time>2026-04-04T09:51:25.26Z</time></trkpt><trkpt lat="43.3502917" lon="11.8759533"><ele>258.4</ele><time>2026-04-04T09:51:27.26Z</time></trkpt><trkpt lat="43.35023" lon="11.8758033"><ele>258.2</ele><time>2026-04-04T09:51:29.262Z</time></trkpt><trkpt lat="43.3502" lon="11.8757267"><ele>258.0</ele><time>2026-04-04T09:51:30.261Z</time></trkpt><trkpt lat="43.35014" lon="11.875575"><ele>258.0</ele><time>2026-04-04T09:51:32.257Z</time></trkpt><trkpt lat="43.3500667" lon="11.8754383"><ele>258.0</ele><time>2026-04-04T09:51:34.258Z</time></trkpt><trkpt lat="43.3499883" lon="11.8753"><ele>258.0</ele><time>2026-04-04T09:51:36.257Z</time></trkpt><trkpt lat="43.34995" lon="11.8752283"><ele>258.0</ele><time>2026-04-04T09:51:37.261Z</time></trkpt><trkpt lat="43.34991" lon="11.875155"><ele>258.0</ele><time>2026-04-04T09:51:38.258Z</time></trkpt><trkpt lat="43.34987" lon="11.8750817"><ele>258.0</ele><time>2026-04-04T09:51:39.261Z</time></trkpt><trkpt lat="43.3498283" lon="11.8750083"><ele>257.99999999999994</ele><time>2026-04-04T09:51:40.259Z</time></trkpt><trkpt lat="43.3497883" lon="11.874935"><ele>258.0</ele><time>2026-04-04T09:51:41.259Z</time></trkpt><trkpt lat="43.3497517" lon="11.8748583"><ele>258.0</ele><time>2026-04-04T09:51:42.262Z</time></trkpt><trkpt lat="43.3497133" lon="11.87478"><ele>258.0</ele><time>2026-04-04T09:51:43.263Z</time></trkpt><trkpt lat="43.3496767" lon="11.8747067"><ele>258.0</ele><time>2026-04-04T09:51:44.258Z</time></trkpt><trkpt lat="43.3496433" lon="11.8746333"><ele>257.99999999999994</ele><time>2026-04-04T09:51:45.261Z</time></trkpt><trkpt lat="43.3496083" lon="11.8745583"><ele>258.0</ele><time>2026-04-04T09:51:46.259Z</time></trkpt><trkpt lat="43.3495367" lon="11.8744183"><ele>257.8333333333333</ele><time>2026-04-04T09:51:48.259Z</time></trkpt><trkpt lat="43.3494967" lon="11.87435"><ele>257.6666666666667</ele><time>2026-04-04T09:51:49.259Z</time></trkpt><trkpt lat="43.3494267" lon="11.87421"><ele>257.5</ele><time>2026-04-04T09:51:51.263Z</time></trkpt><trkpt lat="43.34935" lon="11.87407"><ele>257.33333333333337</ele><time>2026-04-04T09:51:53.259Z</time></trkpt><trkpt lat="43.3493083" lon="11.874"><ele>257.1666666666667</ele><time>2026-04-04T09:51:54.259Z</time></trkpt><trkpt lat="43.3492683" lon="11.873925"><ele>257.0</ele><time>2026-04-04T09:51:55.259Z</time></trkpt><trkpt lat="43.349225" lon="11.87385"><ele>256.85714285714283</ele><time>2026-04-04T09:51:56.261Z</time></trkpt><trkpt lat="43.3491817" lon="11.8737767"><ele>256.7142857142857</ele><time>2026-04-04T09:51:57.26Z</time></trkpt><trkpt lat="43.3491367" lon="11.8737033"><ele>256.57142857142856</ele><time>2026-04-04T09:51:58.261Z</time></trkpt><trkpt lat="43.3490967" lon="11.8736317"><ele>256.42857142857144</ele><time>2026-04-04T09:51:59.261Z</time></trkpt><trkpt lat="43.3490567" lon="11.87356"><ele>256.2857142857143</ele><time>2026-04-04T09:52:00.26Z</time></trkpt><trkpt lat="43.3490133" lon="11.8734867"><ele>256.1428571428571</ele><time>2026-04-04T09:52:01.259Z</time></trkpt><trkpt lat="43.3489717" lon="11.8734167"><ele>256.0</ele><time>2026-04-04T09:52:02.258Z</time></trkpt><trkpt lat="43.3489283" lon="11.8733483"><ele>255.25</ele><time>2026-04-04T09:52:03.263Z</time></trkpt><trkpt lat="43.34885" lon="11.8732183"><ele>254.5</ele><time>2026-04-04T09:52:05.258Z</time></trkpt><trkpt lat="43.348775" lon="11.8730917"><ele>253.75</ele><time>2026-04-04T09:52:07.258Z</time></trkpt><trkpt lat="43.3487033" lon="11.872975"><ele>253.0</ele><time>2026-04-04T09:52:09.261Z</time></trkpt><trkpt lat="43.3486367" lon="11.872865"><ele>253.0</ele><time>2026-04-04T09:52:11.262Z</time></trkpt><trkpt lat="43.3485617" lon="11.87276"><ele>253.0</ele><time>2026-04-04T09:52:13.259Z</time></trkpt><trkpt lat="43.348485" lon="11.8726583"><ele>253.0</ele><time>2026-04-04T09:52:15.26Z</time></trkpt><trkpt lat="43.3484133" lon="11.8725467"><ele>253.0</ele><time>2026-04-04T09:52:17.258Z</time></trkpt><trkpt lat="43.3483533" lon="11.8724267"><ele>253.0</ele><time>2026-04-04T09:52:19.265Z</time></trkpt><trkpt lat="43.3483067" lon="11.872295"><ele>252.8</ele><time>2026-04-04T09:52:21.257Z</time></trkpt><trkpt lat="43.34826" lon="11.8721633"><ele>252.60000000000002</ele><time>2026-04-04T09:52:23.262Z</time></trkpt><trkpt lat="43.34823" lon="11.8720183"><ele>252.39999999999998</ele><time>2026-04-04T09:52:25.262Z</time></trkpt><trkpt lat="43.3482117" lon="11.8718683"><ele>252.2</ele><time>2026-04-04T09:52:27.257Z</time></trkpt><trkpt lat="43.34819" lon="11.871725"><ele>252.0</ele><time>2026-04-04T09:52:29.259Z</time></trkpt><trkpt lat="43.3481617" lon="11.8715817"><ele>252.0</ele><time>2026-04-04T09:52:31.263Z</time></trkpt><trkpt lat="43.3481417" lon="11.8714367"><ele>252.0</ele><time>2026-04-04T09:52:33.256Z</time></trkpt><trkpt lat="43.34813" lon="11.87129"><ele>252.0</ele><time>2026-04-04T09:52:35.26Z</time></trkpt><trkpt lat="43.348125" lon="11.87115"><ele>252.0</ele><time>2026-04-04T09:52:37.256Z</time></trkpt><trkpt lat="43.3481183" lon="11.8710067"><ele>252.0</ele><time>2026-04-04T09:52:39.256Z</time></trkpt><trkpt lat="43.3481183" lon="11.8708717"><ele>252.2</ele><time>2026-04-04T09:52:41.257Z</time></trkpt><trkpt lat="43.3481267" lon="11.8707383"><ele>252.39999999999998</ele><time>2026-04-04T09:52:43.258Z</time></trkpt><trkpt lat="43.34813" lon="11.8706017"><ele>252.60000000000002</ele><time>2026-04-04T09:52:45.258Z</time></trkpt><trkpt lat="43.3481233" lon="11.870465"><ele>252.8</ele><time>2026-04-04T09:52:47.259Z</time></trkpt><trkpt lat="43.3481133" lon="11.8703283"><ele>253.0</ele><time>2026-04-04T09:52:49.259Z</time></trkpt><trkpt lat="43.3480983" lon="11.8701867"><ele>253.0</ele><time>2026-04-04T09:52:51.259Z</time></trkpt><trkpt lat="43.3480867" lon="11.87005"><ele>253.0</ele><time>2026-04-04T09:52:53.258Z</time></trkpt><trkpt lat="43.348075" lon="11.8699167"><ele>253.0</ele><time>2026-04-04T09:52:55.261Z</time></trkpt><trkpt lat="43.3480617" lon="11.8697867"><ele>253.0</ele><time>2026-04-04T09:52:57.26Z</time></trkpt><trkpt lat="43.3480433" lon="11.8696617"><ele>253.0</ele><time>2026-04-04T09:52:59.264Z</time></trkpt><trkpt lat="43.3480117" lon="11.8695417"><ele>253.0</ele><time>2026-04-04T09:53:01.259Z</time></trkpt><trkpt lat="43.3479533" lon="11.86944"><ele>253.0</ele><time>2026-04-04T09:53:03.258Z</time></trkpt><trkpt lat="43.3478617" lon="11.8693717"><ele>253.0</ele><time>2026-04-04T09:53:05.261Z</time></trkpt><trkpt lat="43.3477633" lon="11.8693183"><ele>253.0</ele><time>2026-04-04T09:53:07.26Z</time></trkpt><trkpt lat="43.34767" lon="11.8692733"><ele>253.0</ele><time>2026-04-04T09:53:09.262Z</time></trkpt><trkpt lat="43.3475833" lon="11.8692133"><ele>253.0</ele><time>2026-04-04T09:53:11.257Z</time></trkpt><trkpt lat="43.3474983" lon="11.8691383"><ele>253.0</ele><time>2026-04-04T09:53:13.258Z</time></trkpt><trkpt lat="43.3474083" lon="11.86906"><ele>253.0</ele><time>2026-04-04T09:53:15.26Z</time></trkpt><trkpt lat="43.3473267" lon="11.8689783"><ele>253.0</ele><time>2026-04-04T09:53:17.258Z</time></trkpt><trkpt lat="43.3472483" lon="11.8688933"><ele>253.0</ele><time>2026-04-04T09:53:19.262Z</time></trkpt><trkpt lat="43.3471767" lon="11.8687983"><ele>253.0</ele><time>2026-04-04T09:53:21.259Z</time></trkpt><trkpt lat="43.3471083" lon="11.868705"><ele>253.0</ele><time>2026-04-04T09:53:23.263Z</time></trkpt><trkpt lat="43.34703" lon="11.8686117"><ele>253.0</ele><time>2026-04-04T09:53:25.263Z</time></trkpt><trkpt lat="43.346955" lon="11.8685167"><ele>253.0</ele><time>2026-04-04T09:53:27.257Z</time></trkpt><trkpt lat="43.3468883" lon="11.8684033"><ele>253.0</ele><time>2026-04-04T09:53:29.259Z</time></trkpt><trkpt lat="43.34682" lon="11.86828"><ele>253.0</ele><time>2026-04-04T09:53:31.267Z</time></trkpt><trkpt lat="43.3467633" lon="11.86815"><ele>253.0</ele><time>2026-04-04T09:53:33.258Z</time></trkpt><trkpt lat="43.3467083" lon="11.8680167"><ele>253.0</ele><time>2026-04-04T09:53:35.257Z</time></trkpt><trkpt lat="43.3466483" lon="11.8678833"><ele>253.0</ele><time>2026-04-04T09:53:37.26Z</time></trkpt><trkpt lat="43.3465833" lon="11.8677517"><ele>253.0</ele><time>2026-04-04T09:53:39.258Z</time></trkpt><trkpt lat="43.3465233" lon="11.8676167"><ele>253.0</ele><time>2026-04-04T09:53:41.262Z</time></trkpt><trkpt lat="43.3464717" lon="11.8674783"><ele>253.0</ele><time>2026-04-04T09:53:43.258Z</time></trkpt><trkpt lat="43.3464167" lon="11.86734"><ele>253.0</ele><time>2026-04-04T09:53:45.262Z</time></trkpt><trkpt lat="43.3463567" lon="11.8672033"><ele>253.0</ele><time>2026-04-04T09:53:47.258Z</time></trkpt><trkpt lat="43.3463083" lon="11.86706"><ele>253.0</ele><time>2026-04-04T09:53:49.259Z</time></trkpt><trkpt lat="43.3462533" lon="11.8669183"><ele>253.0</ele><time>2026-04-04T09:53:51.257Z</time></trkpt><trkpt lat="43.3461983" lon="11.8667783"><ele>253.0</ele><time>2026-04-04T09:53:53.264Z</time></trkpt><trkpt lat="43.3461483" lon="11.8666383"><ele>252.8</ele><time>2026-04-04T09:53:55.258Z</time></trkpt><trkpt lat="43.3460967" lon="11.8665"><ele>252.60000000000002</ele><time>2026-04-04T09:53:57.259Z</time></trkpt><trkpt lat="43.3460433" lon="11.866365"><ele>252.39999999999998</ele><time>2026-04-04T09:53:59.257Z</time></trkpt><trkpt lat="43.345985" lon="11.8662333"><ele>252.2</ele><time>2026-04-04T09:54:01.258Z</time></trkpt><trkpt lat="43.34593" lon="11.8661067"><ele>252.0</ele><time>2026-04-04T09:54:03.26Z</time></trkpt><trkpt lat="43.3458767" lon="11.86598"><ele>251.8</ele><time>2026-04-04T09:54:05.259Z</time></trkpt><trkpt lat="43.3458233" lon="11.8658483"><ele>251.6</ele><time>2026-04-04T09:54:07.257Z</time></trkpt><trkpt lat="43.3457667" lon="11.86572"><ele>251.40000000000003</ele><time>2026-04-04T09:54:09.261Z</time></trkpt><trkpt lat="43.3457167" lon="11.8655967"><ele>251.20000000000002</ele><time>2026-04-04T09:54:11.26Z</time></trkpt><trkpt lat="43.3456667" lon="11.86548"><ele>251.0</ele><time>2026-04-04T09:54:13.258Z</time></trkpt><trkpt lat="43.3456183" lon="11.8653617"><ele>251.0</ele><time>2026-04-04T09:54:15.258Z</time></trkpt><trkpt lat="43.34557" lon="11.8652467"><ele>251.00000000000003</ele><time>2026-04-04T09:54:17.258Z</time></trkpt><trkpt lat="43.3455167" lon="11.8651383"><ele>251.00000000000003</ele><time>2026-04-04T09:54:19.257Z</time></trkpt><trkpt lat="43.3454617" lon="11.8650517"><ele>251.0</ele><time>2026-04-04T09:54:21.259Z</time></trkpt><trkpt lat="43.3453733" lon="11.864965"><ele>251.0</ele><time>2026-04-04T09:54:24.261Z</time></trkpt><trkpt lat="43.3452967" lon="11.86491"><ele>251.33333333333334</ele><time>2026-04-04T09:54:27.263Z</time></trkpt><trkpt lat="43.3452233" lon="11.8648617"><ele>251.66666666666669</ele><time>2026-04-04T09:54:30.261Z</time></trkpt><trkpt lat="43.3451483" lon="11.8648233"><ele>252.0</ele><time>2026-04-04T09:54:33.258Z</time></trkpt><trkpt lat="43.3450733" lon="11.86478"><ele>252.33333333333331</ele><time>2026-04-04T09:54:36.26Z</time></trkpt><trkpt lat="43.3449967" lon="11.864745"><ele>252.66666666666666</ele><time>2026-04-04T09:54:39.258Z</time></trkpt><trkpt lat="43.3449233" lon="11.86471"><ele>253.0</ele><time>2026-04-04T09:54:42.261Z</time></trkpt><trkpt lat="43.3448583" lon="11.8646733"><ele>253.00000000000003</ele><time>2026-04-04T09:54:45.259Z</time></trkpt><trkpt lat="43.3447883" lon="11.8646367"><ele>253.0</ele><time>2026-04-04T09:54:48.259Z</time></trkpt><trkpt lat="43.3447233" lon="11.864615"><ele>253.00000000000003</ele><time>2026-04-04T09:54:51.264Z</time></trkpt><trkpt lat="43.3446567" lon="11.8645867"><ele>253.00000000000003</ele><time>2026-04-04T09:54:54.261Z</time></trkpt><trkpt lat="43.3446" lon="11.864535"><ele>253.0</ele><time>2026-04-04T09:54:57.258Z</time></trkpt><trkpt lat="43.34454" lon="11.8644583"><ele>253.00000000000003</ele><time>2026-04-04T09:55:01.258Z</time></trkpt><trkpt lat="43.3444983" lon="11.8643683"><ele>253.00000000000003</ele><time>2026-04-04T09:55:05.257Z</time></trkpt><trkpt lat="43.344455" lon="11.8642867"><ele>253.42857142857144</ele><time>2026-04-04T09:55:09.259Z</time></trkpt><trkpt lat="43.344425" lon="11.864195"><ele>253.85714285714286</ele><time>2026-04-04T09:55:13.258Z</time></trkpt><trkpt lat="43.3444067" lon="11.8640933"><ele>254.28571428571428</ele><time>2026-04-04T09:55:18.258Z</time></trkpt><trkpt lat="43.34438" lon="11.8640133"><ele>254.71428571428572</ele><time>2026-04-04T09:55:22.257Z</time></trkpt><trkpt lat="43.3443617" lon="11.8639067"><ele>255.1428571428571</ele><time>2026-04-04T09:55:27.259Z</time></trkpt><trkpt lat="43.34433" lon="11.86383"><ele>255.57142857142856</ele><time>2026-04-04T09:55:30.257Z</time></trkpt><trkpt lat="43.3442933" lon="11.8637267"><ele>256.0</ele><time>2026-04-04T09:55:34.26Z</time></trkpt><trkpt lat="43.3442367" lon="11.8636317"><ele>256.0</ele><time>2026-04-04T09:55:37.257Z</time></trkpt><trkpt lat="43.3441983" lon="11.8635517"><ele>256.0</ele><time>2026-04-04T09:55:39.259Z</time></trkpt><trkpt lat="43.3441583" lon="11.8634567"><ele>256.0</ele><time>2026-04-04T09:55:41.259Z</time></trkpt><trkpt lat="43.3441217" lon="11.8633433"><ele>256.0</ele><time>2026-04-04T09:55:43.258Z</time></trkpt><trkpt lat="43.3440883" lon="11.8632117"><ele>256.0</ele><time>2026-04-04T09:55:45.26Z</time></trkpt><trkpt lat="43.3440783" lon="11.86305"><ele>255.83333333333331</ele><time>2026-04-04T09:55:47.258Z</time></trkpt><trkpt lat="43.344085" lon="11.86296"><ele>255.66666666666666</ele><time>2026-04-04T09:55:48.257Z</time></trkpt><trkpt lat="43.3441017" lon="11.8628633"><ele>255.5</ele><time>2026-04-04T09:55:49.257Z</time></trkpt><trkpt lat="43.34412" lon="11.86276"><ele>255.33333333333331</ele><time>2026-04-04T09:55:50.26Z</time></trkpt><trkpt lat="43.3441417" lon="11.86265"><ele>255.16666666666666</ele><time>2026-04-04T09:55:51.259Z</time></trkpt><trkpt lat="43.3441667" lon="11.862535"><ele>255.0</ele><time>2026-04-04T09:55:52.257Z</time></trkpt><trkpt lat="43.3441883" lon="11.862415"><ele>254.8</ele><time>2026-04-04T09:55:53.257Z</time></trkpt><trkpt lat="43.3442183" lon="11.862285"><ele>254.6</ele><time>2026-04-04T09:55:54.261Z</time></trkpt><trkpt lat="43.34425" lon="11.86215"><ele>254.39999999999998</ele><time>2026-04-04T09:55:55.258Z</time></trkpt><trkpt lat="43.3442817" lon="11.862015"><ele>254.2</ele><time>2026-04-04T09:55:56.259Z</time></trkpt><trkpt lat="43.3443133" lon="11.86188"><ele>254.0</ele><time>2026-04-04T09:55:57.26Z</time></trkpt><trkpt lat="43.3443483" lon="11.8617433"><ele>254.0</ele><time>2026-04-04T09:55:58.261Z</time></trkpt><trkpt lat="43.34438" lon="11.861605"><ele>253.99999999999997</ele><time>2026-04-04T09:55:59.257Z</time></trkpt><trkpt lat="43.34441" lon="11.861465"><ele>253.99999999999997</ele><time>2026-04-04T09:56:00.263Z</time></trkpt><trkpt lat="43.3444417" lon="11.8613333"><ele>254.0</ele><time>2026-04-04T09:56:01.257Z</time></trkpt><trkpt lat="43.3444617" lon="11.861205"><ele>254.0</ele><time>2026-04-04T09:56:02.259Z</time></trkpt><trkpt lat="43.34447" lon="11.861075"><ele>254.00000000000003</ele><time>2026-04-04T09:56:03.257Z</time></trkpt><trkpt lat="43.3444733" lon="11.8609517"><ele>254.0</ele><time>2026-04-04T09:56:04.26Z</time></trkpt><trkpt lat="43.34447" lon="11.860835"><ele>254.0</ele><time>2026-04-04T09:56:05.26Z</time></trkpt><trkpt lat="43.3444583" lon="11.8607267"><ele>254.0</ele><time>2026-04-04T09:56:06.259Z</time></trkpt><trkpt lat="43.3444417" lon="11.86062"><ele>254.00000000000003</ele><time>2026-04-04T09:56:07.257Z</time></trkpt><trkpt lat="43.3444267" lon="11.8605183"><ele>254.0</ele><time>2026-04-04T09:56:08.26Z</time></trkpt><trkpt lat="43.344415" lon="11.8604217"><ele>254.0</ele><time>2026-04-04T09:56:09.262Z</time></trkpt><trkpt lat="43.3444033" lon="11.8603317"><ele>254.0</ele><time>2026-04-04T09:56:10.258Z</time></trkpt><trkpt lat="43.344385" lon="11.860245"><ele>254.0</ele><time>2026-04-04T09:56:11.257Z</time></trkpt><trkpt lat="43.34436" lon="11.8601633"><ele>254.0</ele><time>2026-04-04T09:56:12.259Z</time></trkpt><trkpt lat="43.3443317" lon="11.86008"><ele>254.0</ele><time>2026-04-04T09:56:13.26Z</time></trkpt><trkpt lat="43.3443033" lon="11.8599983"><ele>254.0</ele><time>2026-04-04T09:56:14.258Z</time></trkpt><trkpt lat="43.3442733" lon="11.85992"><ele>254.0</ele><time>2026-04-04T09:56:15.257Z</time></trkpt><trkpt lat="43.3442367" lon="11.859845"><ele>254.0</ele><time>2026-04-04T09:56:16.264Z</time></trkpt><trkpt lat="43.3442" lon="11.85977"><ele>254.0</ele><time>2026-04-04T09:56:17.259Z</time></trkpt><trkpt lat="43.34416" lon="11.8596917"><ele>254.0</ele><time>2026-04-04T09:56:18.261Z</time></trkpt><trkpt lat="43.3441233" lon="11.8596167"><ele>254.0</ele><time>2026-04-04T09:56:19.258Z</time></trkpt><trkpt lat="43.3440833" lon="11.8595433"><ele>254.0</ele><time>2026-04-04T09:56:20.262Z</time></trkpt><trkpt lat="43.3440483" lon="11.8594683"><ele>254.0</ele><time>2026-04-04T09:56:21.259Z</time></trkpt><trkpt lat="43.3440117" lon="11.8593967"><ele>254.0</ele><time>2026-04-04T09:56:22.26Z</time></trkpt><trkpt lat="43.3439483" lon="11.859255"><ele>254.0</ele><time>2026-04-04T09:56:24.259Z</time></trkpt><trkpt lat="43.3438983" lon="11.85912"><ele>253.99999999999997</ele><time>2026-04-04T09:56:26.257Z</time></trkpt><trkpt lat="43.3438583" lon="11.858985"><ele>253.99999999999997</ele><time>2026-04-04T09:56:28.259Z</time></trkpt><trkpt lat="43.34382" lon="11.858845"><ele>254.0</ele><time>2026-04-04T09:56:30.259Z</time></trkpt><trkpt lat="43.343785" lon="11.8587183"><ele>254.0</ele><time>2026-04-04T09:56:32.259Z</time></trkpt><trkpt lat="43.3437383" lon="11.8586033"><ele>253.79999999999998</ele><time>2026-04-04T09:56:34.266Z</time></trkpt><trkpt lat="43.343685" lon="11.8585217"><ele>253.59999999999997</ele><time>2026-04-04T09:56:36.262Z</time></trkpt><trkpt lat="43.34362" lon="11.85845"><ele>253.4</ele><time>2026-04-04T09:56:38.26Z</time></trkpt><trkpt lat="43.3435317" lon="11.8583633"><ele>253.2</ele><time>2026-04-04T09:56:40.261Z</time></trkpt><trkpt lat="43.3434317" lon="11.8582833"><ele>253.0</ele><time>2026-04-04T09:56:42.259Z</time></trkpt><trkpt lat="43.3433283" lon="11.858195"><ele>253.0</ele><time>2026-04-04T09:56:44.259Z</time></trkpt><trkpt lat="43.3432267" lon="11.8581117"><ele>253.0</ele><time>2026-04-04T09:56:46.26Z</time></trkpt><trkpt lat="43.3431183" lon="11.8580383"><ele>253.0</ele><time>2026-04-04T09:56:48.259Z</time></trkpt><trkpt lat="43.3430117" lon="11.8579567"><ele>253.0</ele><time>2026-04-04T09:56:50.261Z</time></trkpt><trkpt lat="43.3429217" lon="11.8578733"><ele>253.16666666666666</ele><time>2026-04-04T09:56:52.257Z</time></trkpt><trkpt lat="43.3428333" lon="11.8577967"><ele>253.33333333333331</ele><time>2026-04-04T09:56:54.256Z</time></trkpt><trkpt lat="43.3427533" lon="11.857725"><ele>253.5</ele><time>2026-04-04T09:56:56.26Z</time></trkpt><trkpt lat="43.3426783" lon="11.8576667"><ele>253.66666666666669</ele><time>2026-04-04T09:56:58.258Z</time></trkpt><trkpt lat="43.3426117" lon="11.8576117"><ele>253.83333333333334</ele><time>2026-04-04T09:57:00.261Z</time></trkpt><trkpt lat="43.3425533" lon="11.85757"><ele>254.0</ele><time>2026-04-04T09:57:02.259Z</time></trkpt><trkpt lat="43.3424833" lon="11.8575333"><ele>254.00000000000003</ele><time>2026-04-04T09:57:04.259Z</time></trkpt><trkpt lat="43.342395" lon="11.8574533"><ele>254.0</ele><time>2026-04-04T09:57:06.259Z</time></trkpt><trkpt lat="43.342295" lon="11.8573467"><ele>254.0</ele><time>2026-04-04T09:57:08.264Z</time></trkpt><trkpt lat="43.3422433" lon="11.8572883"><ele>254.0</ele><time>2026-04-04T09:57:09.258Z</time></trkpt><trkpt lat="43.342195" lon="11.85723"><ele>254.00000000000003</ele><time>2026-04-04T09:57:10.258Z</time></trkpt><trkpt lat="43.3421483" lon="11.8571717"><ele>254.0</ele><time>2026-04-04T09:57:11.259Z</time></trkpt><trkpt lat="43.3420517" lon="11.85707"><ele>254.0</ele><time>2026-04-04T09:57:13.26Z</time></trkpt><trkpt lat="43.3419533" lon="11.8569767"><ele>254.0</ele><time>2026-04-04T09:57:15.259Z</time></trkpt><trkpt lat="43.3418533" lon="11.8568817"><ele>254.0</ele><time>2026-04-04T09:57:17.257Z</time></trkpt><trkpt lat="43.3417583" lon="11.8567833"><ele>254.0</ele><time>2026-04-04T09:57:19.259Z</time></trkpt><trkpt lat="43.34167" lon="11.8566817"><ele>254.0</ele><time>2026-04-04T09:57:21.261Z</time></trkpt><trkpt lat="43.341585" lon="11.8565767"><ele>253.99999999999997</ele><time>2026-04-04T09:57:23.259Z</time></trkpt><trkpt lat="43.34151" lon="11.8564783"><ele>253.99999999999997</ele><time>2026-04-04T09:57:25.262Z</time></trkpt><trkpt lat="43.34144" lon="11.8564017"><ele>254.0</ele><time>2026-04-04T09:57:27.259Z</time></trkpt><trkpt lat="43.3413683" lon="11.856345"><ele>254.0</ele><time>2026-04-04T09:57:29.26Z</time></trkpt><trkpt lat="43.3413017" lon="11.8563117"><ele>253.83333333333334</ele><time>2026-04-04T09:57:31.26Z</time></trkpt><trkpt lat="43.3412317" lon="11.8562833"><ele>253.66666666666669</ele><time>2026-04-04T09:57:33.26Z</time></trkpt><trkpt lat="43.3411517" lon="11.85627"><ele>253.5</ele><time>2026-04-04T09:57:35.257Z</time></trkpt><trkpt lat="43.34107" lon="11.8562583"><ele>253.33333333333331</ele><time>2026-04-04T09:57:37.261Z</time></trkpt><trkpt lat="43.3409867" lon="11.8562417"><ele>253.16666666666666</ele><time>2026-04-04T09:57:39.256Z</time></trkpt><trkpt lat="43.3409" lon="11.8562333"><ele>253.0</ele><time>2026-04-04T09:57:41.259Z</time></trkpt><trkpt lat="43.3408117" lon="11.856225"><ele>252.99999999999997</ele><time>2026-04-04T09:57:43.261Z</time></trkpt><trkpt lat="43.3407133" lon="11.8562067"><ele>253.0</ele><time>2026-04-04T09:57:45.259Z</time></trkpt><trkpt lat="43.34062" lon="11.8561617"><ele>253.0</ele><time>2026-04-04T09:57:47.255Z</time></trkpt><trkpt lat="43.3405433" lon="11.8560967"><ele>253.0</ele><time>2026-04-04T09:57:49.258Z</time></trkpt><trkpt lat="43.34048" lon="11.856035"><ele>252.99999999999997</ele><time>2026-04-04T09:57:51.261Z</time></trkpt><trkpt lat="43.3404233" lon="11.8559767"><ele>253.0</ele><time>2026-04-04T09:57:53.258Z</time></trkpt><trkpt lat="43.340355" lon="11.85592"><ele>253.49999999999997</ele><time>2026-04-04T09:57:55.259Z</time></trkpt><trkpt lat="43.34029" lon="11.85585"><ele>254.0</ele><time>2026-04-04T09:57:57.259Z</time></trkpt><trkpt lat="43.340235" lon="11.8557717"><ele>254.5</ele><time>2026-04-04T09:57:59.258Z</time></trkpt><trkpt lat="43.3401817" lon="11.8556917"><ele>255.0</ele><time>2026-04-04T09:58:01.26Z</time></trkpt><trkpt lat="43.340135" lon="11.8555967"><ele>255.49999999999997</ele><time>2026-04-04T09:58:03.259Z</time></trkpt><trkpt lat="43.3401067" lon="11.8554967"><ele>256.0</ele><time>2026-04-04T09:58:05.258Z</time></trkpt><trkpt lat="43.3400967" lon="11.855395"><ele>256.0</ele><time>2026-04-04T09:58:07.258Z</time></trkpt><trkpt lat="43.3400983" lon="11.8552983"><ele>255.99999999999997</ele><time>2026-04-04T09:58:09.26Z</time></trkpt><trkpt lat="43.34011" lon="11.85521"><ele>256.0</ele><time>2026-04-04T09:58:11.257Z</time></trkpt><trkpt lat="43.3401433" lon="11.8550933"><ele>256.0</ele><time>2026-04-04T09:58:14.258Z</time></trkpt><trkpt lat="43.340175" lon="11.8549867"><ele>255.99999999999997</ele><time>2026-04-04T09:58:17.259Z</time></trkpt><trkpt lat="43.3402" lon="11.8549067"><ele>256.0</ele><time>2026-04-04T09:58:19.257Z</time></trkpt><trkpt lat="43.34022" lon="11.8548233"><ele>256.0</ele><time>2026-04-04T09:58:21.259Z</time></trkpt><trkpt lat="43.3402417" lon="11.8547417"><ele>256.0</ele><time>2026-04-04T09:58:23.258Z</time></trkpt><trkpt lat="43.340255" lon="11.8546183"><ele>255.99999999999997</ele><time>2026-04-04T09:58:26.26Z</time></trkpt><trkpt lat="43.3402567" lon="11.8545283"><ele>256.0</ele><time>2026-04-04T09:58:28.258Z</time></trkpt><trkpt lat="43.3402517" lon="11.8544383"><ele>256.0</ele><time>2026-04-04T09:58:30.259Z</time></trkpt><trkpt lat="43.34025" lon="11.8543383"><ele>255.99999999999997</ele><time>2026-04-04T09:58:32.26Z</time></trkpt><trkpt lat="43.3402517" lon="11.854245"><ele>256.0</ele><time>2026-04-04T09:58:34.258Z</time></trkpt><trkpt lat="43.34024" lon="11.8541567"><ele>256.0</ele><time>2026-04-04T09:58:36.258Z</time></trkpt><trkpt lat="43.3402267" lon="11.8540617"><ele>256.1428571428571</ele><time>2026-04-04T09:58:38.264Z</time></trkpt><trkpt lat="43.34021" lon="11.8539633"><ele>256.2857142857143</ele><time>2026-04-04T09:58:40.26Z</time></trkpt><trkpt lat="43.3401983" lon="11.853865"><ele>256.42857142857144</ele><time>2026-04-04T09:58:42.257Z</time></trkpt><trkpt lat="43.3401967" lon="11.8537717"><ele>256.57142857142856</ele><time>2026-04-04T09:58:44.261Z</time></trkpt><trkpt lat="43.3401833" lon="11.8536467"><ele>256.7142857142857</ele><time>2026-04-04T09:58:47.259Z</time></trkpt><trkpt lat="43.3401783" lon="11.853555"><ele>256.85714285714283</ele><time>2026-04-04T09:58:49.259Z</time></trkpt><trkpt lat="43.3401767" lon="11.85346"><ele>257.0</ele><time>2026-04-04T09:58:51.261Z</time></trkpt><trkpt lat="43.3401733" lon="11.853365"><ele>257.1666666666667</ele><time>2026-04-04T09:58:53.261Z</time></trkpt><trkpt lat="43.3401717" lon="11.85324"><ele>257.33333333333337</ele><time>2026-04-04T09:58:56.262Z</time></trkpt><trkpt lat="43.340185" lon="11.8531133"><ele>257.5</ele><time>2026-04-04T09:58:59.259Z</time></trkpt><trkpt lat="43.3401933" lon="11.8529883"><ele>257.6666666666667</ele><time>2026-04-04T09:59:02.26Z</time></trkpt><trkpt lat="43.3401983" lon="11.8528967"><ele>257.8333333333333</ele><time>2026-04-04T09:59:04.26Z</time></trkpt><trkpt lat="43.3402083" lon="11.8528"><ele>258.0</ele><time>2026-04-04T09:59:06.26Z</time></trkpt><trkpt lat="43.3402083" lon="11.8527117"><ele>257.99999999999994</ele><time>2026-04-04T09:59:08.259Z</time></trkpt><trkpt lat="43.340205" lon="11.8526233"><ele>258.0</ele><time>2026-04-04T09:59:10.258Z</time></trkpt><trkpt lat="43.3402033" lon="11.8525033"><ele>258.0</ele><time>2026-04-04T09:59:13.258Z</time></trkpt><trkpt lat="43.34021" lon="11.852395"><ele>258.0</ele><time>2026-04-04T09:59:16.259Z</time></trkpt><trkpt lat="43.3402067" lon="11.8522933"><ele>258.0</ele><time>2026-04-04T09:59:19.256Z</time></trkpt><trkpt lat="43.340195" lon="11.852195"><ele>257.99999999999994</ele><time>2026-04-04T09:59:22.258Z</time></trkpt><trkpt lat="43.3401967" lon="11.852105"><ele>258.0</ele><time>2026-04-04T09:59:26.257Z</time></trkpt><trkpt lat="43.3402" lon="11.8520083"><ele>258.3333333333333</ele><time>2026-04-04T09:59:30.26Z</time></trkpt><trkpt lat="43.3401983" lon="11.85191"><ele>258.6666666666667</ele><time>2026-04-04T09:59:34.262Z</time></trkpt><trkpt lat="43.34018" lon="11.851825"><ele>259.0</ele><time>2026-04-04T09:59:39.257Z</time></trkpt><trkpt lat="43.3401283" lon="11.851725"><ele>259.33333333333337</ele><time>2026-04-04T10:00:42.259Z</time></trkpt><trkpt lat="43.3401" lon="11.851625"><ele>259.6666666666667</ele><time>2026-04-04T10:00:44.258Z</time></trkpt><trkpt lat="43.34007" lon="11.8515083"><ele>260.0</ele><time>2026-04-04T10:00:46.258Z</time></trkpt><trkpt lat="43.3400417" lon="11.8513933"><ele>260.0</ele><time>2026-04-04T10:00:48.258Z</time></trkpt><trkpt lat="43.3400117" lon="11.8512817"><ele>260.0</ele><time>2026-04-04T10:00:50.261Z</time></trkpt><trkpt lat="43.339985" lon="11.8511717"><ele>260.0</ele><time>2026-04-04T10:00:52.259Z</time></trkpt><trkpt lat="43.3399617" lon="11.85106"><ele>260.0</ele><time>2026-04-04T10:00:54.261Z</time></trkpt><trkpt lat="43.3399383" lon="11.8509483"><ele>260.0</ele><time>2026-04-04T10:00:56.26Z</time></trkpt><trkpt lat="43.3399133" lon="11.8508367"><ele>260.0</ele><time>2026-04-04T10:00:58.259Z</time></trkpt><trkpt lat="43.3398867" lon="11.850725"><ele>260.14285714285717</ele><time>2026-04-04T10:01:00.262Z</time></trkpt><trkpt lat="43.339865" lon="11.85062"><ele>260.2857142857143</ele><time>2026-04-04T10:01:02.263Z</time></trkpt><trkpt lat="43.339835" lon="11.8505283"><ele>260.42857142857144</ele><time>2026-04-04T10:01:04.261Z</time></trkpt><trkpt lat="43.33981" lon="11.850435"><ele>260.57142857142856</ele><time>2026-04-04T10:01:06.263Z</time></trkpt><trkpt lat="43.3397967" lon="11.8503467"><ele>260.7142857142857</ele><time>2026-04-04T10:01:08.259Z</time></trkpt><trkpt lat="43.339755" lon="11.850245"><ele>260.8571428571429</ele><time>2026-04-04T10:01:54.26Z</time></trkpt><trkpt lat="43.3397417" lon="11.850155"><ele>261.0</ele><time>2026-04-04T10:01:57.26Z</time></trkpt><trkpt lat="43.3397233" lon="11.8500717"><ele>261.3333333333333</ele><time>2026-04-04T10:01:59.262Z</time></trkpt><trkpt lat="43.3397" lon="11.8499817"><ele>261.6666666666667</ele><time>2026-04-04T10:02:01.258Z</time></trkpt><trkpt lat="43.3396783" lon="11.849885"><ele>262.0</ele><time>2026-04-04T10:02:03.259Z</time></trkpt><trkpt lat="43.3396533" lon="11.8497767"><ele>262.33333333333337</ele><time>2026-04-04T10:02:05.259Z</time></trkpt><trkpt lat="43.3396283" lon="11.84967"><ele>262.6666666666667</ele><time>2026-04-04T10:02:07.262Z</time></trkpt><trkpt lat="43.3396033" lon="11.8495617"><ele>263.0</ele><time>2026-04-04T10:02:09.258Z</time></trkpt><trkpt lat="43.3395733" lon="11.8494567"><ele>263.0</ele><time>2026-04-04T10:02:11.26Z</time></trkpt><trkpt lat="43.3395283" lon="11.8493583"><ele>263.0</ele><time>2026-04-04T10:02:13.258Z</time></trkpt><trkpt lat="43.339445" lon="11.849315"><ele>263.0</ele><time>2026-04-04T10:02:15.262Z</time></trkpt><trkpt lat="43.3393567" lon="11.8493467"><ele>263.0</ele><time>2026-04-04T10:02:17.262Z</time></trkpt><trkpt lat="43.3392733" lon="11.8494067"><ele>263.0</ele><time>2026-04-04T10:02:19.262Z</time></trkpt><trkpt lat="43.3391983" lon="11.8494867"><ele>263.0</ele><time>2026-04-04T10:02:21.259Z</time></trkpt><trkpt lat="43.339125" lon="11.8495567"><ele>263.0</ele><time>2026-04-04T10:02:23.262Z</time></trkpt><trkpt lat="43.3390567" lon="11.8496233"><ele>263.0</ele><time>2026-04-04T10:02:25.259Z</time></trkpt><trkpt lat="43.3389917" lon="11.8496833"><ele>263.0</ele><time>2026-04-04T10:02:27.259Z</time></trkpt><trkpt lat="43.33893" lon="11.8497483"><ele>263.0</ele><time>2026-04-04T10:02:29.259Z</time></trkpt><trkpt lat="43.3388633" lon="11.8498033"><ele>263.0</ele><time>2026-04-04T10:02:31.262Z</time></trkpt><trkpt lat="43.3387883" lon="11.8498467"><ele>263.0</ele><time>2026-04-04T10:02:33.257Z</time></trkpt><trkpt lat="43.33871" lon="11.849855"><ele>263.0</ele><time>2026-04-04T10:02:35.261Z</time></trkpt><trkpt lat="43.3386333" lon="11.8498183"><ele>263.0</ele><time>2026-04-04T10:02:37.263Z</time></trkpt><trkpt lat="43.338575" lon="11.849755"><ele>263.0</ele><time>2026-04-04T10:02:39.261Z</time></trkpt><trkpt lat="43.338515" lon="11.8496817"><ele>263.0</ele><time>2026-04-04T10:02:41.258Z</time></trkpt><trkpt lat="43.3384533" lon="11.8496067"><ele>263.0</ele><time>2026-04-04T10:02:43.261Z</time></trkpt><trkpt lat="43.33839" lon="11.84953"><ele>263.0</ele><time>2026-04-04T10:02:45.257Z</time></trkpt><trkpt lat="43.33833" lon="11.8494467"><ele>263.0</ele><time>2026-04-04T10:02:47.259Z</time></trkpt><trkpt lat="43.3382633" lon="11.84937"><ele>263.0</ele><time>2026-04-04T10:02:49.258Z</time></trkpt><trkpt lat="43.3382017" lon="11.8492917"><ele>263.0</ele><time>2026-04-04T10:02:51.258Z</time></trkpt><trkpt lat="43.3381367" lon="11.8492183"><ele>263.0</ele><time>2026-04-04T10:02:53.259Z</time></trkpt><trkpt lat="43.338065" lon="11.8491433"><ele>263.0</ele><time>2026-04-04T10:02:55.259Z</time></trkpt><trkpt lat="43.3379867" lon="11.8490833"><ele>263.33333333333337</ele><time>2026-04-04T10:02:57.259Z</time></trkpt><trkpt lat="43.33791" lon="11.84903"><ele>263.6666666666667</ele><time>2026-04-04T10:02:59.259Z</time></trkpt><trkpt lat="43.3378333" lon="11.84898"><ele>264.0</ele><time>2026-04-04T10:03:01.259Z</time></trkpt><trkpt lat="43.3377533" lon="11.8489283"><ele>264.3333333333333</ele><time>2026-04-04T10:03:03.259Z</time></trkpt><trkpt lat="43.3376717" lon="11.84888"><ele>264.66666666666663</ele><time>2026-04-04T10:03:05.258Z</time></trkpt><trkpt lat="43.3375883" lon="11.8488367"><ele>265.0</ele><time>2026-04-04T10:03:07.258Z</time></trkpt><trkpt lat="43.3374683" lon="11.8487583"><ele>265.0</ele><time>2026-04-04T10:03:10.257Z</time></trkpt><trkpt lat="43.3373933" lon="11.848705"><ele>265.0</ele><time>2026-04-04T10:03:12.263Z</time></trkpt><trkpt lat="43.337315" lon="11.8486483"><ele>265.0</ele><time>2026-04-04T10:03:14.259Z</time></trkpt><trkpt lat="43.3372333" lon="11.8485933"><ele>265.0</ele><time>2026-04-04T10:03:16.257Z</time></trkpt><trkpt lat="43.3371483" lon="11.8485417"><ele>265.0</ele><time>2026-04-04T10:03:18.259Z</time></trkpt><trkpt lat="43.3370617" lon="11.84849"><ele>264.8</ele><time>2026-04-04T10:03:20.261Z</time></trkpt><trkpt lat="43.336975" lon="11.848435"><ele>264.6</ele><time>2026-04-04T10:03:22.259Z</time></trkpt><trkpt lat="43.3368867" lon="11.8483767"><ele>264.4</ele><time>2026-04-04T10:03:24.266Z</time></trkpt><trkpt lat="43.3368067" lon="11.8483"><ele>264.2</ele><time>2026-04-04T10:03:26.26Z</time></trkpt><trkpt lat="43.3367283" lon="11.8482233"><ele>264.0</ele><time>2026-04-04T10:03:28.261Z</time></trkpt><trkpt lat="43.336645" lon="11.8481417"><ele>264.0</ele><time>2026-04-04T10:03:30.261Z</time></trkpt><trkpt lat="43.3365733" lon="11.8480583"><ele>264.0</ele><time>2026-04-04T10:03:32.26Z</time></trkpt><trkpt lat="43.3365033" lon="11.84798"><ele>264.0</ele><time>2026-04-04T10:03:34.26Z</time></trkpt><trkpt lat="43.3364317" lon="11.8478983"><ele>264.0</ele><time>2026-04-04T10:03:36.258Z</time></trkpt><trkpt lat="43.33636" lon="11.8478217"><ele>264.0</ele><time>2026-04-04T10:03:38.259Z</time></trkpt><trkpt lat="43.3362867" lon="11.84775"><ele>264.1666666666667</ele><time>2026-04-04T10:03:40.258Z</time></trkpt><trkpt lat="43.3362083" lon="11.8477"><ele>264.3333333333333</ele><time>2026-04-04T10:03:42.261Z</time></trkpt><trkpt lat="43.3361283" lon="11.8476967"><ele>264.5</ele><time>2026-04-04T10:03:44.262Z</time></trkpt><trkpt lat="43.3360567" lon="11.8477467"><ele>264.66666666666663</ele><time>2026-04-04T10:03:46.263Z</time></trkpt><trkpt lat="43.3360033" lon="11.8478183"><ele>264.8333333333333</ele><time>2026-04-04T10:03:48.26Z</time></trkpt><trkpt lat="43.33594" lon="11.84789"><ele>265.0</ele><time>2026-04-04T10:03:50.26Z</time></trkpt><trkpt lat="43.3358633" lon="11.84794"><ele>265.0</ele><time>2026-04-04T10:03:52.26Z</time></trkpt><trkpt lat="43.3357767" lon="11.8479417"><ele>265.0</ele><time>2026-04-04T10:03:54.263Z</time></trkpt><trkpt lat="43.3356917" lon="11.8478983"><ele>265.0</ele><time>2026-04-04T10:03:56.259Z</time></trkpt><trkpt lat="43.335615" lon="11.8478367"><ele>265.0</ele><time>2026-04-04T10:03:58.261Z</time></trkpt><trkpt lat="43.3355383" lon="11.8477733"><ele>265.0</ele><time>2026-04-04T10:04:00.259Z</time></trkpt><trkpt lat="43.335465" lon="11.84771"><ele>265.0</ele><time>2026-04-04T10:04:02.258Z</time></trkpt><trkpt lat="43.33539" lon="11.847655"><ele>265.3333333333333</ele><time>2026-04-04T10:04:04.26Z</time></trkpt><trkpt lat="43.3353183" lon="11.84759"><ele>265.66666666666663</ele><time>2026-04-04T10:04:06.26Z</time></trkpt><trkpt lat="43.3352483" lon="11.8475267"><ele>266.0</ele><time>2026-04-04T10:04:08.259Z</time></trkpt><trkpt lat="43.3351817" lon="11.84746"><ele>266.3333333333333</ele><time>2026-04-04T10:04:10.26Z</time></trkpt><trkpt lat="43.3351133" lon="11.8474"><ele>266.6666666666667</ele><time>2026-04-04T10:04:12.259Z</time></trkpt><trkpt lat="43.3350417" lon="11.847345"><ele>267.0</ele><time>2026-04-04T10:04:14.263Z</time></trkpt><trkpt lat="43.334975" lon="11.847285"><ele>267.00000000000006</ele><time>2026-04-04T10:04:16.259Z</time></trkpt><trkpt lat="43.3349117" lon="11.8472317"><ele>267.0</ele><time>2026-04-04T10:04:18.261Z</time></trkpt><trkpt lat="43.3348483" lon="11.84719"><ele>267.0</ele><time>2026-04-04T10:04:20.26Z</time></trkpt><trkpt lat="43.3347917" lon="11.847145"><ele>267.0</ele><time>2026-04-04T10:04:22.26Z</time></trkpt><trkpt lat="43.3347267" lon="11.8470733"><ele>267.0</ele><time>2026-04-04T10:04:25.261Z</time></trkpt><trkpt lat="43.3346717" lon="11.8469883"><ele>267.00000000000006</ele><time>2026-04-04T10:05:27.258Z</time></trkpt><trkpt lat="43.3346383" lon="11.84691"><ele>267.0</ele><time>2026-04-04T10:05:29.262Z</time></trkpt><trkpt lat="43.3346133" lon="11.8468117"><ele>266.6666666666667</ele><time>2026-04-04T10:05:31.263Z</time></trkpt><trkpt lat="43.33458" lon="11.8467033"><ele>266.3333333333333</ele><time>2026-04-04T10:05:33.26Z</time></trkpt><trkpt lat="43.334545" lon="11.8465933"><ele>266.0</ele><time>2026-04-04T10:05:35.264Z</time></trkpt><trkpt lat="43.334515" lon="11.8464783"><ele>265.66666666666663</ele><time>2026-04-04T10:05:37.259Z</time></trkpt><trkpt lat="43.33448" lon="11.846365"><ele>265.3333333333333</ele><time>2026-04-04T10:05:39.261Z</time></trkpt><trkpt lat="43.3344433" lon="11.846255"><ele>265.0</ele><time>2026-04-04T10:05:41.259Z</time></trkpt><trkpt lat="43.3344133" lon="11.8461367"><ele>265.0</ele><time>2026-04-04T10:05:43.26Z</time></trkpt><trkpt lat="43.334385" lon="11.8460183"><ele>265.0</ele><time>2026-04-04T10:05:45.258Z</time></trkpt><trkpt lat="43.3343583" lon="11.8458967"><ele>265.0</ele><time>2026-04-04T10:05:47.262Z</time></trkpt><trkpt lat="43.33434" lon="11.8457683"><ele>265.0</ele><time>2026-04-04T10:05:49.262Z</time></trkpt><trkpt lat="43.3343283" lon="11.845635"><ele>265.0</ele><time>2026-04-04T10:05:51.263Z</time></trkpt><trkpt lat="43.3343133" lon="11.845505"><ele>265.4</ele><time>2026-04-04T10:05:53.26Z</time></trkpt><trkpt lat="43.3343033" lon="11.845375"><ele>265.8</ele><time>2026-04-04T10:05:55.264Z</time></trkpt><trkpt lat="43.334295" lon="11.84525"><ele>266.2</ele><time>2026-04-04T10:05:57.261Z</time></trkpt><trkpt lat="43.3342917" lon="11.8451217"><ele>266.6</ele><time>2026-04-04T10:05:59.263Z</time></trkpt><trkpt lat="43.33429" lon="11.8449917"><ele>267.0</ele><time>2026-04-04T10:06:01.259Z</time></trkpt><trkpt lat="43.33428" lon="11.844865"><ele>267.2</ele><time>2026-04-04T10:06:03.261Z</time></trkpt><trkpt lat="43.3342767" lon="11.8447333"><ele>267.4</ele><time>2026-04-04T10:06:05.257Z</time></trkpt><trkpt lat="43.3342783" lon="11.8446017"><ele>267.6</ele><time>2026-04-04T10:06:07.257Z</time></trkpt><trkpt lat="43.334285" lon="11.8444717"><ele>267.8</ele><time>2026-04-04T10:06:09.259Z</time></trkpt><trkpt lat="43.334295" lon="11.8443433"><ele>268.0</ele><time>2026-04-04T10:06:11.262Z</time></trkpt><trkpt lat="43.33431" lon="11.8442167"><ele>268.16666666666663</ele><time>2026-04-04T10:06:13.259Z</time></trkpt><trkpt lat="43.334325" lon="11.8441"><ele>268.3333333333333</ele><time>2026-04-04T10:06:15.264Z</time></trkpt><trkpt lat="43.334335" lon="11.8439867"><ele>268.5</ele><time>2026-04-04T10:06:17.261Z</time></trkpt><trkpt lat="43.33435" lon="11.8438817"><ele>268.6666666666667</ele><time>2026-04-04T10:06:19.26Z</time></trkpt><trkpt lat="43.3343667" lon="11.8437683"><ele>268.83333333333337</ele><time>2026-04-04T10:06:21.26Z</time></trkpt><trkpt lat="43.334385" lon="11.8436583"><ele>269.0</ele><time>2026-04-04T10:06:23.258Z</time></trkpt><trkpt lat="43.3344317" lon="11.8435683"><ele>269.0</ele><time>2026-04-04T10:06:25.259Z</time></trkpt><trkpt lat="43.3345117" lon="11.843535"><ele>269.0</ele><time>2026-04-04T10:06:27.257Z</time></trkpt><trkpt lat="43.33461" lon="11.84351"><ele>269.0</ele><time>2026-04-04T10:06:29.259Z</time></trkpt><trkpt lat="43.334665" lon="11.843405"><ele>269.0</ele><time>2026-04-04T10:06:31.258Z</time></trkpt><trkpt lat="43.3346417" lon="11.8433233"><ele>269.0</ele><time>2026-04-04T10:06:32.259Z</time></trkpt><trkpt lat="43.334555" lon="11.84323"><ele>268.33333333333337</ele><time>2026-04-04T10:06:34.264Z</time></trkpt><trkpt lat="43.33449" lon="11.8432083"><ele>267.6666666666667</ele><time>2026-04-04T10:06:35.259Z</time></trkpt><trkpt lat="43.3343917" lon="11.8432117"><ele>267.0</ele><time>2026-04-04T10:06:36.261Z</time></trkpt><trkpt lat="43.3343067" lon="11.84321"><ele>266.3333333333333</ele><time>2026-04-04T10:06:37.261Z</time></trkpt><trkpt lat="43.3342217" lon="11.8432083"><ele>265.66666666666663</ele><time>2026-04-04T10:06:38.262Z</time></trkpt><trkpt lat="43.3341417" lon="11.843205"><ele>265.0</ele><time>2026-04-04T10:06:39.26Z</time></trkpt><trkpt lat="43.3340567" lon="11.8432067"><ele>265.0</ele><time>2026-04-04T10:06:40.258Z</time></trkpt><trkpt lat="43.33398" lon="11.84321"><ele>265.0</ele><time>2026-04-04T10:06:41.262Z</time></trkpt><trkpt lat="43.3339017" lon="11.84322"><ele>265.0</ele><time>2026-04-04T10:06:42.259Z</time></trkpt><trkpt lat="43.3338333" lon="11.8432317"><ele>265.0</ele><time>2026-04-04T10:06:43.258Z</time></trkpt><trkpt lat="43.3337683" lon="11.8432467"><ele>265.0</ele><time>2026-04-04T10:06:44.258Z</time></trkpt><trkpt lat="43.3336417" lon="11.8432933"><ele>265.0</ele><time>2026-04-04T10:06:46.262Z</time></trkpt><trkpt lat="43.333575" lon="11.8433083"><ele>264.2</ele><time>2026-04-04T10:06:47.26Z</time></trkpt><trkpt lat="43.3334633" lon="11.843335"><ele>263.4</ele><time>2026-04-04T10:06:49.265Z</time></trkpt><trkpt lat="43.3333983" lon="11.8433417"><ele>262.6</ele><time>2026-04-04T10:06:50.259Z</time></trkpt><trkpt lat="43.333335" lon="11.8433367"><ele>261.8</ele><time>2026-04-04T10:06:51.259Z</time></trkpt><trkpt lat="43.333215" lon="11.843335"><ele>261.0</ele><time>2026-04-04T10:06:53.263Z</time></trkpt><trkpt lat="43.3330967" lon="11.8433167"><ele>259.0</ele><time>2026-04-04T10:06:55.259Z</time></trkpt><trkpt lat="43.3329867" lon="11.8432533"><ele>257.0</ele><time>2026-04-04T10:06:57.26Z</time></trkpt><trkpt lat="43.3329133" lon="11.84312"><ele>255.00000000000003</ele><time>2026-04-04T10:06:59.26Z</time></trkpt><trkpt lat="43.33289" lon="11.8430383"><ele>253.0</ele><time>2026-04-04T10:07:00.261Z</time></trkpt><trkpt lat="43.33287" lon="11.842955"><ele>251.0</ele><time>2026-04-04T10:07:01.259Z</time></trkpt><trkpt lat="43.3328567" lon="11.8428117"><ele>251.0</ele><time>2026-04-04T10:07:03.26Z</time></trkpt><trkpt lat="43.3328983" lon="11.842675"><ele>251.0</ele><time>2026-04-04T10:07:05.258Z</time></trkpt><trkpt lat="43.332995" lon="11.8425933"><ele>251.0</ele><time>2026-04-04T10:07:07.261Z</time></trkpt><trkpt lat="43.33311" lon="11.8425517"><ele>251.0</ele><time>2026-04-04T10:07:09.259Z</time></trkpt><trkpt lat="43.3332183" lon="11.8425"><ele>250.66666666666669</ele><time>2026-04-04T10:07:11.258Z</time></trkpt><trkpt lat="43.3333183" lon="11.8424083"><ele>250.33333333333334</ele><time>2026-04-04T10:07:13.259Z</time></trkpt><trkpt lat="43.3333967" lon="11.8422833"><ele>250.0</ele><time>2026-04-04T10:07:15.26Z</time></trkpt><trkpt lat="43.33344" lon="11.8422167"><ele>249.66666666666669</ele><time>2026-04-04T10:07:16.259Z</time></trkpt><trkpt lat="43.333485" lon="11.842155"><ele>249.33333333333334</ele><time>2026-04-04T10:07:17.257Z</time></trkpt><trkpt lat="43.3335383" lon="11.8421067"><ele>249.0</ele><time>2026-04-04T10:07:18.259Z</time></trkpt><trkpt lat="43.3336533" lon="11.84205"><ele>249.0</ele><time>2026-04-04T10:07:20.259Z</time></trkpt><trkpt lat="43.3337717" lon="11.8420367"><ele>249.0</ele><time>2026-04-04T10:07:22.258Z</time></trkpt><trkpt lat="43.3338933" lon="11.84204"><ele>249.0</ele><time>2026-04-04T10:07:24.258Z</time></trkpt><trkpt lat="43.3339567" lon="11.8420383"><ele>249.0</ele><time>2026-04-04T10:07:25.26Z</time></trkpt><trkpt lat="43.33402" lon="11.842035"><ele>249.0</ele><time>2026-04-04T10:07:26.259Z</time></trkpt><trkpt lat="43.3340833" lon="11.8420283"><ele>249.0</ele><time>2026-04-04T10:07:27.257Z</time></trkpt><trkpt lat="43.3342067" lon="11.842025"><ele>249.39999999999998</ele><time>2026-04-04T10:07:29.26Z</time></trkpt><trkpt lat="43.3343317" lon="11.8420283"><ele>249.79999999999998</ele><time>2026-04-04T10:07:31.262Z</time></trkpt><trkpt lat="43.3344567" lon="11.8420267"><ele>250.20000000000002</ele><time>2026-04-04T10:07:33.263Z</time></trkpt><trkpt lat="43.33452" lon="11.8420283"><ele>250.60000000000002</ele><time>2026-04-04T10:07:34.259Z</time></trkpt><trkpt lat="43.3345833" lon="11.8420283"><ele>251.0</ele><time>2026-04-04T10:07:35.258Z</time></trkpt><trkpt lat="43.3347083" lon="11.8420267"><ele>250.4</ele><time>2026-04-04T10:07:37.26Z</time></trkpt><trkpt lat="43.3347717" lon="11.842025"><ele>249.8</ele><time>2026-04-04T10:07:38.26Z</time></trkpt><trkpt lat="43.334835" lon="11.8420233"><ele>249.20000000000002</ele><time>2026-04-04T10:07:39.257Z</time></trkpt><trkpt lat="43.334955" lon="11.8420267"><ele>248.60000000000002</ele><time>2026-04-04T10:07:41.258Z</time></trkpt><trkpt lat="43.3350733" lon="11.842025"><ele>248.0</ele><time>2026-04-04T10:07:43.259Z</time></trkpt><trkpt lat="43.33519" lon="11.8420233"><ele>248.0</ele><time>2026-04-04T10:07:45.261Z</time></trkpt><trkpt lat="43.3352533" lon="11.84202"><ele>248.0</ele><time>2026-04-04T10:07:46.261Z</time></trkpt><trkpt lat="43.33537" lon="11.8420167"><ele>248.0</ele><time>2026-04-04T10:07:48.26Z</time></trkpt><trkpt lat="43.335485" lon="11.8420133"><ele>248.0</ele><time>2026-04-04T10:07:50.262Z</time></trkpt><trkpt lat="43.3355983" lon="11.8420117"><ele>248.0</ele><time>2026-04-04T10:07:52.258Z</time></trkpt><trkpt lat="43.3357133" lon="11.84202"><ele>247.0</ele><time>2026-04-04T10:07:54.262Z</time></trkpt><trkpt lat="43.3358317" lon="11.842025"><ele>246.0</ele><time>2026-04-04T10:07:56.259Z</time></trkpt><trkpt lat="43.3359533" lon="11.8420267"><ele>245.0</ele><time>2026-04-04T10:07:58.259Z</time></trkpt><trkpt lat="43.3360717" lon="11.8420267"><ele>244.0</ele><time>2026-04-04T10:08:00.26Z</time></trkpt><trkpt lat="43.3361917" lon="11.8420233"><ele>244.0</ele><time>2026-04-04T10:08:02.261Z</time></trkpt><trkpt lat="43.3363117" lon="11.8420283"><ele>244.0</ele><time>2026-04-04T10:08:04.259Z</time></trkpt><trkpt lat="43.3364317" lon="11.8420283"><ele>244.0</ele><time>2026-04-04T10:08:06.259Z</time></trkpt><trkpt lat="43.3365533" lon="11.8420267"><ele>244.0</ele><time>2026-04-04T10:08:08.259Z</time></trkpt><trkpt lat="43.33667" lon="11.84202"><ele>244.25</ele><time>2026-04-04T10:08:10.258Z</time></trkpt><trkpt lat="43.336785" lon="11.84202"><ele>244.5</ele><time>2026-04-04T10:08:12.261Z</time></trkpt><trkpt lat="43.3369083" lon="11.842015"><ele>244.75</ele><time>2026-04-04T10:08:14.263Z</time></trkpt><trkpt lat="43.3370333" lon="11.8420083"><ele>245.0</ele><time>2026-04-04T10:08:16.26Z</time></trkpt><trkpt lat="43.3371533" lon="11.8420133"><ele>245.0</ele><time>2026-04-04T10:08:18.261Z</time></trkpt><trkpt lat="43.3372767" lon="11.8420117"><ele>245.0</ele><time>2026-04-04T10:08:20.261Z</time></trkpt><trkpt lat="43.3373983" lon="11.8420133"><ele>245.0</ele><time>2026-04-04T10:08:22.257Z</time></trkpt><trkpt lat="43.3375183" lon="11.8420167"><ele>245.0</ele><time>2026-04-04T10:08:24.26Z</time></trkpt><trkpt lat="43.3375817" lon="11.8420167"><ele>245.0</ele><time>2026-04-04T10:08:25.257Z</time></trkpt><trkpt lat="43.3377033" lon="11.8420167"><ele>245.0</ele><time>2026-04-04T10:08:27.259Z</time></trkpt><trkpt lat="43.3378267" lon="11.84201"><ele>245.0</ele><time>2026-04-04T10:08:29.262Z</time></trkpt><trkpt lat="43.33795" lon="11.8420083"><ele>245.0</ele><time>2026-04-04T10:08:31.257Z</time></trkpt><trkpt lat="43.338015" lon="11.8420033"><ele>245.0</ele><time>2026-04-04T10:08:32.26Z</time></trkpt><trkpt lat="43.3381367" lon="11.841995"><ele>245.0</ele><time>2026-04-04T10:08:34.257Z</time></trkpt><trkpt lat="43.3382583" lon="11.8419867"><ele>245.00000000000003</ele><time>2026-04-04T10:08:36.26Z</time></trkpt><trkpt lat="43.3383867" lon="11.8419867"><ele>245.0</ele><time>2026-04-04T10:08:38.259Z</time></trkpt><trkpt lat="43.33845" lon="11.8419883"><ele>245.0</ele><time>2026-04-04T10:08:39.258Z</time></trkpt><trkpt lat="43.3385133" lon="11.8419867"><ele>245.0</ele><time>2026-04-04T10:08:40.257Z</time></trkpt><trkpt lat="43.3385767" lon="11.8419883"><ele>245.00000000000003</ele><time>2026-04-04T10:08:41.261Z</time></trkpt><trkpt lat="43.3386967" lon="11.8419833"><ele>245.0</ele><time>2026-04-04T10:08:43.258Z</time></trkpt><trkpt lat="43.3388183" lon="11.8419767"><ele>245.0</ele><time>2026-04-04T10:08:45.261Z</time></trkpt><trkpt lat="43.338935" lon="11.84198"><ele>245.0</ele><time>2026-04-04T10:08:47.26Z</time></trkpt><trkpt lat="43.3390517" lon="11.8419883"><ele>245.0</ele><time>2026-04-04T10:08:49.26Z</time></trkpt><trkpt lat="43.33917" lon="11.8419933"><ele>245.0</ele><time>2026-04-04T10:08:51.258Z</time></trkpt><trkpt lat="43.3392867" lon="11.841995"><ele>245.0</ele><time>2026-04-04T10:08:53.259Z</time></trkpt><trkpt lat="43.3394067" lon="11.8419967"><ele>245.0</ele><time>2026-04-04T10:08:55.262Z</time></trkpt><trkpt lat="43.339525" lon="11.8419967"><ele>245.0</ele><time>2026-04-04T10:08:57.262Z</time></trkpt><trkpt lat="43.339635" lon="11.8419967"><ele>245.0</ele><time>2026-04-04T10:08:59.261Z</time></trkpt><trkpt lat="43.339745" lon="11.841995"><ele>244.75</ele><time>2026-04-04T10:09:01.26Z</time></trkpt><trkpt lat="43.3398533" lon="11.842005"><ele>244.5</ele><time>2026-04-04T10:09:03.261Z</time></trkpt><trkpt lat="43.3399683" lon="11.8420033"><ele>244.25</ele><time>2026-04-04T10:09:05.262Z</time></trkpt><trkpt lat="43.3400817" lon="11.8420017"><ele>244.0</ele><time>2026-04-04T10:09:07.26Z</time></trkpt><trkpt lat="43.3401983" lon="11.841995"><ele>244.0</ele><time>2026-04-04T10:09:09.259Z</time></trkpt><trkpt lat="43.3403167" lon="11.84199"><ele>244.0</ele><time>2026-04-04T10:09:11.263Z</time></trkpt><trkpt lat="43.3404367" lon="11.8419917"><ele>244.0</ele><time>2026-04-04T10:09:13.258Z</time></trkpt><trkpt lat="43.3405567" lon="11.84199"><ele>244.0</ele><time>2026-04-04T10:09:15.259Z</time></trkpt><trkpt lat="43.3406767" lon="11.8419917"><ele>244.0</ele><time>2026-04-04T10:09:17.261Z</time></trkpt><trkpt lat="43.3407933" lon="11.8419833"><ele>243.99999999999997</ele><time>2026-04-04T10:09:19.261Z</time></trkpt><trkpt lat="43.3409067" lon="11.8419733"><ele>243.99999999999997</ele><time>2026-04-04T10:09:21.263Z</time></trkpt><trkpt lat="43.3410067" lon="11.841975"><ele>244.0</ele><time>2026-04-04T10:09:23.26Z</time></trkpt><trkpt lat="43.3411083" lon="11.841985"><ele>244.0</ele><time>2026-04-04T10:09:25.258Z</time></trkpt><trkpt lat="43.3412217" lon="11.841985"><ele>244.0</ele><time>2026-04-04T10:09:27.26Z</time></trkpt><trkpt lat="43.341335" lon="11.84198"><ele>243.99999999999997</ele><time>2026-04-04T10:09:29.26Z</time></trkpt><trkpt lat="43.3414467" lon="11.84198"><ele>243.99999999999997</ele><time>2026-04-04T10:09:31.26Z</time></trkpt><trkpt lat="43.3415533" lon="11.8419617"><ele>244.0</ele><time>2026-04-04T10:09:33.26Z</time></trkpt><trkpt lat="43.3416517" lon="11.8419583"><ele>244.0</ele><time>2026-04-04T10:09:35.262Z</time></trkpt><trkpt lat="43.3417517" lon="11.8419633"><ele>244.2</ele><time>2026-04-04T10:09:37.261Z</time></trkpt><trkpt lat="43.34185" lon="11.8419717"><ele>244.39999999999998</ele><time>2026-04-04T10:09:39.259Z</time></trkpt><trkpt lat="43.341955" lon="11.8419717"><ele>244.6</ele><time>2026-04-04T10:09:41.261Z</time></trkpt><trkpt lat="43.3420617" lon="11.8419683"><ele>244.8</ele><time>2026-04-04T10:09:43.26Z</time></trkpt><trkpt lat="43.34217" lon="11.8419683"><ele>245.0</ele><time>2026-04-04T10:09:45.261Z</time></trkpt><trkpt lat="43.3422717" lon="11.84197"><ele>245.6</ele><time>2026-04-04T10:09:47.257Z</time></trkpt><trkpt lat="43.3423767" lon="11.8419767"><ele>246.2</ele><time>2026-04-04T10:09:49.257Z</time></trkpt><trkpt lat="43.3424833" lon="11.841975"><ele>246.8</ele><time>2026-04-04T10:09:51.26Z</time></trkpt><trkpt lat="43.3425933" lon="11.84197"><ele>247.4</ele><time>2026-04-04T10:09:53.256Z</time></trkpt><trkpt lat="43.3427" lon="11.8419733"><ele>248.0</ele><time>2026-04-04T10:09:55.26Z</time></trkpt><trkpt lat="43.34281" lon="11.8419683"><ele>248.0</ele><time>2026-04-04T10:09:57.257Z</time></trkpt><trkpt lat="43.3429217" lon="11.8419667"><ele>248.0</ele><time>2026-04-04T10:09:59.262Z</time></trkpt><trkpt lat="43.343025" lon="11.841965"><ele>248.0</ele><time>2026-04-04T10:10:01.257Z</time></trkpt><trkpt lat="43.3431333" lon="11.8419617"><ele>248.0</ele><time>2026-04-04T10:10:03.257Z</time></trkpt><trkpt lat="43.343235" lon="11.8419517"><ele>248.0</ele><time>2026-04-04T10:10:05.26Z</time></trkpt><trkpt lat="43.3433383" lon="11.84194"><ele>247.8</ele><time>2026-04-04T10:10:07.257Z</time></trkpt><trkpt lat="43.3434333" lon="11.8419233"><ele>247.60000000000002</ele><time>2026-04-04T10:10:09.258Z</time></trkpt><trkpt lat="43.3435367" lon="11.8418867"><ele>247.39999999999998</ele><time>2026-04-04T10:10:11.257Z</time></trkpt><trkpt lat="43.3436383" lon="11.8418233"><ele>247.2</ele><time>2026-04-04T10:10:13.258Z</time></trkpt><trkpt lat="43.3437283" lon="11.8417467"><ele>247.0</ele><time>2026-04-04T10:10:15.262Z</time></trkpt><trkpt lat="43.3438167" lon="11.8416617"><ele>246.8</ele><time>2026-04-04T10:10:17.262Z</time></trkpt><trkpt lat="43.3439083" lon="11.8415817"><ele>246.6</ele><time>2026-04-04T10:10:19.261Z</time></trkpt><trkpt lat="43.3439933" lon="11.8414933"><ele>246.40000000000003</ele><time>2026-04-04T10:10:21.266Z</time></trkpt><trkpt lat="43.3440867" lon="11.8414067"><ele>246.20000000000002</ele><time>2026-04-04T10:10:23.261Z</time></trkpt><trkpt lat="43.3441833" lon="11.84132"><ele>246.0</ele><time>2026-04-04T10:10:25.261Z</time></trkpt><trkpt lat="43.3442867" lon="11.8412383"><ele>246.0</ele><time>2026-04-04T10:10:27.263Z</time></trkpt><trkpt lat="43.3443867" lon="11.8411517"><ele>246.0</ele><time>2026-04-04T10:10:29.261Z</time></trkpt><trkpt lat="43.34449" lon="11.8410667"><ele>246.0</ele><time>2026-04-04T10:10:31.259Z</time></trkpt><trkpt lat="43.34459" lon="11.8409767"><ele>246.0</ele><time>2026-04-04T10:10:33.259Z</time></trkpt><trkpt lat="43.3446817" lon="11.8408833"><ele>245.8</ele><time>2026-04-04T10:10:35.262Z</time></trkpt><trkpt lat="43.3447733" lon="11.8407917"><ele>245.60000000000002</ele><time>2026-04-04T10:10:37.26Z</time></trkpt><trkpt lat="43.3448717" lon="11.8406983"><ele>245.4</ele><time>2026-04-04T10:10:39.259Z</time></trkpt><trkpt lat="43.3449717" lon="11.8405983"><ele>245.2</ele><time>2026-04-04T10:10:41.258Z</time></trkpt><trkpt lat="43.3450233" lon="11.8405433"><ele>245.0</ele><time>2026-04-04T10:10:42.26Z</time></trkpt><trkpt lat="43.345125" lon="11.8404567"><ele>245.0</ele><time>2026-04-04T10:10:44.258Z</time></trkpt><trkpt lat="43.3452233" lon="11.8403733"><ele>245.0</ele><time>2026-04-04T10:10:46.257Z</time></trkpt><trkpt lat="43.3453217" lon="11.8402883"><ele>245.0</ele><time>2026-04-04T10:10:48.258Z</time></trkpt><trkpt lat="43.3454267" lon="11.8401983"><ele>245.0</ele><time>2026-04-04T10:10:50.259Z</time></trkpt><trkpt lat="43.3454817" lon="11.8401533"><ele>245.0</ele><time>2026-04-04T10:10:51.267Z</time></trkpt><trkpt lat="43.3455383" lon="11.8401083"><ele>244.83333333333334</ele><time>2026-04-04T10:10:52.263Z</time></trkpt><trkpt lat="43.3455983" lon="11.8400667"><ele>244.66666666666669</ele><time>2026-04-04T10:10:53.259Z</time></trkpt><trkpt lat="43.3456567" lon="11.8400233"><ele>244.5</ele><time>2026-04-04T10:10:54.263Z</time></trkpt><trkpt lat="43.345715" lon="11.8399817"><ele>244.33333333333331</ele><time>2026-04-04T10:10:55.26Z</time></trkpt><trkpt lat="43.3457767" lon="11.8399417"><ele>244.16666666666666</ele><time>2026-04-04T10:10:56.259Z</time></trkpt><trkpt lat="43.3458383" lon="11.839905"><ele>244.0</ele><time>2026-04-04T10:10:57.261Z</time></trkpt><trkpt lat="43.3459567" lon="11.839855"><ele>244.0</ele><time>2026-04-04T10:10:59.26Z</time></trkpt><trkpt lat="43.34602" lon="11.8398467"><ele>243.99999999999997</ele><time>2026-04-04T10:11:00.258Z</time></trkpt><trkpt lat="43.3461433" lon="11.839845"><ele>243.99999999999997</ele><time>2026-04-04T10:11:02.258Z</time></trkpt><trkpt lat="43.346265" lon="11.8398583"><ele>244.0</ele><time>2026-04-04T10:11:04.257Z</time></trkpt><trkpt lat="43.3463917" lon="11.8398767"><ele>244.0</ele><time>2026-04-04T10:11:06.259Z</time></trkpt><trkpt lat="43.3465133" lon="11.8399017"><ele>244.2</ele><time>2026-04-04T10:11:08.258Z</time></trkpt><trkpt lat="43.3465783" lon="11.8399133"><ele>244.39999999999998</ele><time>2026-04-04T10:11:09.256Z</time></trkpt><trkpt lat="43.3467033" lon="11.839925"><ele>244.6</ele><time>2026-04-04T10:11:11.262Z</time></trkpt><trkpt lat="43.346825" lon="11.8399417"><ele>244.8</ele><time>2026-04-04T10:11:13.26Z</time></trkpt><trkpt lat="43.3468883" lon="11.8399533"><ele>245.0</ele><time>2026-04-04T10:11:14.258Z</time></trkpt><trkpt lat="43.3470117" lon="11.8399817"><ele>245.0</ele><time>2026-04-04T10:11:16.258Z</time></trkpt><trkpt lat="43.3471367" lon="11.84"><ele>245.0</ele><time>2026-04-04T10:11:18.26Z</time></trkpt><trkpt lat="43.347255" lon="11.8400167"><ele>245.0</ele><time>2026-04-04T10:11:20.259Z</time></trkpt><trkpt lat="43.347375" lon="11.8400267"><ele>245.0</ele><time>2026-04-04T10:11:22.26Z</time></trkpt><trkpt lat="43.347495" lon="11.8400217"><ele>245.25</ele><time>2026-04-04T10:11:24.259Z</time></trkpt><trkpt lat="43.347615" lon="11.840015"><ele>245.5</ele><time>2026-04-04T10:11:26.261Z</time></trkpt><trkpt lat="43.3477317" lon="11.8400083"><ele>245.75</ele><time>2026-04-04T10:11:28.26Z</time></trkpt><trkpt lat="43.3478467" lon="11.839995"><ele>246.0</ele><time>2026-04-04T10:11:30.261Z</time></trkpt><trkpt lat="43.347965" lon="11.8399767"><ele>245.75</ele><time>2026-04-04T10:11:32.257Z</time></trkpt><trkpt lat="43.3480833" lon="11.8399583"><ele>245.5</ele><time>2026-04-04T10:11:34.26Z</time></trkpt><trkpt lat="43.3482" lon="11.8399467"><ele>245.25</ele><time>2026-04-04T10:11:36.256Z</time></trkpt><trkpt lat="43.348315" lon="11.8399383"><ele>245.0</ele><time>2026-04-04T10:11:38.258Z</time></trkpt><trkpt lat="43.34843" lon="11.8399267"><ele>245.0</ele><time>2026-04-04T10:11:40.258Z</time></trkpt><trkpt lat="43.3485467" lon="11.8399083"><ele>245.0</ele><time>2026-04-04T10:11:42.258Z</time></trkpt><trkpt lat="43.3486633" lon="11.8398867"><ele>245.0</ele><time>2026-04-04T10:11:44.257Z</time></trkpt><trkpt lat="43.3487817" lon="11.839865"><ele>245.0</ele><time>2026-04-04T10:11:46.258Z</time></trkpt><trkpt lat="43.3489" lon="11.839845"><ele>245.25</ele><time>2026-04-04T10:11:48.261Z</time></trkpt><trkpt lat="43.3490183" lon="11.8398233"><ele>245.5</ele><time>2026-04-04T10:11:50.258Z</time></trkpt><trkpt lat="43.3491333" lon="11.8398033"><ele>245.75</ele><time>2026-04-04T10:11:52.259Z</time></trkpt><trkpt lat="43.3492517" lon="11.8397867"><ele>246.0</ele><time>2026-04-04T10:11:54.258Z</time></trkpt><trkpt lat="43.3493683" lon="11.8397717"><ele>246.0</ele><time>2026-04-04T10:11:56.259Z</time></trkpt><trkpt lat="43.3494867" lon="11.839755"><ele>246.0</ele><time>2026-04-04T10:11:58.258Z</time></trkpt><trkpt lat="43.3496083" lon="11.8397383"><ele>246.0</ele><time>2026-04-04T10:12:00.258Z</time></trkpt><trkpt lat="43.34973" lon="11.8397217"><ele>246.0</ele><time>2026-04-04T10:12:02.259Z</time></trkpt><trkpt lat="43.3498467" lon="11.839715"><ele>245.75</ele><time>2026-04-04T10:12:04.258Z</time></trkpt><trkpt lat="43.349965" lon="11.8397017"><ele>245.5</ele><time>2026-04-04T10:12:06.259Z</time></trkpt><trkpt lat="43.350085" lon="11.8396833"><ele>245.25</ele><time>2026-04-04T10:12:08.26Z</time></trkpt><trkpt lat="43.3502033" lon="11.839665"><ele>245.0</ele><time>2026-04-04T10:12:10.259Z</time></trkpt><trkpt lat="43.3503233" lon="11.8396467"><ele>245.0</ele><time>2026-04-04T10:12:12.259Z</time></trkpt><trkpt lat="43.3504417" lon="11.8396317"><ele>245.0</ele><time>2026-04-04T10:12:14.259Z</time></trkpt><trkpt lat="43.3505633" lon="11.839615"><ele>245.0</ele><time>2026-04-04T10:12:16.259Z</time></trkpt><trkpt lat="43.3506817" lon="11.8395917"><ele>245.0</ele><time>2026-04-04T10:12:18.262Z</time></trkpt><trkpt lat="43.3507983" lon="11.8395783"><ele>245.0</ele><time>2026-04-04T10:12:20.259Z</time></trkpt><trkpt lat="43.3509167" lon="11.8395833"><ele>245.0</ele><time>2026-04-04T10:12:22.257Z</time></trkpt><trkpt lat="43.35103" lon="11.8396117"><ele>245.0</ele><time>2026-04-04T10:12:24.258Z</time></trkpt><trkpt lat="43.3511367" lon="11.83968"><ele>245.0</ele><time>2026-04-04T10:12:26.258Z</time></trkpt><trkpt lat="43.3512417" lon="11.8397533"><ele>245.0</ele><time>2026-04-04T10:12:28.257Z</time></trkpt><trkpt lat="43.3513383" lon="11.839835"><ele>245.0</ele><time>2026-04-04T10:12:30.259Z</time></trkpt><trkpt lat="43.35144" lon="11.83992"><ele>245.0</ele><time>2026-04-04T10:12:32.258Z</time></trkpt><trkpt lat="43.3515383" lon="11.8400067"><ele>245.0</ele><time>2026-04-04T10:12:34.259Z</time></trkpt><trkpt lat="43.3516483" lon="11.8400933"><ele>245.4</ele><time>2026-04-04T10:12:36.259Z</time></trkpt><trkpt lat="43.351705" lon="11.8401383"><ele>245.8</ele><time>2026-04-04T10:12:37.259Z</time></trkpt><trkpt lat="43.35176" lon="11.8401817"><ele>246.2</ele><time>2026-04-04T10:12:38.256Z</time></trkpt><trkpt lat="43.3518633" lon="11.8402617"><ele>246.6</ele><time>2026-04-04T10:12:40.259Z</time></trkpt><trkpt lat="43.3519667" lon="11.8403333"><ele>247.0</ele><time>2026-04-04T10:12:42.258Z</time></trkpt><trkpt lat="43.3520783" lon="11.8403933"><ele>247.0</ele><time>2026-04-04T10:12:44.261Z</time></trkpt><trkpt lat="43.3521867" lon="11.84041"><ele>247.0</ele><time>2026-04-04T10:12:46.257Z</time></trkpt><trkpt lat="43.3522833" lon="11.8403783"><ele>247.0</ele><time>2026-04-04T10:12:48.262Z</time></trkpt><trkpt lat="43.3523767" lon="11.8403267"><ele>247.0</ele><time>2026-04-04T10:12:50.263Z</time></trkpt><trkpt lat="43.3524667" lon="11.84026"><ele>247.0</ele><time>2026-04-04T10:12:52.261Z</time></trkpt><trkpt lat="43.3525583" lon="11.8401883"><ele>247.39999999999998</ele><time>2026-04-04T10:12:54.257Z</time></trkpt><trkpt lat="43.3526517" lon="11.840125"><ele>247.79999999999998</ele><time>2026-04-04T10:12:56.26Z</time></trkpt><trkpt lat="43.3527417" lon="11.8400483"><ele>248.2</ele><time>2026-04-04T10:12:58.263Z</time></trkpt><trkpt lat="43.35284" lon="11.83996"><ele>248.6</ele><time>2026-04-04T10:13:00.26Z</time></trkpt><trkpt lat="43.3529333" lon="11.839875"><ele>249.0</ele><time>2026-04-04T10:13:02.262Z</time></trkpt><trkpt lat="43.353035" lon="11.83978"><ele>250.2</ele><time>2026-04-04T10:13:04.259Z</time></trkpt><trkpt lat="43.35309" lon="11.8397367"><ele>251.39999999999998</ele><time>2026-04-04T10:13:05.259Z</time></trkpt><trkpt lat="43.353195" lon="11.8396433"><ele>252.6</ele><time>2026-04-04T10:13:07.257Z</time></trkpt><trkpt lat="43.3532483" lon="11.8395967"><ele>253.8</ele><time>2026-04-04T10:13:08.259Z</time></trkpt><trkpt lat="43.3533567" lon="11.8395167"><ele>255.0</ele><time>2026-04-04T10:13:10.259Z</time></trkpt><trkpt lat="43.3534683" lon="11.8394617"><ele>255.0</ele><time>2026-04-04T10:13:12.262Z</time></trkpt><trkpt lat="43.35357" lon="11.8393817"><ele>255.0</ele><time>2026-04-04T10:13:14.259Z</time></trkpt><trkpt lat="43.3536133" lon="11.83923"><ele>255.0</ele><time>2026-04-04T10:13:16.26Z</time></trkpt><trkpt lat="43.3535967" lon="11.8390633"><ele>255.0</ele><time>2026-04-04T10:13:18.262Z</time></trkpt><trkpt lat="43.3535717" lon="11.8389817"><ele>255.0</ele><time>2026-04-04T10:13:19.262Z</time></trkpt><trkpt lat="43.3535417" lon="11.8389017"><ele>254.14285714285717</ele><time>2026-04-04T10:13:20.26Z</time></trkpt><trkpt lat="43.3535083" lon="11.8388217"><ele>253.2857142857143</ele><time>2026-04-04T10:13:21.259Z</time></trkpt><trkpt lat="43.3534767" lon="11.8387383"><ele>252.42857142857144</ele><time>2026-04-04T10:13:22.264Z</time></trkpt><trkpt lat="43.3534483" lon="11.8386533"><ele>251.57142857142856</ele><time>2026-04-04T10:13:23.259Z</time></trkpt><trkpt lat="43.3534233" lon="11.838565"><ele>250.7142857142857</ele><time>2026-04-04T10:13:24.262Z</time></trkpt><trkpt lat="43.3534" lon="11.8384767"><ele>249.85714285714283</ele><time>2026-04-04T10:13:25.261Z</time></trkpt><trkpt lat="43.3533817" lon="11.838385"><ele>249.0</ele><time>2026-04-04T10:13:26.26Z</time></trkpt><trkpt lat="43.3533633" lon="11.838295"><ele>248.57142857142856</ele><time>2026-04-04T10:13:27.259Z</time></trkpt><trkpt lat="43.3533483" lon="11.838205"><ele>248.1428571428571</ele><time>2026-04-04T10:13:28.262Z</time></trkpt><trkpt lat="43.3533333" lon="11.8381133"><ele>247.71428571428572</ele><time>2026-04-04T10:13:29.26Z</time></trkpt><trkpt lat="43.3533233" lon="11.83802"><ele>247.28571428571428</ele><time>2026-04-04T10:13:30.262Z</time></trkpt><trkpt lat="43.353315" lon="11.8379283"><ele>246.85714285714286</ele><time>2026-04-04T10:13:31.262Z</time></trkpt><trkpt lat="43.3533033" lon="11.8378367"><ele>246.42857142857144</ele><time>2026-04-04T10:13:32.26Z</time></trkpt><trkpt lat="43.3532983" lon="11.8377467"><ele>246.00000000000003</ele><time>2026-04-04T10:13:33.257Z</time></trkpt><trkpt lat="43.353295" lon="11.8376533"><ele>245.8</ele><time>2026-04-04T10:13:34.257Z</time></trkpt><trkpt lat="43.3532933" lon="11.8375617"><ele>245.60000000000002</ele><time>2026-04-04T10:13:35.255Z</time></trkpt><trkpt lat="43.353285" lon="11.8374133"><ele>245.4</ele><time>2026-04-04T10:13:37.254Z</time></trkpt><trkpt lat="43.3532733" lon="11.83726"><ele>245.2</ele><time>2026-04-04T10:13:39.26Z</time></trkpt><trkpt lat="43.353255" lon="11.8370883"><ele>245.0</ele><time>2026-04-04T10:13:41.26Z</time></trkpt><trkpt lat="43.3532483" lon="11.837"><ele>245.0</ele><time>2026-04-04T10:13:42.259Z</time></trkpt><trkpt lat="43.3532417" lon="11.8369117"><ele>245.0</ele><time>2026-04-04T10:13:43.261Z</time></trkpt><trkpt lat="43.35323" lon="11.8368217"><ele>245.0</ele><time>2026-04-04T10:13:44.263Z</time></trkpt><trkpt lat="43.3532183" lon="11.8367333"><ele>245.0</ele><time>2026-04-04T10:13:45.259Z</time></trkpt><trkpt lat="43.3532083" lon="11.8366433"><ele>245.0</ele><time>2026-04-04T10:13:46.257Z</time></trkpt><trkpt lat="43.3532" lon="11.836555"><ele>245.0</ele><time>2026-04-04T10:13:47.258Z</time></trkpt><trkpt lat="43.35319" lon="11.8364667"><ele>245.0</ele><time>2026-04-04T10:13:48.261Z</time></trkpt><trkpt lat="43.3531833" lon="11.8363783"><ele>244.85714285714286</ele><time>2026-04-04T10:13:49.263Z</time></trkpt><trkpt lat="43.3531783" lon="11.8362867"><ele>244.71428571428572</ele><time>2026-04-04T10:13:50.262Z</time></trkpt><trkpt lat="43.353175" lon="11.8361933"><ele>244.57142857142856</ele><time>2026-04-04T10:13:51.261Z</time></trkpt><trkpt lat="43.3531683" lon="11.8361033"><ele>244.42857142857142</ele><time>2026-04-04T10:13:52.259Z</time></trkpt><trkpt lat="43.35316" lon="11.836015"><ele>244.28571428571428</ele><time>2026-04-04T10:13:53.259Z</time></trkpt><trkpt lat="43.3531517" lon="11.835925"><ele>244.1428571428571</ele><time>2026-04-04T10:13:54.261Z</time></trkpt><trkpt lat="43.3531433" lon="11.835835"><ele>243.99999999999997</ele><time>2026-04-04T10:13:55.26Z</time></trkpt><trkpt lat="43.3531333" lon="11.8357433"><ele>243.99999999999997</ele><time>2026-04-04T10:13:56.261Z</time></trkpt><trkpt lat="43.353125" lon="11.8356533"><ele>244.0</ele><time>2026-04-04T10:13:57.262Z</time></trkpt><trkpt lat="43.3531167" lon="11.8355617"><ele>243.99999999999997</ele><time>2026-04-04T10:13:58.261Z</time></trkpt><trkpt lat="43.3531067" lon="11.83547"><ele>243.99999999999997</ele><time>2026-04-04T10:13:59.259Z</time></trkpt><trkpt lat="43.3530983" lon="11.8353767"><ele>244.0</ele><time>2026-04-04T10:14:00.259Z</time></trkpt><trkpt lat="43.3530883" lon="11.8352833"><ele>243.99999999999997</ele><time>2026-04-04T10:14:01.259Z</time></trkpt><trkpt lat="43.35308" lon="11.8351917"><ele>243.99999999999997</ele><time>2026-04-04T10:14:02.262Z</time></trkpt><trkpt lat="43.3530717" lon="11.8351017"><ele>243.99999999999997</ele><time>2026-04-04T10:14:03.263Z</time></trkpt><trkpt lat="43.3530617" lon="11.8350133"><ele>244.0</ele><time>2026-04-04T10:14:04.258Z</time></trkpt><trkpt lat="43.3530517" lon="11.8349217"><ele>243.99999999999997</ele><time>2026-04-04T10:14:05.259Z</time></trkpt><trkpt lat="43.353045" lon="11.83483"><ele>243.99999999999997</ele><time>2026-04-04T10:14:06.268Z</time></trkpt><trkpt lat="43.3530367" lon="11.83474"><ele>244.0</ele><time>2026-04-04T10:14:07.258Z</time></trkpt><trkpt lat="43.353025" lon="11.8346467"><ele>243.99999999999997</ele><time>2026-04-04T10:14:08.26Z</time></trkpt><trkpt lat="43.35302" lon="11.834555"><ele>243.99999999999997</ele><time>2026-04-04T10:14:09.262Z</time></trkpt><trkpt lat="43.3530117" lon="11.834465"><ele>243.99999999999997</ele><time>2026-04-04T10:14:10.26Z</time></trkpt><trkpt lat="43.353005" lon="11.8343733"><ele>244.0</ele><time>2026-04-04T10:14:11.258Z</time></trkpt><trkpt lat="43.3529967" lon="11.8342817"><ele>243.99999999999997</ele><time>2026-04-04T10:14:12.258Z</time></trkpt><trkpt lat="43.3529883" lon="11.83419"><ele>243.99999999999997</ele><time>2026-04-04T10:14:13.259Z</time></trkpt><trkpt lat="43.3529817" lon="11.8341017"><ele>244.0</ele><time>2026-04-04T10:14:14.264Z</time></trkpt><trkpt lat="43.3529733" lon="11.8340133"><ele>243.99999999999997</ele><time>2026-04-04T10:14:15.26Z</time></trkpt><trkpt lat="43.3529667" lon="11.8339233"><ele>243.99999999999997</ele><time>2026-04-04T10:14:16.258Z</time></trkpt><trkpt lat="43.35296" lon="11.833835"><ele>244.0</ele><time>2026-04-04T10:14:17.258Z</time></trkpt><trkpt lat="43.3529533" lon="11.8337433"><ele>243.99999999999997</ele><time>2026-04-04T10:14:18.261Z</time></trkpt><trkpt lat="43.352945" lon="11.8336517"><ele>243.99999999999997</ele><time>2026-04-04T10:14:19.258Z</time></trkpt><trkpt lat="43.3529383" lon="11.8335617"><ele>244.0</ele><time>2026-04-04T10:14:20.262Z</time></trkpt><trkpt lat="43.3529183" lon="11.8333883"><ele>244.0</ele><time>2026-04-04T10:14:22.258Z</time></trkpt><trkpt lat="43.3529017" lon="11.8332167"><ele>244.0</ele><time>2026-04-04T10:14:24.259Z</time></trkpt><trkpt lat="43.3528867" lon="11.8330467"><ele>244.0</ele><time>2026-04-04T10:14:26.258Z</time></trkpt><trkpt lat="43.35287" lon="11.83288"><ele>244.0</ele><time>2026-04-04T10:14:28.26Z</time></trkpt><trkpt lat="43.35285" lon="11.8327117"><ele>244.0</ele><time>2026-04-04T10:14:30.26Z</time></trkpt><trkpt lat="43.35283" lon="11.8325417"><ele>243.5</ele><time>2026-04-04T10:14:32.264Z</time></trkpt><trkpt lat="43.3528083" lon="11.832375"><ele>243.0</ele><time>2026-04-04T10:14:34.259Z</time></trkpt><trkpt lat="43.3527933" lon="11.832205"><ele>242.5</ele><time>2026-04-04T10:14:36.262Z</time></trkpt><trkpt lat="43.3527783" lon="11.8320383"><ele>242.0</ele><time>2026-04-04T10:14:38.259Z</time></trkpt><trkpt lat="43.3527617" lon="11.8318867"><ele>241.8</ele><time>2026-04-04T10:14:40.261Z</time></trkpt><trkpt lat="43.3527517" lon="11.8317417"><ele>241.6</ele><time>2026-04-04T10:14:42.258Z</time></trkpt><trkpt lat="43.35274" lon="11.8316017"><ele>241.40000000000003</ele><time>2026-04-04T10:14:44.264Z</time></trkpt><trkpt lat="43.352725" lon="11.8314583"><ele>241.20000000000002</ele><time>2026-04-04T10:14:46.255Z</time></trkpt><trkpt lat="43.3527167" lon="11.831315"><ele>241.0</ele><time>2026-04-04T10:14:48.257Z</time></trkpt><trkpt lat="43.3526967" lon="11.8311733"><ele>241.0</ele><time>2026-04-04T10:14:50.257Z</time></trkpt><trkpt lat="43.352685" lon="11.8310317"><ele>241.00000000000003</ele><time>2026-04-04T10:14:52.257Z</time></trkpt><trkpt lat="43.3526683" lon="11.8309"><ele>241.00000000000003</ele><time>2026-04-04T10:14:54.258Z</time></trkpt><trkpt lat="43.35265" lon="11.8307767"><ele>241.0</ele><time>2026-04-04T10:14:56.262Z</time></trkpt><trkpt lat="43.3526333" lon="11.8306617"><ele>241.0</ele><time>2026-04-04T10:14:58.257Z</time></trkpt><trkpt lat="43.352625" lon="11.8305517"><ele>241.14285714285717</ele><time>2026-04-04T10:15:00.258Z</time></trkpt><trkpt lat="43.3526133" lon="11.83045"><ele>241.2857142857143</ele><time>2026-04-04T10:15:02.258Z</time></trkpt><trkpt lat="43.3526033" lon="11.8303517"><ele>241.42857142857144</ele><time>2026-04-04T10:15:04.259Z</time></trkpt><trkpt lat="43.3525967" lon="11.830255"><ele>241.57142857142856</ele><time>2026-04-04T10:15:06.263Z</time></trkpt><trkpt lat="43.3525983" lon="11.830165"><ele>241.7142857142857</ele><time>2026-04-04T10:15:08.263Z</time></trkpt><trkpt lat="43.352605" lon="11.8300783"><ele>241.85714285714283</ele><time>2026-04-04T10:15:34.26Z</time></trkpt><trkpt lat="43.3525917" lon="11.829965"><ele>242.0</ele><time>2026-04-04T10:15:37.258Z</time></trkpt><trkpt lat="43.3525783" lon="11.8298717"><ele>242.00000000000003</ele><time>2026-04-04T10:15:39.26Z</time></trkpt><trkpt lat="43.3525683" lon="11.8297667"><ele>242.0</ele><time>2026-04-04T10:15:41.258Z</time></trkpt><trkpt lat="43.352555" lon="11.8296617"><ele>242.0</ele><time>2026-04-04T10:15:43.258Z</time></trkpt><trkpt lat="43.3525383" lon="11.8295533"><ele>242.0</ele><time>2026-04-04T10:15:45.26Z</time></trkpt><trkpt lat="43.35253" lon="11.8294283"><ele>242.00000000000003</ele><time>2026-04-04T10:15:47.259Z</time></trkpt><trkpt lat="43.35252" lon="11.8292933"><ele>242.0</ele><time>2026-04-04T10:15:49.26Z</time></trkpt><trkpt lat="43.3525117" lon="11.8291567"><ele>242.0</ele><time>2026-04-04T10:15:51.259Z</time></trkpt><trkpt lat="43.352495" lon="11.8290267"><ele>242.0</ele><time>2026-04-04T10:15:53.261Z</time></trkpt><trkpt lat="43.3524833" lon="11.8288967"><ele>242.0</ele><time>2026-04-04T10:15:55.258Z</time></trkpt><trkpt lat="43.3524733" lon="11.8287717"><ele>242.0</ele><time>2026-04-04T10:15:57.26Z</time></trkpt><trkpt lat="43.3524633" lon="11.8286517"><ele>242.0</ele><time>2026-04-04T10:15:59.262Z</time></trkpt><trkpt lat="43.3524533" lon="11.8285233"><ele>242.0</ele><time>2026-04-04T10:16:01.26Z</time></trkpt><trkpt lat="43.35244" lon="11.8283817"><ele>242.0</ele><time>2026-04-04T10:16:03.259Z</time></trkpt><trkpt lat="43.3524233" lon="11.8282417"><ele>242.0</ele><time>2026-04-04T10:16:05.26Z</time></trkpt><trkpt lat="43.352415" lon="11.8281"><ele>242.0</ele><time>2026-04-04T10:16:07.257Z</time></trkpt><trkpt lat="43.3524" lon="11.82796"><ele>242.0</ele><time>2026-04-04T10:16:09.259Z</time></trkpt><trkpt lat="43.3523867" lon="11.8278217"><ele>242.0</ele><time>2026-04-04T10:16:11.259Z</time></trkpt><trkpt lat="43.35237" lon="11.8276917"><ele>242.0</ele><time>2026-04-04T10:16:13.259Z</time></trkpt><trkpt lat="43.3523583" lon="11.8275517"><ele>242.0</ele><time>2026-04-04T10:16:15.266Z</time></trkpt><trkpt lat="43.352345" lon="11.8274117"><ele>242.0</ele><time>2026-04-04T10:16:17.259Z</time></trkpt><trkpt lat="43.3523267" lon="11.827265"><ele>242.0</ele><time>2026-04-04T10:16:19.258Z</time></trkpt><trkpt lat="43.3523133" lon="11.8271167"><ele>242.0</ele><time>2026-04-04T10:16:21.263Z</time></trkpt><trkpt lat="43.3523" lon="11.8269633"><ele>242.0</ele><time>2026-04-04T10:16:23.259Z</time></trkpt><trkpt lat="43.3522883" lon="11.82681"><ele>242.0</ele><time>2026-04-04T10:16:25.261Z</time></trkpt><trkpt lat="43.3522783" lon="11.82666"><ele>242.0</ele><time>2026-04-04T10:16:27.26Z</time></trkpt><trkpt lat="43.3522633" lon="11.8265117"><ele>242.0</ele><time>2026-04-04T10:16:29.259Z</time></trkpt><trkpt lat="43.3522517" lon="11.82636"><ele>242.0</ele><time>2026-04-04T10:16:31.263Z</time></trkpt><trkpt lat="43.3522383" lon="11.82621"><ele>242.0</ele><time>2026-04-04T10:16:33.258Z</time></trkpt><trkpt lat="43.3522233" lon="11.826055"><ele>242.0</ele><time>2026-04-04T10:16:35.259Z</time></trkpt><trkpt lat="43.3522067" lon="11.825895"><ele>242.0</ele><time>2026-04-04T10:16:37.26Z</time></trkpt><trkpt lat="43.3521933" lon="11.8257333"><ele>242.5</ele><time>2026-04-04T10:16:39.263Z</time></trkpt><trkpt lat="43.35218" lon="11.8255717"><ele>243.0</ele><time>2026-04-04T10:16:41.259Z</time></trkpt><trkpt lat="43.3521717" lon="11.825405"><ele>243.5</ele><time>2026-04-04T10:16:43.258Z</time></trkpt><trkpt lat="43.3521583" lon="11.82524"><ele>244.0</ele><time>2026-04-04T10:16:45.263Z</time></trkpt><trkpt lat="43.35214" lon="11.8250767"><ele>244.0</ele><time>2026-04-04T10:16:47.258Z</time></trkpt><trkpt lat="43.3521283" lon="11.824915"><ele>244.0</ele><time>2026-04-04T10:16:49.261Z</time></trkpt><trkpt lat="43.3521117" lon="11.8247583"><ele>244.0</ele><time>2026-04-04T10:16:51.259Z</time></trkpt><trkpt lat="43.352095" lon="11.8246"><ele>244.0</ele><time>2026-04-04T10:16:53.257Z</time></trkpt><trkpt lat="43.352075" lon="11.8244333"><ele>243.6</ele><time>2026-04-04T10:16:55.257Z</time></trkpt><trkpt lat="43.3520617" lon="11.824265"><ele>243.2</ele><time>2026-04-04T10:16:57.26Z</time></trkpt><trkpt lat="43.352055" lon="11.8241767"><ele>242.79999999999998</ele><time>2026-04-04T10:16:58.262Z</time></trkpt><trkpt lat="43.352055" lon="11.82409"><ele>242.39999999999998</ele><time>2026-04-04T10:16:59.262Z</time></trkpt><trkpt lat="43.35203" lon="11.8239283"><ele>242.0</ele><time>2026-04-04T10:17:01.259Z</time></trkpt><trkpt lat="43.3520083" lon="11.8237683"><ele>242.0</ele><time>2026-04-04T10:17:03.258Z</time></trkpt><trkpt lat="43.351985" lon="11.823605"><ele>242.0</ele><time>2026-04-04T10:17:05.258Z</time></trkpt><trkpt lat="43.3519633" lon="11.8234333"><ele>242.0</ele><time>2026-04-04T10:17:07.26Z</time></trkpt><trkpt lat="43.3519417" lon="11.82326"><ele>242.0</ele><time>2026-04-04T10:17:09.259Z</time></trkpt><trkpt lat="43.35193" lon="11.82317"><ele>242.0</ele><time>2026-04-04T10:17:10.259Z</time></trkpt><trkpt lat="43.3519167" lon="11.8230817"><ele>242.16666666666669</ele><time>2026-04-04T10:17:11.258Z</time></trkpt><trkpt lat="43.3519067" lon="11.8229917"><ele>242.33333333333334</ele><time>2026-04-04T10:17:12.26Z</time></trkpt><trkpt lat="43.3518983" lon="11.822905"><ele>242.5</ele><time>2026-04-04T10:17:13.257Z</time></trkpt><trkpt lat="43.3518783" lon="11.8227333"><ele>242.66666666666669</ele><time>2026-04-04T10:17:15.261Z</time></trkpt><trkpt lat="43.3518717" lon="11.8226467"><ele>242.83333333333334</ele><time>2026-04-04T10:17:16.259Z</time></trkpt><trkpt lat="43.3518583" lon="11.8224783"><ele>243.0</ele><time>2026-04-04T10:17:18.26Z</time></trkpt><trkpt lat="43.35184" lon="11.82231"><ele>243.4</ele><time>2026-04-04T10:17:20.262Z</time></trkpt><trkpt lat="43.3518267" lon="11.822225"><ele>243.8</ele><time>2026-04-04T10:17:21.263Z</time></trkpt><trkpt lat="43.3518117" lon="11.8220567"><ele>244.2</ele><time>2026-04-04T10:17:23.257Z</time></trkpt><trkpt lat="43.3518" lon="11.82189"><ele>244.6</ele><time>2026-04-04T10:17:25.258Z</time></trkpt><trkpt lat="43.35179" lon="11.8217267"><ele>245.0</ele><time>2026-04-04T10:17:27.26Z</time></trkpt><trkpt lat="43.351775" lon="11.8215733"><ele>245.0</ele><time>2026-04-04T10:17:29.256Z</time></trkpt><trkpt lat="43.351765" lon="11.821425"><ele>245.0</ele><time>2026-04-04T10:17:31.258Z</time></trkpt><trkpt lat="43.35175" lon="11.8212817"><ele>245.0</ele><time>2026-04-04T10:17:33.258Z</time></trkpt><trkpt lat="43.3517417" lon="11.82114"><ele>245.0</ele><time>2026-04-04T10:17:35.258Z</time></trkpt><trkpt lat="43.3517283" lon="11.8209983"><ele>245.0</ele><time>2026-04-04T10:17:37.261Z</time></trkpt><trkpt lat="43.351725" lon="11.8208567"><ele>244.8</ele><time>2026-04-04T10:17:39.256Z</time></trkpt><trkpt lat="43.3517117" lon="11.8207233"><ele>244.6</ele><time>2026-04-04T10:17:41.26Z</time></trkpt><trkpt lat="43.351695" lon="11.8205817"><ele>244.39999999999998</ele><time>2026-04-04T10:17:43.258Z</time></trkpt><trkpt lat="43.3516783" lon="11.8204417"><ele>244.2</ele><time>2026-04-04T10:17:45.262Z</time></trkpt><trkpt lat="43.3516617" lon="11.8203033"><ele>244.0</ele><time>2026-04-04T10:17:47.26Z</time></trkpt><trkpt lat="43.3516483" lon="11.8201633"><ele>243.79999999999998</ele><time>2026-04-04T10:17:49.259Z</time></trkpt><trkpt lat="43.351635" lon="11.820025"><ele>243.59999999999997</ele><time>2026-04-04T10:17:51.263Z</time></trkpt><trkpt lat="43.3516183" lon="11.8198867"><ele>243.4</ele><time>2026-04-04T10:17:53.262Z</time></trkpt><trkpt lat="43.351605" lon="11.8197483"><ele>243.2</ele><time>2026-04-04T10:17:55.259Z</time></trkpt><trkpt lat="43.35159" lon="11.8196117"><ele>243.0</ele><time>2026-04-04T10:17:57.259Z</time></trkpt><trkpt lat="43.351575" lon="11.81947"><ele>243.0</ele><time>2026-04-04T10:17:59.261Z</time></trkpt><trkpt lat="43.3515633" lon="11.8193317"><ele>243.0</ele><time>2026-04-04T10:18:01.26Z</time></trkpt><trkpt lat="43.35155" lon="11.8191933"><ele>243.0</ele><time>2026-04-04T10:18:03.258Z</time></trkpt><trkpt lat="43.3515333" lon="11.8190533"><ele>243.0</ele><time>2026-04-04T10:18:05.262Z</time></trkpt><trkpt lat="43.3515217" lon="11.8189117"><ele>243.0</ele><time>2026-04-04T10:18:07.259Z</time></trkpt><trkpt lat="43.3515117" lon="11.81877"><ele>243.2</ele><time>2026-04-04T10:18:09.257Z</time></trkpt><trkpt lat="43.351495" lon="11.81863"><ele>243.4</ele><time>2026-04-04T10:18:11.259Z</time></trkpt><trkpt lat="43.3514833" lon="11.8184817"><ele>243.59999999999997</ele><time>2026-04-04T10:18:13.258Z</time></trkpt><trkpt lat="43.3514733" lon="11.818335"><ele>243.79999999999998</ele><time>2026-04-04T10:18:15.26Z</time></trkpt><trkpt lat="43.3514633" lon="11.8181883"><ele>244.0</ele><time>2026-04-04T10:18:17.259Z</time></trkpt><trkpt lat="43.3514517" lon="11.8180417"><ele>244.39999999999998</ele><time>2026-04-04T10:18:19.264Z</time></trkpt><trkpt lat="43.3514383" lon="11.8179"><ele>244.79999999999998</ele><time>2026-04-04T10:18:21.257Z</time></trkpt><trkpt lat="43.3514317" lon="11.8177517"><ele>245.20000000000002</ele><time>2026-04-04T10:18:23.259Z</time></trkpt><trkpt lat="43.351415" lon="11.817615"><ele>245.60000000000002</ele><time>2026-04-04T10:18:25.26Z</time></trkpt><trkpt lat="43.3514017" lon="11.8174783"><ele>246.0</ele><time>2026-04-04T10:18:27.261Z</time></trkpt><trkpt lat="43.351385" lon="11.8173383"><ele>245.8</ele><time>2026-04-04T10:18:29.263Z</time></trkpt><trkpt lat="43.3513733" lon="11.8171967"><ele>245.60000000000002</ele><time>2026-04-04T10:18:31.263Z</time></trkpt><trkpt lat="43.3513567" lon="11.8170533"><ele>245.4</ele><time>2026-04-04T10:18:33.259Z</time></trkpt><trkpt lat="43.3513433" lon="11.8169133"><ele>245.2</ele><time>2026-04-04T10:18:35.265Z</time></trkpt><trkpt lat="43.35133" lon="11.8167767"><ele>245.0</ele><time>2026-04-04T10:18:37.259Z</time></trkpt><trkpt lat="43.3513167" lon="11.8166417"><ele>245.0</ele><time>2026-04-04T10:18:39.262Z</time></trkpt><trkpt lat="43.351305" lon="11.8165033"><ele>245.0</ele><time>2026-04-04T10:18:41.259Z</time></trkpt><trkpt lat="43.3512883" lon="11.8163633"><ele>245.0</ele><time>2026-04-04T10:18:43.259Z</time></trkpt><trkpt lat="43.3512733" lon="11.8162167"><ele>245.0</ele><time>2026-04-04T10:18:45.259Z</time></trkpt><trkpt lat="43.3512617" lon="11.8160667"><ele>245.0</ele><time>2026-04-04T10:18:47.257Z</time></trkpt><trkpt lat="43.3512517" lon="11.8159233"><ele>245.0</ele><time>2026-04-04T10:18:49.259Z</time></trkpt><trkpt lat="43.3512367" lon="11.815775"><ele>245.0</ele><time>2026-04-04T10:18:51.258Z</time></trkpt><trkpt lat="43.3512267" lon="11.815625"><ele>245.0</ele><time>2026-04-04T10:18:53.258Z</time></trkpt><trkpt lat="43.3512167" lon="11.8154733"><ele>245.0</ele><time>2026-04-04T10:18:55.258Z</time></trkpt><trkpt lat="43.3512017" lon="11.8153217"><ele>245.0</ele><time>2026-04-04T10:18:57.26Z</time></trkpt><trkpt lat="43.3511867" lon="11.8151733"><ele>245.0</ele><time>2026-04-04T10:18:59.257Z</time></trkpt><trkpt lat="43.35117" lon="11.8150267"><ele>245.0</ele><time>2026-04-04T10:19:01.26Z</time></trkpt><trkpt lat="43.3511533" lon="11.81488"><ele>245.0</ele><time>2026-04-04T10:19:03.259Z</time></trkpt><trkpt lat="43.3511383" lon="11.81473"><ele>245.0</ele><time>2026-04-04T10:19:05.262Z</time></trkpt><trkpt lat="43.351125" lon="11.8145817"><ele>245.0</ele><time>2026-04-04T10:19:07.259Z</time></trkpt><trkpt lat="43.3511133" lon="11.81443"><ele>245.25</ele><time>2026-04-04T10:19:09.259Z</time></trkpt><trkpt lat="43.3510983" lon="11.814275"><ele>245.5</ele><time>2026-04-04T10:19:11.258Z</time></trkpt><trkpt lat="43.3510867" lon="11.8141167"><ele>245.75</ele><time>2026-04-04T10:19:13.259Z</time></trkpt><trkpt lat="43.3510733" lon="11.81396"><ele>246.0</ele><time>2026-04-04T10:19:15.259Z</time></trkpt><trkpt lat="43.3510617" lon="11.8138067"><ele>246.0</ele><time>2026-04-04T10:19:17.259Z</time></trkpt><trkpt lat="43.3510433" lon="11.8136533"><ele>246.0</ele><time>2026-04-04T10:19:19.26Z</time></trkpt><trkpt lat="43.3510317" lon="11.8134933"><ele>246.0</ele><time>2026-04-04T10:19:21.257Z</time></trkpt><trkpt lat="43.3510183" lon="11.8133367"><ele>246.0</ele><time>2026-04-04T10:19:23.261Z</time></trkpt><trkpt lat="43.3510017" lon="11.813185"><ele>246.4</ele><time>2026-04-04T10:19:25.259Z</time></trkpt><trkpt lat="43.3509883" lon="11.813035"><ele>246.8</ele><time>2026-04-04T10:19:27.26Z</time></trkpt><trkpt lat="43.3509733" lon="11.8128883"><ele>247.20000000000002</ele><time>2026-04-04T10:19:29.258Z</time></trkpt><trkpt lat="43.3509567" lon="11.8127417"><ele>247.60000000000002</ele><time>2026-04-04T10:19:31.262Z</time></trkpt><trkpt lat="43.3509417" lon="11.8125983"><ele>248.0</ele><time>2026-04-04T10:19:33.261Z</time></trkpt><trkpt lat="43.3509217" lon="11.8124633"><ele>248.16666666666669</ele><time>2026-04-04T10:19:35.261Z</time></trkpt><trkpt lat="43.3509067" lon="11.8123333"><ele>248.33333333333334</ele><time>2026-04-04T10:19:37.259Z</time></trkpt><trkpt lat="43.3508967" lon="11.8122017"><ele>248.5</ele><time>2026-04-04T10:19:39.258Z</time></trkpt><trkpt lat="43.350885" lon="11.8120783"><ele>248.66666666666669</ele><time>2026-04-04T10:19:41.258Z</time></trkpt><trkpt lat="43.3508783" lon="11.8119633"><ele>248.83333333333334</ele><time>2026-04-04T10:19:43.257Z</time></trkpt><trkpt lat="43.35087" lon="11.8118567"><ele>249.0</ele><time>2026-04-04T10:19:45.258Z</time></trkpt><trkpt lat="43.3508567" lon="11.811755"><ele>249.14285714285714</ele><time>2026-04-04T10:19:47.259Z</time></trkpt><trkpt lat="43.3508467" lon="11.8116583"><ele>249.28571428571428</ele><time>2026-04-04T10:19:49.259Z</time></trkpt><trkpt lat="43.3508367" lon="11.811565"><ele>249.42857142857142</ele><time>2026-04-04T10:19:51.258Z</time></trkpt><trkpt lat="43.3508283" lon="11.8114717"><ele>249.57142857142856</ele><time>2026-04-04T10:19:53.26Z</time></trkpt><trkpt lat="43.3508217" lon="11.8113767"><ele>249.71428571428572</ele><time>2026-04-04T10:19:55.261Z</time></trkpt><trkpt lat="43.3508183" lon="11.8112867"><ele>249.85714285714283</ele><time>2026-04-04T10:19:57.26Z</time></trkpt><trkpt lat="43.3508467" lon="11.8111683"><ele>250.0</ele><time>2026-04-04T10:20:00.26Z</time></trkpt><trkpt lat="43.3509067" lon="11.8110817"><ele>249.99999999999997</ele><time>2026-04-04T10:20:03.258Z</time></trkpt><trkpt lat="43.3509933" lon="11.811035"><ele>250.0</ele><time>2026-04-04T10:20:06.262Z</time></trkpt><trkpt lat="43.3510633" lon="11.81101"><ele>250.0</ele><time>2026-04-04T10:20:08.262Z</time></trkpt><trkpt lat="43.3511767" lon="11.8109867"><ele>250.0</ele><time>2026-04-04T10:20:11.262Z</time></trkpt><trkpt lat="43.3512567" lon="11.8109817"><ele>249.99999999999997</ele><time>2026-04-04T10:20:13.262Z</time></trkpt><trkpt lat="43.351345" lon="11.8109667"><ele>250.0</ele><time>2026-04-04T10:20:15.262Z</time></trkpt><trkpt lat="43.3514417" lon="11.8109517"><ele>250.0</ele><time>2026-04-04T10:20:17.258Z</time></trkpt><trkpt lat="43.3515467" lon="11.8109317"><ele>250.0</ele><time>2026-04-04T10:20:19.26Z</time></trkpt><trkpt lat="43.351655" lon="11.8109083"><ele>250.0</ele><time>2026-04-04T10:20:21.262Z</time></trkpt><trkpt lat="43.3517667" lon="11.8108867"><ele>250.0</ele><time>2026-04-04T10:20:23.259Z</time></trkpt><trkpt lat="43.35188" lon="11.81086"><ele>250.0</ele><time>2026-04-04T10:20:25.26Z</time></trkpt><trkpt lat="43.3519933" lon="11.8108267"><ele>250.0</ele><time>2026-04-04T10:20:27.26Z</time></trkpt><trkpt lat="43.3521017" lon="11.8107983"><ele>250.0</ele><time>2026-04-04T10:20:29.259Z</time></trkpt><trkpt lat="43.35222" lon="11.8107683"><ele>250.0</ele><time>2026-04-04T10:20:31.26Z</time></trkpt><trkpt lat="43.3523317" lon="11.8107433"><ele>250.0</ele><time>2026-04-04T10:20:33.26Z</time></trkpt><trkpt lat="43.3524367" lon="11.8107167"><ele>249.4</ele><time>2026-04-04T10:20:35.263Z</time></trkpt><trkpt lat="43.3525433" lon="11.8106917"><ele>248.8</ele><time>2026-04-04T10:20:37.263Z</time></trkpt><trkpt lat="43.3526467" lon="11.8106683"><ele>248.2</ele><time>2026-04-04T10:20:39.258Z</time></trkpt><trkpt lat="43.3527517" lon="11.8106433"><ele>247.6</ele><time>2026-04-04T10:20:41.262Z</time></trkpt><trkpt lat="43.3528567" lon="11.8106183"><ele>247.0</ele><time>2026-04-04T10:20:43.264Z</time></trkpt><trkpt lat="43.35296" lon="11.8105917"><ele>247.2</ele><time>2026-04-04T10:20:45.258Z</time></trkpt><trkpt lat="43.3530667" lon="11.8105833"><ele>247.39999999999998</ele><time>2026-04-04T10:20:47.261Z</time></trkpt><trkpt lat="43.3531683" lon="11.8105667"><ele>247.60000000000002</ele><time>2026-04-04T10:20:49.259Z</time></trkpt><trkpt lat="43.3532717" lon="11.81055"><ele>247.8</ele><time>2026-04-04T10:20:51.26Z</time></trkpt><trkpt lat="43.3533783" lon="11.8105367"><ele>248.0</ele><time>2026-04-04T10:20:53.259Z</time></trkpt><trkpt lat="43.35349" lon="11.81051"><ele>248.0</ele><time>2026-04-04T10:20:55.263Z</time></trkpt><trkpt lat="43.3536033" lon="11.810485"><ele>248.0</ele><time>2026-04-04T10:20:57.261Z</time></trkpt><trkpt lat="43.35372" lon="11.8104567"><ele>248.0</ele><time>2026-04-04T10:20:59.259Z</time></trkpt><trkpt lat="43.3538383" lon="11.8104317"><ele>248.0</ele><time>2026-04-04T10:21:01.26Z</time></trkpt><trkpt lat="43.3539567" lon="11.8104033"><ele>248.5</ele><time>2026-04-04T10:21:03.262Z</time></trkpt><trkpt lat="43.3540667" lon="11.8103767"><ele>249.0</ele><time>2026-04-04T10:21:05.263Z</time></trkpt><trkpt lat="43.3541767" lon="11.8103467"><ele>249.5</ele><time>2026-04-04T10:21:07.26Z</time></trkpt><trkpt lat="43.3542867" lon="11.8103267"><ele>250.0</ele><time>2026-04-04T10:21:09.261Z</time></trkpt><trkpt lat="43.3544" lon="11.8103017"><ele>250.0</ele><time>2026-04-04T10:21:11.267Z</time></trkpt><trkpt lat="43.3545117" lon="11.8102833"><ele>250.0</ele><time>2026-04-04T10:21:13.26Z</time></trkpt><trkpt lat="43.3546183" lon="11.81026"><ele>250.0</ele><time>2026-04-04T10:21:15.26Z</time></trkpt><trkpt lat="43.35473" lon="11.810235"><ele>250.0</ele><time>2026-04-04T10:21:17.258Z</time></trkpt><trkpt lat="43.35484" lon="11.8102067"><ele>250.0</ele><time>2026-04-04T10:21:19.267Z</time></trkpt><trkpt lat="43.35495" lon="11.8101683"><ele>250.4</ele><time>2026-04-04T10:21:21.259Z</time></trkpt><trkpt lat="43.3550517" lon="11.8101367"><ele>250.8</ele><time>2026-04-04T10:21:23.261Z</time></trkpt><trkpt lat="43.35515" lon="11.8101017"><ele>251.2</ele><time>2026-04-04T10:21:25.258Z</time></trkpt><trkpt lat="43.3552433" lon="11.810055"><ele>251.6</ele><time>2026-04-04T10:21:27.259Z</time></trkpt><trkpt lat="43.35534" lon="11.810005"><ele>252.0</ele><time>2026-04-04T10:21:29.258Z</time></trkpt><trkpt lat="43.35543" lon="11.8099483"><ele>252.0</ele><time>2026-04-04T10:21:31.261Z</time></trkpt><trkpt lat="43.3555233" lon="11.8098917"><ele>252.0</ele><time>2026-04-04T10:21:33.262Z</time></trkpt><trkpt lat="43.3556217" lon="11.809835"><ele>252.0</ele><time>2026-04-04T10:21:35.259Z</time></trkpt><trkpt lat="43.355725" lon="11.8097733"><ele>252.0</ele><time>2026-04-04T10:21:37.261Z</time></trkpt><trkpt lat="43.3558317" lon="11.809705"><ele>252.0</ele><time>2026-04-04T10:21:39.261Z</time></trkpt><trkpt lat="43.3559383" lon="11.8096383"><ele>251.39999999999998</ele><time>2026-04-04T10:21:41.262Z</time></trkpt><trkpt lat="43.3560467" lon="11.80957"><ele>250.79999999999998</ele><time>2026-04-04T10:21:43.261Z</time></trkpt><trkpt lat="43.356105" lon="11.809535"><ele>250.2</ele><time>2026-04-04T10:21:44.259Z</time></trkpt><trkpt lat="43.3562167" lon="11.8094617"><ele>249.6</ele><time>2026-04-04T10:21:46.259Z</time></trkpt><trkpt lat="43.356275" lon="11.8094267"><ele>249.0</ele><time>2026-04-04T10:21:47.258Z</time></trkpt><trkpt lat="43.3563867" lon="11.8093433"><ele>249.25</ele><time>2026-04-04T10:21:49.263Z</time></trkpt><trkpt lat="43.356495" lon="11.8092633"><ele>249.5</ele><time>2026-04-04T10:21:51.26Z</time></trkpt><trkpt lat="43.356605" lon="11.80919"><ele>249.75</ele><time>2026-04-04T10:21:53.259Z</time></trkpt><trkpt lat="43.356705" lon="11.8091183"><ele>250.0</ele><time>2026-04-04T10:21:55.262Z</time></trkpt><trkpt lat="43.35681" lon="11.80905"><ele>250.0</ele><time>2026-04-04T10:21:57.258Z</time></trkpt><trkpt lat="43.3569117" lon="11.8089767"><ele>250.0</ele><time>2026-04-04T10:21:59.257Z</time></trkpt><trkpt lat="43.3570217" lon="11.8089083"><ele>250.0</ele><time>2026-04-04T10:22:01.261Z</time></trkpt><trkpt lat="43.3571333" lon="11.808845"><ele>250.0</ele><time>2026-04-04T10:22:03.259Z</time></trkpt><trkpt lat="43.3572433" lon="11.8087783"><ele>249.5</ele><time>2026-04-04T10:22:05.261Z</time></trkpt><trkpt lat="43.3573533" lon="11.8087167"><ele>249.0</ele><time>2026-04-04T10:22:07.261Z</time></trkpt><trkpt lat="43.357465" lon="11.8086517"><ele>248.5</ele><time>2026-04-04T10:22:09.264Z</time></trkpt><trkpt lat="43.3575783" lon="11.80859"><ele>248.0</ele><time>2026-04-04T10:22:11.261Z</time></trkpt><trkpt lat="43.3576933" lon="11.8085333"><ele>248.5</ele><time>2026-04-04T10:22:13.258Z</time></trkpt><trkpt lat="43.3578067" lon="11.8084733"><ele>249.0</ele><time>2026-04-04T10:22:15.263Z</time></trkpt><trkpt lat="43.35792" lon="11.8084167"><ele>249.5</ele><time>2026-04-04T10:22:17.263Z</time></trkpt><trkpt lat="43.3580317" lon="11.8083617"><ele>250.0</ele><time>2026-04-04T10:22:19.262Z</time></trkpt><trkpt lat="43.35814" lon="11.80831"><ele>250.0</ele><time>2026-04-04T10:22:21.259Z</time></trkpt><trkpt lat="43.3582483" lon="11.8082583"><ele>250.0</ele><time>2026-04-04T10:22:23.262Z</time></trkpt><trkpt lat="43.35835" lon="11.8082067"><ele>250.0</ele><time>2026-04-04T10:22:25.258Z</time></trkpt><trkpt lat="43.358445" lon="11.8081583"><ele>250.0</ele><time>2026-04-04T10:22:27.26Z</time></trkpt><trkpt lat="43.3585533" lon="11.8081183"><ele>250.0</ele><time>2026-04-04T10:22:29.259Z</time></trkpt><trkpt lat="43.3586533" lon="11.8080683"><ele>250.0</ele><time>2026-04-04T10:22:31.263Z</time></trkpt><trkpt lat="43.3587533" lon="11.8080283"><ele>250.0</ele><time>2026-04-04T10:22:33.263Z</time></trkpt><trkpt lat="43.3588517" lon="11.8079817"><ele>250.0</ele><time>2026-04-04T10:22:35.258Z</time></trkpt><trkpt lat="43.3589517" lon="11.8079433"><ele>250.0</ele><time>2026-04-04T10:22:37.262Z</time></trkpt><trkpt lat="43.359045" lon="11.8079083"><ele>250.0</ele><time>2026-04-04T10:22:39.263Z</time></trkpt><trkpt lat="43.35913" lon="11.8078717"><ele>249.6</ele><time>2026-04-04T10:22:41.261Z</time></trkpt><trkpt lat="43.35921" lon="11.807845"><ele>249.2</ele><time>2026-04-04T10:22:43.264Z</time></trkpt><trkpt lat="43.359295" lon="11.8078233"><ele>248.8</ele><time>2026-04-04T10:22:45.259Z</time></trkpt><trkpt lat="43.3593933" lon="11.8078033"><ele>248.4</ele><time>2026-04-04T10:22:47.261Z</time></trkpt><trkpt lat="43.3594917" lon="11.8077867"><ele>248.0</ele><time>2026-04-04T10:22:49.261Z</time></trkpt><trkpt lat="43.3595917" lon="11.8077717"><ele>248.0</ele><time>2026-04-04T10:22:51.259Z</time></trkpt><trkpt lat="43.3596983" lon="11.8077617"><ele>248.0</ele><time>2026-04-04T10:22:53.26Z</time></trkpt><trkpt lat="43.3598017" lon="11.807745"><ele>248.0</ele><time>2026-04-04T10:22:55.261Z</time></trkpt><trkpt lat="43.3599167" lon="11.8077333"><ele>248.0</ele><time>2026-04-04T10:22:57.259Z</time></trkpt><trkpt lat="43.360025" lon="11.807725"><ele>248.0</ele><time>2026-04-04T10:22:59.262Z</time></trkpt><trkpt lat="43.3601383" lon="11.80771"><ele>247.75</ele><time>2026-04-04T10:23:01.26Z</time></trkpt><trkpt lat="43.3602483" lon="11.8076933"><ele>247.5</ele><time>2026-04-04T10:23:03.263Z</time></trkpt><trkpt lat="43.360365" lon="11.8076733"><ele>247.25</ele><time>2026-04-04T10:23:05.261Z</time></trkpt><trkpt lat="43.36048" lon="11.8076567"><ele>247.0</ele><time>2026-04-04T10:23:07.259Z</time></trkpt><trkpt lat="43.3605933" lon="11.80763"><ele>247.0</ele><time>2026-04-04T10:23:09.257Z</time></trkpt><trkpt lat="43.3606967" lon="11.8076083"><ele>247.0</ele><time>2026-04-04T10:23:11.257Z</time></trkpt><trkpt lat="43.360795" lon="11.8076017"><ele>247.0</ele><time>2026-04-04T10:23:13.262Z</time></trkpt><trkpt lat="43.3609033" lon="11.8075933"><ele>247.0</ele><time>2026-04-04T10:23:15.258Z</time></trkpt><trkpt lat="43.3610117" lon="11.807575"><ele>247.0</ele><time>2026-04-04T10:23:17.26Z</time></trkpt><trkpt lat="43.3611233" lon="11.8075567"><ele>247.0</ele><time>2026-04-04T10:23:19.26Z</time></trkpt><trkpt lat="43.3612317" lon="11.8075383"><ele>247.0</ele><time>2026-04-04T10:23:21.261Z</time></trkpt><trkpt lat="43.3613417" lon="11.8075183"><ele>247.0</ele><time>2026-04-04T10:23:23.258Z</time></trkpt><trkpt lat="43.3614517" lon="11.8074983"><ele>247.0</ele><time>2026-04-04T10:23:25.26Z</time></trkpt><trkpt lat="43.361565" lon="11.80747"><ele>247.0</ele><time>2026-04-04T10:23:27.259Z</time></trkpt><trkpt lat="43.3616767" lon="11.807445"><ele>247.2</ele><time>2026-04-04T10:23:29.261Z</time></trkpt><trkpt lat="43.36179" lon="11.80742"><ele>247.39999999999998</ele><time>2026-04-04T10:23:31.26Z</time></trkpt><trkpt lat="43.3618967" lon="11.8073967"><ele>247.60000000000002</ele><time>2026-04-04T10:23:33.263Z</time></trkpt><trkpt lat="43.3620017" lon="11.8073783"><ele>247.8</ele><time>2026-04-04T10:23:35.258Z</time></trkpt><trkpt lat="43.3621033" lon="11.8073617"><ele>248.0</ele><time>2026-04-04T10:23:37.265Z</time></trkpt><trkpt lat="43.3622017" lon="11.80735"><ele>248.0</ele><time>2026-04-04T10:23:39.259Z</time></trkpt><trkpt lat="43.362305" lon="11.8073433"><ele>248.0</ele><time>2026-04-04T10:23:41.259Z</time></trkpt><trkpt lat="43.362415" lon="11.807335"><ele>248.0</ele><time>2026-04-04T10:23:43.258Z</time></trkpt><trkpt lat="43.36252" lon="11.80732"><ele>248.0</ele><time>2026-04-04T10:23:45.258Z</time></trkpt><trkpt lat="43.3626233" lon="11.8073"><ele>248.0</ele><time>2026-04-04T10:23:47.26Z</time></trkpt><trkpt lat="43.36273" lon="11.80729"><ele>248.0</ele><time>2026-04-04T10:23:49.26Z</time></trkpt><trkpt lat="43.3628417" lon="11.8072767"><ele>248.0</ele><time>2026-04-04T10:23:51.257Z</time></trkpt><trkpt lat="43.3629583" lon="11.8072633"><ele>248.0</ele><time>2026-04-04T10:23:53.256Z</time></trkpt><trkpt lat="43.3630733" lon="11.807245"><ele>248.0</ele><time>2026-04-04T10:23:55.258Z</time></trkpt><trkpt lat="43.3631883" lon="11.807225"><ele>248.2</ele><time>2026-04-04T10:23:57.26Z</time></trkpt><trkpt lat="43.3633" lon="11.8072083"><ele>248.4</ele><time>2026-04-04T10:23:59.258Z</time></trkpt><trkpt lat="43.3634117" lon="11.80719"><ele>248.59999999999997</ele><time>2026-04-04T10:24:01.259Z</time></trkpt><trkpt lat="43.3635217" lon="11.8071783"><ele>248.79999999999998</ele><time>2026-04-04T10:24:03.258Z</time></trkpt><trkpt lat="43.3636283" lon="11.8071667"><ele>249.0</ele><time>2026-04-04T10:24:05.263Z</time></trkpt><trkpt lat="43.3637383" lon="11.80715"><ele>249.0</ele><time>2026-04-04T10:24:07.258Z</time></trkpt><trkpt lat="43.36385" lon="11.807135"><ele>249.0</ele><time>2026-04-04T10:24:09.257Z</time></trkpt><trkpt lat="43.3639617" lon="11.80712"><ele>249.0</ele><time>2026-04-04T10:24:11.257Z</time></trkpt><trkpt lat="43.364075" lon="11.8071067"><ele>249.0</ele><time>2026-04-04T10:24:13.26Z</time></trkpt><trkpt lat="43.3641867" lon="11.8070917"><ele>249.5</ele><time>2026-04-04T10:24:15.261Z</time></trkpt><trkpt lat="43.364305" lon="11.8070767"><ele>250.0</ele><time>2026-04-04T10:24:17.259Z</time></trkpt><trkpt lat="43.3644183" lon="11.8070717"><ele>250.5</ele><time>2026-04-04T10:24:19.255Z</time></trkpt><trkpt lat="43.364525" lon="11.8070733"><ele>251.0</ele><time>2026-04-04T10:24:21.259Z</time></trkpt><trkpt lat="43.3646383" lon="11.8070783"><ele>251.0</ele><time>2026-04-04T10:24:23.258Z</time></trkpt><trkpt lat="43.3647483" lon="11.80709"><ele>251.0</ele><time>2026-04-04T10:24:25.261Z</time></trkpt><trkpt lat="43.3648583" lon="11.8070983"><ele>251.0</ele><time>2026-04-04T10:24:27.259Z</time></trkpt><trkpt lat="43.3649767" lon="11.807115"><ele>251.0</ele><time>2026-04-04T10:24:29.257Z</time></trkpt><trkpt lat="43.3650883" lon="11.8071333"><ele>251.0</ele><time>2026-04-04T10:24:31.258Z</time></trkpt><trkpt lat="43.3652017" lon="11.8071567"><ele>251.00000000000003</ele><time>2026-04-04T10:24:33.261Z</time></trkpt><trkpt lat="43.3653167" lon="11.80718"><ele>251.00000000000003</ele><time>2026-04-04T10:24:35.259Z</time></trkpt><trkpt lat="43.3654367" lon="11.8072083"><ele>251.0</ele><time>2026-04-04T10:24:37.263Z</time></trkpt><trkpt lat="43.3655" lon="11.8072183"><ele>251.0</ele><time>2026-04-04T10:24:38.259Z</time></trkpt><trkpt lat="43.3656167" lon="11.807245"><ele>251.0</ele><time>2026-04-04T10:24:40.259Z</time></trkpt><trkpt lat="43.36573" lon="11.80727"><ele>251.00000000000003</ele><time>2026-04-04T10:24:42.259Z</time></trkpt><trkpt lat="43.3658383" lon="11.8072933"><ele>251.00000000000003</ele><time>2026-04-04T10:24:44.261Z</time></trkpt><trkpt lat="43.3659433" lon="11.8073233"><ele>251.0</ele><time>2026-04-04T10:24:46.263Z</time></trkpt><trkpt lat="43.3660467" lon="11.807345"><ele>251.0</ele><time>2026-04-04T10:24:48.259Z</time></trkpt><trkpt lat="43.366145" lon="11.8073667"><ele>251.0</ele><time>2026-04-04T10:24:50.26Z</time></trkpt><trkpt lat="43.3662383" lon="11.80739"><ele>251.00000000000003</ele><time>2026-04-04T10:24:52.258Z</time></trkpt><trkpt lat="43.36634" lon="11.80741"><ele>251.00000000000003</ele><time>2026-04-04T10:24:54.262Z</time></trkpt><trkpt lat="43.3664333" lon="11.807435"><ele>251.0</ele><time>2026-04-04T10:24:56.26Z</time></trkpt><trkpt lat="43.3665267" lon="11.8074533"><ele>251.0</ele><time>2026-04-04T10:24:58.267Z</time></trkpt><trkpt lat="43.36662" lon="11.80747"><ele>250.83333333333334</ele><time>2026-04-04T10:25:00.261Z</time></trkpt><trkpt lat="43.3667167" lon="11.8074867"><ele>250.66666666666669</ele><time>2026-04-04T10:25:02.259Z</time></trkpt><trkpt lat="43.36681" lon="11.8075183"><ele>250.5</ele><time>2026-04-04T10:25:04.259Z</time></trkpt><trkpt lat="43.3668817" lon="11.8075517"><ele>250.33333333333331</ele><time>2026-04-04T10:25:06.259Z</time></trkpt><trkpt lat="43.366955" lon="11.80756"><ele>250.16666666666666</ele><time>2026-04-04T10:25:08.261Z</time></trkpt><trkpt lat="43.3670233" lon="11.80757"><ele>250.0</ele><time>2026-04-04T10:25:10.262Z</time></trkpt><trkpt lat="43.3671033" lon="11.8075733"><ele>250.0</ele><time>2026-04-04T10:25:13.261Z</time></trkpt><trkpt lat="43.3671717" lon="11.80753"><ele>250.0</ele><time>2026-04-04T10:25:19.257Z</time></trkpt><trkpt lat="43.3672" lon="11.8074483"><ele>250.0</ele><time>2026-04-04T10:25:21.26Z</time></trkpt><trkpt lat="43.3672383" lon="11.8073733"><ele>250.0</ele><time>2026-04-04T10:25:23.26Z</time></trkpt><trkpt lat="43.3673017" lon="11.807305"><ele>250.0</ele><time>2026-04-04T10:25:25.259Z</time></trkpt><trkpt lat="43.3673683" lon="11.80725"><ele>250.0</ele><time>2026-04-04T10:25:27.26Z</time></trkpt><trkpt lat="43.3674233" lon="11.8071967"><ele>250.0</ele><time>2026-04-04T10:25:29.258Z</time></trkpt><trkpt lat="43.3674767" lon="11.80714"><ele>249.99999999999997</ele><time>2026-04-04T10:25:31.262Z</time></trkpt><trkpt lat="43.367525" lon="11.80708"><ele>250.0</ele><time>2026-04-04T10:25:33.26Z</time></trkpt><trkpt lat="43.367595" lon="11.8069833"><ele>250.0</ele><time>2026-04-04T10:25:36.262Z</time></trkpt><trkpt lat="43.3676533" lon="11.8069167"><ele>250.0</ele><time>2026-04-04T10:25:38.259Z</time></trkpt><trkpt lat="43.3677033" lon="11.8068517"><ele>249.99999999999997</ele><time>2026-04-04T10:25:40.258Z</time></trkpt><trkpt lat="43.3677733" lon="11.8067683"><ele>250.0</ele><time>2026-04-04T10:25:43.258Z</time></trkpt><trkpt lat="43.3678267" lon="11.8066717"><ele>250.33333333333331</ele><time>2026-04-04T10:25:46.257Z</time></trkpt><trkpt lat="43.367855" lon="11.8065683"><ele>250.66666666666666</ele><time>2026-04-04T10:25:49.26Z</time></trkpt><trkpt lat="43.3678583" lon="11.8064667"><ele>251.0</ele><time>2026-04-04T10:25:53.259Z</time></trkpt><trkpt lat="43.3679" lon="11.8063733"><ele>251.33333333333331</ele><time>2026-04-04T10:25:57.26Z</time></trkpt><trkpt lat="43.3679383" lon="11.8063"><ele>251.66666666666666</ele><time>2026-04-04T10:26:01.259Z</time></trkpt><trkpt lat="43.36801" lon="11.8062383"><ele>252.0</ele><time>2026-04-04T10:26:06.259Z</time></trkpt><trkpt lat="43.3680667" lon="11.80618"><ele>252.33333333333334</ele><time>2026-04-04T10:26:09.262Z</time></trkpt><trkpt lat="43.3681317" lon="11.8061233"><ele>252.66666666666669</ele><time>2026-04-04T10:26:12.261Z</time></trkpt><trkpt lat="43.3682017" lon="11.806075"><ele>253.0</ele><time>2026-04-04T10:26:15.258Z</time></trkpt><trkpt lat="43.3682633" lon="11.80604"><ele>253.33333333333334</ele><time>2026-04-04T10:26:18.26Z</time></trkpt><trkpt lat="43.36833" lon="11.8060033"><ele>253.66666666666669</ele><time>2026-04-04T10:26:21.26Z</time></trkpt><trkpt lat="43.3684017" lon="11.805955"><ele>254.0</ele><time>2026-04-04T10:26:25.259Z</time></trkpt><trkpt lat="43.3684833" lon="11.8059233"><ele>254.66666666666669</ele><time>2026-04-04T10:26:29.26Z</time></trkpt><trkpt lat="43.36855" lon="11.8058883"><ele>255.33333333333334</ele><time>2026-04-04T10:26:32.261Z</time></trkpt><trkpt lat="43.3686217" lon="11.8058383"><ele>256.0</ele><time>2026-04-04T10:26:36.259Z</time></trkpt><trkpt lat="43.3687017" lon="11.805805"><ele>256.6666666666667</ele><time>2026-04-04T10:26:40.264Z</time></trkpt><trkpt lat="43.3687733" lon="11.80575"><ele>257.3333333333333</ele><time>2026-04-04T10:26:43.258Z</time></trkpt><trkpt lat="43.3688233" lon="11.8056917"><ele>258.0</ele><time>2026-04-04T10:26:46.257Z</time></trkpt><trkpt lat="43.3688667" lon="11.8055917"><ele>257.99999999999994</ele><time>2026-04-04T10:26:51.258Z</time></trkpt><trkpt lat="43.3688783" lon="11.8054867"><ele>258.0</ele><time>2026-04-04T10:26:55.259Z</time></trkpt><trkpt lat="43.3688717" lon="11.8053967"><ele>258.0</ele><time>2026-04-04T10:26:59.26Z</time></trkpt><trkpt lat="43.3688533" lon="11.8053083"><ele>258.0</ele><time>2026-04-04T10:27:03.258Z</time></trkpt><trkpt lat="43.3688383" lon="11.8052133"><ele>258.0</ele><time>2026-04-04T10:27:07.261Z</time></trkpt><trkpt lat="43.3688133" lon="11.80511"><ele>257.99999999999994</ele><time>2026-04-04T10:27:11.264Z</time></trkpt><trkpt lat="43.3687917" lon="11.805025"><ele>258.0</ele><time>2026-04-04T10:27:14.263Z</time></trkpt><trkpt lat="43.36878" lon="11.8049133"><ele>258.57142857142856</ele><time>2026-04-04T10:27:17.259Z</time></trkpt><trkpt lat="43.3687783" lon="11.8048267"><ele>259.1428571428571</ele><time>2026-04-04T10:27:19.259Z</time></trkpt><trkpt lat="43.36878" lon="11.8047"><ele>259.7142857142857</ele><time>2026-04-04T10:27:22.259Z</time></trkpt><trkpt lat="43.3687817" lon="11.8046133"><ele>260.2857142857143</ele><time>2026-04-04T10:27:24.258Z</time></trkpt><trkpt lat="43.3687933" lon="11.8045217"><ele>260.8571428571429</ele><time>2026-04-04T10:27:26.257Z</time></trkpt><trkpt lat="43.3688017" lon="11.8044217"><ele>261.42857142857144</ele><time>2026-04-04T10:27:28.258Z</time></trkpt><trkpt lat="43.3688067" lon="11.8043"><ele>262.0</ele><time>2026-04-04T10:27:30.26Z</time></trkpt><trkpt lat="43.3688117" lon="11.8041917"><ele>262.0</ele><time>2026-04-04T10:27:32.261Z</time></trkpt><trkpt lat="43.36881" lon="11.804085"><ele>262.0</ele><time>2026-04-04T10:27:34.259Z</time></trkpt><trkpt lat="43.36884" lon="11.803985"><ele>262.0</ele><time>2026-04-04T10:27:36.261Z</time></trkpt><trkpt lat="43.3688867" lon="11.803885"><ele>262.0</ele><time>2026-04-04T10:27:38.26Z</time></trkpt><trkpt lat="43.368935" lon="11.8037883"><ele>262.0</ele><time>2026-04-04T10:27:40.258Z</time></trkpt><trkpt lat="43.3689767" lon="11.8036933"><ele>262.0</ele><time>2026-04-04T10:27:42.259Z</time></trkpt><trkpt lat="43.369015" lon="11.8036017"><ele>262.3333333333333</ele><time>2026-04-04T10:27:44.263Z</time></trkpt><trkpt lat="43.3690583" lon="11.80352"><ele>262.66666666666663</ele><time>2026-04-04T10:27:46.259Z</time></trkpt><trkpt lat="43.3691133" lon="11.803445"><ele>263.0</ele><time>2026-04-04T10:27:48.26Z</time></trkpt><trkpt lat="43.3691717" lon="11.8033733"><ele>263.3333333333333</ele><time>2026-04-04T10:27:50.26Z</time></trkpt><trkpt lat="43.3692333" lon="11.8033067"><ele>263.6666666666667</ele><time>2026-04-04T10:27:52.258Z</time></trkpt><trkpt lat="43.3692967" lon="11.8032467"><ele>264.0</ele><time>2026-04-04T10:27:54.263Z</time></trkpt><trkpt lat="43.3693617" lon="11.8031933"><ele>264.1666666666667</ele><time>2026-04-04T10:27:56.259Z</time></trkpt><trkpt lat="43.3694267" lon="11.8031433"><ele>264.3333333333333</ele><time>2026-04-04T10:27:58.26Z</time></trkpt><trkpt lat="43.3694933" lon="11.8030983"><ele>264.5</ele><time>2026-04-04T10:28:00.26Z</time></trkpt><trkpt lat="43.3695617" lon="11.8030567"><ele>264.66666666666663</ele><time>2026-04-04T10:28:02.262Z</time></trkpt><trkpt lat="43.3696333" lon="11.8030233"><ele>264.8333333333333</ele><time>2026-04-04T10:28:04.26Z</time></trkpt><trkpt lat="43.3697017" lon="11.802985"><ele>265.0</ele><time>2026-04-04T10:28:06.262Z</time></trkpt><trkpt lat="43.3697717" lon="11.8029383"><ele>264.99999999999994</ele><time>2026-04-04T10:28:08.261Z</time></trkpt><trkpt lat="43.3698317" lon="11.8028933"><ele>265.0</ele><time>2026-04-04T10:28:10.261Z</time></trkpt><trkpt lat="43.36989" lon="11.8028467"><ele>265.0</ele><time>2026-04-04T10:28:12.258Z</time></trkpt><trkpt lat="43.3699467" lon="11.802795"><ele>265.0</ele><time>2026-04-04T10:28:14.263Z</time></trkpt><trkpt lat="43.3700067" lon="11.8027433"><ele>265.0</ele><time>2026-04-04T10:28:16.261Z</time></trkpt><trkpt lat="43.3700633" lon="11.8026983"><ele>264.99999999999994</ele><time>2026-04-04T10:28:18.258Z</time></trkpt><trkpt lat="43.3701183" lon="11.8026483"><ele>265.0</ele><time>2026-04-04T10:28:20.26Z</time></trkpt><trkpt lat="43.3701817" lon="11.8025767"><ele>265.5</ele><time>2026-04-04T10:28:22.259Z</time></trkpt><trkpt lat="43.3702333" lon="11.8024783"><ele>266.0</ele><time>2026-04-04T10:28:24.262Z</time></trkpt><trkpt lat="43.370265" lon="11.80238"><ele>266.5</ele><time>2026-04-04T10:28:26.261Z</time></trkpt><trkpt lat="43.37031" lon="11.8022733"><ele>267.0</ele><time>2026-04-04T10:28:28.258Z</time></trkpt><trkpt lat="43.37035" lon="11.80217"><ele>267.5</ele><time>2026-04-04T10:28:30.264Z</time></trkpt><trkpt lat="43.3703867" lon="11.8020633"><ele>268.0</ele><time>2026-04-04T10:28:32.261Z</time></trkpt><trkpt lat="43.3704167" lon="11.8019583"><ele>268.0</ele><time>2026-04-04T10:28:34.257Z</time></trkpt><trkpt lat="43.3704383" lon="11.8018417"><ele>268.0</ele><time>2026-04-04T10:28:36.262Z</time></trkpt><trkpt lat="43.3704583" lon="11.8017333"><ele>268.0</ele><time>2026-04-04T10:28:38.263Z</time></trkpt><trkpt lat="43.3704733" lon="11.8016233"><ele>268.0</ele><time>2026-04-04T10:28:40.259Z</time></trkpt><trkpt lat="43.37049" lon="11.801515"><ele>268.0</ele><time>2026-04-04T10:28:42.259Z</time></trkpt><trkpt lat="43.3705167" lon="11.8014133"><ele>268.0</ele><time>2026-04-04T10:28:44.26Z</time></trkpt><trkpt lat="43.3705567" lon="11.80131"><ele>268.16666666666663</ele><time>2026-04-04T10:28:46.258Z</time></trkpt><trkpt lat="43.3705967" lon="11.801205"><ele>268.3333333333333</ele><time>2026-04-04T10:28:48.261Z</time></trkpt><trkpt lat="43.3706333" lon="11.8011017"><ele>268.5</ele><time>2026-04-04T10:28:50.26Z</time></trkpt><trkpt lat="43.3706683" lon="11.801005"><ele>268.6666666666667</ele><time>2026-04-04T10:28:52.26Z</time></trkpt><trkpt lat="43.370705" lon="11.800915"><ele>268.83333333333337</ele><time>2026-04-04T10:28:54.263Z</time></trkpt><trkpt lat="43.37074" lon="11.8008133"><ele>269.0</ele><time>2026-04-04T10:28:56.263Z</time></trkpt><trkpt lat="43.37077" lon="11.8007183"><ele>269.1666666666667</ele><time>2026-04-04T10:28:58.259Z</time></trkpt><trkpt lat="43.3708033" lon="11.8006133"><ele>269.33333333333337</ele><time>2026-04-04T10:29:00.262Z</time></trkpt><trkpt lat="43.3708383" lon="11.8005133"><ele>269.5</ele><time>2026-04-04T10:29:02.26Z</time></trkpt><trkpt lat="43.3708633" lon="11.8004183"><ele>269.6666666666667</ele><time>2026-04-04T10:29:04.256Z</time></trkpt><trkpt lat="43.370895" lon="11.800325"><ele>269.8333333333333</ele><time>2026-04-04T10:29:06.264Z</time></trkpt><trkpt lat="43.3709217" lon="11.800235"><ele>270.0</ele><time>2026-04-04T10:29:08.263Z</time></trkpt><trkpt lat="43.3709517" lon="11.8001433"><ele>270.1428571428571</ele><time>2026-04-04T10:29:10.259Z</time></trkpt><trkpt lat="43.3709767" lon="11.8000583"><ele>270.2857142857143</ele><time>2026-04-04T10:29:12.259Z</time></trkpt><trkpt lat="43.3709983" lon="11.7999683"><ele>270.42857142857144</ele><time>2026-04-04T10:29:14.26Z</time></trkpt><trkpt lat="43.3710267" lon="11.7998583"><ele>270.57142857142856</ele><time>2026-04-04T10:29:17.26Z</time></trkpt><trkpt lat="43.3710283" lon="11.7997383"><ele>270.7142857142857</ele><time>2026-04-04T10:29:20.261Z</time></trkpt><trkpt lat="43.3710283" lon="11.7996433"><ele>270.85714285714283</ele><time>2026-04-04T10:29:22.26Z</time></trkpt><trkpt lat="43.3710233" lon="11.7995467"><ele>271.0</ele><time>2026-04-04T10:29:24.261Z</time></trkpt><trkpt lat="43.3710133" lon="11.7994317"><ele>271.0</ele><time>2026-04-04T10:29:27.262Z</time></trkpt><trkpt lat="43.3709783" lon="11.7993217"><ele>271.0</ele><time>2026-04-04T10:29:30.265Z</time></trkpt><trkpt lat="43.3709583" lon="11.79922"><ele>271.0</ele><time>2026-04-04T10:29:32.26Z</time></trkpt><trkpt lat="43.3709317" lon="11.7991267"><ele>271.0</ele><time>2026-04-04T10:29:34.259Z</time></trkpt><trkpt lat="43.3709083" lon="11.7990367"><ele>271.0</ele><time>2026-04-04T10:29:36.26Z</time></trkpt><trkpt lat="43.3708767" lon="11.798945"><ele>271.0</ele><time>2026-04-04T10:29:38.261Z</time></trkpt><trkpt lat="43.37085" lon="11.79885"><ele>271.0</ele><time>2026-04-04T10:29:40.259Z</time></trkpt><trkpt lat="43.37083" lon="11.79872"><ele>271.0</ele><time>2026-04-04T10:29:42.26Z</time></trkpt><trkpt lat="43.3707867" lon="11.7986033"><ele>271.0</ele><time>2026-04-04T10:29:44.26Z</time></trkpt><trkpt lat="43.370745" lon="11.7984967"><ele>271.0</ele><time>2026-04-04T10:29:46.261Z</time></trkpt><trkpt lat="43.3707" lon="11.79841"><ele>271.0</ele><time>2026-04-04T10:29:48.26Z</time></trkpt><trkpt lat="43.370655" lon="11.7983133"><ele>271.0</ele><time>2026-04-04T10:29:50.26Z</time></trkpt><trkpt lat="43.3706067" lon="11.7982083"><ele>271.0</ele><time>2026-04-04T10:29:52.261Z</time></trkpt><trkpt lat="43.37055" lon="11.798105"><ele>271.0</ele><time>2026-04-04T10:29:54.26Z</time></trkpt><trkpt lat="43.3704783" lon="11.7980067"><ele>271.0</ele><time>2026-04-04T10:29:56.26Z</time></trkpt><trkpt lat="43.3703933" lon="11.7979217"><ele>271.0</ele><time>2026-04-04T10:29:58.258Z</time></trkpt><trkpt lat="43.3703117" lon="11.7978367"><ele>271.0</ele><time>2026-04-04T10:30:00.261Z</time></trkpt><trkpt lat="43.3702383" lon="11.7977517"><ele>271.0</ele><time>2026-04-04T10:30:02.26Z</time></trkpt><trkpt lat="43.3701567" lon="11.7976667"><ele>271.0</ele><time>2026-04-04T10:30:04.258Z</time></trkpt><trkpt lat="43.3700783" lon="11.7975833"><ele>271.0</ele><time>2026-04-04T10:30:06.262Z</time></trkpt><trkpt lat="43.3700033" lon="11.7975033"><ele>271.0</ele><time>2026-04-04T10:30:08.26Z</time></trkpt><trkpt lat="43.3699317" lon="11.7974267"><ele>271.0</ele><time>2026-04-04T10:30:10.262Z</time></trkpt><trkpt lat="43.3698717" lon="11.7973467"><ele>271.0</ele><time>2026-04-04T10:30:12.261Z</time></trkpt><trkpt lat="43.3698283" lon="11.797275"><ele>271.0</ele><time>2026-04-04T10:30:14.262Z</time></trkpt><trkpt lat="43.369785" lon="11.7972083"><ele>271.0</ele><time>2026-04-04T10:30:16.261Z</time></trkpt><trkpt lat="43.3697467" lon="11.7971333"><ele>271.0</ele><time>2026-04-04T10:30:18.26Z</time></trkpt><trkpt lat="43.36971" lon="11.7970183"><ele>271.0</ele><time>2026-04-04T10:30:21.261Z</time></trkpt><trkpt lat="43.369745" lon="11.796925"><ele>271.0</ele><time>2026-04-04T10:30:24.262Z</time></trkpt><trkpt lat="43.369825" lon="11.796885"><ele>271.0</ele><time>2026-04-04T10:30:27.262Z</time></trkpt><trkpt lat="43.3699083" lon="11.7968533"><ele>271.0</ele><time>2026-04-04T10:30:29.26Z</time></trkpt><trkpt lat="43.3700017" lon="11.796805"><ele>271.0</ele><time>2026-04-04T10:30:31.261Z</time></trkpt><trkpt lat="43.3700983" lon="11.7967517"><ele>271.0</ele><time>2026-04-04T10:30:33.26Z</time></trkpt><trkpt lat="43.3701967" lon="11.7966933"><ele>271.0</ele><time>2026-04-04T10:30:35.26Z</time></trkpt><trkpt lat="43.3702883" lon="11.7966467"><ele>270.6</ele><time>2026-04-04T10:30:37.26Z</time></trkpt><trkpt lat="43.3704117" lon="11.7966"><ele>270.20000000000005</ele><time>2026-04-04T10:30:39.259Z</time></trkpt><trkpt lat="43.3705283" lon="11.7965417"><ele>269.79999999999995</ele><time>2026-04-04T10:30:41.262Z</time></trkpt><trkpt lat="43.3705917" lon="11.7965083"><ele>269.4</ele><time>2026-04-04T10:30:42.262Z</time></trkpt><trkpt lat="43.370655" lon="11.796475"><ele>269.0</ele><time>2026-04-04T10:30:43.257Z</time></trkpt><trkpt lat="43.3707183" lon="11.796445"><ele>269.0</ele><time>2026-04-04T10:30:44.26Z</time></trkpt><trkpt lat="43.3707783" lon="11.7964183"><ele>269.0</ele><time>2026-04-04T10:30:45.261Z</time></trkpt><trkpt lat="43.3708417" lon="11.796395"><ele>269.0</ele><time>2026-04-04T10:30:46.256Z</time></trkpt><trkpt lat="43.3709033" lon="11.7963617"><ele>269.0</ele><time>2026-04-04T10:30:47.256Z</time></trkpt><trkpt lat="43.3709683" lon="11.79633"><ele>269.0</ele><time>2026-04-04T10:30:48.258Z</time></trkpt><trkpt lat="43.371035" lon="11.796295"><ele>269.0</ele><time>2026-04-04T10:30:49.257Z</time></trkpt><trkpt lat="43.3711033" lon="11.7962633"><ele>269.0</ele><time>2026-04-04T10:30:50.258Z</time></trkpt><trkpt lat="43.3711783" lon="11.7962283"><ele>269.0</ele><time>2026-04-04T10:30:51.26Z</time></trkpt><trkpt lat="43.3712583" lon="11.79619"><ele>269.0</ele><time>2026-04-04T10:30:52.259Z</time></trkpt><trkpt lat="43.3713367" lon="11.7961583"><ele>269.0</ele><time>2026-04-04T10:30:53.259Z</time></trkpt><trkpt lat="43.371505" lon="11.7960833"><ele>269.0</ele><time>2026-04-04T10:30:55.258Z</time></trkpt><trkpt lat="43.371585" lon="11.79605"><ele>269.0</ele><time>2026-04-04T10:30:56.258Z</time></trkpt><trkpt lat="43.37166" lon="11.796015"><ele>268.5</ele><time>2026-04-04T10:30:57.262Z</time></trkpt><trkpt lat="43.3717383" lon="11.7959783"><ele>268.0</ele><time>2026-04-04T10:30:58.26Z</time></trkpt><trkpt lat="43.3718133" lon="11.7959383"><ele>267.5</ele><time>2026-04-04T10:30:59.259Z</time></trkpt><trkpt lat="43.3718867" lon="11.7959017"><ele>267.0</ele><time>2026-04-04T10:31:00.26Z</time></trkpt><trkpt lat="43.3719483" lon="11.7958733"><ele>266.5</ele><time>2026-04-04T10:31:01.259Z</time></trkpt><trkpt lat="43.3720383" lon="11.79582"><ele>266.0</ele><time>2026-04-04T10:31:03.261Z</time></trkpt><trkpt lat="43.3721283" lon="11.79575"><ele>266.5</ele><time>2026-04-04T10:31:05.263Z</time></trkpt><trkpt lat="43.3722133" lon="11.795685"><ele>267.0</ele><time>2026-04-04T10:31:07.261Z</time></trkpt><trkpt lat="43.3722917" lon="11.7956283"><ele>267.5</ele><time>2026-04-04T10:31:09.261Z</time></trkpt><trkpt lat="43.3723667" lon="11.795585"><ele>268.0</ele><time>2026-04-04T10:31:11.26Z</time></trkpt><trkpt lat="43.37244" lon="11.7955467"><ele>268.5</ele><time>2026-04-04T10:31:13.259Z</time></trkpt><trkpt lat="43.3725117" lon="11.7954933"><ele>269.0</ele><time>2026-04-04T10:31:15.258Z</time></trkpt><trkpt lat="43.3725817" lon="11.795445"><ele>269.0</ele><time>2026-04-04T10:31:17.257Z</time></trkpt><trkpt lat="43.37265" lon="11.7954"><ele>269.0</ele><time>2026-04-04T10:31:19.259Z</time></trkpt><trkpt lat="43.3727167" lon="11.7953617"><ele>269.0</ele><time>2026-04-04T10:31:21.26Z</time></trkpt><trkpt lat="43.372785" lon="11.79532"><ele>269.0</ele><time>2026-04-04T10:31:23.261Z</time></trkpt><trkpt lat="43.372855" lon="11.7952717"><ele>269.0</ele><time>2026-04-04T10:31:25.26Z</time></trkpt><trkpt lat="43.3729233" lon="11.7952367"><ele>269.0</ele><time>2026-04-04T10:31:27.26Z</time></trkpt><trkpt lat="43.3729933" lon="11.79522"><ele>269.0</ele><time>2026-04-04T10:31:29.261Z</time></trkpt><trkpt lat="43.3730617" lon="11.7952117"><ele>269.1666666666667</ele><time>2026-04-04T10:31:31.261Z</time></trkpt><trkpt lat="43.37313" lon="11.79522"><ele>269.33333333333337</ele><time>2026-04-04T10:31:33.261Z</time></trkpt><trkpt lat="43.3731983" lon="11.7952333"><ele>269.5</ele><time>2026-04-04T10:31:35.26Z</time></trkpt><trkpt lat="43.3732783" lon="11.79523"><ele>269.6666666666667</ele><time>2026-04-04T10:31:37.259Z</time></trkpt><trkpt lat="43.37336" lon="11.7952117"><ele>269.8333333333333</ele><time>2026-04-04T10:31:39.262Z</time></trkpt><trkpt lat="43.3734517" lon="11.7951833"><ele>270.0</ele><time>2026-04-04T10:31:41.26Z</time></trkpt><trkpt lat="43.3735467" lon="11.7951417"><ele>270.2</ele><time>2026-04-04T10:31:43.259Z</time></trkpt><trkpt lat="43.3736417" lon="11.79508"><ele>270.4</ele><time>2026-04-04T10:31:45.26Z</time></trkpt><trkpt lat="43.373715" lon="11.7949883"><ele>270.6</ele><time>2026-04-04T10:31:47.261Z</time></trkpt><trkpt lat="43.37375" lon="11.7948583"><ele>270.8</ele><time>2026-04-04T10:31:49.261Z</time></trkpt><trkpt lat="43.373735" lon="11.794735"><ele>271.0</ele><time>2026-04-04T10:31:51.26Z</time></trkpt><trkpt lat="43.3737683" lon="11.7946217"><ele>271.0</ele><time>2026-04-04T10:31:53.259Z</time></trkpt><trkpt lat="43.3738083" lon="11.79454"><ele>271.0</ele><time>2026-04-04T10:31:55.26Z</time></trkpt><trkpt lat="43.3738783" lon="11.794465"><ele>271.0</ele><time>2026-04-04T10:31:57.259Z</time></trkpt><trkpt lat="43.3739383" lon="11.7943867"><ele>271.0</ele><time>2026-04-04T10:31:59.257Z</time></trkpt><trkpt lat="43.3739667" lon="11.7942783"><ele>271.0</ele><time>2026-04-04T10:32:01.26Z</time></trkpt><trkpt lat="43.3739533" lon="11.7941767"><ele>271.0</ele><time>2026-04-04T10:32:03.263Z</time></trkpt><trkpt lat="43.37392" lon="11.7940783"><ele>271.3333333333333</ele><time>2026-04-04T10:32:05.258Z</time></trkpt><trkpt lat="43.3738917" lon="11.7939867"><ele>271.66666666666663</ele><time>2026-04-04T10:32:07.26Z</time></trkpt><trkpt lat="43.3738683" lon="11.79388"><ele>272.0</ele><time>2026-04-04T10:32:09.261Z</time></trkpt><trkpt lat="43.37387" lon="11.7937783"><ele>272.3333333333333</ele><time>2026-04-04T10:32:11.26Z</time></trkpt><trkpt lat="43.3738933" lon="11.79368"><ele>272.6666666666667</ele><time>2026-04-04T10:32:13.259Z</time></trkpt><trkpt lat="43.3739233" lon="11.7935783"><ele>273.0</ele><time>2026-04-04T10:32:15.26Z</time></trkpt><trkpt lat="43.3739733" lon="11.7934733"><ele>273.14285714285717</ele><time>2026-04-04T10:32:17.261Z</time></trkpt><trkpt lat="43.3740083" lon="11.79337"><ele>273.2857142857143</ele><time>2026-04-04T10:32:19.262Z</time></trkpt><trkpt lat="43.3740333" lon="11.79327"><ele>273.42857142857144</ele><time>2026-04-04T10:32:21.263Z</time></trkpt><trkpt lat="43.37406" lon="11.793175"><ele>273.57142857142856</ele><time>2026-04-04T10:32:23.263Z</time></trkpt><trkpt lat="43.37408" lon="11.793085"><ele>273.7142857142857</ele><time>2026-04-04T10:32:25.261Z</time></trkpt><trkpt lat="43.3740983" lon="11.7929883"><ele>273.8571428571429</ele><time>2026-04-04T10:32:27.261Z</time></trkpt><trkpt lat="43.3741183" lon="11.7928983"><ele>274.0</ele><time>2026-04-04T10:32:29.259Z</time></trkpt><trkpt lat="43.37414" lon="11.7927633"><ele>274.0</ele><time>2026-04-04T10:32:32.259Z</time></trkpt><trkpt lat="43.3741583" lon="11.79266"><ele>274.0</ele><time>2026-04-04T10:32:34.257Z</time></trkpt><trkpt lat="43.3741767" lon="11.7925417"><ele>274.0</ele><time>2026-04-04T10:32:36.26Z</time></trkpt><trkpt lat="43.3742083" lon="11.792425"><ele>274.0</ele><time>2026-04-04T10:32:38.259Z</time></trkpt><trkpt lat="43.374255" lon="11.7923017"><ele>274.0</ele><time>2026-04-04T10:32:40.258Z</time></trkpt><trkpt lat="43.3742983" lon="11.79219"><ele>274.0</ele><time>2026-04-04T10:32:42.259Z</time></trkpt><trkpt lat="43.37436" lon="11.7920917"><ele>274.0</ele><time>2026-04-04T10:32:44.262Z</time></trkpt><trkpt lat="43.37444" lon="11.79198"><ele>274.0</ele><time>2026-04-04T10:32:46.258Z</time></trkpt><trkpt lat="43.3744983" lon="11.791865"><ele>274.0</ele><time>2026-04-04T10:32:48.259Z</time></trkpt><trkpt lat="43.3745667" lon="11.7917433"><ele>274.0</ele><time>2026-04-04T10:32:50.26Z</time></trkpt><trkpt lat="43.3746417" lon="11.7916233"><ele>274.0</ele><time>2026-04-04T10:32:52.259Z</time></trkpt><trkpt lat="43.37472" lon="11.7914983"><ele>273.66666666666663</ele><time>2026-04-04T10:32:54.26Z</time></trkpt><trkpt lat="43.374795" lon="11.79136"><ele>273.3333333333333</ele><time>2026-04-04T10:32:56.259Z</time></trkpt><trkpt lat="43.3748367" lon="11.7912833"><ele>273.0</ele><time>2026-04-04T10:32:57.258Z</time></trkpt><trkpt lat="43.374875" lon="11.79121"><ele>272.6666666666667</ele><time>2026-04-04T10:32:58.256Z</time></trkpt><trkpt lat="43.3749133" lon="11.7911367"><ele>272.33333333333337</ele><time>2026-04-04T10:32:59.26Z</time></trkpt><trkpt lat="43.3749517" lon="11.7910617"><ele>272.0</ele><time>2026-04-04T10:33:00.258Z</time></trkpt><trkpt lat="43.3750217" lon="11.7909317"><ele>271.5</ele><time>2026-04-04T10:33:02.259Z</time></trkpt><trkpt lat="43.3751033" lon="11.7908083"><ele>271.0</ele><time>2026-04-04T10:33:04.259Z</time></trkpt><trkpt lat="43.375175" lon="11.79068"><ele>270.5</ele><time>2026-04-04T10:33:06.257Z</time></trkpt><trkpt lat="43.37525" lon="11.7905483"><ele>270.0</ele><time>2026-04-04T10:33:08.26Z</time></trkpt><trkpt lat="43.37532" lon="11.790415"><ele>270.0</ele><time>2026-04-04T10:33:10.258Z</time></trkpt><trkpt lat="43.3753833" lon="11.7902767"><ele>270.0</ele><time>2026-04-04T10:33:12.26Z</time></trkpt><trkpt lat="43.3754383" lon="11.790135"><ele>270.0</ele><time>2026-04-04T10:33:14.263Z</time></trkpt><trkpt lat="43.375485" lon="11.789985"><ele>270.0</ele><time>2026-04-04T10:33:16.257Z</time></trkpt><trkpt lat="43.3755217" lon="11.789835"><ele>270.0</ele><time>2026-04-04T10:33:18.257Z</time></trkpt><trkpt lat="43.3755367" lon="11.789695"><ele>270.0</ele><time>2026-04-04T10:33:20.259Z</time></trkpt><trkpt lat="43.3755433" lon="11.7895633"><ele>270.0</ele><time>2026-04-04T10:33:22.257Z</time></trkpt><trkpt lat="43.3755517" lon="11.7894567"><ele>270.0</ele><time>2026-04-04T10:33:24.259Z</time></trkpt><trkpt lat="43.3755617" lon="11.7893617"><ele>270.0</ele><time>2026-04-04T10:33:26.258Z</time></trkpt><trkpt lat="43.37556" lon="11.789275"><ele>270.0</ele><time>2026-04-04T10:33:28.259Z</time></trkpt><trkpt lat="43.3755583" lon="11.7891767"><ele>270.0</ele><time>2026-04-04T10:33:30.258Z</time></trkpt><trkpt lat="43.37556" lon="11.7890833"><ele>270.0</ele><time>2026-04-04T10:33:32.26Z</time></trkpt><trkpt lat="43.3755617" lon="11.788985"><ele>270.0</ele><time>2026-04-04T10:33:34.261Z</time></trkpt><trkpt lat="43.3755683" lon="11.7888883"><ele>270.0</ele><time>2026-04-04T10:33:36.258Z</time></trkpt><trkpt lat="43.3755683" lon="11.788795"><ele>270.0</ele><time>2026-04-04T10:33:38.258Z</time></trkpt><trkpt lat="43.3755667" lon="11.7887067"><ele>270.0</ele><time>2026-04-04T10:33:40.259Z</time></trkpt><trkpt lat="43.37556" lon="11.7886133"><ele>270.0</ele><time>2026-04-04T10:33:42.261Z</time></trkpt><trkpt lat="43.37556" lon="11.7885233"><ele>270.2857142857143</ele><time>2026-04-04T10:33:44.259Z</time></trkpt><trkpt lat="43.3755467" lon="11.788435"><ele>270.57142857142856</ele><time>2026-04-04T10:33:46.258Z</time></trkpt><trkpt lat="43.375535" lon="11.7883083"><ele>270.85714285714283</ele><time>2026-04-04T10:33:49.257Z</time></trkpt><trkpt lat="43.375525" lon="11.7882183"><ele>271.1428571428571</ele><time>2026-04-04T10:33:51.26Z</time></trkpt><trkpt lat="43.3755167" lon="11.7881317"><ele>271.42857142857144</ele><time>2026-04-04T10:33:53.26Z</time></trkpt><trkpt lat="43.3755067" lon="11.7880117"><ele>271.71428571428567</ele><time>2026-04-04T10:33:56.259Z</time></trkpt><trkpt lat="43.37548" lon="11.7879283"><ele>272.0</ele><time>2026-04-04T10:33:58.257Z</time></trkpt><trkpt lat="43.3754683" lon="11.7878383"><ele>272.0</ele><time>2026-04-04T10:34:00.259Z</time></trkpt><trkpt lat="43.37547" lon="11.7877517"><ele>272.0</ele><time>2026-04-04T10:34:02.261Z</time></trkpt><trkpt lat="43.3754633" lon="11.7876283"><ele>272.0</ele><time>2026-04-04T10:34:05.259Z</time></trkpt><trkpt lat="43.3755483" lon="11.7876233"><ele>272.0</ele><time>2026-04-04T10:34:33.26Z</time></trkpt><trkpt lat="43.3756117" lon="11.7876667"><ele>272.0</ele><time>2026-04-04T10:34:37.263Z</time></trkpt><trkpt lat="43.3756783" lon="11.7877017"><ele>272.0</ele><time>2026-04-04T10:34:40.257Z</time></trkpt><trkpt lat="43.3757517" lon="11.7877217"><ele>272.0</ele><time>2026-04-04T10:34:44.262Z</time></trkpt><trkpt lat="43.3758233" lon="11.7877183"><ele>272.0</ele><time>2026-04-04T10:34:47.257Z</time></trkpt><trkpt lat="43.3758883" lon="11.7877317"><ele>272.0</ele><time>2026-04-04T10:34:50.259Z</time></trkpt><trkpt lat="43.3759583" lon="11.78778"><ele>272.0</ele><time>2026-04-04T10:34:53.258Z</time></trkpt><trkpt lat="43.376005" lon="11.787865"><ele>272.0</ele><time>2026-04-04T10:34:56.261Z</time></trkpt><trkpt lat="43.375955" lon="11.7879217"><ele>272.0</ele><time>2026-04-04T10:35:01.257Z</time></trkpt></trkseg></trk></gpx>